<?xml version="1.0" encoding="UTF-8" standalone="no" ?>
<gpx xmlns="http://www.topografix.com/GPX/1/1" xmlns:xsi="http://www.w3.org/2001/XMLSchema-instance" xsi:schemaLocation="http://www.topografix.com/GPX/1/1 http://www.topografix.com/GPX/1/1/gpx.xsd" version="1.1" creator="VisuGPX - https://www.visugpx.com">
  <metadata>
    <name>Tréminis Chichilianne MAJ</name>
  </metadata>
  <trk>
    <name><![CDATA[4Chemins -Chatillon-en-Diois]]></name>
    <trkseg>
      <trkpt lat="44.8097" lon="5.57731">
        <ele>1001</ele>
        <time>2009-01-29T14:36:51Z</time>
      </trkpt>
      <trkpt lat="44.80872" lon="5.57668">
        <ele>1014</ele>
        <time>2009-01-29T14:36:51Z</time>
      </trkpt>
      <trkpt lat="44.80824" lon="5.57625">
        <ele>1023</ele>
        <time>2009-01-29T14:36:51Z</time>
      </trkpt>
      <trkpt lat="44.80779" lon="5.57571">
        <ele>1030</ele>
        <time>2009-01-29T14:36:51Z</time>
      </trkpt>
      <trkpt lat="44.80731" lon="5.57502">
        <ele>1036</ele>
        <time>2009-01-29T14:36:51Z</time>
      </trkpt>
      <trkpt lat="44.80679" lon="5.57449">
        <ele>1044</ele>
        <time>2009-01-29T14:36:51Z</time>
      </trkpt>
      <trkpt lat="44.80646" lon="5.57409">
        <ele>1051</ele>
        <time>2009-01-29T14:36:51Z</time>
      </trkpt>
      <trkpt lat="44.80552" lon="5.57245">
        <ele>1070</ele>
        <time>2009-01-29T14:36:51Z</time>
      </trkpt>
      <trkpt lat="44.80532" lon="5.57247">
        <ele>1073</ele>
        <time>2009-01-29T14:36:51Z</time>
      </trkpt>
      <trkpt lat="44.80463" lon="5.57265">
        <ele>1079</ele>
        <time>2009-01-29T14:36:51Z</time>
      </trkpt>
      <trkpt lat="44.804" lon="5.5729">
        <ele>1083</ele>
        <time>2009-01-29T14:36:51Z</time>
      </trkpt>
      <trkpt lat="44.80318" lon="5.5732">
        <ele>1087</ele>
        <time>2009-01-29T14:36:51Z</time>
      </trkpt>
      <trkpt lat="44.80245" lon="5.57335">
        <ele>1090</ele>
        <time>2009-01-29T14:36:51Z</time>
      </trkpt>
      <trkpt lat="44.80106" lon="5.57343">
        <ele>1100</ele>
        <time>2009-01-29T14:36:51Z</time>
      </trkpt>
      <trkpt lat="44.80049" lon="5.57365">
        <ele>1104</ele>
        <time>2009-01-29T14:36:51Z</time>
      </trkpt>
      <trkpt lat="44.79985" lon="5.57393">
        <ele>1107</ele>
        <time>2009-01-29T14:36:51Z</time>
      </trkpt>
      <trkpt lat="44.79934" lon="5.57377">
        <ele>1117</ele>
        <time>2009-01-29T14:36:51Z</time>
      </trkpt>
      <trkpt lat="44.79921" lon="5.57357">
        <ele>1124</ele>
        <time>2009-01-29T14:36:51Z</time>
      </trkpt>
      <trkpt lat="44.79852" lon="5.57183">
        <ele>1158</ele>
        <time>2009-01-29T14:36:51Z</time>
      </trkpt>
      <trkpt lat="44.79814" lon="5.57152">
        <ele>1171</ele>
        <time>2009-01-29T14:36:51Z</time>
      </trkpt>
      <trkpt lat="44.79827" lon="5.57093">
        <ele>1183</ele>
        <time>2009-01-29T14:36:51Z</time>
      </trkpt>
      <trkpt lat="44.79801" lon="5.57075">
        <ele>1191</ele>
        <time>2009-01-29T14:36:51Z</time>
      </trkpt>
      <trkpt lat="44.79813" lon="5.57048">
        <ele>1195</ele>
        <time>2009-01-29T14:36:51Z</time>
      </trkpt>
      <trkpt lat="44.79788" lon="5.57034">
        <ele>1202</ele>
        <time>2009-01-29T14:36:51Z</time>
      </trkpt>
      <trkpt lat="44.7979" lon="5.56967">
        <ele>1211</ele>
        <time>2009-01-29T14:36:51Z</time>
      </trkpt>
      <trkpt lat="44.79757" lon="5.5688">
        <ele>1226</ele>
        <time>2009-01-29T14:36:51Z</time>
      </trkpt>
      <trkpt lat="44.79752" lon="5.5682">
        <ele>1231</ele>
        <time>2009-01-29T14:36:51Z</time>
      </trkpt>
      <trkpt lat="44.7973" lon="5.56784">
        <ele>1238</ele>
        <time>2009-01-29T14:36:51Z</time>
      </trkpt>
      <trkpt lat="44.79697" lon="5.56779">
        <ele>1244</ele>
        <time>2009-01-29T14:36:51Z</time>
      </trkpt>
      <trkpt lat="44.79659" lon="5.56761">
        <ele>1247</ele>
        <time>2009-01-29T14:36:51Z</time>
      </trkpt>
      <trkpt lat="44.79606" lon="5.56742">
        <ele>1253</ele>
        <time>2009-01-29T14:36:51Z</time>
      </trkpt>
      <trkpt lat="44.79565" lon="5.56755">
        <ele>1255</ele>
        <time>2009-01-29T14:36:51Z</time>
      </trkpt>
      <trkpt lat="44.79535" lon="5.56757">
        <ele>1261</ele>
        <time>2009-01-29T14:36:51Z</time>
      </trkpt>
      <trkpt lat="44.79532" lon="5.56734">
        <ele>1268</ele>
        <time>2009-01-29T14:36:51Z</time>
      </trkpt>
      <trkpt lat="44.79538" lon="5.56678">
        <ele>1284</ele>
        <time>2009-01-29T14:36:51Z</time>
      </trkpt>
      <trkpt lat="44.79549" lon="5.56609">
        <ele>1302</ele>
        <time>2009-01-29T14:36:51Z</time>
      </trkpt>
      <trkpt lat="44.79553" lon="5.56375">
        <ele>1373</ele>
        <time>2009-01-29T14:36:51Z</time>
      </trkpt>
      <trkpt lat="44.7962" lon="5.56329">
        <ele>1371</ele>
        <time>2009-01-29T14:36:51Z</time>
      </trkpt>
      <trkpt lat="44.79533" lon="5.56289">
        <ele>1408</ele>
        <time>2009-01-29T14:36:51Z</time>
      </trkpt>
      <trkpt lat="44.79518" lon="5.56259">
        <ele>1422</ele>
        <time>2009-01-29T14:36:51Z</time>
      </trkpt>
      <trkpt lat="44.79538" lon="5.56267">
        <ele>1418</ele>
        <time>2009-01-29T14:36:51Z</time>
      </trkpt>
      <trkpt lat="44.79508" lon="5.56234">
        <ele>1437</ele>
        <time>2009-01-29T14:36:51Z</time>
      </trkpt>
      <trkpt lat="44.79551" lon="5.56233">
        <ele>1437</ele>
        <time>2009-01-29T14:36:51Z</time>
      </trkpt>
      <trkpt lat="44.79477" lon="5.56127">
        <ele>1490</ele>
        <time>2009-01-29T14:36:51Z</time>
      </trkpt>
      <trkpt lat="44.79452" lon="5.56151">
        <ele>1477</ele>
        <time>2009-01-29T14:36:51Z</time>
      </trkpt>
      <trkpt lat="44.79459" lon="5.56063">
        <ele>1525</ele>
        <time>2009-01-29T14:36:51Z</time>
      </trkpt>
      <trkpt lat="44.79432" lon="5.56059">
        <ele>1531</ele>
        <time>2009-01-29T14:36:51Z</time>
      </trkpt>
      <trkpt lat="44.79444" lon="5.56018">
        <ele>1551</ele>
        <time>2009-01-29T14:36:51Z</time>
      </trkpt>
      <trkpt lat="44.79435" lon="5.55989">
        <ele>1565</ele>
        <time>2009-01-29T14:36:51Z</time>
      </trkpt>
      <trkpt lat="44.79443" lon="5.55964">
        <ele>1578</ele>
        <time>2009-01-29T14:36:51Z</time>
      </trkpt>
      <trkpt lat="44.79425" lon="5.55965">
        <ele>1575</ele>
        <time>2009-01-29T14:36:51Z</time>
      </trkpt>
      <trkpt lat="44.79421" lon="5.55939">
        <ele>1587</ele>
        <time>2009-01-29T14:36:51Z</time>
      </trkpt>
      <trkpt lat="44.794" lon="5.55937">
        <ele>1593</ele>
        <time>2009-01-29T14:36:51Z</time>
      </trkpt>
      <trkpt lat="44.79393" lon="5.55922">
        <ele>1600</ele>
        <time>2009-01-29T14:36:51Z</time>
      </trkpt>
      <trkpt lat="44.79353" lon="5.55923">
        <ele>1609</ele>
        <time>2009-01-29T14:36:51Z</time>
      </trkpt>
      <trkpt lat="44.79342" lon="5.5593">
        <ele>1609</ele>
        <time>2009-01-29T14:36:51Z</time>
      </trkpt>
      <trkpt lat="44.79332" lon="5.5591">
        <ele>1616</ele>
        <time>2009-01-29T14:36:51Z</time>
      </trkpt>
      <trkpt lat="44.79337" lon="5.5589">
        <ele>1621</ele>
        <time>2009-01-29T14:36:51Z</time>
      </trkpt>
      <trkpt lat="44.79294" lon="5.5588">
        <ele>1634</ele>
        <time>2009-01-29T14:36:51Z</time>
      </trkpt>
      <trkpt lat="44.7927" lon="5.55896">
        <ele>1636</ele>
        <time>2009-01-29T14:36:51Z</time>
      </trkpt>
      <trkpt lat="44.79276" lon="5.55858">
        <ele>1646</ele>
        <time>2009-01-29T14:36:51Z</time>
      </trkpt>
      <trkpt lat="44.79237" lon="5.55799">
        <ele>1670</ele>
        <time>2009-01-29T14:36:51Z</time>
      </trkpt>
      <trkpt lat="44.79213" lon="5.5578">
        <ele>1672</ele>
        <time>2009-01-29T14:36:51Z</time>
      </trkpt>
      <trkpt lat="44.79027" lon="5.55834">
        <ele>1668</ele>
        <time>2009-01-29T14:36:51Z</time>
      </trkpt>
      <trkpt lat="44.78993" lon="5.55798">
        <ele>1668</ele>
        <time>2009-01-29T14:36:51Z</time>
      </trkpt>
      <trkpt lat="44.78951" lon="5.55772">
        <ele>1667</ele>
        <time>2009-01-29T14:36:51Z</time>
      </trkpt>
      <trkpt lat="44.78875" lon="5.55782">
        <ele>1661</ele>
        <time>2009-01-29T14:36:51Z</time>
      </trkpt>
      <trkpt lat="44.7885" lon="5.55766">
        <ele>1660</ele>
        <time>2009-01-29T14:36:51Z</time>
      </trkpt>
      <trkpt lat="44.78828" lon="5.55758">
        <ele>1658</ele>
        <time>2009-01-29T14:36:51Z</time>
      </trkpt>
      <trkpt lat="44.7878" lon="5.55798">
        <ele>1654</ele>
        <time>2009-01-29T14:36:51Z</time>
      </trkpt>
      <trkpt lat="44.78756" lon="5.55808">
        <ele>1651</ele>
        <time>2009-01-29T14:36:51Z</time>
      </trkpt>
      <trkpt lat="44.7869" lon="5.55832">
        <ele>1646</ele>
        <time>2009-01-29T14:36:51Z</time>
      </trkpt>
      <trkpt lat="44.78647" lon="5.55884">
        <ele>1643</ele>
        <time>2009-01-29T14:36:51Z</time>
      </trkpt>
      <trkpt lat="44.78617" lon="5.55918">
        <ele>1640</ele>
        <time>2009-01-29T14:36:51Z</time>
      </trkpt>
      <trkpt lat="44.78552" lon="5.55973">
        <ele>1634</ele>
        <time>2009-01-29T14:36:51Z</time>
      </trkpt>
      <trkpt lat="44.78524" lon="5.56066">
        <ele>1628</ele>
        <time>2009-01-29T14:36:51Z</time>
      </trkpt>
      <trkpt lat="44.78505" lon="5.56097">
        <ele>1625</ele>
        <time>2009-01-29T14:36:51Z</time>
      </trkpt>
      <trkpt lat="44.78483" lon="5.56137">
        <ele>1624</ele>
        <time>2009-01-29T14:36:51Z</time>
      </trkpt>
      <trkpt lat="44.78447" lon="5.56174">
        <ele>1622</ele>
        <time>2009-01-29T14:36:51Z</time>
      </trkpt>
      <trkpt lat="44.78416" lon="5.5622">
        <ele>1622</ele>
        <time>2009-01-29T14:36:51Z</time>
      </trkpt>
      <trkpt lat="44.78384" lon="5.56257">
        <ele>1621</ele>
        <time>2009-01-29T14:36:51Z</time>
      </trkpt>
      <trkpt lat="44.78347" lon="5.56263">
        <ele>1616</ele>
        <time>2009-01-29T14:36:51Z</time>
      </trkpt>
      <trkpt lat="44.78317" lon="5.56245">
        <ele>1612</ele>
        <time>2009-01-29T14:36:51Z</time>
      </trkpt>
      <trkpt lat="44.78283" lon="5.56226">
        <ele>1609</ele>
        <time>2009-01-29T14:36:51Z</time>
      </trkpt>
      <trkpt lat="44.78254" lon="5.56201">
        <ele>1607</ele>
        <time>2009-01-29T14:36:51Z</time>
      </trkpt>
      <trkpt lat="44.78249" lon="5.5618">
        <ele>1608</ele>
        <time>2009-01-29T14:36:51Z</time>
      </trkpt>
      <trkpt lat="44.78267" lon="5.56149">
        <ele>1611</ele>
        <time>2009-01-29T14:36:51Z</time>
      </trkpt>
      <trkpt lat="44.78235" lon="5.56125">
        <ele>1611</ele>
        <time>2009-01-29T14:36:51Z</time>
      </trkpt>
      <trkpt lat="44.7825" lon="5.5609">
        <ele>1614</ele>
        <time>2009-01-29T14:36:51Z</time>
      </trkpt>
      <trkpt lat="44.78272" lon="5.56063">
        <ele>1618</ele>
        <time>2009-01-29T14:36:51Z</time>
      </trkpt>
      <trkpt lat="44.78287" lon="5.55999">
        <ele>1624</ele>
        <time>2009-01-29T14:36:51Z</time>
      </trkpt>
      <trkpt lat="44.78291" lon="5.55955">
        <ele>1629</ele>
        <time>2009-01-29T14:36:51Z</time>
      </trkpt>
      <trkpt lat="44.78376" lon="5.55852">
        <ele>1649</ele>
        <time>2009-01-29T14:36:51Z</time>
      </trkpt>
      <trkpt lat="44.78408" lon="5.55807">
        <ele>1656</ele>
        <time>2009-01-29T14:36:51Z</time>
      </trkpt>
      <trkpt lat="44.78433" lon="5.55736">
        <ele>1663</ele>
        <time>2009-01-29T14:36:51Z</time>
      </trkpt>
      <trkpt lat="44.78461" lon="5.55663">
        <ele>1667</ele>
        <time>2009-01-29T14:36:51Z</time>
      </trkpt>
      <trkpt lat="44.78505" lon="5.5562">
        <ele>1669</ele>
        <time>2009-01-29T14:36:51Z</time>
      </trkpt>
      <trkpt lat="44.78563" lon="5.55572">
        <ele>1667</ele>
        <time>2009-01-29T14:36:51Z</time>
      </trkpt>
      <trkpt lat="44.78578" lon="5.55551">
        <ele>1668</ele>
        <time>2009-01-29T14:36:51Z</time>
      </trkpt>
      <trkpt lat="44.78621" lon="5.55547">
        <ele>1661</ele>
        <time>2009-01-29T14:36:51Z</time>
      </trkpt>
      <trkpt lat="44.78647" lon="5.55516">
        <ele>1661</ele>
        <time>2009-01-29T14:36:51Z</time>
      </trkpt>
      <trkpt lat="44.78653" lon="5.55413">
        <ele>1684</ele>
        <time>2009-01-29T14:36:51Z</time>
      </trkpt>
      <trkpt lat="44.78634" lon="5.55349">
        <ele>1703</ele>
        <time>2009-01-29T14:36:51Z</time>
      </trkpt>
      <trkpt lat="44.78628" lon="5.55222">
        <ele>1726</ele>
        <time>2009-01-29T14:36:51Z</time>
      </trkpt>
      <trkpt lat="44.7865" lon="5.55099">
        <ele>1738</ele>
        <time>2009-01-29T14:36:51Z</time>
      </trkpt>
      <trkpt lat="44.78672" lon="5.55">
        <ele>1754</ele>
        <time>2009-01-29T14:36:51Z</time>
      </trkpt>
      <trkpt lat="44.78704" lon="5.54953">
        <ele>1761</ele>
        <time>2009-01-29T14:36:51Z</time>
      </trkpt>
      <trkpt lat="44.78722" lon="5.54905">
        <ele>1767</ele>
        <time>2009-01-29T14:36:51Z</time>
      </trkpt>
      <trkpt lat="44.78739" lon="5.54833">
        <ele>1772</ele>
        <time>2009-01-29T14:36:51Z</time>
      </trkpt>
      <trkpt lat="44.78742" lon="5.54759">
        <ele>1778</ele>
        <time>2009-01-29T14:36:51Z</time>
      </trkpt>
      <trkpt lat="44.7874" lon="5.54707">
        <ele>1780</ele>
        <time>2009-01-29T14:36:51Z</time>
      </trkpt>
      <trkpt lat="44.78718" lon="5.54589">
        <ele>1784</ele>
        <time>2009-01-29T14:36:51Z</time>
      </trkpt>
      <trkpt lat="44.78687" lon="5.54478">
        <ele>1790</ele>
        <time>2009-01-29T14:36:51Z</time>
      </trkpt>
      <trkpt lat="44.78657" lon="5.54402">
        <ele>1799</ele>
        <time>2009-01-29T14:36:51Z</time>
      </trkpt>
      <trkpt lat="44.78634" lon="5.54355">
        <ele>1808</ele>
        <time>2009-01-29T14:36:51Z</time>
      </trkpt>
      <trkpt lat="44.78621" lon="5.54297">
        <ele>1811</ele>
        <time>2009-01-29T14:36:51Z</time>
      </trkpt>
      <trkpt lat="44.78618" lon="5.54245">
        <ele>1811</ele>
        <time>2009-01-29T14:36:51Z</time>
      </trkpt>
      <trkpt lat="44.78526" lon="5.54088">
        <ele>1818</ele>
        <time>2009-01-29T14:36:51Z</time>
      </trkpt>
      <trkpt lat="44.78478" lon="5.53976">
        <ele>1819</ele>
        <time>2009-01-29T14:36:51Z</time>
      </trkpt>
      <trkpt lat="44.78382" lon="5.5378">
        <ele>1829</ele>
        <time>2009-01-29T14:36:51Z</time>
      </trkpt>
      <trkpt lat="44.78275" lon="5.53511">
        <ele>1851</ele>
        <time>2009-01-29T14:36:51Z</time>
      </trkpt>
      <trkpt lat="44.78208" lon="5.53176">
        <ele>1867</ele>
        <time>2009-01-29T14:36:51Z</time>
      </trkpt>
      <trkpt lat="44.78149" lon="5.52913">
        <ele>1849</ele>
        <time>2009-01-29T14:36:51Z</time>
      </trkpt>
      <trkpt lat="44.78112" lon="5.52778">
        <ele>1843</ele>
        <time>2009-01-29T14:36:51Z</time>
      </trkpt>
      <trkpt lat="44.78093" lon="5.52743">
        <ele>1841</ele>
        <time>2009-01-29T14:36:51Z</time>
      </trkpt>
      <trkpt lat="44.78083" lon="5.52701">
        <ele>1841</ele>
        <time>2009-01-29T14:36:51Z</time>
      </trkpt>
      <trkpt lat="44.78023" lon="5.52577">
        <ele>1838</ele>
        <time>2009-01-29T14:36:51Z</time>
      </trkpt>
      <trkpt lat="44.77901" lon="5.52536">
        <ele>1821</ele>
        <time>2009-01-29T14:36:51Z</time>
      </trkpt>
      <trkpt lat="44.77845" lon="5.5252">
        <ele>1814</ele>
        <time>2009-01-29T14:36:51Z</time>
      </trkpt>
      <trkpt lat="44.77782" lon="5.52447">
        <ele>1808</ele>
        <time>2009-01-29T14:36:51Z</time>
      </trkpt>
      <trkpt lat="44.7775" lon="5.52297">
        <ele>1804</ele>
        <time>2009-01-29T14:36:51Z</time>
      </trkpt>
      <trkpt lat="44.77712" lon="5.522">
        <ele>1805</ele>
        <time>2009-01-29T14:36:51Z</time>
      </trkpt>
      <trkpt lat="44.77662" lon="5.5207">
        <ele>1800</ele>
        <time>2009-01-29T14:36:51Z</time>
      </trkpt>
      <trkpt lat="44.77601" lon="5.51937">
        <ele>1778</ele>
        <time>2009-01-29T14:36:51Z</time>
      </trkpt>
      <trkpt lat="44.77548" lon="5.51874">
        <ele>1761</ele>
        <time>2009-01-29T14:36:51Z</time>
      </trkpt>
      <trkpt lat="44.7749" lon="5.51789">
        <ele>1748</ele>
        <time>2009-01-29T14:36:51Z</time>
      </trkpt>
      <trkpt lat="44.7747" lon="5.5186">
        <ele>1747</ele>
        <time>2009-01-29T14:36:51Z</time>
      </trkpt>
      <trkpt lat="44.77431" lon="5.51969">
        <ele>1749</ele>
        <time>2009-01-29T14:36:51Z</time>
      </trkpt>
      <trkpt lat="44.77418" lon="5.52031">
        <ele>1751</ele>
        <time>2009-01-29T14:36:51Z</time>
      </trkpt>
      <trkpt lat="44.77397" lon="5.52043">
        <ele>1755</ele>
        <time>2009-01-29T14:36:51Z</time>
      </trkpt>
      <trkpt lat="44.77369" lon="5.52082">
        <ele>1760</ele>
        <time>2009-01-29T14:36:51Z</time>
      </trkpt>
      <trkpt lat="44.77309" lon="5.52145">
        <ele>1766</ele>
        <time>2009-01-29T14:36:51Z</time>
      </trkpt>
      <trkpt lat="44.77266" lon="5.52146">
        <ele>1769</ele>
        <time>2009-01-29T14:36:51Z</time>
      </trkpt>
      <trkpt lat="44.77166" lon="5.52273">
        <ele>1781</ele>
        <time>2009-01-29T14:36:51Z</time>
      </trkpt>
      <trkpt lat="44.77109" lon="5.52301">
        <ele>1785</ele>
        <time>2009-01-29T14:36:51Z</time>
      </trkpt>
      <trkpt lat="44.7702" lon="5.52318">
        <ele>1780</ele>
        <time>2009-01-29T14:36:51Z</time>
      </trkpt>
      <trkpt lat="44.76931" lon="5.52354">
        <ele>1761</ele>
        <time>2009-01-29T14:36:51Z</time>
      </trkpt>
      <trkpt lat="44.76824" lon="5.52506">
        <ele>1745</ele>
        <time>2009-01-29T14:36:51Z</time>
      </trkpt>
      <trkpt lat="44.76732" lon="5.52551">
        <ele>1741</ele>
        <time>2009-01-29T14:36:51Z</time>
      </trkpt>
      <trkpt lat="44.76696" lon="5.52565">
        <ele>1740</ele>
        <time>2009-01-29T14:36:51Z</time>
      </trkpt>
      <trkpt lat="44.7662" lon="5.52532">
        <ele>1735</ele>
        <time>2009-01-29T14:36:51Z</time>
      </trkpt>
      <trkpt lat="44.76511" lon="5.52513">
        <ele>1724</ele>
        <time>2009-01-29T14:36:51Z</time>
      </trkpt>
      <trkpt lat="44.76472" lon="5.52521">
        <ele>1720</ele>
        <time>2009-01-29T14:36:51Z</time>
      </trkpt>
      <trkpt lat="44.76433" lon="5.52481">
        <ele>1714</ele>
        <time>2009-01-29T14:36:51Z</time>
      </trkpt>
      <trkpt lat="44.76368" lon="5.52401">
        <ele>1710</ele>
        <time>2009-01-29T14:36:51Z</time>
      </trkpt>
      <trkpt lat="44.76344" lon="5.52359">
        <ele>1710</ele>
        <time>2009-01-29T14:36:51Z</time>
      </trkpt>
      <trkpt lat="44.76301" lon="5.52378">
        <ele>1706</ele>
        <time>2009-01-29T14:36:51Z</time>
      </trkpt>
      <trkpt lat="44.76257" lon="5.52407">
        <ele>1702</ele>
        <time>2009-01-29T14:36:51Z</time>
      </trkpt>
      <trkpt lat="44.76184" lon="5.52444">
        <ele>1696</ele>
        <time>2009-01-29T14:36:51Z</time>
      </trkpt>
      <trkpt lat="44.76124" lon="5.52419">
        <ele>1693</ele>
        <time>2009-01-29T14:36:51Z</time>
      </trkpt>
      <trkpt lat="44.7608" lon="5.52366">
        <ele>1693</ele>
        <time>2009-01-29T14:36:51Z</time>
      </trkpt>
      <trkpt lat="44.76026" lon="5.52378">
        <ele>1689</ele>
        <time>2009-01-29T14:36:51Z</time>
      </trkpt>
      <trkpt lat="44.75974" lon="5.52375">
        <ele>1685</ele>
        <time>2009-01-29T14:36:51Z</time>
      </trkpt>
      <trkpt lat="44.75925" lon="5.52366">
        <ele>1681</ele>
        <time>2009-01-29T14:36:51Z</time>
      </trkpt>
      <trkpt lat="44.75876" lon="5.52351">
        <ele>1676</ele>
        <time>2009-01-29T14:36:51Z</time>
      </trkpt>
      <trkpt lat="44.75825" lon="5.52339">
        <ele>1672</ele>
        <time>2009-01-29T14:36:51Z</time>
      </trkpt>
      <trkpt lat="44.75784" lon="5.52333">
        <ele>1667</ele>
        <time>2009-01-29T14:36:51Z</time>
      </trkpt>
      <trkpt lat="44.7574" lon="5.52321">
        <ele>1662</ele>
        <time>2009-01-29T14:36:51Z</time>
      </trkpt>
      <trkpt lat="44.75652" lon="5.52256">
        <ele>1652</ele>
        <time>2009-01-29T14:36:51Z</time>
      </trkpt>
      <trkpt lat="44.7559" lon="5.5229">
        <ele>1644</ele>
        <time>2009-01-29T14:36:51Z</time>
      </trkpt>
      <trkpt lat="44.75523" lon="5.52343">
        <ele>1648</ele>
        <time>2009-01-29T14:36:51Z</time>
      </trkpt>
      <trkpt lat="44.75494" lon="5.52402">
        <ele>1648</ele>
        <time>2009-01-29T14:36:51Z</time>
      </trkpt>
      <trkpt lat="44.75472" lon="5.52467">
        <ele>1644</ele>
        <time>2009-01-29T14:36:51Z</time>
      </trkpt>
      <trkpt lat="44.75432" lon="5.52616">
        <ele>1638</ele>
        <time>2009-01-29T14:36:51Z</time>
      </trkpt>
      <trkpt lat="44.75412" lon="5.52672">
        <ele>1637</ele>
        <time>2009-01-29T14:36:51Z</time>
      </trkpt>
      <trkpt lat="44.75379" lon="5.52721">
        <ele>1643</ele>
        <time>2009-01-29T14:36:51Z</time>
      </trkpt>
      <trkpt lat="44.75308" lon="5.52777">
        <ele>1654</ele>
        <time>2009-01-29T14:36:51Z</time>
      </trkpt>
      <trkpt lat="44.75274" lon="5.52775">
        <ele>1660</ele>
        <time>2009-01-29T14:36:51Z</time>
      </trkpt>
      <trkpt lat="44.75182" lon="5.5276">
        <ele>1651</ele>
        <time>2009-01-29T14:36:51Z</time>
      </trkpt>
      <trkpt lat="44.75129" lon="5.52747">
        <ele>1637</ele>
        <time>2009-01-29T14:36:51Z</time>
      </trkpt>
      <trkpt lat="44.75078" lon="5.52789">
        <ele>1627</ele>
        <time>2009-01-29T14:36:51Z</time>
      </trkpt>
      <trkpt lat="44.7504" lon="5.52847">
        <ele>1620</ele>
        <time>2009-01-29T14:36:51Z</time>
      </trkpt>
      <trkpt lat="44.75021" lon="5.52887">
        <ele>1617</ele>
        <time>2009-01-29T14:36:51Z</time>
      </trkpt>
      <trkpt lat="44.74988" lon="5.52954">
        <ele>1611</ele>
        <time>2009-01-29T14:36:51Z</time>
      </trkpt>
      <trkpt lat="44.74941" lon="5.53008">
        <ele>1603</ele>
        <time>2009-01-29T14:36:51Z</time>
      </trkpt>
      <trkpt lat="44.74908" lon="5.53082">
        <ele>1598</ele>
        <time>2009-01-29T14:36:51Z</time>
      </trkpt>
      <trkpt lat="44.74882" lon="5.53204">
        <ele>1595</ele>
        <time>2009-01-29T14:36:51Z</time>
      </trkpt>
      <trkpt lat="44.74807" lon="5.53285">
        <ele>1593</ele>
        <time>2009-01-29T14:36:51Z</time>
      </trkpt>
      <trkpt lat="44.74722" lon="5.53274">
        <ele>1581</ele>
        <time>2009-01-29T14:36:51Z</time>
      </trkpt>
      <trkpt lat="44.74639" lon="5.53247">
        <ele>1574</ele>
        <time>2009-01-29T14:36:51Z</time>
      </trkpt>
      <trkpt lat="44.74541" lon="5.53304">
        <ele>1578</ele>
        <time>2009-01-29T14:36:51Z</time>
      </trkpt>
      <trkpt lat="44.74478" lon="5.53294">
        <ele>1579</ele>
        <time>2009-01-29T14:36:51Z</time>
      </trkpt>
      <trkpt lat="44.7444" lon="5.53286">
        <ele>1572</ele>
        <time>2009-01-29T14:36:51Z</time>
      </trkpt>
      <trkpt lat="44.74415" lon="5.53218">
        <ele>1574</ele>
        <time>2009-01-29T14:36:51Z</time>
      </trkpt>
      <trkpt lat="44.7439" lon="5.53147">
        <ele>1575</ele>
        <time>2009-01-29T14:36:51Z</time>
      </trkpt>
      <trkpt lat="44.74368" lon="5.53067">
        <ele>1569</ele>
        <time>2009-01-29T14:36:51Z</time>
      </trkpt>
      <trkpt lat="44.7431" lon="5.53051">
        <ele>1562</ele>
        <time>2009-01-29T14:36:51Z</time>
      </trkpt>
      <trkpt lat="44.74274" lon="5.53046">
        <ele>1562</ele>
        <time>2009-01-29T14:36:51Z</time>
      </trkpt>
      <trkpt lat="44.74249" lon="5.5307">
        <ele>1557</ele>
        <time>2009-01-29T14:36:51Z</time>
      </trkpt>
      <trkpt lat="44.74169" lon="5.53113">
        <ele>1545</ele>
        <time>2009-01-29T14:36:51Z</time>
      </trkpt>
      <trkpt lat="44.74139" lon="5.53111">
        <ele>1548</ele>
        <time>2009-01-29T14:36:51Z</time>
      </trkpt>
      <trkpt lat="44.74125" lon="5.53129">
        <ele>1545</ele>
        <time>2009-01-29T14:36:51Z</time>
      </trkpt>
      <trkpt lat="44.74182" lon="5.53129">
        <ele>1538</ele>
        <time>2009-01-29T14:36:51Z</time>
      </trkpt>
      <trkpt lat="44.74167" lon="5.5316">
        <ele>1531</ele>
        <time>2009-01-29T14:36:51Z</time>
      </trkpt>
      <trkpt lat="44.7414" lon="5.53155">
        <ele>1536</ele>
        <time>2009-01-29T14:36:51Z</time>
      </trkpt>
      <trkpt lat="44.7411" lon="5.53195">
        <ele>1528</ele>
        <time>2009-01-29T14:36:51Z</time>
      </trkpt>
      <trkpt lat="44.74069" lon="5.53195">
        <ele>1520</ele>
        <time>2009-01-29T14:36:51Z</time>
      </trkpt>
      <trkpt lat="44.74043" lon="5.53162">
        <ele>1522</ele>
        <time>2009-01-29T14:36:51Z</time>
      </trkpt>
      <trkpt lat="44.73984" lon="5.53121">
        <ele>1504</ele>
        <time>2009-01-29T14:36:51Z</time>
      </trkpt>
      <trkpt lat="44.73928" lon="5.53096">
        <ele>1489</ele>
        <time>2009-01-29T14:36:51Z</time>
      </trkpt>
      <trkpt lat="44.7382" lon="5.53118">
        <ele>1470</ele>
        <time>2009-01-29T14:36:51Z</time>
      </trkpt>
      <trkpt lat="44.73711" lon="5.532">
        <ele>1442</ele>
        <time>2009-01-29T14:36:51Z</time>
      </trkpt>
      <trkpt lat="44.73758" lon="5.53225">
        <ele>1426</ele>
        <time>2009-01-29T14:36:51Z</time>
      </trkpt>
      <trkpt lat="44.73832" lon="5.53229">
        <ele>1418</ele>
        <time>2009-01-29T14:36:51Z</time>
      </trkpt>
      <trkpt lat="44.73887" lon="5.53267">
        <ele>1412</ele>
        <time>2009-01-29T14:36:51Z</time>
      </trkpt>
      <trkpt lat="44.73938" lon="5.53314">
        <ele>1408</ele>
        <time>2009-01-29T14:36:51Z</time>
      </trkpt>
      <trkpt lat="44.73915" lon="5.53322">
        <ele>1398</ele>
        <time>2009-01-29T14:36:51Z</time>
      </trkpt>
      <trkpt lat="44.73872" lon="5.53332">
        <ele>1384</ele>
        <time>2009-01-29T14:36:51Z</time>
      </trkpt>
      <trkpt lat="44.73831" lon="5.53343">
        <ele>1373</ele>
        <time>2009-01-29T14:36:51Z</time>
      </trkpt>
      <trkpt lat="44.73778" lon="5.53381">
        <ele>1350</ele>
        <time>2009-01-29T14:36:51Z</time>
      </trkpt>
      <trkpt lat="44.73714" lon="5.53424">
        <ele>1330</ele>
        <time>2009-01-29T14:36:51Z</time>
      </trkpt>
      <trkpt lat="44.73652" lon="5.53471">
        <ele>1313</ele>
        <time>2009-01-29T14:36:51Z</time>
      </trkpt>
      <trkpt lat="44.73618" lon="5.53476">
        <ele>1317</ele>
        <time>2009-01-29T14:36:51Z</time>
      </trkpt>
      <trkpt lat="44.73578" lon="5.53455">
        <ele>1327</ele>
        <time>2009-01-29T14:36:51Z</time>
      </trkpt>
      <trkpt lat="44.73542" lon="5.5344">
        <ele>1322</ele>
        <time>2009-01-29T14:36:51Z</time>
      </trkpt>
      <trkpt lat="44.73492" lon="5.53472">
        <ele>1300</ele>
        <time>2009-01-29T14:36:51Z</time>
      </trkpt>
      <trkpt lat="44.73455" lon="5.53501">
        <ele>1278</ele>
        <time>2009-01-29T14:36:51Z</time>
      </trkpt>
      <trkpt lat="44.73396" lon="5.5346">
        <ele>1260</ele>
        <time>2009-01-29T14:36:51Z</time>
      </trkpt>
      <trkpt lat="44.73348" lon="5.53407">
        <ele>1248</ele>
        <time>2009-01-29T14:36:51Z</time>
      </trkpt>
      <trkpt lat="44.7332" lon="5.53345">
        <ele>1243</ele>
        <time>2009-01-29T14:36:51Z</time>
      </trkpt>
      <trkpt lat="44.733" lon="5.53268">
        <ele>1237</ele>
        <time>2009-01-29T14:36:51Z</time>
      </trkpt>
      <trkpt lat="44.73238" lon="5.53243">
        <ele>1210</ele>
        <time>2009-01-29T14:36:51Z</time>
      </trkpt>
      <trkpt lat="44.73211" lon="5.53222">
        <ele>1198</ele>
        <time>2009-01-29T14:36:51Z</time>
      </trkpt>
      <trkpt lat="44.73184" lon="5.5323">
        <ele>1190</ele>
        <time>2009-01-29T14:36:51Z</time>
      </trkpt>
      <trkpt lat="44.73165" lon="5.53194">
        <ele>1180</ele>
        <time>2009-01-29T14:36:51Z</time>
      </trkpt>
      <trkpt lat="44.73166" lon="5.5315">
        <ele>1176</ele>
        <time>2009-01-29T14:36:51Z</time>
      </trkpt>
      <trkpt lat="44.73179" lon="5.53097">
        <ele>1174</ele>
        <time>2009-01-29T14:36:51Z</time>
      </trkpt>
      <trkpt lat="44.73124" lon="5.53138">
        <ele>1161</ele>
        <time>2009-01-29T14:36:51Z</time>
      </trkpt>
      <trkpt lat="44.73128" lon="5.53066">
        <ele>1152</ele>
        <time>2009-01-29T14:36:51Z</time>
      </trkpt>
      <trkpt lat="44.73151" lon="5.52979">
        <ele>1149</ele>
        <time>2009-01-29T14:36:51Z</time>
      </trkpt>
      <trkpt lat="44.73156" lon="5.52951">
        <ele>1147</ele>
        <time>2009-01-29T14:36:51Z</time>
      </trkpt>
      <trkpt lat="44.73181" lon="5.52873">
        <ele>1143</ele>
        <time>2009-01-29T14:36:51Z</time>
      </trkpt>
      <trkpt lat="44.73113" lon="5.52958">
        <ele>1128</ele>
        <time>2009-01-29T14:36:51Z</time>
      </trkpt>
      <trkpt lat="44.73075" lon="5.53025">
        <ele>1123</ele>
        <time>2009-01-29T14:36:51Z</time>
      </trkpt>
      <trkpt lat="44.73038" lon="5.53067">
        <ele>1117</ele>
        <time>2009-01-29T14:36:51Z</time>
      </trkpt>
      <trkpt lat="44.73002" lon="5.53081">
        <ele>1108</ele>
        <time>2009-01-29T14:36:51Z</time>
      </trkpt>
      <trkpt lat="44.7295" lon="5.53135">
        <ele>1102</ele>
        <time>2009-01-29T14:36:51Z</time>
      </trkpt>
      <trkpt lat="44.72918" lon="5.5318">
        <ele>1098</ele>
        <time>2009-01-29T14:36:51Z</time>
      </trkpt>
      <trkpt lat="44.72917" lon="5.53291">
        <ele>1081</ele>
        <time>2009-01-29T14:36:51Z</time>
      </trkpt>
      <trkpt lat="44.72936" lon="5.53323">
        <ele>1079</ele>
        <time>2009-01-29T14:36:51Z</time>
      </trkpt>
      <trkpt lat="44.72985" lon="5.53411">
        <ele>1071</ele>
        <time>2009-01-29T14:36:51Z</time>
      </trkpt>
      <trkpt lat="44.73024" lon="5.53483">
        <ele>1068</ele>
        <time>2009-01-29T14:36:51Z</time>
      </trkpt>
      <trkpt lat="44.73059" lon="5.53643">
        <ele>1051</ele>
        <time>2009-01-29T14:36:51Z</time>
      </trkpt>
      <trkpt lat="44.7309" lon="5.53768">
        <ele>1034</ele>
        <time>2009-01-29T14:36:51Z</time>
      </trkpt>
      <trkpt lat="44.73092" lon="5.53844">
        <ele>1025</ele>
        <time>2009-01-29T14:36:51Z</time>
      </trkpt>
      <trkpt lat="44.73094" lon="5.53916">
        <ele>1019</ele>
        <time>2009-01-29T14:36:51Z</time>
      </trkpt>
      <trkpt lat="44.73113" lon="5.53965">
        <ele>1019</ele>
        <time>2009-01-29T14:36:51Z</time>
      </trkpt>
      <trkpt lat="44.73098" lon="5.54014">
        <ele>1010</ele>
        <time>2009-01-29T14:36:51Z</time>
      </trkpt>
      <trkpt lat="44.7307" lon="5.53994">
        <ele>1006</ele>
        <time>2009-01-29T14:36:51Z</time>
      </trkpt>
      <trkpt lat="44.73032" lon="5.53973">
        <ele>1000</ele>
        <time>2009-01-29T14:36:51Z</time>
      </trkpt>
      <trkpt lat="44.73059" lon="5.54063">
        <ele>994</ele>
        <time>2009-01-29T14:36:51Z</time>
      </trkpt>
      <trkpt lat="44.73026" lon="5.54013">
        <ele>992</ele>
        <time>2009-01-29T14:36:51Z</time>
      </trkpt>
      <trkpt lat="44.73004" lon="5.54003">
        <ele>987</ele>
        <time>2009-01-29T14:36:51Z</time>
      </trkpt>
      <trkpt lat="44.72936" lon="5.53958">
        <ele>974</ele>
        <time>2009-01-29T14:36:51Z</time>
      </trkpt>
      <trkpt lat="44.72876" lon="5.54002">
        <ele>955</ele>
        <time>2009-01-29T14:36:51Z</time>
      </trkpt>
      <trkpt lat="44.72833" lon="5.53993">
        <ele>954</ele>
        <time>2009-01-29T14:36:51Z</time>
      </trkpt>
      <trkpt lat="44.72792" lon="5.54013">
        <ele>947</ele>
        <time>2009-01-29T14:36:51Z</time>
      </trkpt>
      <trkpt lat="44.72757" lon="5.54061">
        <ele>936</ele>
        <time>2009-01-29T14:36:51Z</time>
      </trkpt>
      <trkpt lat="44.72694" lon="5.5407">
        <ele>924</ele>
        <time>2009-01-29T14:36:51Z</time>
      </trkpt>
      <trkpt lat="44.72655" lon="5.54087">
        <ele>912</ele>
        <time>2009-01-29T14:36:51Z</time>
      </trkpt>
      <trkpt lat="44.72617" lon="5.54009">
        <ele>908</ele>
        <time>2009-01-29T14:36:51Z</time>
      </trkpt>
      <trkpt lat="44.72602" lon="5.53961">
        <ele>909</ele>
        <time>2009-01-29T14:36:51Z</time>
      </trkpt>
      <trkpt lat="44.72554" lon="5.53933">
        <ele>895</ele>
        <time>2009-01-29T14:36:51Z</time>
      </trkpt>
      <trkpt lat="44.72532" lon="5.53903">
        <ele>885</ele>
        <time>2009-01-29T14:36:51Z</time>
      </trkpt>
      <trkpt lat="44.72525" lon="5.53843">
        <ele>878</ele>
        <time>2009-01-29T14:36:51Z</time>
      </trkpt>
      <trkpt lat="44.72499" lon="5.53788">
        <ele>865</ele>
        <time>2009-01-29T14:36:51Z</time>
      </trkpt>
      <trkpt lat="44.72449" lon="5.53731">
        <ele>849</ele>
        <time>2009-01-29T14:36:51Z</time>
      </trkpt>
      <trkpt lat="44.72446" lon="5.53762">
        <ele>841</ele>
        <time>2009-01-29T14:36:51Z</time>
      </trkpt>
      <trkpt lat="44.72429" lon="5.53736">
        <ele>838</ele>
        <time>2009-01-29T14:36:51Z</time>
      </trkpt>
      <trkpt lat="44.72366" lon="5.53726">
        <ele>829</ele>
        <time>2009-01-29T14:36:51Z</time>
      </trkpt>
      <trkpt lat="44.72327" lon="5.53693">
        <ele>828</ele>
        <time>2009-01-29T14:36:51Z</time>
      </trkpt>
      <trkpt lat="44.72305" lon="5.53657">
        <ele>821</ele>
        <time>2009-01-29T14:36:51Z</time>
      </trkpt>
      <trkpt lat="44.72293" lon="5.53612">
        <ele>817</ele>
        <time>2009-01-29T14:36:51Z</time>
      </trkpt>
      <trkpt lat="44.72251" lon="5.536">
        <ele>788</ele>
        <time>2009-01-29T14:36:51Z</time>
      </trkpt>
      <trkpt lat="44.7221" lon="5.53588">
        <ele>769</ele>
        <time>2009-01-29T14:36:51Z</time>
      </trkpt>
      <trkpt lat="44.72162" lon="5.53547">
        <ele>757</ele>
        <time>2009-01-29T14:36:51Z</time>
      </trkpt>
      <trkpt lat="44.72136" lon="5.53527">
        <ele>750</ele>
        <time>2009-01-29T14:36:51Z</time>
      </trkpt>
      <trkpt lat="44.72113" lon="5.53472">
        <ele>750</ele>
        <time>2009-01-29T14:36:51Z</time>
      </trkpt>
      <trkpt lat="44.72069" lon="5.53482">
        <ele>732</ele>
        <time>2009-01-29T14:36:51Z</time>
      </trkpt>
      <trkpt lat="44.72041" lon="5.53462">
        <ele>729</ele>
        <time>2009-01-29T14:36:51Z</time>
      </trkpt>
      <trkpt lat="44.7201" lon="5.53378">
        <ele>742</ele>
        <time>2009-01-29T14:36:51Z</time>
      </trkpt>
      <trkpt lat="44.71958" lon="5.53381">
        <ele>717</ele>
        <time>2009-01-29T14:36:51Z</time>
      </trkpt>
      <trkpt lat="44.71922" lon="5.5337">
        <ele>711</ele>
        <time>2009-01-29T14:36:51Z</time>
      </trkpt>
      <trkpt lat="44.71854" lon="5.53385">
        <ele>689</ele>
        <time>2009-01-29T14:36:51Z</time>
      </trkpt>
      <trkpt lat="44.71834" lon="5.53393">
        <ele>681</ele>
        <time>2009-01-29T14:36:51Z</time>
      </trkpt>
      <trkpt lat="44.71769" lon="5.53307">
        <ele>689</ele>
        <time>2009-01-29T14:36:51Z</time>
      </trkpt>
      <trkpt lat="44.71655" lon="5.53203">
        <ele>664</ele>
        <time>2009-01-29T14:36:51Z</time>
      </trkpt>
      <trkpt lat="44.71628" lon="5.53179">
        <ele>660</ele>
        <time>2009-01-29T14:36:51Z</time>
      </trkpt>
      <trkpt lat="44.71611" lon="5.53137">
        <ele>661</ele>
        <time>2009-01-29T14:36:51Z</time>
      </trkpt>
      <trkpt lat="44.71589" lon="5.53063">
        <ele>661</ele>
        <time>2009-01-29T14:36:51Z</time>
      </trkpt>
      <trkpt lat="44.71578" lon="5.53034">
        <ele>658</ele>
        <time>2009-01-29T14:36:51Z</time>
      </trkpt>
      <trkpt lat="44.71508" lon="5.53068">
        <ele>645</ele>
        <time>2009-01-29T14:36:51Z</time>
      </trkpt>
      <trkpt lat="44.71491" lon="5.53039">
        <ele>643</ele>
        <time>2009-01-29T14:36:51Z</time>
      </trkpt>
      <trkpt lat="44.71444" lon="5.53014">
        <ele>660</ele>
        <time>2009-01-29T14:36:51Z</time>
      </trkpt>
      <trkpt lat="44.71401" lon="5.53015">
        <ele>675</ele>
        <time>2009-01-29T14:36:51Z</time>
      </trkpt>
      <trkpt lat="44.71357" lon="5.53">
        <ele>672</ele>
        <time>2009-01-29T14:36:51Z</time>
      </trkpt>
      <trkpt lat="44.71304" lon="5.53044">
        <ele>695</ele>
        <time>2009-01-29T14:36:51Z</time>
      </trkpt>
      <trkpt lat="44.71253" lon="5.53066">
        <ele>700</ele>
        <time>2009-01-29T14:36:51Z</time>
      </trkpt>
      <trkpt lat="44.71202" lon="5.53123">
        <ele>721</ele>
        <time>2009-01-29T14:36:51Z</time>
      </trkpt>
      <trkpt lat="44.71186" lon="5.53129">
        <ele>722</ele>
        <time>2009-01-29T14:36:51Z</time>
      </trkpt>
      <trkpt lat="44.71106" lon="5.53121">
        <ele>708</ele>
        <time>2009-01-29T14:36:51Z</time>
      </trkpt>
      <trkpt lat="44.71005" lon="5.53166">
        <ele>700</ele>
        <time>2009-01-29T14:36:51Z</time>
      </trkpt>
      <trkpt lat="44.70959" lon="5.53068">
        <ele>688</ele>
        <time>2009-01-29T14:36:51Z</time>
      </trkpt>
      <trkpt lat="44.70919" lon="5.5305">
        <ele>700</ele>
        <time>2009-01-29T14:36:51Z</time>
      </trkpt>
      <trkpt lat="44.70788" lon="5.53144">
        <ele>706</ele>
        <time>2009-01-29T14:36:51Z</time>
      </trkpt>
      <trkpt lat="44.70743" lon="5.53138">
        <ele>692</ele>
        <time>2009-01-29T14:36:51Z</time>
      </trkpt>
      <trkpt lat="44.70709" lon="5.53146">
        <ele>688</ele>
        <time>2009-01-29T14:36:51Z</time>
      </trkpt>
      <trkpt lat="44.70688" lon="5.53148">
        <ele>686</ele>
        <time>2009-01-29T14:36:51Z</time>
      </trkpt>
      <trkpt lat="44.70678" lon="5.53138">
        <ele>682</ele>
        <time>2009-01-29T14:36:51Z</time>
      </trkpt>
      <trkpt lat="44.70666" lon="5.53105">
        <ele>679</ele>
        <time>2009-01-29T14:36:51Z</time>
      </trkpt>
      <trkpt lat="44.7069" lon="5.52985">
        <ele>686</ele>
        <time>2009-01-29T14:36:51Z</time>
      </trkpt>
      <trkpt lat="44.70677" lon="5.52983">
        <ele>689</ele>
        <time>2009-01-29T14:36:51Z</time>
      </trkpt>
      <trkpt lat="44.70668" lon="5.53006">
        <ele>687</ele>
        <time>2009-01-29T14:36:51Z</time>
      </trkpt>
      <trkpt lat="44.70646" lon="5.53068">
        <ele>688</ele>
        <time>2009-01-29T14:36:51Z</time>
      </trkpt>
      <trkpt lat="44.70619" lon="5.53093">
        <ele>696</ele>
        <time>2009-01-29T14:36:51Z</time>
      </trkpt>
      <trkpt lat="44.70588" lon="5.5311">
        <ele>714</ele>
        <time>2009-01-29T14:36:51Z</time>
      </trkpt>
      <trkpt lat="44.70559" lon="5.53136">
        <ele>728</ele>
        <time>2009-01-29T14:36:51Z</time>
      </trkpt>
      <trkpt lat="44.70526" lon="5.53142">
        <ele>744</ele>
        <time>2009-01-29T14:36:51Z</time>
      </trkpt>
      <trkpt lat="44.70467" lon="5.53126">
        <ele>747</ele>
        <time>2009-01-29T14:36:51Z</time>
      </trkpt>
      <trkpt lat="44.70412" lon="5.53135">
        <ele>760</ele>
        <time>2009-01-29T14:36:51Z</time>
      </trkpt>
      <trkpt lat="44.70363" lon="5.53135">
        <ele>768</ele>
        <time>2009-01-29T14:36:51Z</time>
      </trkpt>
      <trkpt lat="44.70334" lon="5.53113">
        <ele>759</ele>
        <time>2009-01-29T14:36:51Z</time>
      </trkpt>
      <trkpt lat="44.70237" lon="5.5312">
        <ele>790</ele>
        <time>2009-01-29T14:36:51Z</time>
      </trkpt>
      <trkpt lat="44.70208" lon="5.53106">
        <ele>793</ele>
        <time>2009-01-29T14:36:51Z</time>
      </trkpt>
      <trkpt lat="44.70121" lon="5.53055">
        <ele>802</ele>
        <time>2009-01-29T14:36:51Z</time>
      </trkpt>
      <trkpt lat="44.70077" lon="5.53039">
        <ele>810</ele>
        <time>2009-01-29T14:36:51Z</time>
      </trkpt>
      <trkpt lat="44.70057" lon="5.53044">
        <ele>818</ele>
        <time>2009-01-29T14:36:51Z</time>
      </trkpt>
      <trkpt lat="44.70039" lon="5.53067">
        <ele>823</ele>
        <time>2009-01-29T14:36:51Z</time>
      </trkpt>
      <trkpt lat="44.70033" lon="5.53096">
        <ele>829</ele>
        <time>2009-01-29T14:36:51Z</time>
      </trkpt>
      <trkpt lat="44.70028" lon="5.53157">
        <ele>841</ele>
        <time>2009-01-29T14:36:51Z</time>
      </trkpt>
      <trkpt lat="44.7003" lon="5.53219">
        <ele>850</ele>
        <time>2009-01-29T14:36:51Z</time>
      </trkpt>
      <trkpt lat="44.70038" lon="5.53273">
        <ele>857</ele>
        <time>2009-01-29T14:36:51Z</time>
      </trkpt>
      <trkpt lat="44.7004" lon="5.53321">
        <ele>858</ele>
        <time>2009-01-29T14:36:51Z</time>
      </trkpt>
      <trkpt lat="44.70031" lon="5.5335">
        <ele>855</ele>
        <time>2009-01-29T14:36:51Z</time>
      </trkpt>
      <trkpt lat="44.70026" lon="5.53386">
        <ele>856</ele>
        <time>2009-01-29T14:36:51Z</time>
      </trkpt>
      <trkpt lat="44.69995" lon="5.53354">
        <ele>837</ele>
        <time>2009-01-29T14:36:51Z</time>
      </trkpt>
      <trkpt lat="44.69973" lon="5.53345">
        <ele>837</ele>
        <time>2009-01-29T14:36:51Z</time>
      </trkpt>
      <trkpt lat="44.69953" lon="5.53353">
        <ele>842</ele>
        <time>2009-01-29T14:36:51Z</time>
      </trkpt>
      <trkpt lat="44.69943" lon="5.53353">
        <ele>843</ele>
        <time>2009-01-29T14:36:51Z</time>
      </trkpt>
      <trkpt lat="44.69924" lon="5.53344">
        <ele>844</ele>
        <time>2009-01-29T14:36:51Z</time>
      </trkpt>
      <trkpt lat="44.69881" lon="5.53343">
        <ele>847</ele>
        <time>2009-01-29T14:36:51Z</time>
      </trkpt>
      <trkpt lat="44.69881" lon="5.53329">
        <ele>842</ele>
        <time>2009-01-29T14:36:51Z</time>
      </trkpt>
      <trkpt lat="44.69868" lon="5.5332">
        <ele>839</ele>
        <time>2009-01-29T14:36:51Z</time>
      </trkpt>
      <trkpt lat="44.6985" lon="5.53294">
        <ele>830</ele>
        <time>2009-01-29T14:36:51Z</time>
      </trkpt>
      <trkpt lat="44.69856" lon="5.53222">
        <ele>807</ele>
        <time>2009-01-29T14:36:51Z</time>
      </trkpt>
      <trkpt lat="44.69839" lon="5.53124">
        <ele>799</ele>
        <time>2009-01-29T14:36:51Z</time>
      </trkpt>
      <trkpt lat="44.69799" lon="5.53053">
        <ele>803</ele>
        <time>2009-01-29T14:36:51Z</time>
      </trkpt>
      <trkpt lat="44.69781" lon="5.52997">
        <ele>799</ele>
        <time>2009-01-29T14:36:51Z</time>
      </trkpt>
      <trkpt lat="44.6977" lon="5.52941">
        <ele>791</ele>
        <time>2009-01-29T14:36:51Z</time>
      </trkpt>
      <trkpt lat="44.69752" lon="5.52899">
        <ele>789</ele>
        <time>2009-01-29T14:36:51Z</time>
      </trkpt>
      <trkpt lat="44.6972" lon="5.52889">
        <ele>798</ele>
        <time>2009-01-29T14:36:51Z</time>
      </trkpt>
      <trkpt lat="44.69704" lon="5.52879">
        <ele>802</ele>
        <time>2009-01-29T14:36:51Z</time>
      </trkpt>
      <trkpt lat="44.69684" lon="5.52843">
        <ele>795</ele>
        <time>2009-01-29T14:36:51Z</time>
      </trkpt>
      <trkpt lat="44.69678" lon="5.52838">
        <ele>793</ele>
        <time>2009-01-29T14:36:51Z</time>
      </trkpt>
      <trkpt lat="44.69653" lon="5.52844">
        <ele>793</ele>
        <time>2009-01-29T14:36:51Z</time>
      </trkpt>
      <trkpt lat="44.69595" lon="5.52787">
        <ele>781</ele>
        <time>2009-01-29T14:36:51Z</time>
      </trkpt>
      <trkpt lat="44.69563" lon="5.52748">
        <ele>774</ele>
        <time>2009-01-29T14:36:51Z</time>
      </trkpt>
      <trkpt lat="44.69535" lon="5.52695">
        <ele>762</ele>
        <time>2009-01-29T14:36:51Z</time>
      </trkpt>
      <trkpt lat="44.69514" lon="5.52628">
        <ele>743</ele>
        <time>2009-01-29T14:36:51Z</time>
      </trkpt>
      <trkpt lat="44.69481" lon="5.52585">
        <ele>738</ele>
        <time>2009-01-29T14:36:51Z</time>
      </trkpt>
      <trkpt lat="44.69433" lon="5.52563">
        <ele>741</ele>
        <time>2009-01-29T14:36:51Z</time>
      </trkpt>
      <trkpt lat="44.69298" lon="5.52542">
        <ele>743</ele>
        <time>2009-01-29T14:36:51Z</time>
      </trkpt>
      <trkpt lat="44.69277" lon="5.52529">
        <ele>738</ele>
        <time>2009-01-29T14:36:51Z</time>
      </trkpt>
      <trkpt lat="44.69272" lon="5.52512">
        <ele>729</ele>
        <time>2009-01-29T14:36:51Z</time>
      </trkpt>
      <trkpt lat="44.69266" lon="5.52489">
        <ele>717</ele>
        <time>2009-01-29T14:36:51Z</time>
      </trkpt>
      <trkpt lat="44.69219" lon="5.52472">
        <ele>720</ele>
        <time>2009-01-29T14:36:51Z</time>
      </trkpt>
      <trkpt lat="44.69196" lon="5.52429">
        <ele>707</ele>
        <time>2009-01-29T14:36:51Z</time>
      </trkpt>
      <trkpt lat="44.69192" lon="5.52367">
        <ele>683</ele>
        <time>2009-01-29T14:36:51Z</time>
      </trkpt>
      <trkpt lat="44.69172" lon="5.52318">
        <ele>669</ele>
        <time>2009-01-29T14:36:51Z</time>
      </trkpt>
      <trkpt lat="44.69118" lon="5.52262">
        <ele>669</ele>
        <time>2009-01-29T14:36:51Z</time>
      </trkpt>
      <trkpt lat="44.69106" lon="5.52239">
        <ele>664</ele>
        <time>2009-01-29T14:36:51Z</time>
      </trkpt>
      <trkpt lat="44.69083" lon="5.52211">
        <ele>659</ele>
        <time>2009-01-29T14:36:51Z</time>
      </trkpt>
      <trkpt lat="44.6904" lon="5.52137">
        <ele>643</ele>
        <time>2009-01-29T14:36:51Z</time>
      </trkpt>
      <trkpt lat="44.68985" lon="5.52096">
        <ele>639</ele>
        <time>2009-01-29T14:36:51Z</time>
      </trkpt>
      <trkpt lat="44.68938" lon="5.52073">
        <ele>636</ele>
        <time>2009-01-29T14:36:51Z</time>
      </trkpt>
      <trkpt lat="44.68885" lon="5.52054">
        <ele>635</ele>
        <time>2009-01-29T14:36:51Z</time>
      </trkpt>
      <trkpt lat="44.68826" lon="5.52019">
        <ele>632</ele>
        <time>2009-01-29T14:36:51Z</time>
      </trkpt>
      <trkpt lat="44.68801" lon="5.51988">
        <ele>626</ele>
        <time>2009-01-29T14:36:51Z</time>
      </trkpt>
      <trkpt lat="44.68767" lon="5.5194">
        <ele>621</ele>
        <time>2009-01-29T14:36:51Z</time>
      </trkpt>
      <trkpt lat="44.68735" lon="5.51901">
        <ele>616</ele>
        <time>2009-01-29T14:36:51Z</time>
      </trkpt>
      <trkpt lat="44.68723" lon="5.51856">
        <ele>607</ele>
        <time>2009-01-29T14:36:51Z</time>
      </trkpt>
      <trkpt lat="44.68712" lon="5.51841">
        <ele>607</ele>
        <time>2009-01-29T14:36:51Z</time>
      </trkpt>
      <trkpt lat="44.68728" lon="5.5181">
        <ele>600</ele>
        <time>2009-01-29T14:36:51Z</time>
      </trkpt>
      <trkpt lat="44.6876" lon="5.51776">
        <ele>595</ele>
        <time>2009-01-29T14:36:51Z</time>
      </trkpt>
      <trkpt lat="44.68799" lon="5.51721">
        <ele>597</ele>
        <time>2009-01-29T14:36:51Z</time>
      </trkpt>
      <trkpt lat="44.68797" lon="5.51685">
        <ele>600</ele>
        <time>2009-01-29T14:36:51Z</time>
      </trkpt>
      <trkpt lat="44.68801" lon="5.5164">
        <ele>611</ele>
        <time>2009-01-29T14:36:51Z</time>
      </trkpt>
      <trkpt lat="44.68792" lon="5.51573">
        <ele>608</ele>
        <time>2009-01-29T14:36:51Z</time>
      </trkpt>
      <trkpt lat="44.68793" lon="5.51535">
        <ele>608</ele>
        <time>2009-01-29T14:36:51Z</time>
      </trkpt>
      <trkpt lat="44.68833" lon="5.51466">
        <ele>616</ele>
        <time>2009-01-29T14:36:51Z</time>
      </trkpt>
      <trkpt lat="44.6888" lon="5.51376">
        <ele>617</ele>
        <time>2009-01-29T14:36:51Z</time>
      </trkpt>
      <trkpt lat="44.68891" lon="5.51301">
        <ele>611</ele>
        <time>2009-01-29T14:36:51Z</time>
      </trkpt>
      <trkpt lat="44.68958" lon="5.51193">
        <ele>619</ele>
        <time>2009-01-29T14:36:51Z</time>
      </trkpt>
      <trkpt lat="44.68989" lon="5.51141">
        <ele>614</ele>
        <time>2009-01-29T14:36:51Z</time>
      </trkpt>
      <trkpt lat="44.69041" lon="5.51076">
        <ele>618</ele>
        <time>2009-01-29T14:36:51Z</time>
      </trkpt>
      <trkpt lat="44.69066" lon="5.51043">
        <ele>623</ele>
        <time>2009-01-29T14:36:51Z</time>
      </trkpt>
      <trkpt lat="44.69086" lon="5.50998">
        <ele>623</ele>
        <time>2009-01-29T14:36:51Z</time>
      </trkpt>
      <trkpt lat="44.69111" lon="5.509">
        <ele>617</ele>
        <time>2009-01-29T14:36:51Z</time>
      </trkpt>
      <trkpt lat="44.69134" lon="5.50819">
        <ele>618</ele>
        <time>2009-01-29T14:36:51Z</time>
      </trkpt>
      <trkpt lat="44.69165" lon="5.50766">
        <ele>622</ele>
        <time>2009-01-29T14:36:51Z</time>
      </trkpt>
      <trkpt lat="44.69184" lon="5.50707">
        <ele>622</ele>
        <time>2009-01-29T14:36:51Z</time>
      </trkpt>
      <trkpt lat="44.69206" lon="5.50614">
        <ele>623</ele>
        <time>2009-01-29T14:36:51Z</time>
      </trkpt>
      <trkpt lat="44.69217" lon="5.50546">
        <ele>621</ele>
        <time>2009-01-29T14:36:51Z</time>
      </trkpt>
      <trkpt lat="44.69239" lon="5.50491">
        <ele>625</ele>
        <time>2009-01-29T14:36:51Z</time>
      </trkpt>
      <trkpt lat="44.69241" lon="5.5039">
        <ele>619</ele>
        <time>2009-01-29T14:36:51Z</time>
      </trkpt>
      <trkpt lat="44.69244" lon="5.50302">
        <ele>614</ele>
        <time>2009-01-29T14:36:51Z</time>
      </trkpt>
      <trkpt lat="44.69248" lon="5.50266">
        <ele>611</ele>
        <time>2009-01-29T14:36:51Z</time>
      </trkpt>
      <trkpt lat="44.69232" lon="5.50203">
        <ele>605</ele>
        <time>2009-01-29T14:36:51Z</time>
      </trkpt>
      <trkpt lat="44.69219" lon="5.50163">
        <ele>602</ele>
        <time>2009-01-29T14:36:51Z</time>
      </trkpt>
      <trkpt lat="44.69218" lon="5.50147">
        <ele>601</ele>
        <time>2009-01-29T14:36:51Z</time>
      </trkpt>
      <trkpt lat="44.69224" lon="5.50067">
        <ele>604</ele>
        <time>2009-01-29T14:36:51Z</time>
      </trkpt>
      <trkpt lat="44.69214" lon="5.49942">
        <ele>599</ele>
        <time>2009-01-29T14:36:51Z</time>
      </trkpt>
      <trkpt lat="44.69334" lon="5.49698">
        <ele>595</ele>
        <time>2009-01-29T14:36:51Z</time>
      </trkpt>
      <trkpt lat="44.69353" lon="5.49634">
        <ele>599</ele>
        <time>2009-01-29T14:36:51Z</time>
      </trkpt>
      <trkpt lat="44.69407" lon="5.49134">
        <ele>572</ele>
        <time>2009-01-29T14:36:51Z</time>
      </trkpt>
      <trkpt lat="44.69417" lon="5.49042">
        <ele>571</ele>
        <time>2009-01-29T14:36:51Z</time>
      </trkpt>
      <trkpt lat="44.69408" lon="5.49048">
        <ele>570</ele>
        <time>2009-01-29T14:36:51Z</time>
      </trkpt>
      <trkpt lat="44.69381" lon="5.49073">
        <ele>568</ele>
        <time>2009-01-29T14:36:51Z</time>
      </trkpt>
      <trkpt lat="44.69361" lon="5.49088">
        <ele>566</ele>
        <time>2009-01-29T14:36:51Z</time>
      </trkpt>
      <trkpt lat="44.69307" lon="5.49072">
        <ele>560</ele>
        <time>2009-01-29T14:36:51Z</time>
      </trkpt>
      <trkpt lat="44.69278" lon="5.49064">
        <ele>560</ele>
        <time>2009-01-29T14:36:51Z</time>
      </trkpt>
      <trkpt lat="44.69267" lon="5.49019">
        <ele>560</ele>
        <time>2009-01-29T14:36:51Z</time>
      </trkpt>
    </trkseg>
  </trk>
  <trk>
    <name><![CDATA[4Chemins-ChrisCath]]></name>
    <trkseg>
      <trkpt lat="44.81846" lon="5.57156">
        <ele>1018</ele>
        <time>2009-01-29T14:36:51Z</time>
      </trkpt>
      <trkpt lat="44.81832" lon="5.57111">
        <ele>1016</ele>
        <time>2009-01-29T14:36:51Z</time>
      </trkpt>
      <trkpt lat="44.8179" lon="5.57083">
        <ele>1013</ele>
        <time>2009-01-29T14:36:51Z</time>
      </trkpt>
      <trkpt lat="44.81701" lon="5.57049">
        <ele>1005</ele>
        <time>2009-01-29T14:36:51Z</time>
      </trkpt>
      <trkpt lat="44.81663" lon="5.5711">
        <ele>1002</ele>
        <time>2009-01-29T14:36:51Z</time>
      </trkpt>
      <trkpt lat="44.81642" lon="5.57141">
        <ele>1001</ele>
        <time>2009-01-29T14:36:51Z</time>
      </trkpt>
      <trkpt lat="44.81529" lon="5.57216">
        <ele>995</ele>
        <time>2009-01-29T14:36:51Z</time>
      </trkpt>
      <trkpt lat="44.81475" lon="5.57235">
        <ele>993</ele>
        <time>2009-01-29T14:36:51Z</time>
      </trkpt>
      <trkpt lat="44.81418" lon="5.57245">
        <ele>993</ele>
        <time>2009-01-29T14:36:51Z</time>
      </trkpt>
      <trkpt lat="44.81373" lon="5.57255">
        <ele>993</ele>
        <time>2009-01-29T14:36:51Z</time>
      </trkpt>
      <trkpt lat="44.81233" lon="5.57278">
        <ele>992</ele>
        <time>2009-01-29T14:36:51Z</time>
      </trkpt>
      <trkpt lat="44.81181" lon="5.57282">
        <ele>991</ele>
        <time>2009-01-29T14:36:51Z</time>
      </trkpt>
      <trkpt lat="44.81145" lon="5.57264">
        <ele>991</ele>
        <time>2009-01-29T14:36:51Z</time>
      </trkpt>
      <trkpt lat="44.81109" lon="5.57281">
        <ele>991</ele>
        <time>2009-01-29T14:36:51Z</time>
      </trkpt>
      <trkpt lat="44.8108" lon="5.57355">
        <ele>989</ele>
        <time>2009-01-29T14:36:51Z</time>
      </trkpt>
      <trkpt lat="44.81058" lon="5.57401">
        <ele>988</ele>
        <time>2009-01-29T14:36:51Z</time>
      </trkpt>
      <trkpt lat="44.8106" lon="5.57502">
        <ele>989</ele>
        <time>2009-01-29T14:36:51Z</time>
      </trkpt>
      <trkpt lat="44.81031" lon="5.57624">
        <ele>997</ele>
        <time>2009-01-29T14:36:51Z</time>
      </trkpt>
      <trkpt lat="44.81019" lon="5.57661">
        <ele>998</ele>
        <time>2009-01-29T14:36:51Z</time>
      </trkpt>
      <trkpt lat="44.80984" lon="5.57707">
        <ele>1001</ele>
        <time>2009-01-29T14:36:51Z</time>
      </trkpt>
      <trkpt lat="44.80965" lon="5.57753">
        <ele>1001</ele>
        <time>2009-01-29T14:36:51Z</time>
      </trkpt>
      <trkpt lat="44.80929" lon="5.57805">
        <ele>1003</ele>
        <time>2009-01-29T14:36:51Z</time>
      </trkpt>
      <trkpt lat="44.80842" lon="5.57856">
        <ele>1006</ele>
        <time>2009-01-29T14:36:51Z</time>
      </trkpt>
      <trkpt lat="44.80719" lon="5.57928">
        <ele>1010</ele>
        <time>2009-01-29T14:36:51Z</time>
      </trkpt>
      <trkpt lat="44.80638" lon="5.57981">
        <ele>1013</ele>
        <time>2009-01-29T14:36:51Z</time>
      </trkpt>
      <trkpt lat="44.80537" lon="5.58069">
        <ele>1014</ele>
        <time>2009-01-29T14:36:51Z</time>
      </trkpt>
      <trkpt lat="44.80442" lon="5.58134">
        <ele>1014</ele>
        <time>2009-01-29T14:36:51Z</time>
      </trkpt>
      <trkpt lat="44.80386" lon="5.58156">
        <ele>1014</ele>
        <time>2009-01-29T14:36:51Z</time>
      </trkpt>
      <trkpt lat="44.80288" lon="5.58188">
        <ele>1013</ele>
        <time>2009-01-29T14:36:51Z</time>
      </trkpt>
      <trkpt lat="44.80286" lon="5.58257">
        <ele>1009</ele>
        <time>2009-01-29T14:36:51Z</time>
      </trkpt>
      <trkpt lat="44.80269" lon="5.58282">
        <ele>1008</ele>
        <time>2009-01-29T14:36:51Z</time>
      </trkpt>
      <trkpt lat="44.80225" lon="5.5832">
        <ele>1007</ele>
        <time>2009-01-29T14:36:51Z</time>
      </trkpt>
      <trkpt lat="44.80184" lon="5.58352">
        <ele>1005</ele>
        <time>2009-01-29T14:36:51Z</time>
      </trkpt>
      <trkpt lat="44.80153" lon="5.58401">
        <ele>1009</ele>
        <time>2009-01-29T14:36:51Z</time>
      </trkpt>
      <trkpt lat="44.80108" lon="5.58484">
        <ele>1018</ele>
        <time>2009-01-29T14:36:51Z</time>
      </trkpt>
      <trkpt lat="44.80067" lon="5.58507">
        <ele>1014</ele>
        <time>2009-01-29T14:36:51Z</time>
      </trkpt>
      <trkpt lat="44.80001" lon="5.58531">
        <ele>1008</ele>
        <time>2009-01-29T14:36:51Z</time>
      </trkpt>
      <trkpt lat="44.79963" lon="5.58589">
        <ele>1008</ele>
        <time>2009-01-29T14:36:51Z</time>
      </trkpt>
      <trkpt lat="44.79933" lon="5.58619">
        <ele>1012</ele>
        <time>2009-01-29T14:36:51Z</time>
      </trkpt>
      <trkpt lat="44.79851" lon="5.58649">
        <ele>1017</ele>
        <time>2009-01-29T14:36:51Z</time>
      </trkpt>
      <trkpt lat="44.79791" lon="5.58703">
        <ele>1022</ele>
        <time>2009-01-29T14:36:51Z</time>
      </trkpt>
      <trkpt lat="44.7968" lon="5.58797">
        <ele>1030</ele>
        <time>2009-01-29T14:36:51Z</time>
      </trkpt>
      <trkpt lat="44.79609" lon="5.58856">
        <ele>1037</ele>
        <time>2009-01-29T14:36:51Z</time>
      </trkpt>
      <trkpt lat="44.79506" lon="5.58907">
        <ele>1039</ele>
        <time>2009-01-29T14:36:51Z</time>
      </trkpt>
      <trkpt lat="44.79445" lon="5.58929">
        <ele>1041</ele>
        <time>2009-01-29T14:36:51Z</time>
      </trkpt>
      <trkpt lat="44.79429" lon="5.58938">
        <ele>1043</ele>
        <time>2009-01-29T14:36:51Z</time>
      </trkpt>
      <trkpt lat="44.79448" lon="5.58973">
        <ele>1049</ele>
        <time>2009-01-29T14:36:51Z</time>
      </trkpt>
      <trkpt lat="44.79461" lon="5.58993">
        <ele>1053</ele>
        <time>2009-01-29T14:36:51Z</time>
      </trkpt>
      <trkpt lat="44.79448" lon="5.5903">
        <ele>1062</ele>
        <time>2009-01-29T14:36:51Z</time>
      </trkpt>
      <trkpt lat="44.79438" lon="5.59083">
        <ele>1072</ele>
        <time>2009-01-29T14:36:51Z</time>
      </trkpt>
      <trkpt lat="44.79454" lon="5.59069">
        <ele>1071</ele>
        <time>2009-01-29T14:36:51Z</time>
      </trkpt>
      <trkpt lat="44.79479" lon="5.59054">
        <ele>1071</ele>
        <time>2009-01-29T14:36:51Z</time>
      </trkpt>
      <trkpt lat="44.79495" lon="5.59058">
        <ele>1074</ele>
        <time>2009-01-29T14:36:51Z</time>
      </trkpt>
      <trkpt lat="44.79471" lon="5.59098">
        <ele>1080</ele>
        <time>2009-01-29T14:36:51Z</time>
      </trkpt>
      <trkpt lat="44.79426" lon="5.59187">
        <ele>1089</ele>
        <time>2009-01-29T14:36:51Z</time>
      </trkpt>
      <trkpt lat="44.79392" lon="5.59188">
        <ele>1090</ele>
        <time>2009-01-29T14:36:51Z</time>
      </trkpt>
      <trkpt lat="44.79363" lon="5.59165">
        <ele>1089</ele>
        <time>2009-01-29T14:36:51Z</time>
      </trkpt>
      <trkpt lat="44.79317" lon="5.59209">
        <ele>1104</ele>
        <time>2009-01-29T14:36:51Z</time>
      </trkpt>
      <trkpt lat="44.79249" lon="5.59287">
        <ele>1119</ele>
        <time>2009-01-29T14:36:51Z</time>
      </trkpt>
      <trkpt lat="44.79158" lon="5.59352">
        <ele>1123</ele>
        <time>2009-01-29T14:36:51Z</time>
      </trkpt>
      <trkpt lat="44.79096" lon="5.59392">
        <ele>1133</ele>
        <time>2009-01-29T14:36:51Z</time>
      </trkpt>
      <trkpt lat="44.79066" lon="5.594">
        <ele>1134</ele>
        <time>2009-01-29T14:36:51Z</time>
      </trkpt>
      <trkpt lat="44.79014" lon="5.59416">
        <ele>1135</ele>
        <time>2009-01-29T14:36:51Z</time>
      </trkpt>
      <trkpt lat="44.78976" lon="5.59464">
        <ele>1142</ele>
        <time>2009-01-29T14:36:51Z</time>
      </trkpt>
      <trkpt lat="44.78957" lon="5.59501">
        <ele>1150</ele>
        <time>2009-01-29T14:36:51Z</time>
      </trkpt>
      <trkpt lat="44.78888" lon="5.59557">
        <ele>1158</ele>
        <time>2009-01-29T14:36:51Z</time>
      </trkpt>
      <trkpt lat="44.78862" lon="5.59606">
        <ele>1169</ele>
        <time>2009-01-29T14:36:51Z</time>
      </trkpt>
      <trkpt lat="44.78804" lon="5.59676">
        <ele>1172</ele>
        <time>2009-01-29T14:36:51Z</time>
      </trkpt>
      <trkpt lat="44.78715" lon="5.59794">
        <ele>1182</ele>
        <time>2009-01-29T14:36:51Z</time>
      </trkpt>
      <trkpt lat="44.78653" lon="5.59828">
        <ele>1185</ele>
        <time>2009-01-29T14:36:51Z</time>
      </trkpt>
      <trkpt lat="44.78581" lon="5.59821">
        <ele>1188</ele>
        <time>2009-01-29T14:36:51Z</time>
      </trkpt>
      <trkpt lat="44.78536" lon="5.59834">
        <ele>1195</ele>
        <time>2009-01-29T14:36:51Z</time>
      </trkpt>
      <trkpt lat="44.78526" lon="5.59862">
        <ele>1197</ele>
        <time>2009-01-29T14:36:51Z</time>
      </trkpt>
      <trkpt lat="44.78493" lon="5.59825">
        <ele>1198</ele>
        <time>2009-01-29T14:36:51Z</time>
      </trkpt>
      <trkpt lat="44.78445" lon="5.59772">
        <ele>1201</ele>
        <time>2009-01-29T14:36:51Z</time>
      </trkpt>
      <trkpt lat="44.78395" lon="5.59737">
        <ele>1200</ele>
        <time>2009-01-29T14:36:51Z</time>
      </trkpt>
      <trkpt lat="44.78353" lon="5.59684">
        <ele>1206</ele>
        <time>2009-01-29T14:36:51Z</time>
      </trkpt>
      <trkpt lat="44.78331" lon="5.5961">
        <ele>1214</ele>
        <time>2009-01-29T14:36:51Z</time>
      </trkpt>
      <trkpt lat="44.78329" lon="5.59528">
        <ele>1219</ele>
        <time>2009-01-29T14:36:51Z</time>
      </trkpt>
      <trkpt lat="44.78331" lon="5.59452">
        <ele>1227</ele>
        <time>2009-01-29T14:36:51Z</time>
      </trkpt>
      <trkpt lat="44.78306" lon="5.59444">
        <ele>1219</ele>
        <time>2009-01-29T14:36:51Z</time>
      </trkpt>
      <trkpt lat="44.78262" lon="5.59495">
        <ele>1204</ele>
        <time>2009-01-29T14:36:51Z</time>
      </trkpt>
      <trkpt lat="44.782" lon="5.59558">
        <ele>1202</ele>
        <time>2009-01-29T14:36:51Z</time>
      </trkpt>
      <trkpt lat="44.78167" lon="5.59588">
        <ele>1202</ele>
        <time>2009-01-29T14:36:51Z</time>
      </trkpt>
      <trkpt lat="44.78145" lon="5.5958">
        <ele>1209</ele>
        <time>2009-01-29T14:36:51Z</time>
      </trkpt>
      <trkpt lat="44.78128" lon="5.59544">
        <ele>1213</ele>
        <time>2009-01-29T14:36:51Z</time>
      </trkpt>
      <trkpt lat="44.78123" lon="5.59472">
        <ele>1224</ele>
        <time>2009-01-29T14:36:51Z</time>
      </trkpt>
      <trkpt lat="44.78099" lon="5.59375">
        <ele>1227</ele>
        <time>2009-01-29T14:36:51Z</time>
      </trkpt>
      <trkpt lat="44.78096" lon="5.59344">
        <ele>1230</ele>
        <time>2009-01-29T14:36:51Z</time>
      </trkpt>
      <trkpt lat="44.78071" lon="5.59352">
        <ele>1220</ele>
        <time>2009-01-29T14:36:51Z</time>
      </trkpt>
      <trkpt lat="44.78055" lon="5.59408">
        <ele>1209</ele>
        <time>2009-01-29T14:36:51Z</time>
      </trkpt>
      <trkpt lat="44.78017" lon="5.59478">
        <ele>1213</ele>
        <time>2009-01-29T14:36:51Z</time>
      </trkpt>
      <trkpt lat="44.78006" lon="5.59556">
        <ele>1205</ele>
        <time>2009-01-29T14:36:51Z</time>
      </trkpt>
      <trkpt lat="44.77983" lon="5.5964">
        <ele>1203</ele>
        <time>2009-01-29T14:36:51Z</time>
      </trkpt>
      <trkpt lat="44.77965" lon="5.59652">
        <ele>1206</ele>
        <time>2009-01-29T14:36:51Z</time>
      </trkpt>
      <trkpt lat="44.77948" lon="5.59604">
        <ele>1210</ele>
        <time>2009-01-29T14:36:51Z</time>
      </trkpt>
      <trkpt lat="44.77915" lon="5.59422">
        <ele>1237</ele>
        <time>2009-01-29T14:36:51Z</time>
      </trkpt>
      <trkpt lat="44.77915" lon="5.59361">
        <ele>1241</ele>
        <time>2009-01-29T14:36:51Z</time>
      </trkpt>
      <trkpt lat="44.77909" lon="5.59323">
        <ele>1242</ele>
        <time>2009-01-29T14:36:51Z</time>
      </trkpt>
      <trkpt lat="44.77897" lon="5.59297">
        <ele>1241</ele>
        <time>2009-01-29T14:36:51Z</time>
      </trkpt>
      <trkpt lat="44.77905" lon="5.59231">
        <ele>1248</ele>
        <time>2009-01-29T14:36:51Z</time>
      </trkpt>
      <trkpt lat="44.77901" lon="5.59139">
        <ele>1251</ele>
        <time>2009-01-29T14:36:51Z</time>
      </trkpt>
      <trkpt lat="44.77879" lon="5.59126">
        <ele>1246</ele>
        <time>2009-01-29T14:36:51Z</time>
      </trkpt>
      <trkpt lat="44.77863" lon="5.59134">
        <ele>1242</ele>
        <time>2009-01-29T14:36:51Z</time>
      </trkpt>
      <trkpt lat="44.7784" lon="5.59155">
        <ele>1233</ele>
        <time>2009-01-29T14:36:51Z</time>
      </trkpt>
      <trkpt lat="44.77818" lon="5.59157">
        <ele>1237</ele>
        <time>2009-01-29T14:36:51Z</time>
      </trkpt>
      <trkpt lat="44.77797" lon="5.59171">
        <ele>1236</ele>
        <time>2009-01-29T14:36:51Z</time>
      </trkpt>
      <trkpt lat="44.77775" lon="5.59161">
        <ele>1238</ele>
        <time>2009-01-29T14:36:51Z</time>
      </trkpt>
      <trkpt lat="44.77743" lon="5.59086">
        <ele>1253</ele>
        <time>2009-01-29T14:36:51Z</time>
      </trkpt>
      <trkpt lat="44.77679" lon="5.59054">
        <ele>1254</ele>
        <time>2009-01-29T14:36:51Z</time>
      </trkpt>
      <trkpt lat="44.77658" lon="5.59081">
        <ele>1250</ele>
        <time>2009-01-29T14:36:51Z</time>
      </trkpt>
      <trkpt lat="44.77657" lon="5.59113">
        <ele>1248</ele>
        <time>2009-01-29T14:36:51Z</time>
      </trkpt>
      <trkpt lat="44.77651" lon="5.59141">
        <ele>1246</ele>
        <time>2009-01-29T14:36:51Z</time>
      </trkpt>
      <trkpt lat="44.77629" lon="5.5913">
        <ele>1253</ele>
        <time>2009-01-29T14:36:51Z</time>
      </trkpt>
      <trkpt lat="44.77607" lon="5.59119">
        <ele>1259</ele>
        <time>2009-01-29T14:36:51Z</time>
      </trkpt>
      <trkpt lat="44.77599" lon="5.59176">
        <ele>1257</ele>
        <time>2009-01-29T14:36:51Z</time>
      </trkpt>
      <trkpt lat="44.77619" lon="5.59249">
        <ele>1246</ele>
        <time>2009-01-29T14:36:51Z</time>
      </trkpt>
      <trkpt lat="44.77622" lon="5.593">
        <ele>1246</ele>
        <time>2009-01-29T14:36:51Z</time>
      </trkpt>
      <trkpt lat="44.77585" lon="5.59326">
        <ele>1254</ele>
        <time>2009-01-29T14:36:51Z</time>
      </trkpt>
      <trkpt lat="44.77565" lon="5.59392">
        <ele>1251</ele>
        <time>2009-01-29T14:36:51Z</time>
      </trkpt>
      <trkpt lat="44.77564" lon="5.59723">
        <ele>1201</ele>
        <time>2009-01-29T14:36:51Z</time>
      </trkpt>
      <trkpt lat="44.77581" lon="5.59769">
        <ele>1191</ele>
        <time>2009-01-29T14:36:51Z</time>
      </trkpt>
      <trkpt lat="44.77587" lon="5.59807">
        <ele>1184</ele>
        <time>2009-01-29T14:36:51Z</time>
      </trkpt>
      <trkpt lat="44.77536" lon="5.59779">
        <ele>1191</ele>
        <time>2009-01-29T14:36:51Z</time>
      </trkpt>
      <trkpt lat="44.77467" lon="5.59664">
        <ele>1186</ele>
        <time>2009-01-29T14:36:51Z</time>
      </trkpt>
      <trkpt lat="44.77428" lon="5.59614">
        <ele>1181</ele>
        <time>2009-01-29T14:36:51Z</time>
      </trkpt>
      <trkpt lat="44.77381" lon="5.59605">
        <ele>1172</ele>
        <time>2009-01-29T14:36:51Z</time>
      </trkpt>
      <trkpt lat="44.77331" lon="5.59615">
        <ele>1165</ele>
        <time>2009-01-29T14:36:51Z</time>
      </trkpt>
      <trkpt lat="44.77315" lon="5.5962">
        <ele>1162</ele>
        <time>2009-01-29T14:36:51Z</time>
      </trkpt>
      <trkpt lat="44.77328" lon="5.59656">
        <ele>1158</ele>
        <time>2009-01-29T14:36:51Z</time>
      </trkpt>
      <trkpt lat="44.77386" lon="5.59675">
        <ele>1162</ele>
        <time>2009-01-29T14:36:51Z</time>
      </trkpt>
      <trkpt lat="44.77423" lon="5.59712">
        <ele>1164</ele>
        <time>2009-01-29T14:36:51Z</time>
      </trkpt>
      <trkpt lat="44.77415" lon="5.5974">
        <ele>1158</ele>
        <time>2009-01-29T14:36:51Z</time>
      </trkpt>
      <trkpt lat="44.77391" lon="5.59735">
        <ele>1155</ele>
        <time>2009-01-29T14:36:51Z</time>
      </trkpt>
      <trkpt lat="44.77369" lon="5.59715">
        <ele>1154</ele>
        <time>2009-01-29T14:36:51Z</time>
      </trkpt>
      <trkpt lat="44.7735" lon="5.5973">
        <ele>1150</ele>
        <time>2009-01-29T14:36:51Z</time>
      </trkpt>
      <trkpt lat="44.77345" lon="5.59777">
        <ele>1145</ele>
        <time>2009-01-29T14:36:51Z</time>
      </trkpt>
      <trkpt lat="44.77376" lon="5.59791">
        <ele>1148</ele>
        <time>2009-01-29T14:36:51Z</time>
      </trkpt>
      <trkpt lat="44.77395" lon="5.59824">
        <ele>1147</ele>
        <time>2009-01-29T14:36:51Z</time>
      </trkpt>
      <trkpt lat="44.77414" lon="5.5986">
        <ele>1147</ele>
        <time>2009-01-29T14:36:51Z</time>
      </trkpt>
      <trkpt lat="44.77445" lon="5.59884">
        <ele>1153</ele>
        <time>2009-01-29T14:36:51Z</time>
      </trkpt>
      <trkpt lat="44.7744" lon="5.59906">
        <ele>1152</ele>
        <time>2009-01-29T14:36:51Z</time>
      </trkpt>
      <trkpt lat="44.77422" lon="5.59911">
        <ele>1147</ele>
        <time>2009-01-29T14:36:51Z</time>
      </trkpt>
      <trkpt lat="44.77389" lon="5.5989">
        <ele>1140</ele>
        <time>2009-01-29T14:36:51Z</time>
      </trkpt>
      <trkpt lat="44.77377" lon="5.59902">
        <ele>1137</ele>
        <time>2009-01-29T14:36:51Z</time>
      </trkpt>
      <trkpt lat="44.77391" lon="5.59947">
        <ele>1136</ele>
        <time>2009-01-29T14:36:51Z</time>
      </trkpt>
      <trkpt lat="44.7741" lon="5.60002">
        <ele>1137</ele>
        <time>2009-01-29T14:36:51Z</time>
      </trkpt>
      <trkpt lat="44.77383" lon="5.60013">
        <ele>1126</ele>
        <time>2009-01-29T14:36:51Z</time>
      </trkpt>
      <trkpt lat="44.77347" lon="5.59986">
        <ele>1122</ele>
        <time>2009-01-29T14:36:51Z</time>
      </trkpt>
      <trkpt lat="44.7731" lon="5.60021">
        <ele>1114</ele>
        <time>2009-01-29T14:36:51Z</time>
      </trkpt>
      <trkpt lat="44.77284" lon="5.60017">
        <ele>1116</ele>
        <time>2009-01-29T14:36:51Z</time>
      </trkpt>
      <trkpt lat="44.77271" lon="5.60044">
        <ele>1113</ele>
        <time>2009-01-29T14:36:51Z</time>
      </trkpt>
      <trkpt lat="44.77307" lon="5.60072">
        <ele>1112</ele>
        <time>2009-01-29T14:36:51Z</time>
      </trkpt>
      <trkpt lat="44.77337" lon="5.60099">
        <ele>1110</ele>
        <time>2009-01-29T14:36:51Z</time>
      </trkpt>
      <trkpt lat="44.77345" lon="5.60147">
        <ele>1108</ele>
        <time>2009-01-29T14:36:51Z</time>
      </trkpt>
      <trkpt lat="44.77341" lon="5.60216">
        <ele>1102</ele>
        <time>2009-01-29T14:36:51Z</time>
      </trkpt>
      <trkpt lat="44.77355" lon="5.60274">
        <ele>1091</ele>
        <time>2009-01-29T14:36:51Z</time>
      </trkpt>
      <trkpt lat="44.7732" lon="5.603">
        <ele>1088</ele>
        <time>2009-01-29T14:36:51Z</time>
      </trkpt>
      <trkpt lat="44.77275" lon="5.60291">
        <ele>1091</ele>
        <time>2009-01-29T14:36:51Z</time>
      </trkpt>
      <trkpt lat="44.77206" lon="5.60274">
        <ele>1090</ele>
        <time>2009-01-29T14:36:51Z</time>
      </trkpt>
      <trkpt lat="44.77172" lon="5.60282">
        <ele>1083</ele>
        <time>2009-01-29T14:36:51Z</time>
      </trkpt>
      <trkpt lat="44.77123" lon="5.60285">
        <ele>1081</ele>
        <time>2009-01-29T14:36:51Z</time>
      </trkpt>
      <trkpt lat="44.77091" lon="5.6029">
        <ele>1079</ele>
        <time>2009-01-29T14:36:51Z</time>
      </trkpt>
      <trkpt lat="44.77032" lon="5.60299">
        <ele>1080</ele>
        <time>2009-01-29T14:36:51Z</time>
      </trkpt>
      <trkpt lat="44.77022" lon="5.60324">
        <ele>1084</ele>
        <time>2009-01-29T14:36:51Z</time>
      </trkpt>
      <trkpt lat="44.77086" lon="5.60372">
        <ele>1086</ele>
        <time>2009-01-29T14:36:51Z</time>
      </trkpt>
      <trkpt lat="44.77191" lon="5.60409">
        <ele>1077</ele>
        <time>2009-01-29T14:36:51Z</time>
      </trkpt>
      <trkpt lat="44.77201" lon="5.60441">
        <ele>1080</ele>
        <time>2009-01-29T14:36:51Z</time>
      </trkpt>
      <trkpt lat="44.77258" lon="5.60499">
        <ele>1072</ele>
        <time>2009-01-29T14:36:51Z</time>
      </trkpt>
      <trkpt lat="44.77208" lon="5.60524">
        <ele>1091</ele>
        <time>2009-01-29T14:36:51Z</time>
      </trkpt>
      <trkpt lat="44.77178" lon="5.60544">
        <ele>1098</ele>
        <time>2009-01-29T14:36:51Z</time>
      </trkpt>
      <trkpt lat="44.77157" lon="5.60638">
        <ele>1111</ele>
        <time>2009-01-29T14:36:51Z</time>
      </trkpt>
      <trkpt lat="44.77127" lon="5.60671">
        <ele>1119</ele>
        <time>2009-01-29T14:36:51Z</time>
      </trkpt>
      <trkpt lat="44.77135" lon="5.60716">
        <ele>1125</ele>
        <time>2009-01-29T14:36:51Z</time>
      </trkpt>
      <trkpt lat="44.77156" lon="5.60758">
        <ele>1128</ele>
        <time>2009-01-29T14:36:51Z</time>
      </trkpt>
      <trkpt lat="44.7716" lon="5.60837">
        <ele>1140</ele>
        <time>2009-01-29T14:36:51Z</time>
      </trkpt>
      <trkpt lat="44.77205" lon="5.60922">
        <ele>1146</ele>
        <time>2009-01-29T14:36:51Z</time>
      </trkpt>
      <trkpt lat="44.7724" lon="5.60959">
        <ele>1147</ele>
        <time>2009-01-29T14:36:51Z</time>
      </trkpt>
      <trkpt lat="44.77254" lon="5.61013">
        <ele>1150</ele>
        <time>2009-01-29T14:36:51Z</time>
      </trkpt>
      <trkpt lat="44.77247" lon="5.61089">
        <ele>1152</ele>
        <time>2009-01-29T14:36:51Z</time>
      </trkpt>
      <trkpt lat="44.77228" lon="5.61116">
        <ele>1159</ele>
        <time>2009-01-29T14:36:51Z</time>
      </trkpt>
      <trkpt lat="44.77231" lon="5.61179">
        <ele>1147</ele>
        <time>2009-01-29T14:36:51Z</time>
      </trkpt>
      <trkpt lat="44.77213" lon="5.61267">
        <ele>1165</ele>
        <time>2009-01-29T14:36:51Z</time>
      </trkpt>
      <trkpt lat="44.77285" lon="5.61337">
        <ele>1160</ele>
        <time>2009-01-29T14:36:51Z</time>
      </trkpt>
      <trkpt lat="44.77365" lon="5.61427">
        <ele>1154</ele>
        <time>2009-01-29T14:36:51Z</time>
      </trkpt>
      <trkpt lat="44.77441" lon="5.61549">
        <ele>1174</ele>
        <time>2009-01-29T14:36:51Z</time>
      </trkpt>
      <trkpt lat="44.77496" lon="5.61593">
        <ele>1172</ele>
        <time>2009-01-29T14:36:51Z</time>
      </trkpt>
      <trkpt lat="44.77555" lon="5.61628">
        <ele>1157</ele>
        <time>2009-01-29T14:36:51Z</time>
      </trkpt>
      <trkpt lat="44.77576" lon="5.61696">
        <ele>1175</ele>
        <time>2009-01-29T14:36:51Z</time>
      </trkpt>
      <trkpt lat="44.77595" lon="5.61735">
        <ele>1183</ele>
        <time>2009-01-29T14:36:51Z</time>
      </trkpt>
      <trkpt lat="44.77641" lon="5.61772">
        <ele>1177</ele>
        <time>2009-01-29T14:36:51Z</time>
      </trkpt>
      <trkpt lat="44.77709" lon="5.61823">
        <ele>1173</ele>
        <time>2009-01-29T14:36:51Z</time>
      </trkpt>
      <trkpt lat="44.77789" lon="5.6185">
        <ele>1158</ele>
        <time>2009-01-29T14:36:51Z</time>
      </trkpt>
      <trkpt lat="44.7784" lon="5.61882">
        <ele>1149</ele>
        <time>2009-01-29T14:36:51Z</time>
      </trkpt>
      <trkpt lat="44.77905" lon="5.61965">
        <ele>1126</ele>
        <time>2009-01-29T14:36:51Z</time>
      </trkpt>
      <trkpt lat="44.77919" lon="5.62044">
        <ele>1103</ele>
        <time>2009-01-29T14:36:51Z</time>
      </trkpt>
      <trkpt lat="44.77916" lon="5.62136">
        <ele>1089</ele>
        <time>2009-01-29T14:36:51Z</time>
      </trkpt>
      <trkpt lat="44.77925" lon="5.62209">
        <ele>1078</ele>
        <time>2009-01-29T14:36:51Z</time>
      </trkpt>
      <trkpt lat="44.77916" lon="5.62272">
        <ele>1075</ele>
        <time>2009-01-29T14:36:51Z</time>
      </trkpt>
      <trkpt lat="44.77894" lon="5.62359">
        <ele>1059</ele>
        <time>2009-01-29T14:36:51Z</time>
      </trkpt>
      <trkpt lat="44.77874" lon="5.62402">
        <ele>1054</ele>
        <time>2009-01-29T14:36:51Z</time>
      </trkpt>
      <trkpt lat="44.77873" lon="5.6244">
        <ele>1050</ele>
        <time>2009-01-29T14:36:51Z</time>
      </trkpt>
      <trkpt lat="44.77919" lon="5.62502">
        <ele>1036</ele>
        <time>2009-01-29T14:36:51Z</time>
      </trkpt>
      <trkpt lat="44.7794" lon="5.62548">
        <ele>1028</ele>
        <time>2009-01-29T14:36:51Z</time>
      </trkpt>
      <trkpt lat="44.77935" lon="5.62693">
        <ele>1011</ele>
        <time>2009-01-29T14:36:51Z</time>
      </trkpt>
      <trkpt lat="44.77876" lon="5.62879">
        <ele>989</ele>
        <time>2009-01-29T14:36:51Z</time>
      </trkpt>
      <trkpt lat="44.7785" lon="5.62922">
        <ele>984</ele>
        <time>2009-01-29T14:36:51Z</time>
      </trkpt>
      <trkpt lat="44.77788" lon="5.62953">
        <ele>985</ele>
        <time>2009-01-29T14:36:51Z</time>
      </trkpt>
      <trkpt lat="44.77758" lon="5.6298">
        <ele>984</ele>
        <time>2009-01-29T14:36:51Z</time>
      </trkpt>
      <trkpt lat="44.77748" lon="5.63001">
        <ele>983</ele>
        <time>2009-01-29T14:36:51Z</time>
      </trkpt>
      <trkpt lat="44.77759" lon="5.6303">
        <ele>980</ele>
        <time>2009-01-29T14:36:51Z</time>
      </trkpt>
      <trkpt lat="44.77779" lon="5.63035">
        <ele>975</ele>
        <time>2009-01-29T14:36:51Z</time>
      </trkpt>
      <trkpt lat="44.77797" lon="5.63029">
        <ele>972</ele>
        <time>2009-01-29T14:36:51Z</time>
      </trkpt>
      <trkpt lat="44.77814" lon="5.63052">
        <ele>965</ele>
        <time>2009-01-29T14:36:51Z</time>
      </trkpt>
      <trkpt lat="44.7783" lon="5.6305">
        <ele>963</ele>
        <time>2009-01-29T14:36:51Z</time>
      </trkpt>
      <trkpt lat="44.77838" lon="5.63108">
        <ele>961</ele>
        <time>2009-01-29T14:36:51Z</time>
      </trkpt>
      <trkpt lat="44.77858" lon="5.63172">
        <ele>958</ele>
        <time>2009-01-29T14:36:51Z</time>
      </trkpt>
      <trkpt lat="44.77867" lon="5.63236">
        <ele>955</ele>
        <time>2009-01-29T14:36:51Z</time>
      </trkpt>
      <trkpt lat="44.7789" lon="5.63307">
        <ele>950</ele>
        <time>2009-01-29T14:36:51Z</time>
      </trkpt>
      <trkpt lat="44.77897" lon="5.63376">
        <ele>947</ele>
        <time>2009-01-29T14:36:51Z</time>
      </trkpt>
      <trkpt lat="44.77895" lon="5.63452">
        <ele>944</ele>
        <time>2009-01-29T14:36:51Z</time>
      </trkpt>
      <trkpt lat="44.77881" lon="5.63527">
        <ele>942</ele>
        <time>2009-01-29T14:36:51Z</time>
      </trkpt>
      <trkpt lat="44.77864" lon="5.63583">
        <ele>941</ele>
        <time>2009-01-29T14:36:51Z</time>
      </trkpt>
      <trkpt lat="44.7789" lon="5.63626">
        <ele>936</ele>
        <time>2009-01-29T14:36:51Z</time>
      </trkpt>
      <trkpt lat="44.77927" lon="5.6365">
        <ele>930</ele>
        <time>2009-01-29T14:36:51Z</time>
      </trkpt>
      <trkpt lat="44.77885" lon="5.63919">
        <ele>922</ele>
        <time>2009-01-29T14:36:51Z</time>
      </trkpt>
      <trkpt lat="44.77883" lon="5.63989">
        <ele>916</ele>
        <time>2009-01-29T14:36:51Z</time>
      </trkpt>
      <trkpt lat="44.77913" lon="5.6406">
        <ele>906</ele>
        <time>2009-01-29T14:36:51Z</time>
      </trkpt>
      <trkpt lat="44.78028" lon="5.6418">
        <ele>897</ele>
        <time>2009-01-29T14:36:51Z</time>
      </trkpt>
      <trkpt lat="44.77995" lon="5.64175">
        <ele>898</ele>
        <time>2009-01-29T14:36:51Z</time>
      </trkpt>
      <trkpt lat="44.77913" lon="5.64133">
        <ele>898</ele>
        <time>2009-01-29T14:36:51Z</time>
      </trkpt>
      <trkpt lat="44.7758" lon="5.63968">
        <ele>897</ele>
        <time>2009-01-29T14:36:51Z</time>
      </trkpt>
      <trkpt lat="44.7753" lon="5.63898">
        <ele>899</ele>
        <time>2009-01-29T14:36:51Z</time>
      </trkpt>
      <trkpt lat="44.7746" lon="5.63847">
        <ele>901</ele>
        <time>2009-01-29T14:36:51Z</time>
      </trkpt>
      <trkpt lat="44.7745" lon="5.63862">
        <ele>901</ele>
        <time>2009-01-29T14:36:51Z</time>
      </trkpt>
      <trkpt lat="44.77459" lon="5.63945">
        <ele>905</ele>
        <time>2009-01-29T14:36:51Z</time>
      </trkpt>
      <trkpt lat="44.77512" lon="5.64128">
        <ele>910</ele>
        <time>2009-01-29T14:36:51Z</time>
      </trkpt>
      <trkpt lat="44.77553" lon="5.64206">
        <ele>906</ele>
        <time>2009-01-29T14:36:51Z</time>
      </trkpt>
      <trkpt lat="44.77526" lon="5.64195">
        <ele>914</ele>
        <time>2009-01-29T14:36:51Z</time>
      </trkpt>
      <trkpt lat="44.77426" lon="5.6406">
        <ele>933</ele>
        <time>2009-01-29T14:36:51Z</time>
      </trkpt>
      <trkpt lat="44.7744" lon="5.64275">
        <ele>940</ele>
        <time>2009-01-29T14:36:51Z</time>
      </trkpt>
      <trkpt lat="44.77426" lon="5.64306">
        <ele>941</ele>
        <time>2009-01-29T14:36:51Z</time>
      </trkpt>
      <trkpt lat="44.77352" lon="5.64359">
        <ele>950</ele>
        <time>2009-01-29T14:36:51Z</time>
      </trkpt>
      <trkpt lat="44.77271" lon="5.64376">
        <ele>957</ele>
        <time>2009-01-29T14:36:51Z</time>
      </trkpt>
      <trkpt lat="44.77218" lon="5.64398">
        <ele>961</ele>
        <time>2009-01-29T14:36:51Z</time>
      </trkpt>
      <trkpt lat="44.77158" lon="5.64448">
        <ele>960</ele>
        <time>2009-01-29T14:36:51Z</time>
      </trkpt>
      <trkpt lat="44.77108" lon="5.6448">
        <ele>961</ele>
        <time>2009-01-29T14:36:51Z</time>
      </trkpt>
      <trkpt lat="44.7707" lon="5.64459">
        <ele>968</ele>
        <time>2009-01-29T14:36:51Z</time>
      </trkpt>
      <trkpt lat="44.77034" lon="5.64469">
        <ele>972</ele>
        <time>2009-01-29T14:36:51Z</time>
      </trkpt>
      <trkpt lat="44.76999" lon="5.64511">
        <ele>972</ele>
        <time>2009-01-29T14:36:51Z</time>
      </trkpt>
      <trkpt lat="44.76975" lon="5.64564">
        <ele>970</ele>
        <time>2009-01-29T14:36:51Z</time>
      </trkpt>
      <trkpt lat="44.7698" lon="5.64624">
        <ele>964</ele>
        <time>2009-01-29T14:36:51Z</time>
      </trkpt>
      <trkpt lat="44.76952" lon="5.64711">
        <ele>964</ele>
        <time>2009-01-29T14:36:51Z</time>
      </trkpt>
      <trkpt lat="44.76941" lon="5.64865">
        <ele>956</ele>
        <time>2009-01-29T14:36:51Z</time>
      </trkpt>
      <trkpt lat="44.76904" lon="5.64958">
        <ele>956</ele>
        <time>2009-01-29T14:36:51Z</time>
      </trkpt>
      <trkpt lat="44.76887" lon="5.65086">
        <ele>951</ele>
        <time>2009-01-29T14:36:51Z</time>
      </trkpt>
      <trkpt lat="44.76895" lon="5.65125">
        <ele>948</ele>
        <time>2009-01-29T14:36:51Z</time>
      </trkpt>
      <trkpt lat="44.7688" lon="5.65171">
        <ele>947</ele>
        <time>2009-01-29T14:36:51Z</time>
      </trkpt>
      <trkpt lat="44.76851" lon="5.65447">
        <ele>939</ele>
        <time>2009-01-29T14:36:51Z</time>
      </trkpt>
      <trkpt lat="44.76875" lon="5.6549">
        <ele>934</ele>
        <time>2009-01-29T14:36:51Z</time>
      </trkpt>
      <trkpt lat="44.76895" lon="5.65494">
        <ele>932</ele>
        <time>2009-01-29T14:36:51Z</time>
      </trkpt>
      <trkpt lat="44.77008" lon="5.65397">
        <ele>924</ele>
        <time>2009-01-29T14:36:51Z</time>
      </trkpt>
      <trkpt lat="44.77086" lon="5.65287">
        <ele>916</ele>
        <time>2009-01-29T14:36:51Z</time>
      </trkpt>
      <trkpt lat="44.77113" lon="5.65289">
        <ele>912</ele>
        <time>2009-01-29T14:36:51Z</time>
      </trkpt>
      <trkpt lat="44.77131" lon="5.6535">
        <ele>910</ele>
        <time>2009-01-29T14:36:51Z</time>
      </trkpt>
      <trkpt lat="44.77141" lon="5.65398">
        <ele>909</ele>
        <time>2009-01-29T14:36:51Z</time>
      </trkpt>
      <trkpt lat="44.77216" lon="5.65526">
        <ele>901</ele>
        <time>2009-01-29T14:36:51Z</time>
      </trkpt>
      <trkpt lat="44.77251" lon="5.65721">
        <ele>892</ele>
        <time>2009-01-29T14:36:51Z</time>
      </trkpt>
      <trkpt lat="44.77251" lon="5.65768">
        <ele>888</ele>
        <time>2009-01-29T14:36:51Z</time>
      </trkpt>
      <trkpt lat="44.77205" lon="5.65964">
        <ele>874</ele>
        <time>2009-01-29T14:36:51Z</time>
      </trkpt>
      <trkpt lat="44.77179" lon="5.66067">
        <ele>869</ele>
        <time>2009-01-29T14:36:51Z</time>
      </trkpt>
      <trkpt lat="44.7716" lon="5.66107">
        <ele>868</ele>
        <time>2009-01-29T14:36:51Z</time>
      </trkpt>
      <trkpt lat="44.77082" lon="5.66222">
        <ele>860</ele>
        <time>2009-01-29T14:36:51Z</time>
      </trkpt>
      <trkpt lat="44.77068" lon="5.66256">
        <ele>856</ele>
        <time>2009-01-29T14:36:51Z</time>
      </trkpt>
      <trkpt lat="44.76995" lon="5.6629">
        <ele>850</ele>
        <time>2009-01-29T14:36:51Z</time>
      </trkpt>
      <trkpt lat="44.76906" lon="5.6631">
        <ele>846</ele>
        <time>2009-01-29T14:36:51Z</time>
      </trkpt>
      <trkpt lat="44.76844" lon="5.66287">
        <ele>849</ele>
        <time>2009-01-29T14:36:51Z</time>
      </trkpt>
      <trkpt lat="44.76754" lon="5.66209">
        <ele>851</ele>
        <time>2009-01-29T14:36:51Z</time>
      </trkpt>
      <trkpt lat="44.76672" lon="5.6616">
        <ele>847</ele>
        <time>2009-01-29T14:36:51Z</time>
      </trkpt>
      <trkpt lat="44.76601" lon="5.66153">
        <ele>840</ele>
        <time>2009-01-29T14:36:51Z</time>
      </trkpt>
      <trkpt lat="44.76552" lon="5.66267">
        <ele>830</ele>
        <time>2009-01-29T14:36:51Z</time>
      </trkpt>
      <trkpt lat="44.76515" lon="5.66306">
        <ele>833</ele>
        <time>2009-01-29T14:36:51Z</time>
      </trkpt>
      <trkpt lat="44.76437" lon="5.66437">
        <ele>836</ele>
        <time>2009-01-29T14:36:51Z</time>
      </trkpt>
      <trkpt lat="44.76407" lon="5.66448">
        <ele>839</ele>
        <time>2009-01-29T14:36:51Z</time>
      </trkpt>
      <trkpt lat="44.76328" lon="5.66595">
        <ele>836</ele>
        <time>2009-01-29T14:36:51Z</time>
      </trkpt>
      <trkpt lat="44.76294" lon="5.66687">
        <ele>836</ele>
        <time>2009-01-29T14:36:51Z</time>
      </trkpt>
      <trkpt lat="44.76285" lon="5.66753">
        <ele>836</ele>
        <time>2009-01-29T14:36:51Z</time>
      </trkpt>
      <trkpt lat="44.763" lon="5.66953">
        <ele>842</ele>
        <time>2009-01-29T14:36:51Z</time>
      </trkpt>
      <trkpt lat="44.7636" lon="5.6713">
        <ele>853</ele>
        <time>2009-01-29T14:36:51Z</time>
      </trkpt>
      <trkpt lat="44.7636" lon="5.67197">
        <ele>857</ele>
        <time>2009-01-29T14:36:51Z</time>
      </trkpt>
      <trkpt lat="44.76336" lon="5.67236">
        <ele>857</ele>
        <time>2009-01-29T14:36:51Z</time>
      </trkpt>
      <trkpt lat="44.76373" lon="5.67283">
        <ele>863</ele>
        <time>2009-01-29T14:36:51Z</time>
      </trkpt>
      <trkpt lat="44.76395" lon="5.67363">
        <ele>875</ele>
        <time>2009-01-29T14:36:51Z</time>
      </trkpt>
      <trkpt lat="44.76424" lon="5.67545">
        <ele>869</ele>
        <time>2009-01-29T14:36:51Z</time>
      </trkpt>
      <trkpt lat="44.76438" lon="5.67751">
        <ele>844</ele>
        <time>2009-01-29T14:36:51Z</time>
      </trkpt>
      <trkpt lat="44.76508" lon="5.67888">
        <ele>838</ele>
        <time>2009-01-29T14:36:51Z</time>
      </trkpt>
      <trkpt lat="44.7645" lon="5.67853">
        <ele>843</ele>
        <time>2009-01-29T14:36:51Z</time>
      </trkpt>
      <trkpt lat="44.76508" lon="5.68084">
        <ele>844</ele>
        <time>2009-01-29T14:36:51Z</time>
      </trkpt>
      <trkpt lat="44.76546" lon="5.68114">
        <ele>840</ele>
        <time>2009-01-29T14:36:51Z</time>
      </trkpt>
      <trkpt lat="44.76518" lon="5.6823">
        <ele>843</ele>
        <time>2009-01-29T14:36:51Z</time>
      </trkpt>
      <trkpt lat="44.76569" lon="5.68388">
        <ele>840</ele>
        <time>2009-01-29T14:36:51Z</time>
      </trkpt>
      <trkpt lat="44.76648" lon="5.68465">
        <ele>841</ele>
        <time>2009-01-29T14:36:51Z</time>
      </trkpt>
      <trkpt lat="44.76725" lon="5.68511">
        <ele>837</ele>
        <time>2009-01-29T14:36:51Z</time>
      </trkpt>
      <trkpt lat="44.76763" lon="5.68611">
        <ele>833</ele>
        <time>2009-01-29T14:36:51Z</time>
      </trkpt>
      <trkpt lat="44.76804" lon="5.68727">
        <ele>822</ele>
        <time>2009-01-29T14:36:51Z</time>
      </trkpt>
      <trkpt lat="44.76832" lon="5.68855">
        <ele>812</ele>
        <time>2009-01-29T14:36:51Z</time>
      </trkpt>
      <trkpt lat="44.76833" lon="5.6895">
        <ele>801</ele>
        <time>2009-01-29T14:36:51Z</time>
      </trkpt>
      <trkpt lat="44.76874" lon="5.68955">
        <ele>796</ele>
        <time>2009-01-29T14:36:51Z</time>
      </trkpt>
      <trkpt lat="44.7689" lon="5.68922">
        <ele>796</ele>
        <time>2009-01-29T14:36:51Z</time>
      </trkpt>
      <trkpt lat="44.77001" lon="5.69121">
        <ele>770</ele>
        <time>2009-01-29T14:36:51Z</time>
      </trkpt>
      <trkpt lat="44.76972" lon="5.69129">
        <ele>768</ele>
        <time>2009-01-29T14:36:51Z</time>
      </trkpt>
      <trkpt lat="44.76941" lon="5.69114">
        <ele>769</ele>
        <time>2009-01-29T14:36:51Z</time>
      </trkpt>
      <trkpt lat="44.76899" lon="5.69077">
        <ele>776</ele>
        <time>2009-01-29T14:36:51Z</time>
      </trkpt>
      <trkpt lat="44.76865" lon="5.69081">
        <ele>774</ele>
        <time>2009-01-29T14:36:51Z</time>
      </trkpt>
      <trkpt lat="44.76833" lon="5.69105">
        <ele>770</ele>
        <time>2009-01-29T14:36:51Z</time>
      </trkpt>
      <trkpt lat="44.76775" lon="5.69174">
        <ele>763</ele>
        <time>2009-01-29T14:36:51Z</time>
      </trkpt>
      <trkpt lat="44.76678" lon="5.6925">
        <ele>752</ele>
        <time>2009-01-29T14:36:51Z</time>
      </trkpt>
      <trkpt lat="44.76646" lon="5.69277">
        <ele>749</ele>
        <time>2009-01-29T14:36:51Z</time>
      </trkpt>
      <trkpt lat="44.76681" lon="5.69288">
        <ele>740</ele>
        <time>2009-01-29T14:36:51Z</time>
      </trkpt>
      <trkpt lat="44.76743" lon="5.69267">
        <ele>740</ele>
        <time>2009-01-29T14:36:51Z</time>
      </trkpt>
      <trkpt lat="44.76785" lon="5.69288">
        <ele>731</ele>
        <time>2009-01-29T14:36:51Z</time>
      </trkpt>
      <trkpt lat="44.76789" lon="5.69307">
        <ele>725</ele>
        <time>2009-01-29T14:36:51Z</time>
      </trkpt>
      <trkpt lat="44.76757" lon="5.69296">
        <ele>730</ele>
        <time>2009-01-29T14:36:51Z</time>
      </trkpt>
      <trkpt lat="44.76728" lon="5.69304">
        <ele>730</ele>
        <time>2009-01-29T14:36:51Z</time>
      </trkpt>
      <trkpt lat="44.76684" lon="5.69342">
        <ele>731</ele>
        <time>2009-01-29T14:36:51Z</time>
      </trkpt>
      <trkpt lat="44.7664" lon="5.69371">
        <ele>736</ele>
        <time>2009-01-29T14:36:51Z</time>
      </trkpt>
      <trkpt lat="44.76609" lon="5.69372">
        <ele>741</ele>
        <time>2009-01-29T14:36:51Z</time>
      </trkpt>
      <trkpt lat="44.76548" lon="5.69366">
        <ele>747</ele>
        <time>2009-01-29T14:36:51Z</time>
      </trkpt>
      <trkpt lat="44.7653" lon="5.69374">
        <ele>749</ele>
        <time>2009-01-29T14:36:51Z</time>
      </trkpt>
      <trkpt lat="44.76549" lon="5.69407">
        <ele>751</ele>
        <time>2009-01-29T14:36:51Z</time>
      </trkpt>
      <trkpt lat="44.76611" lon="5.69436">
        <ele>748</ele>
        <time>2009-01-29T14:36:51Z</time>
      </trkpt>
      <trkpt lat="44.76667" lon="5.69458">
        <ele>746</ele>
        <time>2009-01-29T14:36:51Z</time>
      </trkpt>
      <trkpt lat="44.76732" lon="5.69452">
        <ele>744</ele>
        <time>2009-01-29T14:36:51Z</time>
      </trkpt>
      <trkpt lat="44.76797" lon="5.69478">
        <ele>752</ele>
        <time>2009-01-29T14:36:51Z</time>
      </trkpt>
      <trkpt lat="44.76871" lon="5.6948">
        <ele>745</ele>
        <time>2009-01-29T14:36:51Z</time>
      </trkpt>
      <trkpt lat="44.7694" lon="5.69503">
        <ele>745</ele>
        <time>2009-01-29T14:36:51Z</time>
      </trkpt>
      <trkpt lat="44.77004" lon="5.69535">
        <ele>748</ele>
        <time>2009-01-29T14:36:51Z</time>
      </trkpt>
      <trkpt lat="44.77051" lon="5.6957">
        <ele>752</ele>
        <time>2009-01-29T14:36:51Z</time>
      </trkpt>
      <trkpt lat="44.77039" lon="5.69578">
        <ele>754</ele>
        <time>2009-01-29T14:36:51Z</time>
      </trkpt>
      <trkpt lat="44.76997" lon="5.69576">
        <ele>755</ele>
        <time>2009-01-29T14:36:51Z</time>
      </trkpt>
      <trkpt lat="44.76976" lon="5.69587">
        <ele>758</ele>
        <time>2009-01-29T14:36:51Z</time>
      </trkpt>
      <trkpt lat="44.76995" lon="5.6962">
        <ele>763</ele>
        <time>2009-01-29T14:36:51Z</time>
      </trkpt>
      <trkpt lat="44.77049" lon="5.69639">
        <ele>763</ele>
        <time>2009-01-29T14:36:51Z</time>
      </trkpt>
      <trkpt lat="44.77078" lon="5.69631">
        <ele>760</ele>
        <time>2009-01-29T14:36:51Z</time>
      </trkpt>
      <trkpt lat="44.77184" lon="5.6971">
        <ele>767</ele>
        <time>2009-01-29T14:36:51Z</time>
      </trkpt>
      <trkpt lat="44.77185" lon="5.69739">
        <ele>768</ele>
        <time>2009-01-29T14:36:51Z</time>
      </trkpt>
      <trkpt lat="44.77159" lon="5.69781">
        <ele>770</ele>
        <time>2009-01-29T14:36:51Z</time>
      </trkpt>
      <trkpt lat="44.77138" lon="5.69799">
        <ele>772</ele>
        <time>2009-01-29T14:36:51Z</time>
      </trkpt>
      <trkpt lat="44.77094" lon="5.69781">
        <ele>773</ele>
        <time>2009-01-29T14:36:51Z</time>
      </trkpt>
      <trkpt lat="44.7708" lon="5.69792">
        <ele>774</ele>
        <time>2009-01-29T14:36:51Z</time>
      </trkpt>
      <trkpt lat="44.77063" lon="5.69893">
        <ele>777</ele>
        <time>2009-01-29T14:36:51Z</time>
      </trkpt>
      <trkpt lat="44.77025" lon="5.6996">
        <ele>780</ele>
        <time>2009-01-29T14:36:51Z</time>
      </trkpt>
      <trkpt lat="44.77009" lon="5.70047">
        <ele>783</ele>
        <time>2009-01-29T14:36:51Z</time>
      </trkpt>
      <trkpt lat="44.77009" lon="5.70047">
        <ele>783</ele>
        <time>2009-01-29T14:36:51Z</time>
      </trkpt>
      <trkpt lat="44.77002" lon="5.70072">
        <ele>784</ele>
        <time>2009-01-29T14:36:51Z</time>
      </trkpt>
      <trkpt lat="44.76979" lon="5.70093">
        <ele>788</ele>
        <time>2009-01-29T14:36:51Z</time>
      </trkpt>
      <trkpt lat="44.76955" lon="5.70117">
        <ele>791</ele>
        <time>2009-01-29T14:36:51Z</time>
      </trkpt>
      <trkpt lat="44.76941" lon="5.70151">
        <ele>794</ele>
        <time>2009-01-29T14:36:51Z</time>
      </trkpt>
      <trkpt lat="44.76929" lon="5.70169">
        <ele>796</ele>
        <time>2009-01-29T14:36:51Z</time>
      </trkpt>
      <trkpt lat="44.76928" lon="5.70188">
        <ele>797</ele>
        <time>2009-01-29T14:36:51Z</time>
      </trkpt>
      <trkpt lat="44.76912" lon="5.70206">
        <ele>799</ele>
        <time>2009-01-29T14:36:51Z</time>
      </trkpt>
      <trkpt lat="44.76922" lon="5.70263">
        <ele>798</ele>
        <time>2009-01-29T14:36:51Z</time>
      </trkpt>
      <trkpt lat="44.76933" lon="5.7039">
        <ele>797</ele>
        <time>2009-01-29T14:36:51Z</time>
      </trkpt>
      <trkpt lat="44.76921" lon="5.705">
        <ele>796</ele>
        <time>2009-01-29T14:36:51Z</time>
      </trkpt>
      <trkpt lat="44.76813" lon="5.70784">
        <ele>801</ele>
        <time>2009-01-29T14:36:51Z</time>
      </trkpt>
      <trkpt lat="44.76789" lon="5.70849">
        <ele>805</ele>
        <time>2009-01-29T14:36:51Z</time>
      </trkpt>
      <trkpt lat="44.76782" lon="5.70912">
        <ele>803</ele>
        <time>2009-01-29T14:36:51Z</time>
      </trkpt>
      <trkpt lat="44.76781" lon="5.71045">
        <ele>798</ele>
        <time>2009-01-29T14:36:51Z</time>
      </trkpt>
      <trkpt lat="44.76767" lon="5.71138">
        <ele>797</ele>
        <time>2009-01-29T14:36:51Z</time>
      </trkpt>
      <trkpt lat="44.76755" lon="5.71217">
        <ele>795</ele>
        <time>2009-01-29T14:36:51Z</time>
      </trkpt>
      <trkpt lat="44.76754" lon="5.71334">
        <ele>785</ele>
        <time>2009-01-29T14:36:51Z</time>
      </trkpt>
      <trkpt lat="44.76732" lon="5.71399">
        <ele>784</ele>
        <time>2009-01-29T14:36:51Z</time>
      </trkpt>
      <trkpt lat="44.76718" lon="5.71467">
        <ele>782</ele>
        <time>2009-01-29T14:36:51Z</time>
      </trkpt>
      <trkpt lat="44.76708" lon="5.71574">
        <ele>774</ele>
        <time>2009-01-29T14:36:51Z</time>
      </trkpt>
      <trkpt lat="44.76693" lon="5.71643">
        <ele>773</ele>
        <time>2009-01-29T14:36:51Z</time>
      </trkpt>
      <trkpt lat="44.76649" lon="5.71735">
        <ele>778</ele>
        <time>2009-01-29T14:36:51Z</time>
      </trkpt>
      <trkpt lat="44.76625" lon="5.718">
        <ele>778</ele>
        <time>2009-01-29T14:36:51Z</time>
      </trkpt>
      <trkpt lat="44.76615" lon="5.719">
        <ele>773</ele>
        <time>2009-01-29T14:36:51Z</time>
      </trkpt>
      <trkpt lat="44.76592" lon="5.71984">
        <ele>769</ele>
        <time>2009-01-29T14:36:51Z</time>
      </trkpt>
      <trkpt lat="44.76529" lon="5.72069">
        <ele>775</ele>
        <time>2009-01-29T14:36:51Z</time>
      </trkpt>
      <trkpt lat="44.76486" lon="5.72139">
        <ele>772</ele>
        <time>2009-01-29T14:36:51Z</time>
      </trkpt>
      <trkpt lat="44.76449" lon="5.72244">
        <ele>766</ele>
        <time>2009-01-29T14:36:51Z</time>
      </trkpt>
      <trkpt lat="44.76449" lon="5.72332">
        <ele>757</ele>
        <time>2009-01-29T14:36:51Z</time>
      </trkpt>
      <trkpt lat="44.76401" lon="5.72427">
        <ele>756</ele>
        <time>2009-01-29T14:36:51Z</time>
      </trkpt>
      <trkpt lat="44.76455" lon="5.725">
        <ele>760</ele>
        <time>2009-01-29T14:36:51Z</time>
      </trkpt>
      <trkpt lat="44.76485" lon="5.72524">
        <ele>766</ele>
        <time>2009-01-29T14:36:51Z</time>
      </trkpt>
      <trkpt lat="44.76449" lon="5.72623">
        <ele>776</ele>
        <time>2009-01-29T14:36:51Z</time>
      </trkpt>
      <trkpt lat="44.76385" lon="5.72708">
        <ele>770</ele>
        <time>2009-01-29T14:36:51Z</time>
      </trkpt>
      <trkpt lat="44.7631" lon="5.72807">
        <ele>775</ele>
        <time>2009-01-29T14:36:51Z</time>
      </trkpt>
      <trkpt lat="44.76256" lon="5.72877">
        <ele>774</ele>
        <time>2009-01-29T14:36:51Z</time>
      </trkpt>
      <trkpt lat="44.76233" lon="5.72907">
        <ele>776</ele>
        <time>2009-01-29T14:36:51Z</time>
      </trkpt>
      <trkpt lat="44.76203" lon="5.72933">
        <ele>774</ele>
        <time>2009-01-29T14:36:51Z</time>
      </trkpt>
      <trkpt lat="44.76184" lon="5.72967">
        <ele>776</ele>
        <time>2009-01-29T14:36:51Z</time>
      </trkpt>
      <trkpt lat="44.76208" lon="5.72997">
        <ele>786</ele>
        <time>2009-01-29T14:36:51Z</time>
      </trkpt>
      <trkpt lat="44.76222" lon="5.73033">
        <ele>800</ele>
        <time>2009-01-29T14:36:51Z</time>
      </trkpt>
      <trkpt lat="44.76173" lon="5.73109">
        <ele>801</ele>
        <time>2009-01-29T14:36:51Z</time>
      </trkpt>
      <trkpt lat="44.76133" lon="5.73163">
        <ele>798</ele>
        <time>2009-01-29T14:36:51Z</time>
      </trkpt>
      <trkpt lat="44.76078" lon="5.73264">
        <ele>800</ele>
        <time>2009-01-29T14:36:51Z</time>
      </trkpt>
      <trkpt lat="44.76068" lon="5.73304">
        <ele>806</ele>
        <time>2009-01-29T14:36:51Z</time>
      </trkpt>
      <trkpt lat="44.76076" lon="5.73333">
        <ele>815</ele>
        <time>2009-01-29T14:36:51Z</time>
      </trkpt>
      <trkpt lat="44.7605" lon="5.73363">
        <ele>808</ele>
        <time>2009-01-29T14:36:51Z</time>
      </trkpt>
      <trkpt lat="44.76022" lon="5.734">
        <ele>800</ele>
        <time>2009-01-29T14:36:51Z</time>
      </trkpt>
      <trkpt lat="44.76004" lon="5.73481">
        <ele>805</ele>
        <time>2009-01-29T14:36:51Z</time>
      </trkpt>
      <trkpt lat="44.75974" lon="5.73561">
        <ele>801</ele>
        <time>2009-01-29T14:36:51Z</time>
      </trkpt>
      <trkpt lat="44.75968" lon="5.73608">
        <ele>800</ele>
        <time>2009-01-29T14:36:51Z</time>
      </trkpt>
      <trkpt lat="44.75997" lon="5.73685">
        <ele>803</ele>
        <time>2009-01-29T14:36:51Z</time>
      </trkpt>
      <trkpt lat="44.75949" lon="5.73657">
        <ele>802</ele>
        <time>2009-01-29T14:36:51Z</time>
      </trkpt>
      <trkpt lat="44.75921" lon="5.73684">
        <ele>806</ele>
        <time>2009-01-29T14:36:51Z</time>
      </trkpt>
      <trkpt lat="44.75879" lon="5.73729">
        <ele>808</ele>
        <time>2009-01-29T14:36:51Z</time>
      </trkpt>
      <trkpt lat="44.75847" lon="5.7373">
        <ele>803</ele>
        <time>2009-01-29T14:36:51Z</time>
      </trkpt>
      <trkpt lat="44.75841" lon="5.73704">
        <ele>799</ele>
        <time>2009-01-29T14:36:51Z</time>
      </trkpt>
      <trkpt lat="44.75798" lon="5.73721">
        <ele>796</ele>
        <time>2009-01-29T14:36:51Z</time>
      </trkpt>
      <trkpt lat="44.75771" lon="5.73725">
        <ele>794</ele>
        <time>2009-01-29T14:36:51Z</time>
      </trkpt>
      <trkpt lat="44.7574" lon="5.73774">
        <ele>797</ele>
        <time>2009-01-29T14:36:51Z</time>
      </trkpt>
      <trkpt lat="44.75701" lon="5.73791">
        <ele>795</ele>
        <time>2009-01-29T14:36:51Z</time>
      </trkpt>
      <trkpt lat="44.75681" lon="5.73783">
        <ele>793</ele>
        <time>2009-01-29T14:36:51Z</time>
      </trkpt>
      <trkpt lat="44.75612" lon="5.73858">
        <ele>796</ele>
        <time>2009-01-29T14:36:51Z</time>
      </trkpt>
      <trkpt lat="44.75568" lon="5.73896">
        <ele>798</ele>
        <time>2009-01-29T14:36:51Z</time>
      </trkpt>
      <trkpt lat="44.75536" lon="5.7391">
        <ele>797</ele>
        <time>2009-01-29T14:36:51Z</time>
      </trkpt>
      <trkpt lat="44.75484" lon="5.73986">
        <ele>804</ele>
        <time>2009-01-29T14:36:51Z</time>
      </trkpt>
      <trkpt lat="44.75404" lon="5.74085">
        <ele>808</ele>
        <time>2009-01-29T14:36:51Z</time>
      </trkpt>
      <trkpt lat="44.75298" lon="5.74189">
        <ele>813</ele>
        <time>2009-01-29T14:36:51Z</time>
      </trkpt>
      <trkpt lat="44.75251" lon="5.7424">
        <ele>814</ele>
        <time>2009-01-29T14:36:51Z</time>
      </trkpt>
      <trkpt lat="44.75196" lon="5.74332">
        <ele>819</ele>
        <time>2009-01-29T14:36:51Z</time>
      </trkpt>
      <trkpt lat="44.75125" lon="5.74463">
        <ele>832</ele>
        <time>2009-01-29T14:36:51Z</time>
      </trkpt>
      <trkpt lat="44.75065" lon="5.74513">
        <ele>830</ele>
        <time>2009-01-29T14:36:51Z</time>
      </trkpt>
      <trkpt lat="44.75013" lon="5.74602">
        <ele>835</ele>
        <time>2009-01-29T14:36:51Z</time>
      </trkpt>
      <trkpt lat="44.74986" lon="5.74669">
        <ele>842</ele>
        <time>2009-01-29T14:36:51Z</time>
      </trkpt>
      <trkpt lat="44.74941" lon="5.74733">
        <ele>841</ele>
        <time>2009-01-29T14:36:51Z</time>
      </trkpt>
      <trkpt lat="44.74917" lon="5.74782">
        <ele>842</ele>
        <time>2009-01-29T14:36:51Z</time>
      </trkpt>
      <trkpt lat="44.74848" lon="5.74898">
        <ele>843</ele>
        <time>2009-01-29T14:36:51Z</time>
      </trkpt>
      <trkpt lat="44.74777" lon="5.75004">
        <ele>841</ele>
        <time>2009-01-29T14:36:51Z</time>
      </trkpt>
      <trkpt lat="44.74699" lon="5.75129">
        <ele>846</ele>
        <time>2009-01-29T14:36:51Z</time>
      </trkpt>
      <trkpt lat="44.74677" lon="5.75184">
        <ele>854</ele>
        <time>2009-01-29T14:36:51Z</time>
      </trkpt>
      <trkpt lat="44.74653" lon="5.75243">
        <ele>859</ele>
        <time>2009-01-29T14:36:51Z</time>
      </trkpt>
      <trkpt lat="44.74616" lon="5.75285">
        <ele>860</ele>
        <time>2009-01-29T14:36:51Z</time>
      </trkpt>
      <trkpt lat="44.74599" lon="5.75322">
        <ele>862</ele>
        <time>2009-01-29T14:36:51Z</time>
      </trkpt>
      <trkpt lat="44.74581" lon="5.75371">
        <ele>865</ele>
        <time>2009-01-29T14:36:51Z</time>
      </trkpt>
      <trkpt lat="44.7455" lon="5.75379">
        <ele>862</ele>
        <time>2009-01-29T14:36:51Z</time>
      </trkpt>
      <trkpt lat="44.74505" lon="5.7536">
        <ele>856</ele>
        <time>2009-01-29T14:36:51Z</time>
      </trkpt>
      <trkpt lat="44.74485" lon="5.75368">
        <ele>855</ele>
        <time>2009-01-29T14:36:51Z</time>
      </trkpt>
      <trkpt lat="44.74448" lon="5.75379">
        <ele>853</ele>
        <time>2009-01-29T14:36:51Z</time>
      </trkpt>
      <trkpt lat="44.74435" lon="5.75375">
        <ele>852</ele>
        <time>2009-01-29T14:36:51Z</time>
      </trkpt>
      <trkpt lat="44.74402" lon="5.75411">
        <ele>854</ele>
        <time>2009-01-29T14:36:51Z</time>
      </trkpt>
      <trkpt lat="44.74368" lon="5.75491">
        <ele>859</ele>
        <time>2009-01-29T14:36:51Z</time>
      </trkpt>
      <trkpt lat="44.7438" lon="5.75618">
        <ele>864</ele>
        <time>2009-01-29T14:36:51Z</time>
      </trkpt>
      <trkpt lat="44.74399" lon="5.75673">
        <ele>867</ele>
        <time>2009-01-29T14:36:51Z</time>
      </trkpt>
      <trkpt lat="44.74434" lon="5.75754">
        <ele>874</ele>
        <time>2009-01-29T14:36:51Z</time>
      </trkpt>
      <trkpt lat="44.7446" lon="5.75784">
        <ele>878</ele>
        <time>2009-01-29T14:36:51Z</time>
      </trkpt>
      <trkpt lat="44.74444" lon="5.75878">
        <ele>874</ele>
        <time>2009-01-29T14:36:51Z</time>
      </trkpt>
      <trkpt lat="44.74488" lon="5.75981">
        <ele>878</ele>
        <time>2009-01-29T14:36:51Z</time>
      </trkpt>
      <trkpt lat="44.74497" lon="5.76042">
        <ele>880</ele>
        <time>2009-01-29T14:36:51Z</time>
      </trkpt>
      <trkpt lat="44.74529" lon="5.7612">
        <ele>886</ele>
        <time>2009-01-29T14:36:51Z</time>
      </trkpt>
      <trkpt lat="44.74527" lon="5.76189">
        <ele>889</ele>
        <time>2009-01-29T14:36:51Z</time>
      </trkpt>
      <trkpt lat="44.74552" lon="5.76232">
        <ele>891</ele>
        <time>2009-01-29T14:36:51Z</time>
      </trkpt>
      <trkpt lat="44.74567" lon="5.76261">
        <ele>892</ele>
        <time>2009-01-29T14:36:51Z</time>
      </trkpt>
      <trkpt lat="44.74539" lon="5.7636">
        <ele>896</ele>
        <time>2009-01-29T14:36:51Z</time>
      </trkpt>
      <trkpt lat="44.74525" lon="5.76536">
        <ele>907</ele>
        <time>2009-01-29T14:36:51Z</time>
      </trkpt>
      <trkpt lat="44.74516" lon="5.76605">
        <ele>912</ele>
        <time>2009-01-29T14:36:51Z</time>
      </trkpt>
      <trkpt lat="44.74511" lon="5.76775">
        <ele>919</ele>
        <time>2009-01-29T14:36:51Z</time>
      </trkpt>
      <trkpt lat="44.74498" lon="5.76822">
        <ele>922</ele>
        <time>2009-01-29T14:36:51Z</time>
      </trkpt>
      <trkpt lat="44.74528" lon="5.76808">
        <ele>923</ele>
        <time>2009-01-29T14:36:51Z</time>
      </trkpt>
      <trkpt lat="44.74586" lon="5.76808">
        <ele>928</ele>
        <time>2009-01-29T14:36:51Z</time>
      </trkpt>
      <trkpt lat="44.74597" lon="5.76819">
        <ele>930</ele>
        <time>2009-01-29T14:36:51Z</time>
      </trkpt>
      <trkpt lat="44.74616" lon="5.76848">
        <ele>933</ele>
        <time>2009-01-29T14:36:51Z</time>
      </trkpt>
      <trkpt lat="44.74674" lon="5.76883">
        <ele>939</ele>
        <time>2009-01-29T14:36:51Z</time>
      </trkpt>
      <trkpt lat="44.74707" lon="5.76895">
        <ele>945</ele>
        <time>2009-01-29T14:36:51Z</time>
      </trkpt>
      <trkpt lat="44.74744" lon="5.76932">
        <ele>952</ele>
        <time>2009-01-29T14:36:51Z</time>
      </trkpt>
    </trkseg>
  </trk>
  <trk>
    <name><![CDATA[4CheminsHerbelon]]></name>
    <trkseg>
      <trkpt lat="44.81886" lon="5.57028">
        <ele>1020</ele>
      </trkpt>
      <trkpt lat="44.81897" lon="5.5708">
        <ele>1021</ele>
      </trkpt>
      <trkpt lat="44.81953" lon="5.57007">
        <ele>1009</ele>
      </trkpt>
      <trkpt lat="44.81987" lon="5.56908">
        <ele>993</ele>
      </trkpt>
      <trkpt lat="44.82021" lon="5.5684">
        <ele>980</ele>
      </trkpt>
      <trkpt lat="44.82064" lon="5.569">
        <ele>970</ele>
      </trkpt>
      <trkpt lat="44.8212" lon="5.56919">
        <ele>967</ele>
      </trkpt>
      <trkpt lat="44.82183" lon="5.56986">
        <ele>966</ele>
      </trkpt>
      <trkpt lat="44.82244" lon="5.57071">
        <ele>964</ele>
      </trkpt>
      <trkpt lat="44.82307" lon="5.57129">
        <ele>968</ele>
      </trkpt>
      <trkpt lat="44.82393" lon="5.57206">
        <ele>974</ele>
      </trkpt>
      <trkpt lat="44.82461" lon="5.57242">
        <ele>984</ele>
      </trkpt>
      <trkpt lat="44.82457" lon="5.5733">
        <ele>989</ele>
      </trkpt>
      <trkpt lat="44.82509" lon="5.5733">
        <ele>999</ele>
      </trkpt>
      <trkpt lat="44.82614" lon="5.57431">
        <ele>1004</ele>
      </trkpt>
      <trkpt lat="44.8268" lon="5.57486">
        <ele>1000</ele>
      </trkpt>
      <trkpt lat="44.82736" lon="5.57426">
        <ele>998</ele>
      </trkpt>
      <trkpt lat="44.82883" lon="5.57339">
        <ele>1024</ele>
      </trkpt>
      <trkpt lat="44.83042" lon="5.57285">
        <ele>1037</ele>
      </trkpt>
      <trkpt lat="44.83148" lon="5.57348">
        <ele>1058</ele>
      </trkpt>
      <trkpt lat="44.83236" lon="5.57404">
        <ele>1052</ele>
      </trkpt>
      <trkpt lat="44.83377" lon="5.57381">
        <ele>1086</ele>
      </trkpt>
      <trkpt lat="44.83477" lon="5.57475">
        <ele>1115</ele>
      </trkpt>
      <trkpt lat="44.8358" lon="5.57512">
        <ele>1119</ele>
      </trkpt>
      <trkpt lat="44.83666" lon="5.57473">
        <ele>1136</ele>
      </trkpt>
      <trkpt lat="44.83696" lon="5.57538">
        <ele>1121</ele>
      </trkpt>
      <trkpt lat="44.83773" lon="5.5753">
        <ele>1102</ele>
      </trkpt>
      <trkpt lat="44.83886" lon="5.57366">
        <ele>1092</ele>
      </trkpt>
      <trkpt lat="44.83931" lon="5.57362">
        <ele>1093</ele>
      </trkpt>
      <trkpt lat="44.83966" lon="5.57535">
        <ele>1069</ele>
      </trkpt>
      <trkpt lat="44.83986" lon="5.57644">
        <ele>1058</ele>
      </trkpt>
      <trkpt lat="44.83935" lon="5.57691">
        <ele>1053</ele>
      </trkpt>
      <trkpt lat="44.83945" lon="5.57787">
        <ele>1039</ele>
      </trkpt>
      <trkpt lat="44.83916" lon="5.57861">
        <ele>1028</ele>
      </trkpt>
      <trkpt lat="44.8395" lon="5.57926">
        <ele>1024</ele>
      </trkpt>
      <trkpt lat="44.8404" lon="5.57938">
        <ele>1031</ele>
      </trkpt>
      <trkpt lat="44.84154" lon="5.58039">
        <ele>1021</ele>
      </trkpt>
      <trkpt lat="44.84257" lon="5.5807">
        <ele>1013</ele>
      </trkpt>
      <trkpt lat="44.8437" lon="5.58045">
        <ele>1011</ele>
      </trkpt>
      <trkpt lat="44.84438" lon="5.58037">
        <ele>1015</ele>
      </trkpt>
      <trkpt lat="44.84537" lon="5.58">
        <ele>1018</ele>
      </trkpt>
      <trkpt lat="44.84537" lon="5.58">
        <ele>1018</ele>
      </trkpt>
      <trkpt lat="44.84599" lon="5.57937">
        <ele>1023</ele>
      </trkpt>
      <trkpt lat="44.84637" lon="5.57939">
        <ele>1024</ele>
      </trkpt>
      <trkpt lat="44.84643" lon="5.57971">
        <ele>1025</ele>
      </trkpt>
      <trkpt lat="44.84642" lon="5.58003">
        <ele>1029</ele>
      </trkpt>
      <trkpt lat="44.84692" lon="5.5799">
        <ele>1031</ele>
      </trkpt>
      <trkpt lat="44.84815" lon="5.57952">
        <ele>1039</ele>
      </trkpt>
      <trkpt lat="44.84845" lon="5.57986">
        <ele>1048</ele>
      </trkpt>
      <trkpt lat="44.84882" lon="5.57969">
        <ele>1048</ele>
      </trkpt>
      <trkpt lat="44.85012" lon="5.57913">
        <ele>1056</ele>
      </trkpt>
      <trkpt lat="44.8507" lon="5.5791">
        <ele>1061</ele>
      </trkpt>
      <trkpt lat="44.85238" lon="5.57949">
        <ele>1087</ele>
      </trkpt>
      <trkpt lat="44.85311" lon="5.57931">
        <ele>1088</ele>
      </trkpt>
      <trkpt lat="44.85319" lon="5.5795">
        <ele>1093</ele>
      </trkpt>
      <trkpt lat="44.85281" lon="5.58005">
        <ele>1105</ele>
      </trkpt>
      <trkpt lat="44.85227" lon="5.58027">
        <ele>1103</ele>
      </trkpt>
      <trkpt lat="44.85189" lon="5.58082">
        <ele>1109</ele>
      </trkpt>
      <trkpt lat="44.85156" lon="5.58149">
        <ele>1119</ele>
      </trkpt>
      <trkpt lat="44.85116" lon="5.58198">
        <ele>1121</ele>
      </trkpt>
      <trkpt lat="44.85067" lon="5.58255">
        <ele>1127</ele>
      </trkpt>
      <trkpt lat="44.85023" lon="5.58237">
        <ele>1124</ele>
      </trkpt>
      <trkpt lat="44.85023" lon="5.58237">
        <ele>1124</ele>
      </trkpt>
      <trkpt lat="44.85008" lon="5.58277">
        <ele>1133</ele>
      </trkpt>
      <trkpt lat="44.85008" lon="5.58277">
        <ele>1133</ele>
      </trkpt>
      <trkpt lat="44.85025" lon="5.58297">
        <ele>1137</ele>
      </trkpt>
      <trkpt lat="44.85025" lon="5.58297">
        <ele>1137</ele>
      </trkpt>
      <trkpt lat="44.85077" lon="5.58313">
        <ele>1144</ele>
      </trkpt>
      <trkpt lat="44.85134" lon="5.58287">
        <ele>1149</ele>
      </trkpt>
      <trkpt lat="44.85198" lon="5.58247">
        <ele>1154</ele>
      </trkpt>
      <trkpt lat="44.85245" lon="5.58259">
        <ele>1159</ele>
      </trkpt>
      <trkpt lat="44.85303" lon="5.58272">
        <ele>1162</ele>
      </trkpt>
      <trkpt lat="44.8533" lon="5.58277">
        <ele>1164</ele>
      </trkpt>
      <trkpt lat="44.85425" lon="5.5833">
        <ele>1185</ele>
      </trkpt>
      <trkpt lat="44.85532" lon="5.58273">
        <ele>1181</ele>
      </trkpt>
      <trkpt lat="44.8555" lon="5.58296">
        <ele>1188</ele>
      </trkpt>
      <trkpt lat="44.85517" lon="5.58322">
        <ele>1189</ele>
      </trkpt>
      <trkpt lat="44.85475" lon="5.58396">
        <ele>1204</ele>
      </trkpt>
      <trkpt lat="44.85379" lon="5.58453">
        <ele>1218</ele>
      </trkpt>
      <trkpt lat="44.85401" lon="5.58467">
        <ele>1226</ele>
      </trkpt>
      <trkpt lat="44.85437" lon="5.58454">
        <ele>1223</ele>
      </trkpt>
      <trkpt lat="44.85493" lon="5.5846">
        <ele>1229</ele>
      </trkpt>
      <trkpt lat="44.85549" lon="5.58479">
        <ele>1241</ele>
      </trkpt>
      <trkpt lat="44.8559" lon="5.58459">
        <ele>1240</ele>
      </trkpt>
      <trkpt lat="44.85667" lon="5.58448">
        <ele>1251</ele>
      </trkpt>
      <trkpt lat="44.85684" lon="5.58408">
        <ele>1244</ele>
      </trkpt>
      <trkpt lat="44.8572" lon="5.58382">
        <ele>1244</ele>
      </trkpt>
      <trkpt lat="44.85756" lon="5.58317">
        <ele>1241</ele>
      </trkpt>
      <trkpt lat="44.85779" lon="5.58211">
        <ele>1235</ele>
      </trkpt>
      <trkpt lat="44.85768" lon="5.58147">
        <ele>1242</ele>
      </trkpt>
      <trkpt lat="44.85785" lon="5.57961">
        <ele>1245</ele>
      </trkpt>
      <trkpt lat="44.85797" lon="5.57782">
        <ele>1265</ele>
      </trkpt>
      <trkpt lat="44.85795" lon="5.57671">
        <ele>1269</ele>
      </trkpt>
      <trkpt lat="44.85769" lon="5.57498">
        <ele>1288</ele>
      </trkpt>
      <trkpt lat="44.8578" lon="5.57417">
        <ele>1290</ele>
      </trkpt>
      <trkpt lat="44.858" lon="5.57266">
        <ele>1301</ele>
      </trkpt>
      <trkpt lat="44.85767" lon="5.57172">
        <ele>1305</ele>
      </trkpt>
      <trkpt lat="44.85714" lon="5.57059">
        <ele>1315</ele>
      </trkpt>
      <trkpt lat="44.85644" lon="5.56937">
        <ele>1325</ele>
      </trkpt>
      <trkpt lat="44.85678" lon="5.5693">
        <ele>1333</ele>
      </trkpt>
      <trkpt lat="44.85757" lon="5.56906">
        <ele>1336</ele>
      </trkpt>
      <trkpt lat="44.85839" lon="5.56857">
        <ele>1326</ele>
      </trkpt>
      <trkpt lat="44.85908" lon="5.5682">
        <ele>1321</ele>
      </trkpt>
      <trkpt lat="44.85988" lon="5.56768">
        <ele>1311</ele>
      </trkpt>
      <trkpt lat="44.86079" lon="5.56738">
        <ele>1298</ele>
      </trkpt>
      <trkpt lat="44.86128" lon="5.5676">
        <ele>1297</ele>
      </trkpt>
      <trkpt lat="44.86203" lon="5.56805">
        <ele>1298</ele>
      </trkpt>
      <trkpt lat="44.86245" lon="5.5683">
        <ele>1301</ele>
      </trkpt>
      <trkpt lat="44.86288" lon="5.5682">
        <ele>1293</ele>
      </trkpt>
      <trkpt lat="44.86229" lon="5.56781">
        <ele>1283</ele>
      </trkpt>
      <trkpt lat="44.8615" lon="5.56714">
        <ele>1276</ele>
      </trkpt>
      <trkpt lat="44.86071" lon="5.56633">
        <ele>1267</ele>
      </trkpt>
      <trkpt lat="44.85962" lon="5.56601">
        <ele>1262</ele>
      </trkpt>
      <trkpt lat="44.85883" lon="5.566">
        <ele>1260</ele>
      </trkpt>
      <trkpt lat="44.85812" lon="5.56567">
        <ele>1249</ele>
      </trkpt>
      <trkpt lat="44.85764" lon="5.56574">
        <ele>1249</ele>
      </trkpt>
      <trkpt lat="44.85716" lon="5.56549">
        <ele>1241</ele>
      </trkpt>
      <trkpt lat="44.85717" lon="5.56515">
        <ele>1234</ele>
      </trkpt>
      <trkpt lat="44.85748" lon="5.56447">
        <ele>1224</ele>
      </trkpt>
      <trkpt lat="44.85789" lon="5.56443">
        <ele>1222</ele>
      </trkpt>
      <trkpt lat="44.85846" lon="5.56478">
        <ele>1226</ele>
      </trkpt>
      <trkpt lat="44.85938" lon="5.5648">
        <ele>1223</ele>
      </trkpt>
      <trkpt lat="44.86014" lon="5.56443">
        <ele>1208</ele>
      </trkpt>
      <trkpt lat="44.86065" lon="5.56446">
        <ele>1205</ele>
      </trkpt>
      <trkpt lat="44.86148" lon="5.56451">
        <ele>1193</ele>
      </trkpt>
      <trkpt lat="44.86204" lon="5.56457">
        <ele>1183</ele>
      </trkpt>
      <trkpt lat="44.86267" lon="5.56489">
        <ele>1180</ele>
      </trkpt>
      <trkpt lat="44.86312" lon="5.56539">
        <ele>1186</ele>
      </trkpt>
      <trkpt lat="44.86362" lon="5.56542">
        <ele>1173</ele>
      </trkpt>
      <trkpt lat="44.86413" lon="5.56574">
        <ele>1177</ele>
      </trkpt>
      <trkpt lat="44.86413" lon="5.56552">
        <ele>1167</ele>
      </trkpt>
      <trkpt lat="44.86354" lon="5.56494">
        <ele>1157</ele>
      </trkpt>
      <trkpt lat="44.86361" lon="5.56476">
        <ele>1148</ele>
      </trkpt>
      <trkpt lat="44.86347" lon="5.56446">
        <ele>1145</ele>
      </trkpt>
      <trkpt lat="44.86332" lon="5.56414">
        <ele>1141</ele>
      </trkpt>
      <trkpt lat="44.86319" lon="5.56388">
        <ele>1139</ele>
      </trkpt>
      <trkpt lat="44.86288" lon="5.56355">
        <ele>1141</ele>
      </trkpt>
      <trkpt lat="44.86276" lon="5.56328">
        <ele>1139</ele>
      </trkpt>
      <trkpt lat="44.86227" lon="5.56291">
        <ele>1135</ele>
      </trkpt>
      <trkpt lat="44.8618" lon="5.56242">
        <ele>1122</ele>
      </trkpt>
      <trkpt lat="44.8628" lon="5.56289">
        <ele>1130</ele>
      </trkpt>
      <trkpt lat="44.86347" lon="5.56302">
        <ele>1115</ele>
      </trkpt>
      <trkpt lat="44.8643" lon="5.56393">
        <ele>1107</ele>
      </trkpt>
      <trkpt lat="44.86525" lon="5.56455">
        <ele>1111</ele>
      </trkpt>
      <trkpt lat="44.86635" lon="5.56471">
        <ele>1078</ele>
      </trkpt>
      <trkpt lat="44.86695" lon="5.56563">
        <ele>1080</ele>
      </trkpt>
      <trkpt lat="44.8674" lon="5.56642">
        <ele>1088</ele>
      </trkpt>
      <trkpt lat="44.86825" lon="5.56675">
        <ele>1050</ele>
      </trkpt>
      <trkpt lat="44.86879" lon="5.56814">
        <ele>1018</ele>
      </trkpt>
      <trkpt lat="44.86864" lon="5.56956">
        <ele>1003</ele>
      </trkpt>
      <trkpt lat="44.86839" lon="5.57049">
        <ele>999</ele>
      </trkpt>
      <trkpt lat="44.8684" lon="5.57151">
        <ele>984</ele>
      </trkpt>
      <trkpt lat="44.86848" lon="5.57262">
        <ele>955</ele>
      </trkpt>
      <trkpt lat="44.86834" lon="5.57353">
        <ele>936</ele>
      </trkpt>
      <trkpt lat="44.86824" lon="5.57469">
        <ele>912</ele>
      </trkpt>
      <trkpt lat="44.8681" lon="5.57567">
        <ele>895</ele>
      </trkpt>
      <trkpt lat="44.86783" lon="5.57707">
        <ele>878</ele>
      </trkpt>
      <trkpt lat="44.86767" lon="5.57801">
        <ele>879</ele>
      </trkpt>
      <trkpt lat="44.86754" lon="5.57883">
        <ele>887</ele>
      </trkpt>
      <trkpt lat="44.86652" lon="5.57959">
        <ele>880</ele>
      </trkpt>
      <trkpt lat="44.86586" lon="5.58066">
        <ele>879</ele>
      </trkpt>
      <trkpt lat="44.86542" lon="5.58174">
        <ele>870</ele>
      </trkpt>
      <trkpt lat="44.86507" lon="5.58293">
        <ele>857</ele>
      </trkpt>
      <trkpt lat="44.86553" lon="5.58416">
        <ele>864</ele>
      </trkpt>
      <trkpt lat="44.86585" lon="5.58493">
        <ele>865</ele>
      </trkpt>
      <trkpt lat="44.86618" lon="5.5859">
        <ele>866</ele>
      </trkpt>
      <trkpt lat="44.86667" lon="5.58691">
        <ele>869</ele>
      </trkpt>
      <trkpt lat="44.86712" lon="5.58754">
        <ele>876</ele>
      </trkpt>
      <trkpt lat="44.86706" lon="5.58877">
        <ele>879</ele>
      </trkpt>
      <trkpt lat="44.86661" lon="5.58947">
        <ele>877</ele>
      </trkpt>
      <trkpt lat="44.86668" lon="5.591">
        <ele>884</ele>
      </trkpt>
      <trkpt lat="44.86689" lon="5.59224">
        <ele>873</ele>
      </trkpt>
      <trkpt lat="44.8674" lon="5.59265">
        <ele>875</ele>
      </trkpt>
      <trkpt lat="44.86826" lon="5.59337">
        <ele>890</ele>
      </trkpt>
      <trkpt lat="44.86812" lon="5.59431">
        <ele>887</ele>
      </trkpt>
      <trkpt lat="44.86909" lon="5.59474">
        <ele>893</ele>
      </trkpt>
      <trkpt lat="44.8694" lon="5.59568">
        <ele>880</ele>
      </trkpt>
      <trkpt lat="44.86996" lon="5.59647">
        <ele>884</ele>
      </trkpt>
      <trkpt lat="44.87034" lon="5.59751">
        <ele>895</ele>
      </trkpt>
      <trkpt lat="44.87096" lon="5.59862">
        <ele>899</ele>
      </trkpt>
      <trkpt lat="44.8716" lon="5.60046">
        <ele>910</ele>
      </trkpt>
      <trkpt lat="44.87184" lon="5.60142">
        <ele>922</ele>
      </trkpt>
      <trkpt lat="44.8714" lon="5.60266">
        <ele>928</ele>
      </trkpt>
      <trkpt lat="44.87117" lon="5.60351">
        <ele>920</ele>
      </trkpt>
      <trkpt lat="44.87189" lon="5.6044">
        <ele>927</ele>
      </trkpt>
      <trkpt lat="44.87191" lon="5.60605">
        <ele>931</ele>
      </trkpt>
      <trkpt lat="44.87175" lon="5.60696">
        <ele>922</ele>
      </trkpt>
      <trkpt lat="44.87206" lon="5.60774">
        <ele>917</ele>
      </trkpt>
      <trkpt lat="44.87209" lon="5.60903">
        <ele>903</ele>
      </trkpt>
      <trkpt lat="44.87193" lon="5.61051">
        <ele>887</ele>
      </trkpt>
      <trkpt lat="44.87235" lon="5.61095">
        <ele>884</ele>
      </trkpt>
      <trkpt lat="44.87284" lon="5.61126">
        <ele>885</ele>
      </trkpt>
      <trkpt lat="44.87309" lon="5.61191">
        <ele>890</ele>
      </trkpt>
      <trkpt lat="44.87325" lon="5.61312">
        <ele>894</ele>
      </trkpt>
      <trkpt lat="44.87346" lon="5.61437">
        <ele>892</ele>
      </trkpt>
      <trkpt lat="44.87296" lon="5.61475">
        <ele>887</ele>
      </trkpt>
      <trkpt lat="44.87206" lon="5.61555">
        <ele>878</ele>
      </trkpt>
      <trkpt lat="44.87137" lon="5.61653">
        <ele>866</ele>
      </trkpt>
      <trkpt lat="44.87027" lon="5.61814">
        <ele>853</ele>
      </trkpt>
      <trkpt lat="44.87043" lon="5.61859">
        <ele>851</ele>
      </trkpt>
      <trkpt lat="44.87094" lon="5.61963">
        <ele>851</ele>
      </trkpt>
      <trkpt lat="44.87099" lon="5.62052">
        <ele>850</ele>
      </trkpt>
      <trkpt lat="44.87108" lon="5.62122">
        <ele>850</ele>
      </trkpt>
      <trkpt lat="44.87105" lon="5.62211">
        <ele>848</ele>
      </trkpt>
      <trkpt lat="44.87106" lon="5.62322">
        <ele>839</ele>
      </trkpt>
      <trkpt lat="44.87205" lon="5.62419">
        <ele>829</ele>
      </trkpt>
      <trkpt lat="44.87286" lon="5.62497">
        <ele>824</ele>
      </trkpt>
      <trkpt lat="44.87361" lon="5.62533">
        <ele>826</ele>
      </trkpt>
      <trkpt lat="44.87422" lon="5.62593">
        <ele>824</ele>
      </trkpt>
      <trkpt lat="44.87373" lon="5.62648">
        <ele>815</ele>
      </trkpt>
      <trkpt lat="44.87477" lon="5.62717">
        <ele>817</ele>
      </trkpt>
      <trkpt lat="44.87596" lon="5.62794">
        <ele>810</ele>
      </trkpt>
      <trkpt lat="44.87657" lon="5.62861">
        <ele>797</ele>
      </trkpt>
      <trkpt lat="44.87725" lon="5.62861">
        <ele>793</ele>
      </trkpt>
      <trkpt lat="44.87792" lon="5.62802">
        <ele>788</ele>
      </trkpt>
      <trkpt lat="44.87841" lon="5.62745">
        <ele>785</ele>
      </trkpt>
      <trkpt lat="44.87898" lon="5.62704">
        <ele>776</ele>
      </trkpt>
      <trkpt lat="44.87932" lon="5.62649">
        <ele>778</ele>
      </trkpt>
      <trkpt lat="44.87967" lon="5.62578">
        <ele>778</ele>
      </trkpt>
      <trkpt lat="44.88015" lon="5.62426">
        <ele>774</ele>
      </trkpt>
      <trkpt lat="44.88056" lon="5.62384">
        <ele>765</ele>
      </trkpt>
      <trkpt lat="44.88153" lon="5.62304">
        <ele>768</ele>
      </trkpt>
      <trkpt lat="44.88262" lon="5.62285">
        <ele>761</ele>
      </trkpt>
      <trkpt lat="44.88356" lon="5.62221">
        <ele>764</ele>
      </trkpt>
      <trkpt lat="44.88393" lon="5.62198">
        <ele>766</ele>
      </trkpt>
      <trkpt lat="44.88463" lon="5.62167">
        <ele>768</ele>
      </trkpt>
      <trkpt lat="44.8857" lon="5.62234">
        <ele>771</ele>
      </trkpt>
      <trkpt lat="44.88596" lon="5.62343">
        <ele>769</ele>
      </trkpt>
      <trkpt lat="44.88536" lon="5.62447">
        <ele>761</ele>
      </trkpt>
      <trkpt lat="44.88455" lon="5.62534">
        <ele>750</ele>
      </trkpt>
      <trkpt lat="44.88463" lon="5.62629">
        <ele>746</ele>
      </trkpt>
      <trkpt lat="44.8848" lon="5.62678">
        <ele>743</ele>
      </trkpt>
      <trkpt lat="44.8851" lon="5.62727">
        <ele>740</ele>
      </trkpt>
      <trkpt lat="44.8858" lon="5.62725">
        <ele>748</ele>
      </trkpt>
      <trkpt lat="44.88663" lon="5.6273">
        <ele>757</ele>
      </trkpt>
      <trkpt lat="44.88657" lon="5.6278">
        <ele>762</ele>
      </trkpt>
      <trkpt lat="44.88615" lon="5.62822">
        <ele>764</ele>
      </trkpt>
      <trkpt lat="44.88558" lon="5.62853">
        <ele>766</ele>
      </trkpt>
      <trkpt lat="44.88516" lon="5.62905">
        <ele>765</ele>
      </trkpt>
      <trkpt lat="44.88521" lon="5.63035">
        <ele>764</ele>
      </trkpt>
      <trkpt lat="44.88625" lon="5.6301">
        <ele>756</ele>
      </trkpt>
      <trkpt lat="44.88692" lon="5.6302">
        <ele>757</ele>
      </trkpt>
      <trkpt lat="44.88766" lon="5.631">
        <ele>750</ele>
      </trkpt>
      <trkpt lat="44.8881" lon="5.63153">
        <ele>742</ele>
      </trkpt>
      <trkpt lat="44.88891" lon="5.63165">
        <ele>747</ele>
      </trkpt>
      <trkpt lat="44.88951" lon="5.63415">
        <ele>765</ele>
      </trkpt>
      <trkpt lat="44.8894" lon="5.63611">
        <ele>786</ele>
      </trkpt>
      <trkpt lat="44.88726" lon="5.63858">
        <ele>780</ele>
      </trkpt>
      <trkpt lat="44.8876" lon="5.6391">
        <ele>794</ele>
      </trkpt>
      <trkpt lat="44.89085" lon="5.63733">
        <ele>864</ele>
      </trkpt>
      <trkpt lat="44.89148" lon="5.6375">
        <ele>884</ele>
      </trkpt>
      <trkpt lat="44.8913" lon="5.63901">
        <ele>902</ele>
      </trkpt>
      <trkpt lat="44.89301" lon="5.63879">
        <ele>938</ele>
      </trkpt>
      <trkpt lat="44.89363" lon="5.63927">
        <ele>957</ele>
      </trkpt>
      <trkpt lat="44.89512" lon="5.63917">
        <ele>954</ele>
      </trkpt>
      <trkpt lat="44.89724" lon="5.63898">
        <ele>950</ele>
      </trkpt>
      <trkpt lat="44.89753" lon="5.64127">
        <ele>925</ele>
      </trkpt>
      <trkpt lat="44.89747" lon="5.64317">
        <ele>905</ele>
      </trkpt>
      <trkpt lat="44.89625" lon="5.64493">
        <ele>916</ele>
      </trkpt>
      <trkpt lat="44.89653" lon="5.64628">
        <ele>915</ele>
      </trkpt>
      <trkpt lat="44.89649" lon="5.64755">
        <ele>913</ele>
      </trkpt>
      <trkpt lat="44.89663" lon="5.64869">
        <ele>907</ele>
      </trkpt>
      <trkpt lat="44.89616" lon="5.64949">
        <ele>904</ele>
      </trkpt>
      <trkpt lat="44.89418" lon="5.64943">
        <ele>914</ele>
      </trkpt>
      <trkpt lat="44.89616" lon="5.65082">
        <ele>856</ele>
      </trkpt>
      <trkpt lat="44.89786" lon="5.65136">
        <ele>815</ele>
      </trkpt>
      <trkpt lat="44.8985" lon="5.65102">
        <ele>810</ele>
      </trkpt>
      <trkpt lat="44.89768" lon="5.65287">
        <ele>813</ele>
      </trkpt>
      <trkpt lat="44.89923" lon="5.65379">
        <ele>821</ele>
      </trkpt>
      <trkpt lat="44.90035" lon="5.65392">
        <ele>809</ele>
      </trkpt>
      <trkpt lat="44.90099" lon="5.6551">
        <ele>821</ele>
      </trkpt>
      <trkpt lat="44.90175" lon="5.65527">
        <ele>816</ele>
      </trkpt>
      <trkpt lat="44.90264" lon="5.65716">
        <ele>834</ele>
      </trkpt>
      <trkpt lat="44.90298" lon="5.65781">
        <ele>857</ele>
      </trkpt>
      <trkpt lat="44.90458" lon="5.65702">
        <ele>828</ele>
      </trkpt>
      <trkpt lat="44.90547" lon="5.65707">
        <ele>811</ele>
      </trkpt>
      <trkpt lat="44.90621" lon="5.65813">
        <ele>813</ele>
      </trkpt>
      <trkpt lat="44.90716" lon="5.65793">
        <ele>797</ele>
      </trkpt>
      <trkpt lat="44.9083" lon="5.65889">
        <ele>787</ele>
      </trkpt>
      <trkpt lat="44.9094" lon="5.65978">
        <ele>750</ele>
      </trkpt>
      <trkpt lat="44.90997" lon="5.66013">
        <ele>718</ele>
      </trkpt>
      <trkpt lat="44.90995" lon="5.66101">
        <ele>704</ele>
      </trkpt>
      <trkpt lat="44.90969" lon="5.6622">
        <ele>678</ele>
      </trkpt>
      <trkpt lat="44.91053" lon="5.66098">
        <ele>677</ele>
      </trkpt>
      <trkpt lat="44.91113" lon="5.66058">
        <ele>675</ele>
      </trkpt>
      <trkpt lat="44.91132" lon="5.66014">
        <ele>682</ele>
      </trkpt>
      <trkpt lat="44.90993" lon="5.65854">
        <ele>695</ele>
      </trkpt>
      <trkpt lat="44.9091" lon="5.65773">
        <ele>705</ele>
      </trkpt>
      <trkpt lat="44.90846" lon="5.65655">
        <ele>678</ele>
      </trkpt>
      <trkpt lat="44.90901" lon="5.65627">
        <ele>650</ele>
      </trkpt>
      <trkpt lat="44.90974" lon="5.65581">
        <ele>631</ele>
      </trkpt>
      <trkpt lat="44.91154" lon="5.65604">
        <ele>618</ele>
      </trkpt>
      <trkpt lat="44.91228" lon="5.65691">
        <ele>611</ele>
      </trkpt>
      <trkpt lat="44.91296" lon="5.65669">
        <ele>615</ele>
      </trkpt>
      <trkpt lat="44.91317" lon="5.65728">
        <ele>611</ele>
      </trkpt>
      <trkpt lat="44.91233" lon="5.65811">
        <ele>600</ele>
      </trkpt>
      <trkpt lat="44.91204" lon="5.65892">
        <ele>621</ele>
      </trkpt>
      <trkpt lat="44.91302" lon="5.6605">
        <ele>591</ele>
      </trkpt>
      <trkpt lat="44.91308" lon="5.66145">
        <ele>583</ele>
      </trkpt>
      <trkpt lat="44.91301" lon="5.6624">
        <ele>578</ele>
      </trkpt>
      <trkpt lat="44.91208" lon="5.66336">
        <ele>582</ele>
      </trkpt>
      <trkpt lat="44.91129" lon="5.66439">
        <ele>583</ele>
      </trkpt>
      <trkpt lat="44.91069" lon="5.66612">
        <ele>574</ele>
      </trkpt>
      <trkpt lat="44.9099" lon="5.66703">
        <ele>566</ele>
      </trkpt>
      <trkpt lat="44.90899" lon="5.66723">
        <ele>567</ele>
      </trkpt>
      <trkpt lat="44.90834" lon="5.6682">
        <ele>545</ele>
      </trkpt>
      <trkpt lat="44.90729" lon="5.66865">
        <ele>536</ele>
      </trkpt>
      <trkpt lat="44.90672" lon="5.6695">
        <ele>521</ele>
      </trkpt>
      <trkpt lat="44.90499" lon="5.67028">
        <ele>518</ele>
      </trkpt>
      <trkpt lat="44.90404" lon="5.67048">
        <ele>519</ele>
      </trkpt>
      <trkpt lat="44.90322" lon="5.67081">
        <ele>516</ele>
      </trkpt>
      <trkpt lat="44.9023" lon="5.67126">
        <ele>514</ele>
      </trkpt>
      <trkpt lat="44.90172" lon="5.67116">
        <ele>518</ele>
      </trkpt>
      <trkpt lat="44.90139" lon="5.67171">
        <ele>509</ele>
      </trkpt>
      <trkpt lat="44.9008" lon="5.6718">
        <ele>511</ele>
      </trkpt>
      <trkpt lat="44.89895" lon="5.67328">
        <ele>496</ele>
      </trkpt>
    </trkseg>
  </trk>
  <trk>
    <name><![CDATA[Barrage du Sautet-Camping Le Champ Long]]></name>
    <trkseg>
      <trkpt lat="44.85833" lon="5.85097">
        <ele>755</ele>
      </trkpt>
      <trkpt lat="44.85757" lon="5.85105">
        <ele>761</ele>
      </trkpt>
      <trkpt lat="44.85722" lon="5.85125">
        <ele>763</ele>
      </trkpt>
      <trkpt lat="44.85643" lon="5.85063">
        <ele>758</ele>
      </trkpt>
      <trkpt lat="44.85414" lon="5.85065">
        <ele>744</ele>
      </trkpt>
      <trkpt lat="44.85387" lon="5.8512">
        <ele>743</ele>
      </trkpt>
      <trkpt lat="44.85371" lon="5.85195">
        <ele>744</ele>
      </trkpt>
      <trkpt lat="44.85321" lon="5.85302">
        <ele>746</ele>
      </trkpt>
      <trkpt lat="44.85182" lon="5.85259">
        <ele>730</ele>
      </trkpt>
      <trkpt lat="44.85096" lon="5.85371">
        <ele>735</ele>
      </trkpt>
      <trkpt lat="44.85066" lon="5.85445">
        <ele>750</ele>
      </trkpt>
      <trkpt lat="44.85014" lon="5.85445">
        <ele>753</ele>
      </trkpt>
      <trkpt lat="44.84993" lon="5.85421">
        <ele>744</ele>
      </trkpt>
      <trkpt lat="44.84912" lon="5.8541">
        <ele>732</ele>
      </trkpt>
      <trkpt lat="44.84882" lon="5.85487">
        <ele>738</ele>
      </trkpt>
      <trkpt lat="44.84862" lon="5.85501">
        <ele>735</ele>
      </trkpt>
      <trkpt lat="44.84831" lon="5.85408">
        <ele>711</ele>
      </trkpt>
      <trkpt lat="44.84664" lon="5.85429">
        <ele>712</ele>
      </trkpt>
      <trkpt lat="44.84628" lon="5.85493">
        <ele>714</ele>
      </trkpt>
      <trkpt lat="44.84588" lon="5.85554">
        <ele>714</ele>
      </trkpt>
      <trkpt lat="44.84555" lon="5.85596">
        <ele>715</ele>
      </trkpt>
      <trkpt lat="44.84372" lon="5.85765">
        <ele>716</ele>
      </trkpt>
      <trkpt lat="44.84351" lon="5.85846">
        <ele>720</ele>
      </trkpt>
      <trkpt lat="44.8438" lon="5.85917">
        <ele>748</ele>
      </trkpt>
      <trkpt lat="44.84363" lon="5.86033">
        <ele>758</ele>
      </trkpt>
      <trkpt lat="44.84333" lon="5.86132">
        <ele>764</ele>
      </trkpt>
      <trkpt lat="44.84248" lon="5.862">
        <ele>757</ele>
      </trkpt>
      <trkpt lat="44.84143" lon="5.86219">
        <ele>748</ele>
      </trkpt>
      <trkpt lat="44.84112" lon="5.86368">
        <ele>773</ele>
      </trkpt>
      <trkpt lat="44.84005" lon="5.8645">
        <ele>780</ele>
      </trkpt>
      <trkpt lat="44.83905" lon="5.86624">
        <ele>803</ele>
      </trkpt>
      <trkpt lat="44.83885" lon="5.86633">
        <ele>802</ele>
      </trkpt>
      <trkpt lat="44.83839" lon="5.86715">
        <ele>805</ele>
      </trkpt>
      <trkpt lat="44.8386" lon="5.8677">
        <ele>815</ele>
      </trkpt>
      <trkpt lat="44.83871" lon="5.86863">
        <ele>829</ele>
      </trkpt>
      <trkpt lat="44.83836" lon="5.86965">
        <ele>832</ele>
      </trkpt>
      <trkpt lat="44.83803" lon="5.8701">
        <ele>827</ele>
      </trkpt>
      <trkpt lat="44.83747" lon="5.87149">
        <ele>834</ele>
      </trkpt>
      <trkpt lat="44.8365" lon="5.87137">
        <ele>820</ele>
      </trkpt>
      <trkpt lat="44.83511" lon="5.87064">
        <ele>792</ele>
      </trkpt>
      <trkpt lat="44.83451" lon="5.86953">
        <ele>783</ele>
      </trkpt>
      <trkpt lat="44.83402" lon="5.8708">
        <ele>764</ele>
      </trkpt>
      <trkpt lat="44.83424" lon="5.87239">
        <ele>759</ele>
      </trkpt>
      <trkpt lat="44.83394" lon="5.87332">
        <ele>756</ele>
      </trkpt>
      <trkpt lat="44.83415" lon="5.87372">
        <ele>763</ele>
      </trkpt>
      <trkpt lat="44.83376" lon="5.8742">
        <ele>755</ele>
      </trkpt>
      <trkpt lat="44.83314" lon="5.87593">
        <ele>745</ele>
      </trkpt>
      <trkpt lat="44.83289" lon="5.87601">
        <ele>742</ele>
      </trkpt>
      <trkpt lat="44.83303" lon="5.87709">
        <ele>744</ele>
      </trkpt>
      <trkpt lat="44.83296" lon="5.8793">
        <ele>749</ele>
      </trkpt>
      <trkpt lat="44.83266" lon="5.8803">
        <ele>750</ele>
      </trkpt>
      <trkpt lat="44.83162" lon="5.88194">
        <ele>726</ele>
      </trkpt>
      <trkpt lat="44.83204" lon="5.88288">
        <ele>725</ele>
      </trkpt>
      <trkpt lat="44.8319" lon="5.8829">
        <ele>721</ele>
      </trkpt>
      <trkpt lat="44.83132" lon="5.88211">
        <ele>708</ele>
      </trkpt>
      <trkpt lat="44.83159" lon="5.88295">
        <ele>716</ele>
      </trkpt>
      <trkpt lat="44.83073" lon="5.88213">
        <ele>676</ele>
      </trkpt>
      <trkpt lat="44.83085" lon="5.88129">
        <ele>683</ele>
      </trkpt>
      <trkpt lat="44.83029" lon="5.88255">
        <ele>662</ele>
      </trkpt>
      <trkpt lat="44.83003" lon="5.88222">
        <ele>649</ele>
      </trkpt>
      <trkpt lat="44.83003" lon="5.88146">
        <ele>648</ele>
      </trkpt>
      <trkpt lat="44.82989" lon="5.8811">
        <ele>640</ele>
      </trkpt>
      <trkpt lat="44.83006" lon="5.87997">
        <ele>635</ele>
      </trkpt>
      <trkpt lat="44.82878" lon="5.87856">
        <ele>663</ele>
      </trkpt>
      <trkpt lat="44.82933" lon="5.8804">
        <ele>658</ele>
      </trkpt>
      <trkpt lat="44.82836" lon="5.87952">
        <ele>712</ele>
      </trkpt>
      <trkpt lat="44.8283" lon="5.88021">
        <ele>722</ele>
      </trkpt>
      <trkpt lat="44.82856" lon="5.88035">
        <ele>710</ele>
      </trkpt>
      <trkpt lat="44.8279" lon="5.88126">
        <ele>729</ele>
      </trkpt>
      <trkpt lat="44.82783" lon="5.88224">
        <ele>743</ele>
      </trkpt>
      <trkpt lat="44.82537" lon="5.88442">
        <ele>769</ele>
      </trkpt>
      <trkpt lat="44.82533" lon="5.88565">
        <ele>767</ele>
      </trkpt>
      <trkpt lat="44.82513" lon="5.88643">
        <ele>776</ele>
      </trkpt>
      <trkpt lat="44.82532" lon="5.88752">
        <ele>778</ele>
      </trkpt>
      <trkpt lat="44.82491" lon="5.88895">
        <ele>793</ele>
      </trkpt>
      <trkpt lat="44.8251" lon="5.88987">
        <ele>799</ele>
      </trkpt>
      <trkpt lat="44.82503" lon="5.89019">
        <ele>802</ele>
      </trkpt>
      <trkpt lat="44.82539" lon="5.89163">
        <ele>805</ele>
      </trkpt>
      <trkpt lat="44.8252" lon="5.89238">
        <ele>800</ele>
      </trkpt>
      <trkpt lat="44.82418" lon="5.89355">
        <ele>825</ele>
      </trkpt>
      <trkpt lat="44.82374" lon="5.89324">
        <ele>838</ele>
      </trkpt>
      <trkpt lat="44.82352" lon="5.89366">
        <ele>842</ele>
      </trkpt>
      <trkpt lat="44.82353" lon="5.89461">
        <ele>836</ele>
      </trkpt>
      <trkpt lat="44.8228" lon="5.89504">
        <ele>842</ele>
      </trkpt>
      <trkpt lat="44.82254" lon="5.89537">
        <ele>839</ele>
      </trkpt>
      <trkpt lat="44.82216" lon="5.89535">
        <ele>845</ele>
      </trkpt>
      <trkpt lat="44.8223" lon="5.89593">
        <ele>832</ele>
      </trkpt>
      <trkpt lat="44.82196" lon="5.89666">
        <ele>824</ele>
      </trkpt>
      <trkpt lat="44.82111" lon="5.89705">
        <ele>850</ele>
      </trkpt>
      <trkpt lat="44.82097" lon="5.89796">
        <ele>844</ele>
      </trkpt>
      <trkpt lat="44.82019" lon="5.8993">
        <ele>874</ele>
      </trkpt>
      <trkpt lat="44.81976" lon="5.90007">
        <ele>878</ele>
      </trkpt>
      <trkpt lat="44.82005" lon="5.90132">
        <ele>863</ele>
      </trkpt>
      <trkpt lat="44.82055" lon="5.90205">
        <ele>858</ele>
      </trkpt>
      <trkpt lat="44.82055" lon="5.90334">
        <ele>863</ele>
      </trkpt>
      <trkpt lat="44.82098" lon="5.90467">
        <ele>860</ele>
      </trkpt>
      <trkpt lat="44.82049" lon="5.90606">
        <ele>878</ele>
      </trkpt>
      <trkpt lat="44.81968" lon="5.90721">
        <ele>867</ele>
      </trkpt>
      <trkpt lat="44.81979" lon="5.90658">
        <ele>867</ele>
      </trkpt>
    </trkseg>
  </trk>
  <trk>
    <name><![CDATA[Chris Cath- ColdeGeorges-vers Prebois]]></name>
    <trkseg>
      <trkpt lat="44.7474" lon="5.76989">
        <ele>949</ele>
      </trkpt>
      <trkpt lat="44.7469" lon="5.77156">
        <ele>947</ele>
      </trkpt>
      <trkpt lat="44.74571" lon="5.77357">
        <ele>950</ele>
      </trkpt>
      <trkpt lat="44.74455" lon="5.77603">
        <ele>959</ele>
      </trkpt>
      <trkpt lat="44.74534" lon="5.77696">
        <ele>990</ele>
      </trkpt>
      <trkpt lat="44.74587" lon="5.77851">
        <ele>988</ele>
      </trkpt>
      <trkpt lat="44.74602" lon="5.78092">
        <ele>990</ele>
      </trkpt>
      <trkpt lat="44.7463" lon="5.78214">
        <ele>997</ele>
      </trkpt>
      <trkpt lat="44.74746" lon="5.78385">
        <ele>1019</ele>
      </trkpt>
      <trkpt lat="44.74795" lon="5.78565">
        <ele>1029</ele>
      </trkpt>
      <trkpt lat="44.74821" lon="5.78718">
        <ele>1044</ele>
      </trkpt>
      <trkpt lat="44.74942" lon="5.78883">
        <ele>1072</ele>
      </trkpt>
      <trkpt lat="44.75008" lon="5.78932">
        <ele>1077</ele>
      </trkpt>
      <trkpt lat="44.75182" lon="5.78974">
        <ele>1104</ele>
      </trkpt>
      <trkpt lat="44.75303" lon="5.79133">
        <ele>1116</ele>
      </trkpt>
      <trkpt lat="44.75303" lon="5.79133">
        <ele>1116</ele>
      </trkpt>
      <trkpt lat="44.75361" lon="5.79168">
        <ele>1115</ele>
      </trkpt>
      <trkpt lat="44.75461" lon="5.79137">
        <ele>1122</ele>
      </trkpt>
      <trkpt lat="44.75535" lon="5.79204">
        <ele>1139</ele>
      </trkpt>
      <trkpt lat="44.75578" lon="5.79264">
        <ele>1143</ele>
      </trkpt>
      <trkpt lat="44.75623" lon="5.79267">
        <ele>1146</ele>
      </trkpt>
      <trkpt lat="44.75575" lon="5.79099">
        <ele>1153</ele>
      </trkpt>
      <trkpt lat="44.75654" lon="5.79155">
        <ele>1175</ele>
      </trkpt>
      <trkpt lat="44.7563" lon="5.79052">
        <ele>1195</ele>
      </trkpt>
      <trkpt lat="44.75713" lon="5.79121">
        <ele>1215</ele>
      </trkpt>
      <trkpt lat="44.75682" lon="5.78967">
        <ele>1219</ele>
      </trkpt>
      <trkpt lat="44.75731" lon="5.78976">
        <ele>1207</ele>
      </trkpt>
      <trkpt lat="44.75803" lon="5.79">
        <ele>1184</ele>
      </trkpt>
      <trkpt lat="44.75845" lon="5.79078">
        <ele>1216</ele>
      </trkpt>
      <trkpt lat="44.75958" lon="5.79079">
        <ele>1145</ele>
      </trkpt>
      <trkpt lat="44.75915" lon="5.79013">
        <ele>1155</ele>
      </trkpt>
      <trkpt lat="44.76001" lon="5.78999">
        <ele>1105</ele>
      </trkpt>
      <trkpt lat="44.76056" lon="5.79116">
        <ele>1095</ele>
      </trkpt>
      <trkpt lat="44.76056" lon="5.79116">
        <ele>1095</ele>
      </trkpt>
      <trkpt lat="44.76056" lon="5.78965">
        <ele>1076</ele>
      </trkpt>
      <trkpt lat="44.76169" lon="5.78795">
        <ele>1034</ele>
      </trkpt>
      <trkpt lat="44.76211" lon="5.78766">
        <ele>1032</ele>
      </trkpt>
      <trkpt lat="44.76242" lon="5.7878">
        <ele>1036</ele>
      </trkpt>
      <trkpt lat="44.7627" lon="5.78757">
        <ele>1031</ele>
      </trkpt>
      <trkpt lat="44.76318" lon="5.7864">
        <ele>1013</ele>
      </trkpt>
      <trkpt lat="44.7637" lon="5.78573">
        <ele>1012</ele>
      </trkpt>
      <trkpt lat="44.76463" lon="5.78459">
        <ele>1002</ele>
      </trkpt>
      <trkpt lat="44.76534" lon="5.78362">
        <ele>986</ele>
      </trkpt>
      <trkpt lat="44.7663" lon="5.78324">
        <ele>975</ele>
      </trkpt>
      <trkpt lat="44.76733" lon="5.78337">
        <ele>967</ele>
      </trkpt>
      <trkpt lat="44.76872" lon="5.78187">
        <ele>945</ele>
      </trkpt>
      <trkpt lat="44.76954" lon="5.7818">
        <ele>938</ele>
      </trkpt>
      <trkpt lat="44.7712" lon="5.7819">
        <ele>923</ele>
      </trkpt>
      <trkpt lat="44.77196" lon="5.78195">
        <ele>916</ele>
      </trkpt>
      <trkpt lat="44.773" lon="5.78182">
        <ele>909</ele>
      </trkpt>
      <trkpt lat="44.77409" lon="5.7817">
        <ele>903</ele>
      </trkpt>
      <trkpt lat="44.77519" lon="5.78101">
        <ele>897</ele>
      </trkpt>
      <trkpt lat="44.77682" lon="5.77934">
        <ele>881</ele>
      </trkpt>
      <trkpt lat="44.77769" lon="5.7787">
        <ele>879</ele>
      </trkpt>
      <trkpt lat="44.77812" lon="5.77639">
        <ele>871</ele>
      </trkpt>
      <trkpt lat="44.77846" lon="5.77571">
        <ele>864</ele>
      </trkpt>
      <trkpt lat="44.77849" lon="5.77489">
        <ele>863</ele>
      </trkpt>
      <trkpt lat="44.77899" lon="5.77322">
        <ele>861</ele>
      </trkpt>
      <trkpt lat="44.77915" lon="5.77228">
        <ele>861</ele>
      </trkpt>
      <trkpt lat="44.78021" lon="5.77026">
        <ele>851</ele>
      </trkpt>
      <trkpt lat="44.78099" lon="5.76828">
        <ele>848</ele>
      </trkpt>
      <trkpt lat="44.78137" lon="5.76761">
        <ele>845</ele>
      </trkpt>
      <trkpt lat="44.78137" lon="5.76761">
        <ele>845</ele>
      </trkpt>
      <trkpt lat="44.78159" lon="5.76614">
        <ele>846</ele>
      </trkpt>
      <trkpt lat="44.78307" lon="5.76503">
        <ele>831</ele>
      </trkpt>
      <trkpt lat="44.78371" lon="5.76323">
        <ele>817</ele>
      </trkpt>
      <trkpt lat="44.78446" lon="5.76239">
        <ele>811</ele>
      </trkpt>
      <trkpt lat="44.78492" lon="5.76211">
        <ele>811</ele>
      </trkpt>
      <trkpt lat="44.78516" lon="5.76162">
        <ele>812</ele>
      </trkpt>
      <trkpt lat="44.78612" lon="5.76085">
        <ele>806</ele>
      </trkpt>
      <trkpt lat="44.7871" lon="5.75845">
        <ele>810</ele>
      </trkpt>
      <trkpt lat="44.78808" lon="5.75579">
        <ele>820</ele>
      </trkpt>
      <trkpt lat="44.78725" lon="5.75511">
        <ele>829</ele>
      </trkpt>
      <trkpt lat="44.78659" lon="5.75444">
        <ele>834</ele>
      </trkpt>
      <trkpt lat="44.78584" lon="5.75401">
        <ele>838</ele>
      </trkpt>
      <trkpt lat="44.78548" lon="5.75272">
        <ele>836</ele>
      </trkpt>
      <trkpt lat="44.78489" lon="5.75269">
        <ele>840</ele>
      </trkpt>
      <trkpt lat="44.78407" lon="5.75314">
        <ele>843</ele>
      </trkpt>
      <trkpt lat="44.78322" lon="5.75296">
        <ele>843</ele>
      </trkpt>
      <trkpt lat="44.78265" lon="5.75249">
        <ele>845</ele>
      </trkpt>
      <trkpt lat="44.78198" lon="5.75219">
        <ele>850</ele>
      </trkpt>
      <trkpt lat="44.78091" lon="5.75188">
        <ele>860</ele>
      </trkpt>
      <trkpt lat="44.78056" lon="5.75173">
        <ele>863</ele>
      </trkpt>
      <trkpt lat="44.78018" lon="5.75069">
        <ele>866</ele>
      </trkpt>
      <trkpt lat="44.77943" lon="5.75014">
        <ele>875</ele>
      </trkpt>
      <trkpt lat="44.77855" lon="5.74826">
        <ele>881</ele>
      </trkpt>
      <trkpt lat="44.77796" lon="5.74822">
        <ele>887</ele>
      </trkpt>
      <trkpt lat="44.77758" lon="5.7475">
        <ele>889</ele>
      </trkpt>
      <trkpt lat="44.77662" lon="5.74814">
        <ele>900</ele>
      </trkpt>
      <trkpt lat="44.77557" lon="5.75003">
        <ele>925</ele>
      </trkpt>
      <trkpt lat="44.77545" lon="5.75104">
        <ele>928</ele>
      </trkpt>
      <trkpt lat="44.77453" lon="5.75155">
        <ele>935</ele>
      </trkpt>
      <trkpt lat="44.77324" lon="5.75255">
        <ele>947</ele>
      </trkpt>
      <trkpt lat="44.77193" lon="5.75272">
        <ele>967</ele>
      </trkpt>
      <trkpt lat="44.77014" lon="5.75223">
        <ele>1008</ele>
      </trkpt>
      <trkpt lat="44.76811" lon="5.75242">
        <ele>1081</ele>
      </trkpt>
      <trkpt lat="44.76715" lon="5.75135">
        <ele>1086</ele>
      </trkpt>
      <trkpt lat="44.7663" lon="5.7513">
        <ele>1131</ele>
      </trkpt>
      <trkpt lat="44.76682" lon="5.75045">
        <ele>1084</ele>
      </trkpt>
      <trkpt lat="44.76592" lon="5.75039">
        <ele>1128</ele>
      </trkpt>
      <trkpt lat="44.76523" lon="5.74953">
        <ele>1119</ele>
      </trkpt>
      <trkpt lat="44.76566" lon="5.74734">
        <ele>1105</ele>
      </trkpt>
      <trkpt lat="44.76602" lon="5.74572">
        <ele>1111</ele>
      </trkpt>
      <trkpt lat="44.76641" lon="5.74467">
        <ele>1101</ele>
      </trkpt>
      <trkpt lat="44.76643" lon="5.74259">
        <ele>1089</ele>
      </trkpt>
      <trkpt lat="44.76599" lon="5.74098">
        <ele>1058</ele>
      </trkpt>
      <trkpt lat="44.76717" lon="5.74206">
        <ele>1066</ele>
      </trkpt>
      <trkpt lat="44.76896" lon="5.73965">
        <ele>1009</ele>
      </trkpt>
      <trkpt lat="44.77027" lon="5.73802">
        <ele>973</ele>
      </trkpt>
    </trkseg>
  </trk>
  <trk>
    <name><![CDATA[Chris Cath ColdelaCroix]]></name>
    <trkseg>
      <trkpt lat="44.74579" lon="5.76808">
        <ele>928</ele>
        <time>2004-07-26T16:50:38Z</time>
      </trkpt>
      <trkpt lat="44.7453" lon="5.76811">
        <ele>924</ele>
        <time>2004-07-26T16:50:38Z</time>
      </trkpt>
      <trkpt lat="44.74498" lon="5.76825">
        <ele>923</ele>
        <time>2004-07-26T16:50:38Z</time>
      </trkpt>
      <trkpt lat="44.74395" lon="5.76746">
        <ele>914</ele>
        <time>2004-07-26T16:50:38Z</time>
      </trkpt>
      <trkpt lat="44.74299" lon="5.76646">
        <ele>908</ele>
        <time>2004-07-26T16:50:38Z</time>
      </trkpt>
      <trkpt lat="44.74249" lon="5.76589">
        <ele>905</ele>
        <time>2004-07-26T16:50:38Z</time>
      </trkpt>
      <trkpt lat="44.74162" lon="5.76555">
        <ele>907</ele>
        <time>2004-07-26T16:50:38Z</time>
      </trkpt>
      <trkpt lat="44.74139" lon="5.76503">
        <ele>906</ele>
        <time>2004-07-26T16:50:38Z</time>
      </trkpt>
      <trkpt lat="44.74116" lon="5.76502">
        <ele>908</ele>
        <time>2004-07-26T16:50:38Z</time>
      </trkpt>
      <trkpt lat="44.74086" lon="5.76522">
        <ele>911</ele>
        <time>2004-07-26T16:50:38Z</time>
      </trkpt>
      <trkpt lat="44.73985" lon="5.76456">
        <ele>902</ele>
        <time>2004-07-26T16:50:38Z</time>
      </trkpt>
      <trkpt lat="44.73948" lon="5.76425">
        <ele>900</ele>
        <time>2004-07-26T16:50:38Z</time>
      </trkpt>
      <trkpt lat="44.7388" lon="5.76418">
        <ele>900</ele>
        <time>2004-07-26T16:50:38Z</time>
      </trkpt>
      <trkpt lat="44.73845" lon="5.76466">
        <ele>903</ele>
        <time>2004-07-26T16:50:38Z</time>
      </trkpt>
      <trkpt lat="44.73754" lon="5.76505">
        <ele>904</ele>
        <time>2004-07-26T16:50:38Z</time>
      </trkpt>
      <trkpt lat="44.7364" lon="5.76545">
        <ele>909</ele>
        <time>2004-07-26T16:50:38Z</time>
      </trkpt>
      <trkpt lat="44.7358" lon="5.76523">
        <ele>910</ele>
        <time>2004-07-26T16:50:38Z</time>
      </trkpt>
      <trkpt lat="44.73541" lon="5.76489">
        <ele>909</ele>
        <time>2004-07-26T16:50:38Z</time>
      </trkpt>
      <trkpt lat="44.73487" lon="5.76466">
        <ele>908</ele>
        <time>2004-07-26T16:50:38Z</time>
      </trkpt>
      <trkpt lat="44.73464" lon="5.76408">
        <ele>903</ele>
        <time>2004-07-26T16:50:38Z</time>
      </trkpt>
      <trkpt lat="44.73448" lon="5.76341">
        <ele>900</ele>
        <time>2004-07-26T16:50:38Z</time>
      </trkpt>
      <trkpt lat="44.73376" lon="5.76346">
        <ele>901</ele>
        <time>2004-07-26T16:50:38Z</time>
      </trkpt>
      <trkpt lat="44.73316" lon="5.76342">
        <ele>902</ele>
        <time>2004-07-26T16:50:38Z</time>
      </trkpt>
      <trkpt lat="44.73216" lon="5.76431">
        <ele>902</ele>
        <time>2004-07-26T16:50:38Z</time>
      </trkpt>
      <trkpt lat="44.73142" lon="5.76508">
        <ele>906</ele>
        <time>2004-07-26T16:50:38Z</time>
      </trkpt>
      <trkpt lat="44.73089" lon="5.76534">
        <ele>909</ele>
        <time>2004-07-26T16:50:38Z</time>
      </trkpt>
      <trkpt lat="44.73001" lon="5.76541">
        <ele>914</ele>
        <time>2004-07-26T16:50:38Z</time>
      </trkpt>
      <trkpt lat="44.72942" lon="5.76556">
        <ele>918</ele>
        <time>2004-07-26T16:50:38Z</time>
      </trkpt>
      <trkpt lat="44.72821" lon="5.76609">
        <ele>930</ele>
        <time>2004-07-26T16:50:38Z</time>
      </trkpt>
      <trkpt lat="44.72697" lon="5.76693">
        <ele>935</ele>
        <time>2004-07-26T16:50:38Z</time>
      </trkpt>
      <trkpt lat="44.72644" lon="5.76743">
        <ele>941</ele>
        <time>2004-07-26T16:50:38Z</time>
      </trkpt>
      <trkpt lat="44.72578" lon="5.76758">
        <ele>946</ele>
        <time>2004-07-26T16:50:38Z</time>
      </trkpt>
      <trkpt lat="44.72551" lon="5.76741">
        <ele>948</ele>
        <time>2004-07-26T16:50:38Z</time>
      </trkpt>
      <trkpt lat="44.72436" lon="5.76753">
        <ele>952</ele>
        <time>2004-07-26T16:50:38Z</time>
      </trkpt>
      <trkpt lat="44.72384" lon="5.76759">
        <ele>953</ele>
        <time>2004-07-26T16:50:38Z</time>
      </trkpt>
      <trkpt lat="44.72266" lon="5.76647">
        <ele>966</ele>
        <time>2004-07-26T16:50:38Z</time>
      </trkpt>
      <trkpt lat="44.72162" lon="5.766">
        <ele>978</ele>
        <time>2004-07-26T16:50:38Z</time>
      </trkpt>
      <trkpt lat="44.72069" lon="5.76566">
        <ele>986</ele>
        <time>2004-07-26T16:50:38Z</time>
      </trkpt>
      <trkpt lat="44.71961" lon="5.7654">
        <ele>989</ele>
        <time>2004-07-26T16:50:38Z</time>
      </trkpt>
      <trkpt lat="44.71896" lon="5.7653">
        <ele>991</ele>
        <time>2004-07-26T16:50:38Z</time>
      </trkpt>
      <trkpt lat="44.71846" lon="5.76568">
        <ele>986</ele>
        <time>2004-07-26T16:50:38Z</time>
      </trkpt>
      <trkpt lat="44.71793" lon="5.76581">
        <ele>984</ele>
        <time>2004-07-26T16:50:38Z</time>
      </trkpt>
      <trkpt lat="44.71709" lon="5.76632">
        <ele>999</ele>
        <time>2004-07-26T16:50:38Z</time>
      </trkpt>
      <trkpt lat="44.71645" lon="5.76654">
        <ele>1008</ele>
        <time>2004-07-26T16:50:38Z</time>
      </trkpt>
      <trkpt lat="44.71577" lon="5.76659">
        <ele>1016</ele>
        <time>2004-07-26T16:50:38Z</time>
      </trkpt>
      <trkpt lat="44.71531" lon="5.76684">
        <ele>1020</ele>
        <time>2004-07-26T16:50:38Z</time>
      </trkpt>
      <trkpt lat="44.71448" lon="5.76774">
        <ele>1033</ele>
        <time>2004-07-26T16:50:38Z</time>
      </trkpt>
      <trkpt lat="44.71413" lon="5.768">
        <ele>1038</ele>
        <time>2004-07-26T16:50:38Z</time>
      </trkpt>
      <trkpt lat="44.71391" lon="5.76859">
        <ele>1043</ele>
        <time>2004-07-26T16:50:38Z</time>
      </trkpt>
      <trkpt lat="44.71346" lon="5.76926">
        <ele>1052</ele>
        <time>2004-07-26T16:50:38Z</time>
      </trkpt>
      <trkpt lat="44.71295" lon="5.77058">
        <ele>1071</ele>
        <time>2004-07-26T16:50:38Z</time>
      </trkpt>
      <trkpt lat="44.71266" lon="5.77126">
        <ele>1080</ele>
        <time>2004-07-26T16:50:38Z</time>
      </trkpt>
      <trkpt lat="44.71228" lon="5.77187">
        <ele>1093</ele>
        <time>2004-07-26T16:50:38Z</time>
      </trkpt>
      <trkpt lat="44.71147" lon="5.77257">
        <ele>1111</ele>
        <time>2004-07-26T16:50:38Z</time>
      </trkpt>
      <trkpt lat="44.71065" lon="5.77287">
        <ele>1131</ele>
        <time>2004-07-26T16:50:38Z</time>
      </trkpt>
      <trkpt lat="44.71028" lon="5.77326">
        <ele>1148</ele>
        <time>2004-07-26T16:50:38Z</time>
      </trkpt>
      <trkpt lat="44.71022" lon="5.77294">
        <ele>1141</ele>
        <time>2004-07-26T16:50:38Z</time>
      </trkpt>
      <trkpt lat="44.71034" lon="5.772">
        <ele>1146</ele>
        <time>2004-07-26T16:50:38Z</time>
      </trkpt>
      <trkpt lat="44.71029" lon="5.77149">
        <ele>1163</ele>
        <time>2004-07-26T16:50:38Z</time>
      </trkpt>
      <trkpt lat="44.71049" lon="5.77128">
        <ele>1165</ele>
        <time>2004-07-26T16:50:38Z</time>
      </trkpt>
      <trkpt lat="44.70986" lon="5.77137">
        <ele>1178</ele>
        <time>2004-07-26T16:50:38Z</time>
      </trkpt>
      <trkpt lat="44.70909" lon="5.77148">
        <ele>1203</ele>
        <time>2004-07-26T16:50:38Z</time>
      </trkpt>
      <trkpt lat="44.70918" lon="5.77231">
        <ele>1206</ele>
        <time>2004-07-26T16:50:38Z</time>
      </trkpt>
      <trkpt lat="44.7093" lon="5.77263">
        <ele>1198</ele>
        <time>2004-07-26T16:50:38Z</time>
      </trkpt>
      <trkpt lat="44.70854" lon="5.77265">
        <ele>1231</ele>
        <time>2004-07-26T16:50:38Z</time>
      </trkpt>
      <trkpt lat="44.70765" lon="5.77234">
        <ele>1266</ele>
        <time>2004-07-26T16:50:38Z</time>
      </trkpt>
      <trkpt lat="44.70743" lon="5.77277">
        <ele>1274</ele>
        <time>2004-07-26T16:50:38Z</time>
      </trkpt>
      <trkpt lat="44.70723" lon="5.77279">
        <ele>1285</ele>
        <time>2004-07-26T16:50:38Z</time>
      </trkpt>
      <trkpt lat="44.70677" lon="5.7744">
        <ele>1301</ele>
        <time>2004-07-26T16:50:38Z</time>
      </trkpt>
      <trkpt lat="44.70658" lon="5.7747">
        <ele>1311</ele>
        <time>2004-07-26T16:50:38Z</time>
      </trkpt>
      <trkpt lat="44.70662" lon="5.77575">
        <ele>1299</ele>
        <time>2004-07-26T16:50:38Z</time>
      </trkpt>
      <trkpt lat="44.70584" lon="5.77681">
        <ele>1326</ele>
        <time>2004-07-26T16:50:38Z</time>
      </trkpt>
      <trkpt lat="44.7059" lon="5.77716">
        <ele>1316</ele>
        <time>2004-07-26T16:50:38Z</time>
      </trkpt>
      <trkpt lat="44.70543" lon="5.77785">
        <ele>1350</ele>
        <time>2004-07-26T16:50:38Z</time>
      </trkpt>
      <trkpt lat="44.70547" lon="5.77801">
        <ele>1353</ele>
        <time>2004-07-26T16:50:38Z</time>
      </trkpt>
      <trkpt lat="44.70535" lon="5.77823">
        <ele>1367</ele>
        <time>2004-07-26T16:50:38Z</time>
      </trkpt>
      <trkpt lat="44.70556" lon="5.77862">
        <ele>1364</ele>
        <time>2004-07-26T16:50:38Z</time>
      </trkpt>
      <trkpt lat="44.70561" lon="5.77995">
        <ele>1384</ele>
        <time>2004-07-26T16:50:38Z</time>
      </trkpt>
      <trkpt lat="44.7057" lon="5.7808">
        <ele>1399</ele>
        <time>2004-07-26T16:50:38Z</time>
      </trkpt>
      <trkpt lat="44.70605" lon="5.78165">
        <ele>1393</ele>
        <time>2004-07-26T16:50:38Z</time>
      </trkpt>
      <trkpt lat="44.70615" lon="5.782">
        <ele>1394</ele>
        <time>2004-07-26T16:50:38Z</time>
      </trkpt>
      <trkpt lat="44.706" lon="5.78186">
        <ele>1398</ele>
        <time>2004-07-26T16:50:38Z</time>
      </trkpt>
      <trkpt lat="44.70607" lon="5.7825">
        <ele>1401</ele>
        <time>2004-07-26T16:50:38Z</time>
      </trkpt>
      <trkpt lat="44.70616" lon="5.78336">
        <ele>1408</ele>
        <time>2004-07-26T16:50:38Z</time>
      </trkpt>
      <trkpt lat="44.70597" lon="5.78432">
        <ele>1434</ele>
        <time>2004-07-26T16:50:38Z</time>
      </trkpt>
      <trkpt lat="44.70545" lon="5.78372">
        <ele>1437</ele>
        <time>2004-07-26T16:50:38Z</time>
      </trkpt>
      <trkpt lat="44.70471" lon="5.7828">
        <ele>1446</ele>
        <time>2004-07-26T16:50:38Z</time>
      </trkpt>
      <trkpt lat="44.70411" lon="5.78187">
        <ele>1461</ele>
        <time>2004-07-26T16:50:38Z</time>
      </trkpt>
      <trkpt lat="44.70342" lon="5.78098">
        <ele>1469</ele>
        <time>2004-07-26T16:50:38Z</time>
      </trkpt>
      <trkpt lat="44.70272" lon="5.78087">
        <ele>1481</ele>
        <time>2004-07-26T16:50:38Z</time>
      </trkpt>
      <trkpt lat="44.70171" lon="5.78097">
        <ele>1483</ele>
        <time>2004-07-26T16:50:38Z</time>
      </trkpt>
      <trkpt lat="44.70157" lon="5.78115">
        <ele>1487</ele>
        <time>2004-07-26T16:50:38Z</time>
      </trkpt>
      <trkpt lat="44.70076" lon="5.78101">
        <ele>1492</ele>
        <time>2004-07-26T16:50:38Z</time>
      </trkpt>
      <trkpt lat="44.70035" lon="5.78048">
        <ele>1492</ele>
        <time>2004-07-26T16:50:38Z</time>
      </trkpt>
    </trkseg>
  </trk>
  <trk>
    <name><![CDATA[ChrisCath Ecuries de Cornillon via Mens]]></name>
    <trkseg>
      <trkpt lat="44.74589" lon="5.76805">
        <ele>928</ele>
      </trkpt>
      <trkpt lat="44.74624" lon="5.76744">
        <ele>926</ele>
      </trkpt>
      <trkpt lat="44.74676" lon="5.76751">
        <ele>926</ele>
      </trkpt>
      <trkpt lat="44.74764" lon="5.76813">
        <ele>939</ele>
      </trkpt>
      <trkpt lat="44.74845" lon="5.76821">
        <ele>944</ele>
      </trkpt>
      <trkpt lat="44.74924" lon="5.76788">
        <ele>942</ele>
      </trkpt>
      <trkpt lat="44.7501" lon="5.76714">
        <ele>945</ele>
      </trkpt>
      <trkpt lat="44.75056" lon="5.76682">
        <ele>951</ele>
      </trkpt>
      <trkpt lat="44.7512" lon="5.76639">
        <ele>955</ele>
      </trkpt>
      <trkpt lat="44.75189" lon="5.76678">
        <ele>959</ele>
      </trkpt>
      <trkpt lat="44.7534" lon="5.76747">
        <ele>963</ele>
      </trkpt>
      <trkpt lat="44.75423" lon="5.76816">
        <ele>973</ele>
      </trkpt>
      <trkpt lat="44.75461" lon="5.76846">
        <ele>981</ele>
      </trkpt>
      <trkpt lat="44.7552" lon="5.76897">
        <ele>990</ele>
      </trkpt>
      <trkpt lat="44.75566" lon="5.76941">
        <ele>1000</ele>
      </trkpt>
      <trkpt lat="44.75585" lon="5.76983">
        <ele>1005</ele>
      </trkpt>
      <trkpt lat="44.75606" lon="5.77016">
        <ele>1010</ele>
      </trkpt>
      <trkpt lat="44.75615" lon="5.77168">
        <ele>1029</ele>
      </trkpt>
      <trkpt lat="44.75664" lon="5.77263">
        <ele>1040</ele>
      </trkpt>
      <trkpt lat="44.75667" lon="5.77364">
        <ele>1055</ele>
      </trkpt>
      <trkpt lat="44.75704" lon="5.77335">
        <ele>1055</ele>
      </trkpt>
      <trkpt lat="44.75797" lon="5.77259">
        <ele>1077</ele>
      </trkpt>
      <trkpt lat="44.75824" lon="5.77241">
        <ele>1077</ele>
      </trkpt>
      <trkpt lat="44.75872" lon="5.77301">
        <ele>1107</ele>
      </trkpt>
      <trkpt lat="44.75904" lon="5.77284">
        <ele>1108</ele>
      </trkpt>
      <trkpt lat="44.75951" lon="5.77205">
        <ele>1109</ele>
      </trkpt>
      <trkpt lat="44.76016" lon="5.77146">
        <ele>1109</ele>
      </trkpt>
      <trkpt lat="44.76052" lon="5.77148">
        <ele>1095</ele>
      </trkpt>
      <trkpt lat="44.76073" lon="5.77212">
        <ele>1092</ele>
      </trkpt>
      <trkpt lat="44.76103" lon="5.77239">
        <ele>1080</ele>
      </trkpt>
      <trkpt lat="44.76107" lon="5.77132">
        <ele>1062</ele>
      </trkpt>
      <trkpt lat="44.76161" lon="5.77117">
        <ele>1039</ele>
      </trkpt>
      <trkpt lat="44.76199" lon="5.77068">
        <ele>1039</ele>
      </trkpt>
      <trkpt lat="44.76262" lon="5.77053">
        <ele>1016</ele>
      </trkpt>
      <trkpt lat="44.76256" lon="5.77097">
        <ele>1012</ele>
      </trkpt>
      <trkpt lat="44.76283" lon="5.77118">
        <ele>999</ele>
      </trkpt>
      <trkpt lat="44.76335" lon="5.77153">
        <ele>978</ele>
      </trkpt>
      <trkpt lat="44.76365" lon="5.77211">
        <ele>968</ele>
      </trkpt>
      <trkpt lat="44.76362" lon="5.773">
        <ele>975</ele>
      </trkpt>
      <trkpt lat="44.76422" lon="5.77272">
        <ele>972</ele>
      </trkpt>
      <trkpt lat="44.76459" lon="5.77242">
        <ele>974</ele>
      </trkpt>
      <trkpt lat="44.76473" lon="5.77079">
        <ele>963</ele>
      </trkpt>
      <trkpt lat="44.76505" lon="5.77043">
        <ele>964</ele>
      </trkpt>
      <trkpt lat="44.76574" lon="5.77003">
        <ele>953</ele>
      </trkpt>
      <trkpt lat="44.76679" lon="5.76978">
        <ele>936</ele>
      </trkpt>
      <trkpt lat="44.76808" lon="5.76998">
        <ele>921</ele>
      </trkpt>
      <trkpt lat="44.77006" lon="5.77023">
        <ele>902</ele>
      </trkpt>
      <trkpt lat="44.77132" lon="5.77006">
        <ele>895</ele>
      </trkpt>
      <trkpt lat="44.77176" lon="5.7704">
        <ele>891</ele>
      </trkpt>
      <trkpt lat="44.77249" lon="5.77032">
        <ele>885</ele>
      </trkpt>
      <trkpt lat="44.77382" lon="5.7709">
        <ele>882</ele>
      </trkpt>
      <trkpt lat="44.7751" lon="5.77023">
        <ele>870</ele>
      </trkpt>
      <trkpt lat="44.77779" lon="5.769">
        <ele>860</ele>
      </trkpt>
      <trkpt lat="44.77838" lon="5.76904">
        <ele>859</ele>
      </trkpt>
      <trkpt lat="44.77886" lon="5.76812">
        <ele>854</ele>
      </trkpt>
      <trkpt lat="44.77917" lon="5.76814">
        <ele>854</ele>
      </trkpt>
      <trkpt lat="44.77989" lon="5.76805">
        <ele>852</ele>
      </trkpt>
      <trkpt lat="44.78032" lon="5.76751">
        <ele>850</ele>
      </trkpt>
      <trkpt lat="44.78099" lon="5.76743">
        <ele>847</ele>
      </trkpt>
      <trkpt lat="44.78198" lon="5.76768">
        <ele>841</ele>
      </trkpt>
      <trkpt lat="44.78209" lon="5.76825">
        <ele>839</ele>
      </trkpt>
      <trkpt lat="44.78188" lon="5.76938">
        <ele>839</ele>
      </trkpt>
      <trkpt lat="44.78249" lon="5.77005">
        <ele>844</ele>
      </trkpt>
      <trkpt lat="44.78342" lon="5.76884">
        <ele>846</ele>
      </trkpt>
      <trkpt lat="44.78368" lon="5.76936">
        <ele>849</ele>
      </trkpt>
      <trkpt lat="44.78442" lon="5.76871">
        <ele>851</ele>
      </trkpt>
      <trkpt lat="44.7844" lon="5.76934">
        <ele>852</ele>
      </trkpt>
      <trkpt lat="44.78484" lon="5.77114">
        <ele>869</ele>
      </trkpt>
      <trkpt lat="44.78435" lon="5.77225">
        <ele>875</ele>
      </trkpt>
      <trkpt lat="44.78508" lon="5.77216">
        <ele>880</ele>
      </trkpt>
      <trkpt lat="44.78541" lon="5.77168">
        <ele>884</ele>
      </trkpt>
      <trkpt lat="44.78544" lon="5.772">
        <ele>887</ele>
      </trkpt>
      <trkpt lat="44.7855" lon="5.77289">
        <ele>902</ele>
      </trkpt>
      <trkpt lat="44.78569" lon="5.77422">
        <ele>919</ele>
      </trkpt>
      <trkpt lat="44.78579" lon="5.77373">
        <ele>917</ele>
      </trkpt>
      <trkpt lat="44.78601" lon="5.77266">
        <ele>913</ele>
      </trkpt>
      <trkpt lat="44.7862" lon="5.77211">
        <ele>911</ele>
      </trkpt>
      <trkpt lat="44.78652" lon="5.77219">
        <ele>918</ele>
      </trkpt>
      <trkpt lat="44.78646" lon="5.77269">
        <ele>923</ele>
      </trkpt>
      <trkpt lat="44.78655" lon="5.77396">
        <ele>930</ele>
      </trkpt>
      <trkpt lat="44.78663" lon="5.77447">
        <ele>934</ele>
      </trkpt>
      <trkpt lat="44.78737" lon="5.77502">
        <ele>946</ele>
      </trkpt>
      <trkpt lat="44.78671" lon="5.77606">
        <ele>950</ele>
      </trkpt>
      <trkpt lat="44.78646" lon="5.7768">
        <ele>956</ele>
      </trkpt>
      <trkpt lat="44.78598" lon="5.77652">
        <ele>948</ele>
      </trkpt>
      <trkpt lat="44.78629" lon="5.77799">
        <ele>967</ele>
      </trkpt>
      <trkpt lat="44.78697" lon="5.77936">
        <ele>980</ele>
      </trkpt>
      <trkpt lat="44.78757" lon="5.78016">
        <ele>988</ele>
      </trkpt>
      <trkpt lat="44.78787" lon="5.78062">
        <ele>994</ele>
      </trkpt>
      <trkpt lat="44.78859" lon="5.78085">
        <ele>999</ele>
      </trkpt>
      <trkpt lat="44.78906" lon="5.7817">
        <ele>1008</ele>
      </trkpt>
      <trkpt lat="44.78977" lon="5.78326">
        <ele>1023</ele>
      </trkpt>
      <trkpt lat="44.79063" lon="5.78471">
        <ele>1038</ele>
      </trkpt>
      <trkpt lat="44.79048" lon="5.78514">
        <ele>1039</ele>
      </trkpt>
      <trkpt lat="44.79108" lon="5.78619">
        <ele>1040</ele>
      </trkpt>
      <trkpt lat="44.79036" lon="5.78595">
        <ele>1025</ele>
      </trkpt>
      <trkpt lat="44.79127" lon="5.78715">
        <ele>1023</ele>
      </trkpt>
      <trkpt lat="44.79195" lon="5.78833">
        <ele>1001</ele>
      </trkpt>
      <trkpt lat="44.79222" lon="5.78834">
        <ele>1004</ele>
      </trkpt>
      <trkpt lat="44.79307" lon="5.78878">
        <ele>1018</ele>
      </trkpt>
      <trkpt lat="44.79327" lon="5.78942">
        <ele>1016</ele>
      </trkpt>
      <trkpt lat="44.79316" lon="5.79005">
        <ele>1009</ele>
      </trkpt>
      <trkpt lat="44.79323" lon="5.79075">
        <ele>1004</ele>
      </trkpt>
      <trkpt lat="44.79334" lon="5.79164">
        <ele>1004</ele>
      </trkpt>
      <trkpt lat="44.79355" lon="5.79197">
        <ele>1009</ele>
      </trkpt>
      <trkpt lat="44.79317" lon="5.7927">
        <ele>1006</ele>
      </trkpt>
      <trkpt lat="44.79315" lon="5.79333">
        <ele>1009</ele>
      </trkpt>
      <trkpt lat="44.79311" lon="5.79441">
        <ele>1011</ele>
      </trkpt>
      <trkpt lat="44.79313" lon="5.79535">
        <ele>1013</ele>
      </trkpt>
      <trkpt lat="44.7934" lon="5.79543">
        <ele>1016</ele>
      </trkpt>
      <trkpt lat="44.79376" lon="5.79552">
        <ele>1020</ele>
      </trkpt>
      <trkpt lat="44.79431" lon="5.79492">
        <ele>1026</ele>
      </trkpt>
      <trkpt lat="44.79471" lon="5.79507">
        <ele>1031</ele>
      </trkpt>
      <trkpt lat="44.79498" lon="5.79528">
        <ele>1032</ele>
      </trkpt>
      <trkpt lat="44.79579" lon="5.79533">
        <ele>1041</ele>
      </trkpt>
      <trkpt lat="44.7954" lon="5.79461">
        <ele>1038</ele>
      </trkpt>
      <trkpt lat="44.79533" lon="5.79423">
        <ele>1043</ele>
      </trkpt>
      <trkpt lat="44.79604" lon="5.7944">
        <ele>1048</ele>
      </trkpt>
      <trkpt lat="44.79629" lon="5.79378">
        <ele>1059</ele>
      </trkpt>
      <trkpt lat="44.79655" lon="5.79253">
        <ele>1063</ele>
      </trkpt>
      <trkpt lat="44.7963" lon="5.79182">
        <ele>1058</ele>
      </trkpt>
      <trkpt lat="44.79635" lon="5.79031">
        <ele>1060</ele>
      </trkpt>
      <trkpt lat="44.79651" lon="5.78949">
        <ele>1068</ele>
      </trkpt>
      <trkpt lat="44.79621" lon="5.7891">
        <ele>1068</ele>
      </trkpt>
      <trkpt lat="44.79559" lon="5.78868">
        <ele>1065</ele>
      </trkpt>
      <trkpt lat="44.79553" lon="5.78773">
        <ele>1076</ele>
      </trkpt>
      <trkpt lat="44.79513" lon="5.78625">
        <ele>1078</ele>
      </trkpt>
      <trkpt lat="44.79517" lon="5.78486">
        <ele>1072</ele>
      </trkpt>
      <trkpt lat="44.79555" lon="5.78425">
        <ele>1060</ele>
      </trkpt>
      <trkpt lat="44.79636" lon="5.78424">
        <ele>1046</ele>
      </trkpt>
      <trkpt lat="44.79696" lon="5.78383">
        <ele>1035</ele>
      </trkpt>
      <trkpt lat="44.79727" lon="5.78246">
        <ele>1023</ele>
      </trkpt>
      <trkpt lat="44.79748" lon="5.78146">
        <ele>1011</ele>
      </trkpt>
      <trkpt lat="44.79794" lon="5.78111">
        <ele>1012</ele>
      </trkpt>
      <trkpt lat="44.79848" lon="5.78127">
        <ele>1021</ele>
      </trkpt>
      <trkpt lat="44.79849" lon="5.78077">
        <ele>1015</ele>
      </trkpt>
      <trkpt lat="44.79884" lon="5.77984">
        <ele>1006</ele>
      </trkpt>
      <trkpt lat="44.79876" lon="5.77939">
        <ele>1000</ele>
      </trkpt>
      <trkpt lat="44.79902" lon="5.777">
        <ele>986</ele>
      </trkpt>
      <trkpt lat="44.79923" lon="5.77575">
        <ele>976</ele>
      </trkpt>
      <trkpt lat="44.80047" lon="5.77501">
        <ele>959</ele>
      </trkpt>
      <trkpt lat="44.8012" lon="5.77486">
        <ele>951</ele>
      </trkpt>
      <trkpt lat="44.80175" lon="5.77445">
        <ele>948</ele>
      </trkpt>
      <trkpt lat="44.80185" lon="5.77402">
        <ele>944</ele>
      </trkpt>
      <trkpt lat="44.80268" lon="5.77344">
        <ele>940</ele>
      </trkpt>
      <trkpt lat="44.80371" lon="5.7723">
        <ele>945</ele>
      </trkpt>
      <trkpt lat="44.80464" lon="5.77115">
        <ele>950</ele>
      </trkpt>
      <trkpt lat="44.80585" lon="5.7699">
        <ele>948</ele>
      </trkpt>
      <trkpt lat="44.80648" lon="5.76988">
        <ele>949</ele>
      </trkpt>
      <trkpt lat="44.80696" lon="5.76991">
        <ele>948</ele>
      </trkpt>
      <trkpt lat="44.8073" lon="5.7674">
        <ele>932</ele>
      </trkpt>
      <trkpt lat="44.81035" lon="5.76417">
        <ele>913</ele>
      </trkpt>
      <trkpt lat="44.81157" lon="5.76273">
        <ele>882</ele>
      </trkpt>
      <trkpt lat="44.81465" lon="5.76191">
        <ele>838</ele>
      </trkpt>
      <trkpt lat="44.81578" lon="5.76033">
        <ele>815</ele>
      </trkpt>
      <trkpt lat="44.81708" lon="5.75915">
        <ele>803</ele>
      </trkpt>
      <trkpt lat="44.81785" lon="5.75451">
        <ele>787</ele>
      </trkpt>
      <trkpt lat="44.81662" lon="5.75064">
        <ele>771</ele>
      </trkpt>
      <trkpt lat="44.81661" lon="5.74824">
        <ele>764</ele>
      </trkpt>
      <trkpt lat="44.81626" lon="5.7448">
        <ele>760</ele>
      </trkpt>
      <trkpt lat="44.81702" lon="5.74371">
        <ele>745</ele>
      </trkpt>
      <trkpt lat="44.81854" lon="5.7438">
        <ele>749</ele>
      </trkpt>
      <trkpt lat="44.81892" lon="5.7432">
        <ele>758</ele>
      </trkpt>
      <trkpt lat="44.81887" lon="5.74193">
        <ele>765</ele>
      </trkpt>
      <trkpt lat="44.81954" lon="5.7407">
        <ele>770</ele>
      </trkpt>
      <trkpt lat="44.82004" lon="5.73896">
        <ele>774</ele>
      </trkpt>
      <trkpt lat="44.82173" lon="5.73666">
        <ele>770</ele>
      </trkpt>
      <trkpt lat="44.8223" lon="5.7329">
        <ele>772</ele>
      </trkpt>
      <trkpt lat="44.82238" lon="5.73038">
        <ele>773</ele>
      </trkpt>
      <trkpt lat="44.82199" lon="5.72846">
        <ele>772</ele>
      </trkpt>
      <trkpt lat="44.82003" lon="5.7277">
        <ele>767</ele>
      </trkpt>
      <trkpt lat="44.81811" lon="5.72556">
        <ele>769</ele>
      </trkpt>
      <trkpt lat="44.81845" lon="5.72343">
        <ele>792</ele>
      </trkpt>
      <trkpt lat="44.81779" lon="5.72137">
        <ele>788</ele>
      </trkpt>
      <trkpt lat="44.81693" lon="5.72005">
        <ele>776</ele>
      </trkpt>
      <trkpt lat="44.81975" lon="5.71921">
        <ele>865</ele>
      </trkpt>
      <trkpt lat="44.82112" lon="5.72157">
        <ele>872</ele>
      </trkpt>
      <trkpt lat="44.82213" lon="5.72366">
        <ele>880</ele>
      </trkpt>
      <trkpt lat="44.82446" lon="5.7243">
        <ele>883</ele>
      </trkpt>
      <trkpt lat="44.82562" lon="5.72437">
        <ele>882</ele>
      </trkpt>
      <trkpt lat="44.82631" lon="5.72239">
        <ele>866</ele>
      </trkpt>
      <trkpt lat="44.82744" lon="5.72082">
        <ele>862</ele>
      </trkpt>
      <trkpt lat="44.82842" lon="5.71835">
        <ele>850</ele>
      </trkpt>
      <trkpt lat="44.82979" lon="5.7178">
        <ele>835</ele>
      </trkpt>
      <trkpt lat="44.83063" lon="5.71671">
        <ele>823</ele>
      </trkpt>
      <trkpt lat="44.83296" lon="5.71698">
        <ele>840</ele>
      </trkpt>
      <trkpt lat="44.83385" lon="5.71741">
        <ele>843</ele>
      </trkpt>
      <trkpt lat="44.83421" lon="5.71686">
        <ele>842</ele>
      </trkpt>
      <trkpt lat="44.83426" lon="5.71357">
        <ele>854</ele>
      </trkpt>
      <trkpt lat="44.83437" lon="5.71136">
        <ele>866</ele>
      </trkpt>
      <trkpt lat="44.83403" lon="5.71077">
        <ele>866</ele>
      </trkpt>
      <trkpt lat="44.83448" lon="5.70928">
        <ele>874</ele>
      </trkpt>
      <trkpt lat="44.83419" lon="5.70844">
        <ele>876</ele>
      </trkpt>
    </trkseg>
  </trk>
  <trk>
    <name><![CDATA[ColduFauMazzili]]></name>
    <trkseg>
      <trkpt lat="44.90631" lon="5.62611">
        <ele>901</ele>
        <time>2004-07-26T16:50:38Z</time>
      </trkpt>
      <trkpt lat="44.90593" lon="5.62685">
        <ele>909</ele>
        <time>2004-07-26T16:50:38Z</time>
      </trkpt>
      <trkpt lat="44.90547" lon="5.62781">
        <ele>919</ele>
        <time>2004-07-26T16:50:38Z</time>
      </trkpt>
      <trkpt lat="44.90515" lon="5.62877">
        <ele>929</ele>
        <time>2004-07-26T16:50:38Z</time>
      </trkpt>
      <trkpt lat="44.90455" lon="5.62994">
        <ele>937</ele>
        <time>2004-07-26T16:50:38Z</time>
      </trkpt>
      <trkpt lat="44.90411" lon="5.63058">
        <ele>936</ele>
        <time>2004-07-26T16:50:38Z</time>
      </trkpt>
      <trkpt lat="44.9026" lon="5.63144">
        <ele>940</ele>
        <time>2004-07-26T16:50:38Z</time>
      </trkpt>
      <trkpt lat="44.90211" lon="5.63188">
        <ele>940</ele>
        <time>2004-07-26T16:50:38Z</time>
      </trkpt>
      <trkpt lat="44.90152" lon="5.63299">
        <ele>943</ele>
        <time>2004-07-26T16:50:38Z</time>
      </trkpt>
      <trkpt lat="44.90091" lon="5.63444">
        <ele>949</ele>
        <time>2004-07-26T16:50:38Z</time>
      </trkpt>
      <trkpt lat="44.90078" lon="5.63516">
        <ele>955</ele>
        <time>2004-07-26T16:50:38Z</time>
      </trkpt>
      <trkpt lat="44.89991" lon="5.63631">
        <ele>969</ele>
        <time>2004-07-26T16:50:38Z</time>
      </trkpt>
      <trkpt lat="44.89914" lon="5.63725">
        <ele>976</ele>
        <time>2004-07-26T16:50:38Z</time>
      </trkpt>
      <trkpt lat="44.89784" lon="5.63857">
        <ele>958</ele>
        <time>2004-07-26T16:50:38Z</time>
      </trkpt>
      <trkpt lat="44.89734" lon="5.6393">
        <ele>949</ele>
        <time>2004-07-26T16:50:38Z</time>
      </trkpt>
      <trkpt lat="44.8968" lon="5.64022">
        <ele>952</ele>
        <time>2004-07-26T16:50:38Z</time>
      </trkpt>
      <trkpt lat="44.89648" lon="5.64105">
        <ele>964</ele>
        <time>2004-07-26T16:50:38Z</time>
      </trkpt>
      <trkpt lat="44.89643" lon="5.6419">
        <ele>961</ele>
        <time>2004-07-26T16:50:38Z</time>
      </trkpt>
      <trkpt lat="44.89607" lon="5.64283">
        <ele>963</ele>
        <time>2004-07-26T16:50:38Z</time>
      </trkpt>
      <trkpt lat="44.89526" lon="5.64411">
        <ele>966</ele>
        <time>2004-07-26T16:50:38Z</time>
      </trkpt>
      <trkpt lat="44.89493" lon="5.64489">
        <ele>972</ele>
        <time>2004-07-26T16:50:38Z</time>
      </trkpt>
      <trkpt lat="44.89489" lon="5.64612">
        <ele>977</ele>
        <time>2004-07-26T16:50:38Z</time>
      </trkpt>
      <trkpt lat="44.89502" lon="5.64698">
        <ele>971</ele>
        <time>2004-07-26T16:50:38Z</time>
      </trkpt>
      <trkpt lat="44.89485" lon="5.64754">
        <ele>965</ele>
        <time>2004-07-26T16:50:38Z</time>
      </trkpt>
      <trkpt lat="44.8942" lon="5.64801">
        <ele>955</ele>
        <time>2004-07-26T16:50:38Z</time>
      </trkpt>
      <trkpt lat="44.89343" lon="5.64819">
        <ele>956</ele>
        <time>2004-07-26T16:50:38Z</time>
      </trkpt>
      <trkpt lat="44.89211" lon="5.64877">
        <ele>960</ele>
        <time>2004-07-26T16:50:38Z</time>
      </trkpt>
      <trkpt lat="44.89106" lon="5.64918">
        <ele>970</ele>
        <time>2004-07-26T16:50:38Z</time>
      </trkpt>
      <trkpt lat="44.89084" lon="5.64974">
        <ele>965</ele>
        <time>2004-07-26T16:50:38Z</time>
      </trkpt>
      <trkpt lat="44.89039" lon="5.65038">
        <ele>972</ele>
        <time>2004-07-26T16:50:38Z</time>
      </trkpt>
      <trkpt lat="44.8905" lon="5.65124">
        <ele>980</ele>
        <time>2004-07-26T16:50:38Z</time>
      </trkpt>
      <trkpt lat="44.89082" lon="5.6518">
        <ele>974</ele>
        <time>2004-07-26T16:50:38Z</time>
      </trkpt>
      <trkpt lat="44.89109" lon="5.65257">
        <ele>969</ele>
        <time>2004-07-26T16:50:38Z</time>
      </trkpt>
      <trkpt lat="44.89125" lon="5.65328">
        <ele>960</ele>
        <time>2004-07-26T16:50:38Z</time>
      </trkpt>
      <trkpt lat="44.89108" lon="5.65365">
        <ele>955</ele>
        <time>2004-07-26T16:50:38Z</time>
      </trkpt>
      <trkpt lat="44.8902" lon="5.65448">
        <ele>959</ele>
        <time>2004-07-26T16:50:38Z</time>
      </trkpt>
      <trkpt lat="44.88961" lon="5.65546">
        <ele>955</ele>
        <time>2004-07-26T16:50:38Z</time>
      </trkpt>
      <trkpt lat="44.88882" lon="5.65643">
        <ele>943</ele>
        <time>2004-07-26T16:50:38Z</time>
      </trkpt>
      <trkpt lat="44.88806" lon="5.65698">
        <ele>931</ele>
        <time>2004-07-26T16:50:38Z</time>
      </trkpt>
      <trkpt lat="44.88727" lon="5.65776">
        <ele>922</ele>
        <time>2004-07-26T16:50:38Z</time>
      </trkpt>
      <trkpt lat="44.88657" lon="5.65845">
        <ele>921</ele>
        <time>2004-07-26T16:50:38Z</time>
      </trkpt>
      <trkpt lat="44.88568" lon="5.6596">
        <ele>909</ele>
        <time>2004-07-26T16:50:38Z</time>
      </trkpt>
      <trkpt lat="44.88554" lon="5.66">
        <ele>901</ele>
        <time>2004-07-26T16:50:38Z</time>
      </trkpt>
      <trkpt lat="44.88457" lon="5.65991">
        <ele>928</ele>
        <time>2004-07-26T16:50:38Z</time>
      </trkpt>
      <trkpt lat="44.88437" lon="5.65917">
        <ele>945</ele>
        <time>2004-07-26T16:50:38Z</time>
      </trkpt>
      <trkpt lat="44.88341" lon="5.66038">
        <ele>956</ele>
        <time>2004-07-26T16:50:38Z</time>
      </trkpt>
      <trkpt lat="44.88253" lon="5.66134">
        <ele>959</ele>
        <time>2004-07-26T16:50:38Z</time>
      </trkpt>
      <trkpt lat="44.88154" lon="5.66201">
        <ele>954</ele>
        <time>2004-07-26T16:50:38Z</time>
      </trkpt>
      <trkpt lat="44.88109" lon="5.66205">
        <ele>955</ele>
        <time>2004-07-26T16:50:38Z</time>
      </trkpt>
      <trkpt lat="44.87995" lon="5.66233">
        <ele>928</ele>
        <time>2004-07-26T16:50:38Z</time>
      </trkpt>
      <trkpt lat="44.87862" lon="5.66244">
        <ele>888</ele>
        <time>2004-07-26T16:50:38Z</time>
      </trkpt>
      <trkpt lat="44.87757" lon="5.66231">
        <ele>864</ele>
        <time>2004-07-26T16:50:38Z</time>
      </trkpt>
      <trkpt lat="44.87683" lon="5.66205">
        <ele>850</ele>
        <time>2004-07-26T16:50:38Z</time>
      </trkpt>
      <trkpt lat="44.8764" lon="5.66155">
        <ele>845</ele>
        <time>2004-07-26T16:50:38Z</time>
      </trkpt>
      <trkpt lat="44.87558" lon="5.66121">
        <ele>828</ele>
        <time>2004-07-26T16:50:38Z</time>
      </trkpt>
      <trkpt lat="44.87472" lon="5.6611">
        <ele>812</ele>
        <time>2004-07-26T16:50:38Z</time>
      </trkpt>
      <trkpt lat="44.87405" lon="5.66118">
        <ele>802</ele>
        <time>2004-07-26T16:50:38Z</time>
      </trkpt>
      <trkpt lat="44.87454" lon="5.65976">
        <ele>796</ele>
        <time>2004-07-26T16:50:38Z</time>
      </trkpt>
      <trkpt lat="44.87542" lon="5.65807">
        <ele>783</ele>
        <time>2004-07-26T16:50:38Z</time>
      </trkpt>
      <trkpt lat="44.87617" lon="5.65783">
        <ele>790</ele>
        <time>2004-07-26T16:50:38Z</time>
      </trkpt>
      <trkpt lat="44.87699" lon="5.65772">
        <ele>800</ele>
        <time>2004-07-26T16:50:38Z</time>
      </trkpt>
      <trkpt lat="44.87736" lon="5.65714">
        <ele>795</ele>
        <time>2004-07-26T16:50:38Z</time>
      </trkpt>
      <trkpt lat="44.87733" lon="5.65603">
        <ele>783</ele>
        <time>2004-07-26T16:50:38Z</time>
      </trkpt>
      <trkpt lat="44.87735" lon="5.65534">
        <ele>784</ele>
        <time>2004-07-26T16:50:38Z</time>
      </trkpt>
      <trkpt lat="44.87727" lon="5.65438">
        <ele>781</ele>
        <time>2004-07-26T16:50:38Z</time>
      </trkpt>
    </trkseg>
  </trk>
  <trk>
    <name><![CDATA[Cordeac CroixdelaPigne a verifier]]></name>
    <trkseg>
      <trkpt lat="44.82779" lon="5.83672">
        <ele>910</ele>
        <time>2004-07-26T16:50:38Z</time>
      </trkpt>
      <trkpt lat="44.82711" lon="5.83699">
        <ele>912</ele>
        <time>2004-07-26T16:50:38Z</time>
      </trkpt>
      <trkpt lat="44.82615" lon="5.83737">
        <ele>919</ele>
        <time>2004-07-26T16:50:38Z</time>
      </trkpt>
      <trkpt lat="44.82559" lon="5.83791">
        <ele>927</ele>
        <time>2004-07-26T16:50:38Z</time>
      </trkpt>
      <trkpt lat="44.82432" lon="5.83827">
        <ele>943</ele>
        <time>2004-07-26T16:50:38Z</time>
      </trkpt>
      <trkpt lat="44.82383" lon="5.83824">
        <ele>950</ele>
        <time>2004-07-26T16:50:38Z</time>
      </trkpt>
      <trkpt lat="44.82378" lon="5.83969">
        <ele>946</ele>
        <time>2004-07-26T16:50:38Z</time>
      </trkpt>
      <trkpt lat="44.82372" lon="5.84013">
        <ele>948</ele>
        <time>2004-07-26T16:50:38Z</time>
      </trkpt>
      <trkpt lat="44.82453" lon="5.84183">
        <ele>947</ele>
        <time>2004-07-26T16:50:38Z</time>
      </trkpt>
      <trkpt lat="44.82503" lon="5.84293">
        <ele>945</ele>
        <time>2004-07-26T16:50:38Z</time>
      </trkpt>
      <trkpt lat="44.82501" lon="5.84363">
        <ele>949</ele>
        <time>2004-07-26T16:50:38Z</time>
      </trkpt>
      <trkpt lat="44.82383" lon="5.844">
        <ele>972</ele>
        <time>2004-07-26T16:50:38Z</time>
      </trkpt>
      <trkpt lat="44.8231" lon="5.84427">
        <ele>984</ele>
        <time>2004-07-26T16:50:38Z</time>
      </trkpt>
      <trkpt lat="44.82197" lon="5.84445">
        <ele>1013</ele>
        <time>2004-07-26T16:50:38Z</time>
      </trkpt>
      <trkpt lat="44.82152" lon="5.84575">
        <ele>1029</ele>
        <time>2004-07-26T16:50:38Z</time>
      </trkpt>
      <trkpt lat="44.82046" lon="5.84657">
        <ele>1053</ele>
        <time>2004-07-26T16:50:38Z</time>
      </trkpt>
      <trkpt lat="44.82017" lon="5.84718">
        <ele>1051</ele>
        <time>2004-07-26T16:50:38Z</time>
      </trkpt>
      <trkpt lat="44.81919" lon="5.84807">
        <ele>1055</ele>
        <time>2004-07-26T16:50:38Z</time>
      </trkpt>
      <trkpt lat="44.819" lon="5.84863">
        <ele>1053</ele>
        <time>2004-07-26T16:50:38Z</time>
      </trkpt>
      <trkpt lat="44.8191" lon="5.84952">
        <ele>1050</ele>
        <time>2004-07-26T16:50:38Z</time>
      </trkpt>
      <trkpt lat="44.81822" lon="5.85041">
        <ele>1069</ele>
        <time>2004-07-26T16:50:38Z</time>
      </trkpt>
      <trkpt lat="44.81788" lon="5.85109">
        <ele>1074</ele>
        <time>2004-07-26T16:50:38Z</time>
      </trkpt>
      <trkpt lat="44.81752" lon="5.85107">
        <ele>1086</ele>
        <time>2004-07-26T16:50:38Z</time>
      </trkpt>
      <trkpt lat="44.81713" lon="5.85205">
        <ele>1101</ele>
        <time>2004-07-26T16:50:38Z</time>
      </trkpt>
      <trkpt lat="44.81726" lon="5.85364">
        <ele>1083</ele>
        <time>2004-07-26T16:50:38Z</time>
      </trkpt>
      <trkpt lat="44.81595" lon="5.85514">
        <ele>1058</ele>
        <time>2004-07-26T16:50:38Z</time>
      </trkpt>
      <trkpt lat="44.81525" lon="5.85592">
        <ele>1046</ele>
        <time>2004-07-26T16:50:38Z</time>
      </trkpt>
      <trkpt lat="44.81404" lon="5.85572">
        <ele>1065</ele>
        <time>2004-07-26T16:50:38Z</time>
      </trkpt>
      <trkpt lat="44.81305" lon="5.85578">
        <ele>1066</ele>
        <time>2004-07-26T16:50:38Z</time>
      </trkpt>
      <trkpt lat="44.81242" lon="5.85593">
        <ele>1078</ele>
        <time>2004-07-26T16:50:38Z</time>
      </trkpt>
      <trkpt lat="44.8116" lon="5.85759">
        <ele>1076</ele>
        <time>2004-07-26T16:50:38Z</time>
      </trkpt>
      <trkpt lat="44.81095" lon="5.85811">
        <ele>1103</ele>
        <time>2004-07-26T16:50:38Z</time>
      </trkpt>
      <trkpt lat="44.81057" lon="5.85872">
        <ele>1104</ele>
        <time>2004-07-26T16:50:38Z</time>
      </trkpt>
      <trkpt lat="44.80872" lon="5.85601">
        <ele>1099</ele>
        <time>2004-07-26T16:50:38Z</time>
      </trkpt>
      <trkpt lat="44.8076" lon="5.85468">
        <ele>1082</ele>
        <time>2004-07-26T16:50:38Z</time>
      </trkpt>
      <trkpt lat="44.80697" lon="5.85458">
        <ele>1071</ele>
        <time>2004-07-26T16:50:38Z</time>
      </trkpt>
      <trkpt lat="44.80627" lon="5.85384">
        <ele>1075</ele>
        <time>2004-07-26T16:50:38Z</time>
      </trkpt>
      <trkpt lat="44.80547" lon="5.85366">
        <ele>1066</ele>
        <time>2004-07-26T16:50:38Z</time>
      </trkpt>
      <trkpt lat="44.80497" lon="5.85363">
        <ele>1055</ele>
        <time>2004-07-26T16:50:38Z</time>
      </trkpt>
      <trkpt lat="44.80537" lon="5.8553">
        <ele>1041</ele>
        <time>2004-07-26T16:50:38Z</time>
      </trkpt>
      <trkpt lat="44.80564" lon="5.85677">
        <ele>1011</ele>
        <time>2004-07-26T16:50:38Z</time>
      </trkpt>
      <trkpt lat="44.80677" lon="5.85804">
        <ele>1011</ele>
        <time>2004-07-26T16:50:38Z</time>
      </trkpt>
      <trkpt lat="44.80696" lon="5.85894">
        <ele>1008</ele>
        <time>2004-07-26T16:50:38Z</time>
      </trkpt>
      <trkpt lat="44.80697" lon="5.86001">
        <ele>986</ele>
        <time>2004-07-26T16:50:38Z</time>
      </trkpt>
      <trkpt lat="44.80745" lon="5.86061">
        <ele>973</ele>
        <time>2004-07-26T16:50:38Z</time>
      </trkpt>
      <trkpt lat="44.80777" lon="5.86051">
        <ele>982</ele>
        <time>2004-07-26T16:50:38Z</time>
      </trkpt>
      <trkpt lat="44.80859" lon="5.86163">
        <ele>973</ele>
        <time>2004-07-26T16:50:38Z</time>
      </trkpt>
      <trkpt lat="44.80918" lon="5.86148">
        <ele>988</ele>
        <time>2004-07-26T16:50:38Z</time>
      </trkpt>
      <trkpt lat="44.80949" lon="5.86175">
        <ele>987</ele>
        <time>2004-07-26T16:50:38Z</time>
      </trkpt>
      <trkpt lat="44.80918" lon="5.86148">
        <ele>988</ele>
        <time>2004-07-26T16:50:38Z</time>
      </trkpt>
      <trkpt lat="44.80859" lon="5.86163">
        <ele>973</ele>
        <time>2004-07-26T16:50:38Z</time>
      </trkpt>
      <trkpt lat="44.80758" lon="5.86644">
        <ele>966</ele>
        <time>2004-07-26T16:50:38Z</time>
      </trkpt>
      <trkpt lat="44.80831" lon="5.86623">
        <ele>963</ele>
        <time>2004-07-26T16:50:38Z</time>
      </trkpt>
      <trkpt lat="44.80898" lon="5.8664">
        <ele>958</ele>
        <time>2004-07-26T16:50:38Z</time>
      </trkpt>
      <trkpt lat="44.8095" lon="5.86681">
        <ele>950</ele>
        <time>2004-07-26T16:50:38Z</time>
      </trkpt>
      <trkpt lat="44.81037" lon="5.86649">
        <ele>947</ele>
        <time>2004-07-26T16:50:38Z</time>
      </trkpt>
      <trkpt lat="44.81101" lon="5.86615">
        <ele>940</ele>
        <time>2004-07-26T16:50:38Z</time>
      </trkpt>
      <trkpt lat="44.81173" lon="5.86619">
        <ele>934</ele>
        <time>2004-07-26T16:50:38Z</time>
      </trkpt>
      <trkpt lat="44.81225" lon="5.86667">
        <ele>934</ele>
        <time>2004-07-26T16:50:38Z</time>
      </trkpt>
      <trkpt lat="44.81361" lon="5.86663">
        <ele>929</ele>
        <time>2004-07-26T16:50:38Z</time>
      </trkpt>
      <trkpt lat="44.81443" lon="5.8663">
        <ele>929</ele>
        <time>2004-07-26T16:50:38Z</time>
      </trkpt>
      <trkpt lat="44.81348" lon="5.86909">
        <ele>919</ele>
        <time>2004-07-26T16:50:38Z</time>
      </trkpt>
      <trkpt lat="44.81276" lon="5.87069">
        <ele>906</ele>
        <time>2004-07-26T16:50:38Z</time>
      </trkpt>
      <trkpt lat="44.81304" lon="5.87153">
        <ele>900</ele>
        <time>2004-07-26T16:50:38Z</time>
      </trkpt>
      <trkpt lat="44.81524" lon="5.87337">
        <ele>897</ele>
        <time>2004-07-26T16:50:38Z</time>
      </trkpt>
      <trkpt lat="44.816" lon="5.87494">
        <ele>883</ele>
        <time>2004-07-26T16:50:38Z</time>
      </trkpt>
      <trkpt lat="44.81664" lon="5.8758">
        <ele>868</ele>
        <time>2004-07-26T16:50:38Z</time>
      </trkpt>
      <trkpt lat="44.81286" lon="5.87588">
        <ele>848</ele>
        <time>2004-07-26T16:50:38Z</time>
      </trkpt>
      <trkpt lat="44.81284" lon="5.87657">
        <ele>859</ele>
        <time>2004-07-26T16:50:38Z</time>
      </trkpt>
      <trkpt lat="44.81286" lon="5.87733">
        <ele>867</ele>
        <time>2004-07-26T16:50:38Z</time>
      </trkpt>
      <trkpt lat="44.81221" lon="5.87932">
        <ele>890</ele>
        <time>2004-07-26T16:50:38Z</time>
      </trkpt>
      <trkpt lat="44.8125" lon="5.88003">
        <ele>892</ele>
        <time>2004-07-26T16:50:38Z</time>
      </trkpt>
      <trkpt lat="44.8128" lon="5.88049">
        <ele>891</ele>
        <time>2004-07-26T16:50:38Z</time>
      </trkpt>
      <trkpt lat="44.81216" lon="5.88096">
        <ele>902</ele>
        <time>2004-07-26T16:50:38Z</time>
      </trkpt>
      <trkpt lat="44.81226" lon="5.88198">
        <ele>900</ele>
        <time>2004-07-26T16:50:38Z</time>
      </trkpt>
    </trkseg>
  </trk>
  <trk>
    <name><![CDATA[Cordeac La Salette - itin Gilles Dallaporta]]></name>
    <trkseg>
      <trkpt lat="44.82721" lon="5.83371">
        <ele>932</ele>
        <time>2009-01-29T14:36:51Z</time>
      </trkpt>
      <trkpt lat="44.82789" lon="5.83445">
        <ele>918</ele>
        <time>2009-01-29T14:36:51Z</time>
      </trkpt>
      <trkpt lat="44.8282" lon="5.83462">
        <ele>913</ele>
        <time>2009-01-29T14:36:51Z</time>
      </trkpt>
      <trkpt lat="44.82777" lon="5.83684">
        <ele>910</ele>
        <time>2009-01-29T14:36:51Z</time>
      </trkpt>
      <trkpt lat="44.82763" lon="5.83838">
        <ele>907</ele>
        <time>2009-01-29T14:36:51Z</time>
      </trkpt>
      <trkpt lat="44.82768" lon="5.83946">
        <ele>904</ele>
        <time>2009-01-29T14:36:51Z</time>
      </trkpt>
      <trkpt lat="44.82769" lon="5.8401">
        <ele>905</ele>
        <time>2009-01-29T14:36:51Z</time>
      </trkpt>
      <trkpt lat="44.82686" lon="5.84191">
        <ele>901</ele>
        <time>2009-01-29T14:36:51Z</time>
      </trkpt>
      <trkpt lat="44.82744" lon="5.84501">
        <ele>911</ele>
        <time>2009-01-29T14:36:51Z</time>
      </trkpt>
      <trkpt lat="44.82782" lon="5.84653">
        <ele>900</ele>
        <time>2009-01-29T14:36:51Z</time>
      </trkpt>
      <trkpt lat="44.82775" lon="5.84725">
        <ele>896</ele>
        <time>2009-01-29T14:36:51Z</time>
      </trkpt>
      <trkpt lat="44.82755" lon="5.84799">
        <ele>893</ele>
        <time>2009-01-29T14:36:51Z</time>
      </trkpt>
      <trkpt lat="44.82483" lon="5.85428">
        <ele>884</ele>
        <time>2009-01-29T14:36:51Z</time>
      </trkpt>
      <trkpt lat="44.8245" lon="5.85467">
        <ele>884</ele>
        <time>2009-01-29T14:36:51Z</time>
      </trkpt>
      <trkpt lat="44.82358" lon="5.85467">
        <ele>886</ele>
        <time>2009-01-29T14:36:51Z</time>
      </trkpt>
      <trkpt lat="44.82349" lon="5.85527">
        <ele>882</ele>
        <time>2009-01-29T14:36:51Z</time>
      </trkpt>
      <trkpt lat="44.82343" lon="5.85586">
        <ele>875</ele>
        <time>2009-01-29T14:36:51Z</time>
      </trkpt>
      <trkpt lat="44.82325" lon="5.85585">
        <ele>879</ele>
        <time>2009-01-29T14:36:51Z</time>
      </trkpt>
      <trkpt lat="44.82274" lon="5.85557">
        <ele>895</ele>
        <time>2009-01-29T14:36:51Z</time>
      </trkpt>
      <trkpt lat="44.82224" lon="5.85566">
        <ele>901</ele>
        <time>2009-01-29T14:36:51Z</time>
      </trkpt>
      <trkpt lat="44.822" lon="5.85612">
        <ele>900</ele>
        <time>2009-01-29T14:36:51Z</time>
      </trkpt>
      <trkpt lat="44.82131" lon="5.85665">
        <ele>909</ele>
        <time>2009-01-29T14:36:51Z</time>
      </trkpt>
      <trkpt lat="44.82017" lon="5.8592">
        <ele>919</ele>
        <time>2009-01-29T14:36:51Z</time>
      </trkpt>
      <trkpt lat="44.81979" lon="5.85971">
        <ele>927</ele>
        <time>2009-01-29T14:36:51Z</time>
      </trkpt>
      <trkpt lat="44.81939" lon="5.86035">
        <ele>934</ele>
        <time>2009-01-29T14:36:51Z</time>
      </trkpt>
      <trkpt lat="44.81901" lon="5.86084">
        <ele>938</ele>
        <time>2009-01-29T14:36:51Z</time>
      </trkpt>
      <trkpt lat="44.81882" lon="5.86067">
        <ele>941</ele>
        <time>2009-01-29T14:36:51Z</time>
      </trkpt>
      <trkpt lat="44.81854" lon="5.86077">
        <ele>940</ele>
        <time>2009-01-29T14:36:51Z</time>
      </trkpt>
      <trkpt lat="44.81828" lon="5.86044">
        <ele>943</ele>
        <time>2009-01-29T14:36:51Z</time>
      </trkpt>
      <trkpt lat="44.81779" lon="5.86044">
        <ele>934</ele>
        <time>2009-01-29T14:36:51Z</time>
      </trkpt>
      <trkpt lat="44.81683" lon="5.85928">
        <ele>935</ele>
        <time>2009-01-29T14:36:51Z</time>
      </trkpt>
      <trkpt lat="44.81653" lon="5.8597">
        <ele>923</ele>
        <time>2009-01-29T14:36:51Z</time>
      </trkpt>
      <trkpt lat="44.81618" lon="5.86063">
        <ele>912</ele>
        <time>2009-01-29T14:36:51Z</time>
      </trkpt>
      <trkpt lat="44.81549" lon="5.86121">
        <ele>903</ele>
        <time>2009-01-29T14:36:51Z</time>
      </trkpt>
      <trkpt lat="44.81436" lon="5.86133">
        <ele>898</ele>
        <time>2009-01-29T14:36:51Z</time>
      </trkpt>
      <trkpt lat="44.81369" lon="5.86192">
        <ele>888</ele>
        <time>2009-01-29T14:36:51Z</time>
      </trkpt>
      <trkpt lat="44.81349" lon="5.86194">
        <ele>890</ele>
        <time>2009-01-29T14:36:51Z</time>
      </trkpt>
      <trkpt lat="44.81302" lon="5.86239">
        <ele>887</ele>
        <time>2009-01-29T14:36:51Z</time>
      </trkpt>
      <trkpt lat="44.81277" lon="5.86329">
        <ele>875</ele>
        <time>2009-01-29T14:36:51Z</time>
      </trkpt>
      <trkpt lat="44.81229" lon="5.86405">
        <ele>871</ele>
        <time>2009-01-29T14:36:51Z</time>
      </trkpt>
      <trkpt lat="44.81199" lon="5.86431">
        <ele>875</ele>
        <time>2009-01-29T14:36:51Z</time>
      </trkpt>
      <trkpt lat="44.81209" lon="5.86486">
        <ele>886</ele>
        <time>2009-01-29T14:36:51Z</time>
      </trkpt>
      <trkpt lat="44.81257" lon="5.86511">
        <ele>887</ele>
        <time>2009-01-29T14:36:51Z</time>
      </trkpt>
      <trkpt lat="44.81361" lon="5.86571">
        <ele>908</ele>
        <time>2009-01-29T14:36:51Z</time>
      </trkpt>
      <trkpt lat="44.81447" lon="5.86555">
        <ele>916</ele>
        <time>2009-01-29T14:36:51Z</time>
      </trkpt>
      <trkpt lat="44.81559" lon="5.86524">
        <ele>902</ele>
        <time>2009-01-29T14:36:51Z</time>
      </trkpt>
      <trkpt lat="44.81609" lon="5.86571">
        <ele>904</ele>
        <time>2009-01-29T14:36:51Z</time>
      </trkpt>
      <trkpt lat="44.81641" lon="5.86611">
        <ele>908</ele>
        <time>2009-01-29T14:36:51Z</time>
      </trkpt>
      <trkpt lat="44.81724" lon="5.86632">
        <ele>906</ele>
        <time>2009-01-29T14:36:51Z</time>
      </trkpt>
      <trkpt lat="44.81712" lon="5.8666">
        <ele>908</ele>
        <time>2009-01-29T14:36:51Z</time>
      </trkpt>
      <trkpt lat="44.81561" lon="5.8659">
        <ele>911</ele>
        <time>2009-01-29T14:36:51Z</time>
      </trkpt>
      <trkpt lat="44.81523" lon="5.86575">
        <ele>916</ele>
        <time>2009-01-29T14:36:51Z</time>
      </trkpt>
      <trkpt lat="44.81445" lon="5.86618">
        <ele>929</ele>
        <time>2009-01-29T14:36:51Z</time>
      </trkpt>
      <trkpt lat="44.81453" lon="5.86653">
        <ele>928</ele>
        <time>2009-01-29T14:36:51Z</time>
      </trkpt>
      <trkpt lat="44.81269" lon="5.87071">
        <ele>905</ele>
        <time>2009-01-29T14:36:51Z</time>
      </trkpt>
      <trkpt lat="44.81296" lon="5.87127">
        <ele>902</ele>
        <time>2009-01-29T14:36:51Z</time>
      </trkpt>
      <trkpt lat="44.81308" lon="5.87169">
        <ele>898</ele>
        <time>2009-01-29T14:36:51Z</time>
      </trkpt>
      <trkpt lat="44.81539" lon="5.87338">
        <ele>900</ele>
        <time>2009-01-29T14:36:51Z</time>
      </trkpt>
      <trkpt lat="44.81542" lon="5.8738">
        <ele>893</ele>
        <time>2009-01-29T14:36:51Z</time>
      </trkpt>
      <trkpt lat="44.81579" lon="5.87442">
        <ele>890</ele>
        <time>2009-01-29T14:36:51Z</time>
      </trkpt>
      <trkpt lat="44.81575" lon="5.8748">
        <ele>881</ele>
        <time>2009-01-29T14:36:51Z</time>
      </trkpt>
      <trkpt lat="44.81621" lon="5.87536">
        <ele>876</ele>
        <time>2009-01-29T14:36:51Z</time>
      </trkpt>
      <trkpt lat="44.81644" lon="5.87576">
        <ele>871</ele>
        <time>2009-01-29T14:36:51Z</time>
      </trkpt>
      <trkpt lat="44.81623" lon="5.87597">
        <ele>866</ele>
        <time>2009-01-29T14:36:51Z</time>
      </trkpt>
      <trkpt lat="44.81568" lon="5.87552">
        <ele>865</ele>
        <time>2009-01-29T14:36:51Z</time>
      </trkpt>
      <trkpt lat="44.81522" lon="5.8747">
        <ele>868</ele>
        <time>2009-01-29T14:36:51Z</time>
      </trkpt>
      <trkpt lat="44.81459" lon="5.87381">
        <ele>864</ele>
        <time>2009-01-29T14:36:51Z</time>
      </trkpt>
      <trkpt lat="44.81403" lon="5.87383">
        <ele>848</ele>
        <time>2009-01-29T14:36:51Z</time>
      </trkpt>
      <trkpt lat="44.81325" lon="5.87344">
        <ele>842</ele>
        <time>2009-01-29T14:36:51Z</time>
      </trkpt>
      <trkpt lat="44.81274" lon="5.87337">
        <ele>836</ele>
        <time>2009-01-29T14:36:51Z</time>
      </trkpt>
      <trkpt lat="44.81205" lon="5.87305">
        <ele>836</ele>
        <time>2009-01-29T14:36:51Z</time>
      </trkpt>
      <trkpt lat="44.81199" lon="5.87348">
        <ele>837</ele>
        <time>2009-01-29T14:36:51Z</time>
      </trkpt>
      <trkpt lat="44.81255" lon="5.8744">
        <ele>834</ele>
        <time>2009-01-29T14:36:51Z</time>
      </trkpt>
      <trkpt lat="44.8129" lon="5.87588">
        <ele>847</ele>
        <time>2009-01-29T14:36:51Z</time>
      </trkpt>
      <trkpt lat="44.81277" lon="5.87651">
        <ele>859</ele>
        <time>2009-01-29T14:36:51Z</time>
      </trkpt>
      <trkpt lat="44.81295" lon="5.87712">
        <ele>863</ele>
        <time>2009-01-29T14:36:51Z</time>
      </trkpt>
      <trkpt lat="44.81219" lon="5.87931">
        <ele>891</ele>
        <time>2009-01-29T14:36:51Z</time>
      </trkpt>
      <trkpt lat="44.8125" lon="5.88">
        <ele>892</ele>
        <time>2009-01-29T14:36:51Z</time>
      </trkpt>
      <trkpt lat="44.81233" lon="5.8803">
        <ele>897</ele>
        <time>2009-01-29T14:36:51Z</time>
      </trkpt>
      <trkpt lat="44.81225" lon="5.88071">
        <ele>900</ele>
        <time>2009-01-29T14:36:51Z</time>
      </trkpt>
      <trkpt lat="44.81226" lon="5.88131">
        <ele>901</ele>
        <time>2009-01-29T14:36:51Z</time>
      </trkpt>
      <trkpt lat="44.8122" lon="5.88169">
        <ele>901</ele>
        <time>2009-01-29T14:36:51Z</time>
      </trkpt>
      <trkpt lat="44.81149" lon="5.88427">
        <ele>901</ele>
        <time>2009-01-29T14:36:51Z</time>
      </trkpt>
      <trkpt lat="44.81129" lon="5.88485">
        <ele>898</ele>
        <time>2009-01-29T14:36:51Z</time>
      </trkpt>
      <trkpt lat="44.81128" lon="5.88593">
        <ele>889</ele>
        <time>2009-01-29T14:36:51Z</time>
      </trkpt>
      <trkpt lat="44.81104" lon="5.88759">
        <ele>891</ele>
        <time>2009-01-29T14:36:51Z</time>
      </trkpt>
      <trkpt lat="44.81104" lon="5.88829">
        <ele>888</ele>
        <time>2009-01-29T14:36:51Z</time>
      </trkpt>
      <trkpt lat="44.8105" lon="5.88904">
        <ele>889</ele>
        <time>2009-01-29T14:36:51Z</time>
      </trkpt>
      <trkpt lat="44.81001" lon="5.89024">
        <ele>886</ele>
        <time>2009-01-29T14:36:51Z</time>
      </trkpt>
      <trkpt lat="44.80982" lon="5.89064">
        <ele>886</ele>
        <time>2009-01-29T14:36:51Z</time>
      </trkpt>
      <trkpt lat="44.8094" lon="5.89122">
        <ele>890</ele>
        <time>2009-01-29T14:36:51Z</time>
      </trkpt>
      <trkpt lat="44.80913" lon="5.8919">
        <ele>893</ele>
        <time>2009-01-29T14:36:51Z</time>
      </trkpt>
      <trkpt lat="44.80934" lon="5.89213">
        <ele>890</ele>
        <time>2009-01-29T14:36:51Z</time>
      </trkpt>
      <trkpt lat="44.80971" lon="5.8926">
        <ele>886</ele>
        <time>2009-01-29T14:36:51Z</time>
      </trkpt>
      <trkpt lat="44.80969" lon="5.89335">
        <ele>888</ele>
        <time>2009-01-29T14:36:51Z</time>
      </trkpt>
      <trkpt lat="44.81016" lon="5.89528">
        <ele>887</ele>
        <time>2009-01-29T14:36:51Z</time>
      </trkpt>
      <trkpt lat="44.80985" lon="5.89586">
        <ele>889</ele>
        <time>2009-01-29T14:36:51Z</time>
      </trkpt>
      <trkpt lat="44.80956" lon="5.89644">
        <ele>889</ele>
        <time>2009-01-29T14:36:51Z</time>
      </trkpt>
      <trkpt lat="44.80948" lon="5.89691">
        <ele>890</ele>
        <time>2009-01-29T14:36:51Z</time>
      </trkpt>
      <trkpt lat="44.8086" lon="5.89781">
        <ele>895</ele>
        <time>2009-01-29T14:36:51Z</time>
      </trkpt>
      <trkpt lat="44.80795" lon="5.89849">
        <ele>901</ele>
        <time>2009-01-29T14:36:51Z</time>
      </trkpt>
      <trkpt lat="44.80821" lon="5.89939">
        <ele>907</ele>
        <time>2009-01-29T14:36:51Z</time>
      </trkpt>
      <trkpt lat="44.80926" lon="5.90095">
        <ele>915</ele>
        <time>2009-01-29T14:36:51Z</time>
      </trkpt>
      <trkpt lat="44.80906" lon="5.90577">
        <ele>928</ele>
        <time>2009-01-29T14:36:51Z</time>
      </trkpt>
      <trkpt lat="44.80898" lon="5.90703">
        <ele>925</ele>
        <time>2009-01-29T14:36:51Z</time>
      </trkpt>
      <trkpt lat="44.80875" lon="5.90774">
        <ele>920</ele>
        <time>2009-01-29T14:36:51Z</time>
      </trkpt>
      <trkpt lat="44.80835" lon="5.90822">
        <ele>915</ele>
        <time>2009-01-29T14:36:51Z</time>
      </trkpt>
      <trkpt lat="44.80947" lon="5.90785">
        <ele>917</ele>
        <time>2009-01-29T14:36:51Z</time>
      </trkpt>
      <trkpt lat="44.81061" lon="5.90802">
        <ele>918</ele>
        <time>2009-01-29T14:36:51Z</time>
      </trkpt>
      <trkpt lat="44.81169" lon="5.90863">
        <ele>916</ele>
        <time>2009-01-29T14:36:51Z</time>
      </trkpt>
      <trkpt lat="44.81238" lon="5.90889">
        <ele>909</ele>
        <time>2009-01-29T14:36:51Z</time>
      </trkpt>
      <trkpt lat="44.81303" lon="5.90821">
        <ele>906</ele>
        <time>2009-01-29T14:36:51Z</time>
      </trkpt>
      <trkpt lat="44.81325" lon="5.90844">
        <ele>902</ele>
        <time>2009-01-29T14:36:51Z</time>
      </trkpt>
      <trkpt lat="44.81376" lon="5.90882">
        <ele>892</ele>
        <time>2009-01-29T14:36:51Z</time>
      </trkpt>
      <trkpt lat="44.81426" lon="5.90911">
        <ele>879</ele>
        <time>2009-01-29T14:36:51Z</time>
      </trkpt>
      <trkpt lat="44.81442" lon="5.90909">
        <ele>876</ele>
        <time>2009-01-29T14:36:51Z</time>
      </trkpt>
      <trkpt lat="44.81455" lon="5.90938">
        <ele>867</ele>
        <time>2009-01-29T14:36:51Z</time>
      </trkpt>
      <trkpt lat="44.81492" lon="5.90912">
        <ele>862</ele>
        <time>2009-01-29T14:36:51Z</time>
      </trkpt>
      <trkpt lat="44.81497" lon="5.9095">
        <ele>852</ele>
        <time>2009-01-29T14:36:51Z</time>
      </trkpt>
      <trkpt lat="44.81474" lon="5.90971">
        <ele>854</ele>
        <time>2009-01-29T14:36:51Z</time>
      </trkpt>
      <trkpt lat="44.81375" lon="5.91116">
        <ele>857</ele>
        <time>2009-01-29T14:36:51Z</time>
      </trkpt>
      <trkpt lat="44.81371" lon="5.91151">
        <ele>854</ele>
        <time>2009-01-29T14:36:51Z</time>
      </trkpt>
      <trkpt lat="44.81399" lon="5.91146">
        <ele>847</ele>
        <time>2009-01-29T14:36:51Z</time>
      </trkpt>
      <trkpt lat="44.81416" lon="5.9116">
        <ele>839</ele>
        <time>2009-01-29T14:36:51Z</time>
      </trkpt>
      <trkpt lat="44.81419" lon="5.91129">
        <ele>842</ele>
        <time>2009-01-29T14:36:51Z</time>
      </trkpt>
      <trkpt lat="44.8142" lon="5.911">
        <ele>845</ele>
        <time>2009-01-29T14:36:51Z</time>
      </trkpt>
      <trkpt lat="44.81507" lon="5.91008">
        <ele>834</ele>
        <time>2009-01-29T14:36:51Z</time>
      </trkpt>
      <trkpt lat="44.81523" lon="5.90977">
        <ele>840</ele>
        <time>2009-01-29T14:36:51Z</time>
      </trkpt>
      <trkpt lat="44.81488" lon="5.9082">
        <ele>865</ele>
        <time>2009-01-29T14:36:51Z</time>
      </trkpt>
      <trkpt lat="44.81538" lon="5.90798">
        <ele>840</ele>
        <time>2009-01-29T14:36:51Z</time>
      </trkpt>
      <trkpt lat="44.81553" lon="5.90761">
        <ele>830</ele>
        <time>2009-01-29T14:36:51Z</time>
      </trkpt>
      <trkpt lat="44.81588" lon="5.90731">
        <ele>813</ele>
        <time>2009-01-29T14:36:51Z</time>
      </trkpt>
      <trkpt lat="44.81612" lon="5.90809">
        <ele>799</ele>
        <time>2009-01-29T14:36:51Z</time>
      </trkpt>
      <trkpt lat="44.81603" lon="5.90729">
        <ele>799</ele>
        <time>2009-01-29T14:36:51Z</time>
      </trkpt>
      <trkpt lat="44.81629" lon="5.90715">
        <ele>774</ele>
        <time>2009-01-29T14:36:51Z</time>
      </trkpt>
      <trkpt lat="44.8168" lon="5.90807">
        <ele>763</ele>
        <time>2009-01-29T14:36:51Z</time>
      </trkpt>
      <trkpt lat="44.81767" lon="5.90743">
        <ele>777</ele>
        <time>2009-01-29T14:36:51Z</time>
      </trkpt>
      <trkpt lat="44.81773" lon="5.90715">
        <ele>786</ele>
        <time>2009-01-29T14:36:51Z</time>
      </trkpt>
      <trkpt lat="44.8179" lon="5.90735">
        <ele>789</ele>
        <time>2009-01-29T14:36:51Z</time>
      </trkpt>
      <trkpt lat="44.81814" lon="5.90758">
        <ele>796</ele>
        <time>2009-01-29T14:36:51Z</time>
      </trkpt>
      <trkpt lat="44.81814" lon="5.90705">
        <ele>804</ele>
        <time>2009-01-29T14:36:51Z</time>
      </trkpt>
      <trkpt lat="44.81824" lon="5.90737">
        <ele>803</ele>
        <time>2009-01-29T14:36:51Z</time>
      </trkpt>
      <trkpt lat="44.81821" lon="5.9067">
        <ele>811</ele>
        <time>2009-01-29T14:36:51Z</time>
      </trkpt>
      <trkpt lat="44.81831" lon="5.90655">
        <ele>814</ele>
        <time>2009-01-29T14:36:51Z</time>
      </trkpt>
      <trkpt lat="44.81832" lon="5.907">
        <ele>811</ele>
        <time>2009-01-29T14:36:51Z</time>
      </trkpt>
      <trkpt lat="44.81853" lon="5.90676">
        <ele>820</ele>
        <time>2009-01-29T14:36:51Z</time>
      </trkpt>
      <trkpt lat="44.81874" lon="5.90655">
        <ele>828</ele>
        <time>2009-01-29T14:36:51Z</time>
      </trkpt>
      <trkpt lat="44.81891" lon="5.90675">
        <ele>834</ele>
        <time>2009-01-29T14:36:51Z</time>
      </trkpt>
      <trkpt lat="44.81911" lon="5.9067">
        <ele>841</ele>
        <time>2009-01-29T14:36:51Z</time>
      </trkpt>
      <trkpt lat="44.81977" lon="5.90652">
        <ele>866</ele>
        <time>2009-01-29T14:36:51Z</time>
      </trkpt>
      <trkpt lat="44.81959" lon="5.9073">
        <ele>863</ele>
        <time>2009-01-29T14:36:51Z</time>
      </trkpt>
      <trkpt lat="44.81972" lon="5.90746">
        <ele>868</ele>
        <time>2009-01-29T14:36:51Z</time>
      </trkpt>
      <trkpt lat="44.81992" lon="5.90811">
        <ele>873</ele>
        <time>2009-01-29T14:36:51Z</time>
      </trkpt>
      <trkpt lat="44.82007" lon="5.90853">
        <ele>876</ele>
        <time>2009-01-29T14:36:51Z</time>
      </trkpt>
      <trkpt lat="44.82007" lon="5.90995">
        <ele>867</ele>
        <time>2009-01-29T14:36:51Z</time>
      </trkpt>
      <trkpt lat="44.82023" lon="5.91056">
        <ele>870</ele>
        <time>2009-01-29T14:36:51Z</time>
      </trkpt>
      <trkpt lat="44.82024" lon="5.91158">
        <ele>871</ele>
        <time>2009-01-29T14:36:51Z</time>
      </trkpt>
      <trkpt lat="44.82011" lon="5.91198">
        <ele>866</ele>
        <time>2009-01-29T14:36:51Z</time>
      </trkpt>
      <trkpt lat="44.81974" lon="5.91237">
        <ele>852</ele>
        <time>2009-01-29T14:36:51Z</time>
      </trkpt>
      <trkpt lat="44.81978" lon="5.91259">
        <ele>849</ele>
        <time>2009-01-29T14:36:51Z</time>
      </trkpt>
      <trkpt lat="44.81997" lon="5.91283">
        <ele>845</ele>
        <time>2009-01-29T14:36:51Z</time>
      </trkpt>
      <trkpt lat="44.82033" lon="5.9131">
        <ele>840</ele>
        <time>2009-01-29T14:36:51Z</time>
      </trkpt>
      <trkpt lat="44.82148" lon="5.9121">
        <ele>858</ele>
        <time>2009-01-29T14:36:51Z</time>
      </trkpt>
      <trkpt lat="44.82195" lon="5.91229">
        <ele>863</ele>
        <time>2009-01-29T14:36:51Z</time>
      </trkpt>
      <trkpt lat="44.82212" lon="5.91271">
        <ele>856</ele>
        <time>2009-01-29T14:36:51Z</time>
      </trkpt>
      <trkpt lat="44.8224" lon="5.91298">
        <ele>861</ele>
        <time>2009-01-29T14:36:51Z</time>
      </trkpt>
      <trkpt lat="44.82257" lon="5.91328">
        <ele>858</ele>
        <time>2009-01-29T14:36:51Z</time>
      </trkpt>
      <trkpt lat="44.8226" lon="5.91372">
        <ele>850</ele>
        <time>2009-01-29T14:36:51Z</time>
      </trkpt>
      <trkpt lat="44.82295" lon="5.91393">
        <ele>850</ele>
        <time>2009-01-29T14:36:51Z</time>
      </trkpt>
      <trkpt lat="44.82341" lon="5.91444">
        <ele>854</ele>
        <time>2009-01-29T14:36:51Z</time>
      </trkpt>
      <trkpt lat="44.82355" lon="5.91514">
        <ele>858</ele>
        <time>2009-01-29T14:36:51Z</time>
      </trkpt>
      <trkpt lat="44.82354" lon="5.91606">
        <ele>857</ele>
        <time>2009-01-29T14:36:51Z</time>
      </trkpt>
      <trkpt lat="44.82368" lon="5.91733">
        <ele>863</ele>
        <time>2009-01-29T14:36:51Z</time>
      </trkpt>
      <trkpt lat="44.82359" lon="5.91859">
        <ele>878</ele>
        <time>2009-01-29T14:36:51Z</time>
      </trkpt>
      <trkpt lat="44.82386" lon="5.91855">
        <ele>869</ele>
        <time>2009-01-29T14:36:51Z</time>
      </trkpt>
      <trkpt lat="44.82402" lon="5.91871">
        <ele>861</ele>
        <time>2009-01-29T14:36:51Z</time>
      </trkpt>
      <trkpt lat="44.82443" lon="5.92105">
        <ele>832</ele>
        <time>2009-01-29T14:36:51Z</time>
      </trkpt>
      <trkpt lat="44.82466" lon="5.921">
        <ele>826</ele>
        <time>2009-01-29T14:36:51Z</time>
      </trkpt>
      <trkpt lat="44.82476" lon="5.9206">
        <ele>823</ele>
        <time>2009-01-29T14:36:51Z</time>
      </trkpt>
      <trkpt lat="44.82461" lon="5.91986">
        <ele>828</ele>
        <time>2009-01-29T14:36:51Z</time>
      </trkpt>
      <trkpt lat="44.82463" lon="5.91926">
        <ele>829</ele>
        <time>2009-01-29T14:36:51Z</time>
      </trkpt>
      <trkpt lat="44.82488" lon="5.91848">
        <ele>819</ele>
        <time>2009-01-29T14:36:51Z</time>
      </trkpt>
      <trkpt lat="44.82508" lon="5.91628">
        <ele>806</ele>
        <time>2009-01-29T14:36:51Z</time>
      </trkpt>
      <trkpt lat="44.82544" lon="5.9158">
        <ele>792</ele>
        <time>2009-01-29T14:36:51Z</time>
      </trkpt>
      <trkpt lat="44.82572" lon="5.91544">
        <ele>782</ele>
        <time>2009-01-29T14:36:51Z</time>
      </trkpt>
      <trkpt lat="44.82594" lon="5.91431">
        <ele>772</ele>
        <time>2009-01-29T14:36:51Z</time>
      </trkpt>
      <trkpt lat="44.82591" lon="5.91368">
        <ele>767</ele>
        <time>2009-01-29T14:36:51Z</time>
      </trkpt>
      <trkpt lat="44.82572" lon="5.91335">
        <ele>773</ele>
        <time>2009-01-29T14:36:51Z</time>
      </trkpt>
      <trkpt lat="44.82586" lon="5.91327">
        <ele>767</ele>
        <time>2009-01-29T14:36:51Z</time>
      </trkpt>
      <trkpt lat="44.82635" lon="5.91393">
        <ele>752</ele>
        <time>2009-01-29T14:36:51Z</time>
      </trkpt>
      <trkpt lat="44.82634" lon="5.91361">
        <ele>750</ele>
        <time>2009-01-29T14:36:51Z</time>
      </trkpt>
      <trkpt lat="44.82668" lon="5.91427">
        <ele>752</ele>
        <time>2009-01-29T14:36:51Z</time>
      </trkpt>
      <trkpt lat="44.82694" lon="5.91463">
        <ele>757</ele>
        <time>2009-01-29T14:36:51Z</time>
      </trkpt>
      <trkpt lat="44.82715" lon="5.91506">
        <ele>765</ele>
        <time>2009-01-29T14:36:51Z</time>
      </trkpt>
      <trkpt lat="44.82691" lon="5.91608">
        <ele>762</ele>
        <time>2009-01-29T14:36:51Z</time>
      </trkpt>
      <trkpt lat="44.82702" lon="5.91688">
        <ele>767</ele>
        <time>2009-01-29T14:36:51Z</time>
      </trkpt>
      <trkpt lat="44.82715" lon="5.91838">
        <ele>770</ele>
        <time>2009-01-29T14:36:51Z</time>
      </trkpt>
      <trkpt lat="44.82735" lon="5.91709">
        <ele>780</ele>
        <time>2009-01-29T14:36:51Z</time>
      </trkpt>
      <trkpt lat="44.8277" lon="5.91683">
        <ele>792</ele>
        <time>2009-01-29T14:36:51Z</time>
      </trkpt>
      <trkpt lat="44.82798" lon="5.91593">
        <ele>794</ele>
        <time>2009-01-29T14:36:51Z</time>
      </trkpt>
      <trkpt lat="44.828" lon="5.91517">
        <ele>794</ele>
        <time>2009-01-29T14:36:51Z</time>
      </trkpt>
      <trkpt lat="44.8282" lon="5.91462">
        <ele>801</ele>
        <time>2009-01-29T14:36:51Z</time>
      </trkpt>
      <trkpt lat="44.82855" lon="5.91429">
        <ele>814</ele>
        <time>2009-01-29T14:36:51Z</time>
      </trkpt>
      <trkpt lat="44.82901" lon="5.91397">
        <ele>832</ele>
        <time>2009-01-29T14:36:51Z</time>
      </trkpt>
      <trkpt lat="44.82939" lon="5.91387">
        <ele>845</ele>
        <time>2009-01-29T14:36:51Z</time>
      </trkpt>
      <trkpt lat="44.82964" lon="5.91398">
        <ele>852</ele>
        <time>2009-01-29T14:36:51Z</time>
      </trkpt>
      <trkpt lat="44.8297" lon="5.91332">
        <ele>858</ele>
        <time>2009-01-29T14:36:51Z</time>
      </trkpt>
      <trkpt lat="44.82998" lon="5.91372">
        <ele>864</ele>
        <time>2009-01-29T14:36:51Z</time>
      </trkpt>
      <trkpt lat="44.83009" lon="5.91338">
        <ele>868</ele>
        <time>2009-01-29T14:36:51Z</time>
      </trkpt>
      <trkpt lat="44.82993" lon="5.91261">
        <ele>869</ele>
        <time>2009-01-29T14:36:51Z</time>
      </trkpt>
      <trkpt lat="44.82967" lon="5.91148">
        <ele>870</ele>
        <time>2009-01-29T14:36:51Z</time>
      </trkpt>
      <trkpt lat="44.82982" lon="5.91108">
        <ele>879</ele>
        <time>2009-01-29T14:36:51Z</time>
      </trkpt>
      <trkpt lat="44.83015" lon="5.91224">
        <ele>878</ele>
        <time>2009-01-29T14:36:51Z</time>
      </trkpt>
      <trkpt lat="44.8304" lon="5.91273">
        <ele>882</ele>
        <time>2009-01-29T14:36:51Z</time>
      </trkpt>
      <trkpt lat="44.83024" lon="5.91133">
        <ele>891</ele>
        <time>2009-01-29T14:36:51Z</time>
      </trkpt>
      <trkpt lat="44.83015" lon="5.91015">
        <ele>897</ele>
        <time>2009-01-29T14:36:51Z</time>
      </trkpt>
      <trkpt lat="44.83051" lon="5.90942">
        <ele>904</ele>
        <time>2009-01-29T14:36:51Z</time>
      </trkpt>
      <trkpt lat="44.83052" lon="5.90901">
        <ele>902</ele>
        <time>2009-01-29T14:36:51Z</time>
      </trkpt>
      <trkpt lat="44.83065" lon="5.90854">
        <ele>905</ele>
        <time>2009-01-29T14:36:51Z</time>
      </trkpt>
      <trkpt lat="44.8308" lon="5.90801">
        <ele>908</ele>
        <time>2009-01-29T14:36:51Z</time>
      </trkpt>
      <trkpt lat="44.83105" lon="5.90714">
        <ele>904</ele>
        <time>2009-01-29T14:36:51Z</time>
      </trkpt>
      <trkpt lat="44.83135" lon="5.90837">
        <ele>917</ele>
        <time>2009-01-29T14:36:51Z</time>
      </trkpt>
      <trkpt lat="44.83178" lon="5.90912">
        <ele>921</ele>
        <time>2009-01-29T14:36:51Z</time>
      </trkpt>
      <trkpt lat="44.83206" lon="5.91009">
        <ele>916</ele>
        <time>2009-01-29T14:36:51Z</time>
      </trkpt>
      <trkpt lat="44.83209" lon="5.91053">
        <ele>911</ele>
        <time>2009-01-29T14:36:51Z</time>
      </trkpt>
      <trkpt lat="44.83179" lon="5.91143">
        <ele>919</ele>
        <time>2009-01-29T14:36:51Z</time>
      </trkpt>
      <trkpt lat="44.83191" lon="5.91194">
        <ele>919</ele>
        <time>2009-01-29T14:36:51Z</time>
      </trkpt>
      <trkpt lat="44.832" lon="5.91322">
        <ele>925</ele>
        <time>2009-01-29T14:36:51Z</time>
      </trkpt>
      <trkpt lat="44.83225" lon="5.91314">
        <ele>924</ele>
        <time>2009-01-29T14:36:51Z</time>
      </trkpt>
      <trkpt lat="44.83233" lon="5.91355">
        <ele>929</ele>
        <time>2009-01-29T14:36:51Z</time>
      </trkpt>
      <trkpt lat="44.83227" lon="5.91396">
        <ele>932</ele>
        <time>2009-01-29T14:36:51Z</time>
      </trkpt>
      <trkpt lat="44.83261" lon="5.91471">
        <ele>938</ele>
        <time>2009-01-29T14:36:51Z</time>
      </trkpt>
      <trkpt lat="44.83298" lon="5.9166">
        <ele>945</ele>
        <time>2009-01-29T14:36:51Z</time>
      </trkpt>
      <trkpt lat="44.83294" lon="5.91713">
        <ele>944</ele>
        <time>2009-01-29T14:36:51Z</time>
      </trkpt>
      <trkpt lat="44.83267" lon="5.91772">
        <ele>946</ele>
        <time>2009-01-29T14:36:51Z</time>
      </trkpt>
      <trkpt lat="44.83233" lon="5.91982">
        <ele>952</ele>
        <time>2009-01-29T14:36:51Z</time>
      </trkpt>
      <trkpt lat="44.83239" lon="5.92067">
        <ele>954</ele>
        <time>2009-01-29T14:36:51Z</time>
      </trkpt>
      <trkpt lat="44.83194" lon="5.92273">
        <ele>962</ele>
        <time>2009-01-29T14:36:51Z</time>
      </trkpt>
      <trkpt lat="44.83185" lon="5.92289">
        <ele>963</ele>
        <time>2009-01-29T14:36:51Z</time>
      </trkpt>
      <trkpt lat="44.8319" lon="5.92352">
        <ele>968</ele>
        <time>2009-01-29T14:36:51Z</time>
      </trkpt>
      <trkpt lat="44.83205" lon="5.92432">
        <ele>978</ele>
        <time>2009-01-29T14:36:51Z</time>
      </trkpt>
      <trkpt lat="44.83194" lon="5.92618">
        <ele>995</ele>
        <time>2009-01-29T14:36:51Z</time>
      </trkpt>
      <trkpt lat="44.83184" lon="5.92728">
        <ele>1003</ele>
        <time>2009-01-29T14:36:51Z</time>
      </trkpt>
      <trkpt lat="44.83226" lon="5.9269">
        <ele>1011</ele>
        <time>2009-01-29T14:36:51Z</time>
      </trkpt>
      <trkpt lat="44.8327" lon="5.92655">
        <ele>1019</ele>
        <time>2009-01-29T14:36:51Z</time>
      </trkpt>
      <trkpt lat="44.83344" lon="5.92577">
        <ele>1030</ele>
        <time>2009-01-29T14:36:51Z</time>
      </trkpt>
      <trkpt lat="44.83338" lon="5.92634">
        <ele>1036</ele>
        <time>2009-01-29T14:36:51Z</time>
      </trkpt>
      <trkpt lat="44.83329" lon="5.92706">
        <ele>1045</ele>
        <time>2009-01-29T14:36:51Z</time>
      </trkpt>
      <trkpt lat="44.83311" lon="5.92831">
        <ele>1054</ele>
        <time>2009-01-29T14:36:51Z</time>
      </trkpt>
      <trkpt lat="44.83323" lon="5.92898">
        <ele>1058</ele>
        <time>2009-01-29T14:36:51Z</time>
      </trkpt>
      <trkpt lat="44.83383" lon="5.92909">
        <ele>1080</ele>
        <time>2009-01-29T14:36:51Z</time>
      </trkpt>
      <trkpt lat="44.83415" lon="5.92949">
        <ele>1090</ele>
        <time>2009-01-29T14:36:51Z</time>
      </trkpt>
      <trkpt lat="44.83458" lon="5.92942">
        <ele>1106</ele>
        <time>2009-01-29T14:36:51Z</time>
      </trkpt>
      <trkpt lat="44.83512" lon="5.92945">
        <ele>1126</ele>
        <time>2009-01-29T14:36:51Z</time>
      </trkpt>
      <trkpt lat="44.83564" lon="5.92939">
        <ele>1143</ele>
        <time>2009-01-29T14:36:51Z</time>
      </trkpt>
      <trkpt lat="44.83587" lon="5.92928">
        <ele>1149</ele>
        <time>2009-01-29T14:36:51Z</time>
      </trkpt>
      <trkpt lat="44.83657" lon="5.92926">
        <ele>1164</ele>
        <time>2009-01-29T14:36:51Z</time>
      </trkpt>
      <trkpt lat="44.83723" lon="5.92968">
        <ele>1180</ele>
        <time>2009-01-29T14:36:51Z</time>
      </trkpt>
      <trkpt lat="44.83734" lon="5.93064">
        <ele>1192</ele>
        <time>2009-01-29T14:36:51Z</time>
      </trkpt>
      <trkpt lat="44.8384" lon="5.93125">
        <ele>1215</ele>
        <time>2009-01-29T14:36:51Z</time>
      </trkpt>
      <trkpt lat="44.83882" lon="5.9314">
        <ele>1224</ele>
        <time>2009-01-29T14:36:51Z</time>
      </trkpt>
      <trkpt lat="44.83994" lon="5.93226">
        <ele>1252</ele>
        <time>2009-01-29T14:36:51Z</time>
      </trkpt>
      <trkpt lat="44.83992" lon="5.93153">
        <ele>1248</ele>
        <time>2009-01-29T14:36:51Z</time>
      </trkpt>
      <trkpt lat="44.84" lon="5.93122">
        <ele>1246</ele>
        <time>2009-01-29T14:36:51Z</time>
      </trkpt>
      <trkpt lat="44.84029" lon="5.93175">
        <ele>1258</ele>
        <time>2009-01-29T14:36:51Z</time>
      </trkpt>
      <trkpt lat="44.84071" lon="5.932">
        <ele>1269</ele>
        <time>2009-01-29T14:36:51Z</time>
      </trkpt>
      <trkpt lat="44.84122" lon="5.93317">
        <ele>1274</ele>
        <time>2009-01-29T14:36:51Z</time>
      </trkpt>
      <trkpt lat="44.84168" lon="5.93399">
        <ele>1276</ele>
        <time>2009-01-29T14:36:51Z</time>
      </trkpt>
      <trkpt lat="44.8419" lon="5.93438">
        <ele>1277</ele>
        <time>2009-01-29T14:36:51Z</time>
      </trkpt>
      <trkpt lat="44.84239" lon="5.93448">
        <ele>1286</ele>
        <time>2009-01-29T14:36:51Z</time>
      </trkpt>
      <trkpt lat="44.84285" lon="5.93492">
        <ele>1295</ele>
        <time>2009-01-29T14:36:51Z</time>
      </trkpt>
      <trkpt lat="44.84344" lon="5.93521">
        <ele>1303</ele>
        <time>2009-01-29T14:36:51Z</time>
      </trkpt>
      <trkpt lat="44.84349" lon="5.93651">
        <ele>1321</ele>
        <time>2009-01-29T14:36:51Z</time>
      </trkpt>
      <trkpt lat="44.84499" lon="5.93825">
        <ele>1378</ele>
        <time>2009-01-29T14:36:51Z</time>
      </trkpt>
      <trkpt lat="44.84521" lon="5.93842">
        <ele>1384</ele>
        <time>2009-01-29T14:36:51Z</time>
      </trkpt>
      <trkpt lat="44.84582" lon="5.93887">
        <ele>1392</ele>
        <time>2009-01-29T14:36:51Z</time>
      </trkpt>
      <trkpt lat="44.84623" lon="5.93953">
        <ele>1408</ele>
        <time>2009-01-29T14:36:51Z</time>
      </trkpt>
      <trkpt lat="44.84665" lon="5.94038">
        <ele>1430</ele>
        <time>2009-01-29T14:36:51Z</time>
      </trkpt>
      <trkpt lat="44.84698" lon="5.94078">
        <ele>1441</ele>
        <time>2009-01-29T14:36:51Z</time>
      </trkpt>
      <trkpt lat="44.84708" lon="5.94114">
        <ele>1451</ele>
        <time>2009-01-29T14:36:51Z</time>
      </trkpt>
      <trkpt lat="44.84689" lon="5.94125">
        <ele>1459</ele>
        <time>2009-01-29T14:36:51Z</time>
      </trkpt>
      <trkpt lat="44.84597" lon="5.94119">
        <ele>1486</ele>
        <time>2009-01-29T14:36:51Z</time>
      </trkpt>
      <trkpt lat="44.8464" lon="5.94185">
        <ele>1499</ele>
        <time>2009-01-29T14:36:51Z</time>
      </trkpt>
      <trkpt lat="44.8467" lon="5.94222">
        <ele>1506</ele>
        <time>2009-01-29T14:36:51Z</time>
      </trkpt>
      <trkpt lat="44.8474" lon="5.94303">
        <ele>1525</ele>
        <time>2009-01-29T14:36:51Z</time>
      </trkpt>
      <trkpt lat="44.84804" lon="5.94402">
        <ele>1535</ele>
        <time>2009-01-29T14:36:51Z</time>
      </trkpt>
      <trkpt lat="44.84825" lon="5.94517">
        <ele>1565</ele>
        <time>2009-01-29T14:36:51Z</time>
      </trkpt>
      <trkpt lat="44.8483" lon="5.94562">
        <ele>1576</ele>
        <time>2009-01-29T14:36:51Z</time>
      </trkpt>
      <trkpt lat="44.84824" lon="5.94628">
        <ele>1591</ele>
        <time>2009-01-29T14:36:51Z</time>
      </trkpt>
      <trkpt lat="44.84907" lon="5.94636">
        <ele>1607</ele>
        <time>2009-01-29T14:36:51Z</time>
      </trkpt>
      <trkpt lat="44.84952" lon="5.94639">
        <ele>1619</ele>
        <time>2009-01-29T14:36:51Z</time>
      </trkpt>
      <trkpt lat="44.85015" lon="5.94646">
        <ele>1640</ele>
        <time>2009-01-29T14:36:51Z</time>
      </trkpt>
      <trkpt lat="44.85055" lon="5.94636">
        <ele>1649</ele>
        <time>2009-01-29T14:36:51Z</time>
      </trkpt>
      <trkpt lat="44.85113" lon="5.94602">
        <ele>1658</ele>
        <time>2009-01-29T14:36:51Z</time>
      </trkpt>
      <trkpt lat="44.85107" lon="5.94636">
        <ele>1665</ele>
        <time>2009-01-29T14:36:51Z</time>
      </trkpt>
      <trkpt lat="44.85065" lon="5.94688">
        <ele>1666</ele>
        <time>2009-01-29T14:36:51Z</time>
      </trkpt>
      <trkpt lat="44.85019" lon="5.94719">
        <ele>1663</ele>
        <time>2009-01-29T14:36:51Z</time>
      </trkpt>
      <trkpt lat="44.84937" lon="5.94879">
        <ele>1688</ele>
        <time>2009-01-29T14:36:51Z</time>
      </trkpt>
      <trkpt lat="44.84981" lon="5.94847">
        <ele>1692</ele>
        <time>2009-01-29T14:36:51Z</time>
      </trkpt>
      <trkpt lat="44.85032" lon="5.94809">
        <ele>1693</ele>
        <time>2009-01-29T14:36:51Z</time>
      </trkpt>
      <trkpt lat="44.85077" lon="5.94799">
        <ele>1704</ele>
        <time>2009-01-29T14:36:51Z</time>
      </trkpt>
      <trkpt lat="44.85108" lon="5.94804">
        <ele>1717</ele>
        <time>2009-01-29T14:36:51Z</time>
      </trkpt>
      <trkpt lat="44.85216" lon="5.94688">
        <ele>1729</ele>
        <time>2009-01-29T14:36:51Z</time>
      </trkpt>
      <trkpt lat="44.85164" lon="5.94839">
        <ele>1754</ele>
        <time>2009-01-29T14:36:51Z</time>
      </trkpt>
      <trkpt lat="44.85302" lon="5.94674">
        <ele>1765</ele>
        <time>2009-01-29T14:36:51Z</time>
      </trkpt>
      <trkpt lat="44.85391" lon="5.94572">
        <ele>1778</ele>
        <time>2009-01-29T14:36:51Z</time>
      </trkpt>
      <trkpt lat="44.85516" lon="5.94457">
        <ele>1801</ele>
        <time>2009-01-29T14:36:51Z</time>
      </trkpt>
      <trkpt lat="44.85599" lon="5.94393">
        <ele>1822</ele>
        <time>2009-01-29T14:36:51Z</time>
      </trkpt>
      <trkpt lat="44.85662" lon="5.94315">
        <ele>1829</ele>
        <time>2009-01-29T14:36:51Z</time>
      </trkpt>
      <trkpt lat="44.85757" lon="5.94245">
        <ele>1846</ele>
        <time>2009-01-29T14:36:51Z</time>
      </trkpt>
      <trkpt lat="44.85897" lon="5.94159">
        <ele>1863</ele>
        <time>2009-01-29T14:36:51Z</time>
      </trkpt>
      <trkpt lat="44.85994" lon="5.94092">
        <ele>1867</ele>
        <time>2009-01-29T14:36:51Z</time>
      </trkpt>
      <trkpt lat="44.86011" lon="5.93923">
        <ele>1824</ele>
        <time>2009-01-29T14:36:51Z</time>
      </trkpt>
      <trkpt lat="44.86074" lon="5.9399">
        <ele>1838</ele>
        <time>2009-01-29T14:36:51Z</time>
      </trkpt>
      <trkpt lat="44.86171" lon="5.94044">
        <ele>1858</ele>
        <time>2009-01-29T14:36:51Z</time>
      </trkpt>
      <trkpt lat="44.86253" lon="5.94074">
        <ele>1844</ele>
        <time>2009-01-29T14:36:51Z</time>
      </trkpt>
      <trkpt lat="44.86262" lon="5.94167">
        <ele>1842</ele>
        <time>2009-01-29T14:36:51Z</time>
      </trkpt>
      <trkpt lat="44.86226" lon="5.94348">
        <ele>1854</ele>
        <time>2009-01-29T14:36:51Z</time>
      </trkpt>
      <trkpt lat="44.86175" lon="5.94598">
        <ele>1872</ele>
        <time>2009-01-29T14:36:51Z</time>
      </trkpt>
      <trkpt lat="44.86144" lon="5.94675">
        <ele>1877</ele>
        <time>2009-01-29T14:36:51Z</time>
      </trkpt>
      <trkpt lat="44.86088" lon="5.94849">
        <ele>1900</ele>
        <time>2009-01-29T14:36:51Z</time>
      </trkpt>
      <trkpt lat="44.8608" lon="5.94956">
        <ele>1911</ele>
        <time>2009-01-29T14:36:51Z</time>
      </trkpt>
      <trkpt lat="44.8601" lon="5.95312">
        <ele>1896</ele>
        <time>2009-01-29T14:36:51Z</time>
      </trkpt>
      <trkpt lat="44.86094" lon="5.95444">
        <ele>1869</ele>
        <time>2009-01-29T14:36:51Z</time>
      </trkpt>
      <trkpt lat="44.86088" lon="5.95472">
        <ele>1857</ele>
        <time>2009-01-29T14:36:51Z</time>
      </trkpt>
      <trkpt lat="44.86126" lon="5.95557">
        <ele>1836</ele>
        <time>2009-01-29T14:36:51Z</time>
      </trkpt>
      <trkpt lat="44.86229" lon="5.95639">
        <ele>1832</ele>
        <time>2009-01-29T14:36:51Z</time>
      </trkpt>
      <trkpt lat="44.86288" lon="5.95703">
        <ele>1827</ele>
        <time>2009-01-29T14:36:51Z</time>
      </trkpt>
      <trkpt lat="44.86336" lon="5.95814">
        <ele>1824</ele>
        <time>2009-01-29T14:36:51Z</time>
      </trkpt>
      <trkpt lat="44.86368" lon="5.95857">
        <ele>1826</ele>
        <time>2009-01-29T14:36:51Z</time>
      </trkpt>
      <trkpt lat="44.86324" lon="5.95889">
        <ele>1826</ele>
        <time>2009-01-29T14:36:51Z</time>
      </trkpt>
      <trkpt lat="44.86273" lon="5.95952">
        <ele>1825</ele>
        <time>2009-01-29T14:36:51Z</time>
      </trkpt>
      <trkpt lat="44.86148" lon="5.96043">
        <ele>1794</ele>
        <time>2009-01-29T14:36:51Z</time>
      </trkpt>
      <trkpt lat="44.86122" lon="5.96085">
        <ele>1792</ele>
        <time>2009-01-29T14:36:51Z</time>
      </trkpt>
      <trkpt lat="44.86044" lon="5.96216">
        <ele>1793</ele>
        <time>2009-01-29T14:36:51Z</time>
      </trkpt>
      <trkpt lat="44.85889" lon="5.96412">
        <ele>1760</ele>
        <time>2009-01-29T14:36:51Z</time>
      </trkpt>
      <trkpt lat="44.85863" lon="5.96432">
        <ele>1748</ele>
        <time>2009-01-29T14:36:51Z</time>
      </trkpt>
      <trkpt lat="44.85822" lon="5.96461">
        <ele>1726</ele>
        <time>2009-01-29T14:36:51Z</time>
      </trkpt>
      <trkpt lat="44.85787" lon="5.96494">
        <ele>1712</ele>
        <time>2009-01-29T14:36:51Z</time>
      </trkpt>
      <trkpt lat="44.85749" lon="5.96488">
        <ele>1697</ele>
        <time>2009-01-29T14:36:51Z</time>
      </trkpt>
      <trkpt lat="44.85717" lon="5.96508">
        <ele>1690</ele>
        <time>2009-01-29T14:36:51Z</time>
      </trkpt>
      <trkpt lat="44.85689" lon="5.96535">
        <ele>1680</ele>
        <time>2009-01-29T14:36:51Z</time>
      </trkpt>
      <trkpt lat="44.85653" lon="5.96533">
        <ele>1668</ele>
        <time>2009-01-29T14:36:51Z</time>
      </trkpt>
      <trkpt lat="44.8561" lon="5.96533">
        <ele>1656</ele>
        <time>2009-01-29T14:36:51Z</time>
      </trkpt>
      <trkpt lat="44.85609" lon="5.96555">
        <ele>1654</ele>
        <time>2009-01-29T14:36:51Z</time>
      </trkpt>
      <trkpt lat="44.85638" lon="5.9657">
        <ele>1660</ele>
        <time>2009-01-29T14:36:51Z</time>
      </trkpt>
      <trkpt lat="44.85676" lon="5.96566">
        <ele>1674</ele>
        <time>2009-01-29T14:36:51Z</time>
      </trkpt>
      <trkpt lat="44.85705" lon="5.96587">
        <ele>1684</ele>
        <time>2009-01-29T14:36:51Z</time>
      </trkpt>
      <trkpt lat="44.85721" lon="5.96648">
        <ele>1694</ele>
        <time>2009-01-29T14:36:51Z</time>
      </trkpt>
      <trkpt lat="44.8572" lon="5.96958">
        <ele>1690</ele>
        <time>2009-01-29T14:36:51Z</time>
      </trkpt>
      <trkpt lat="44.85737" lon="5.96991">
        <ele>1680</ele>
        <time>2009-01-29T14:36:51Z</time>
      </trkpt>
      <trkpt lat="44.85791" lon="5.96997">
        <ele>1707</ele>
        <time>2009-01-29T14:36:51Z</time>
      </trkpt>
      <trkpt lat="44.85812" lon="5.97021">
        <ele>1722</ele>
        <time>2009-01-29T14:36:51Z</time>
      </trkpt>
      <trkpt lat="44.85833" lon="5.97139">
        <ele>1711</ele>
        <time>2009-01-29T14:36:51Z</time>
      </trkpt>
      <trkpt lat="44.85902" lon="5.97232">
        <ele>1743</ele>
        <time>2009-01-29T14:36:51Z</time>
      </trkpt>
      <trkpt lat="44.85911" lon="5.97303">
        <ele>1762</ele>
        <time>2009-01-29T14:36:51Z</time>
      </trkpt>
      <trkpt lat="44.85874" lon="5.97401">
        <ele>1754</ele>
        <time>2009-01-29T14:36:51Z</time>
      </trkpt>
      <trkpt lat="44.85883" lon="5.97484">
        <ele>1763</ele>
        <time>2009-01-29T14:36:51Z</time>
      </trkpt>
      <trkpt lat="44.85876" lon="5.9756">
        <ele>1762</ele>
        <time>2009-01-29T14:36:51Z</time>
      </trkpt>
      <trkpt lat="44.85879" lon="5.97677">
        <ele>1764</ele>
        <time>2009-01-29T14:36:51Z</time>
      </trkpt>
      <trkpt lat="44.85889" lon="5.977">
        <ele>1768</ele>
        <time>2009-01-29T14:36:51Z</time>
      </trkpt>
      <trkpt lat="44.8584" lon="5.97763">
        <ele>1762</ele>
        <time>2009-01-29T14:36:51Z</time>
      </trkpt>
      <trkpt lat="44.8584" lon="5.97763">
        <ele>1762</ele>
        <time>2009-01-29T14:36:51Z</time>
      </trkpt>
      <trkpt lat="44.8584" lon="5.97763">
        <ele>1762</ele>
        <time>2009-01-29T14:36:51Z</time>
      </trkpt>
      <trkpt lat="44.8584" lon="5.97763">
        <ele>1762</ele>
        <time>2009-01-29T14:36:51Z</time>
      </trkpt>
    </trkseg>
  </trk>
  <trk>
    <name><![CDATA[Ecuries de Cornillon-Mialaure]]></name>
    <trkseg>
      <trkpt lat="44.83419" lon="5.70844">
        <ele>876</ele>
      </trkpt>
      <trkpt lat="44.8345" lon="5.70935">
        <ele>874</ele>
      </trkpt>
      <trkpt lat="44.83403" lon="5.71071">
        <ele>866</ele>
      </trkpt>
      <trkpt lat="44.83432" lon="5.71149">
        <ele>865</ele>
      </trkpt>
      <trkpt lat="44.83416" lon="5.71255">
        <ele>860</ele>
      </trkpt>
      <trkpt lat="44.83417" lon="5.71344">
        <ele>855</ele>
      </trkpt>
      <trkpt lat="44.83431" lon="5.71497">
        <ele>848</ele>
      </trkpt>
      <trkpt lat="44.83428" lon="5.71677">
        <ele>843</ele>
      </trkpt>
      <trkpt lat="44.83396" lon="5.71751">
        <ele>844</ele>
      </trkpt>
      <trkpt lat="44.83222" lon="5.71696">
        <ele>837</ele>
      </trkpt>
      <trkpt lat="44.83088" lon="5.71684">
        <ele>826</ele>
      </trkpt>
      <trkpt lat="44.83041" lon="5.71663">
        <ele>821</ele>
      </trkpt>
      <trkpt lat="44.8304" lon="5.71618">
        <ele>818</ele>
      </trkpt>
      <trkpt lat="44.83025" lon="5.71598">
        <ele>815</ele>
      </trkpt>
      <trkpt lat="44.82933" lon="5.71577">
        <ele>805</ele>
      </trkpt>
      <trkpt lat="44.82794" lon="5.71562">
        <ele>797</ele>
      </trkpt>
      <trkpt lat="44.82746" lon="5.71525">
        <ele>797</ele>
      </trkpt>
      <trkpt lat="44.82645" lon="5.71446">
        <ele>792</ele>
      </trkpt>
      <trkpt lat="44.82559" lon="5.71444">
        <ele>784</ele>
      </trkpt>
      <trkpt lat="44.82482" lon="5.71385">
        <ele>778</ele>
      </trkpt>
      <trkpt lat="44.82423" lon="5.71407">
        <ele>771</ele>
      </trkpt>
      <trkpt lat="44.82399" lon="5.71377">
        <ele>768</ele>
      </trkpt>
      <trkpt lat="44.82382" lon="5.71193">
        <ele>780</ele>
      </trkpt>
      <trkpt lat="44.82358" lon="5.71093">
        <ele>771</ele>
      </trkpt>
      <trkpt lat="44.82311" lon="5.70888">
        <ele>757</ele>
      </trkpt>
      <trkpt lat="44.82332" lon="5.70766">
        <ele>755</ele>
      </trkpt>
      <trkpt lat="44.82296" lon="5.70716">
        <ele>745</ele>
      </trkpt>
      <trkpt lat="44.82255" lon="5.70638">
        <ele>740</ele>
      </trkpt>
      <trkpt lat="44.82224" lon="5.70639">
        <ele>735</ele>
      </trkpt>
      <trkpt lat="44.82171" lon="5.70604">
        <ele>728</ele>
      </trkpt>
      <trkpt lat="44.82144" lon="5.70536">
        <ele>726</ele>
      </trkpt>
      <trkpt lat="44.82109" lon="5.70493">
        <ele>725</ele>
      </trkpt>
      <trkpt lat="44.82059" lon="5.7044">
        <ele>722</ele>
      </trkpt>
      <trkpt lat="44.81993" lon="5.70391">
        <ele>720</ele>
      </trkpt>
      <trkpt lat="44.81987" lon="5.70423">
        <ele>719</ele>
      </trkpt>
      <trkpt lat="44.81985" lon="5.70495">
        <ele>733</ele>
      </trkpt>
      <trkpt lat="44.81942" lon="5.70499">
        <ele>732</ele>
      </trkpt>
      <trkpt lat="44.81882" lon="5.70495">
        <ele>725</ele>
      </trkpt>
      <trkpt lat="44.81855" lon="5.70497">
        <ele>724</ele>
      </trkpt>
      <trkpt lat="44.81817" lon="5.7046">
        <ele>718</ele>
      </trkpt>
      <trkpt lat="44.81775" lon="5.70464">
        <ele>723</ele>
      </trkpt>
      <trkpt lat="44.8173" lon="5.70439">
        <ele>730</ele>
      </trkpt>
      <trkpt lat="44.81714" lon="5.70375">
        <ele>719</ele>
      </trkpt>
      <trkpt lat="44.81656" lon="5.70222">
        <ele>720</ele>
      </trkpt>
      <trkpt lat="44.81588" lon="5.70101">
        <ele>728</ele>
      </trkpt>
      <trkpt lat="44.81574" lon="5.70101">
        <ele>732</ele>
      </trkpt>
      <trkpt lat="44.81488" lon="5.70178">
        <ele>743</ele>
      </trkpt>
      <trkpt lat="44.81455" lon="5.70169">
        <ele>735</ele>
      </trkpt>
      <trkpt lat="44.81382" lon="5.7014">
        <ele>721</ele>
      </trkpt>
      <trkpt lat="44.81295" lon="5.70087">
        <ele>709</ele>
      </trkpt>
      <trkpt lat="44.81171" lon="5.70108">
        <ele>703</ele>
      </trkpt>
      <trkpt lat="44.81112" lon="5.70114">
        <ele>693</ele>
      </trkpt>
      <trkpt lat="44.81068" lon="5.7008">
        <ele>682</ele>
      </trkpt>
      <trkpt lat="44.8098" lon="5.70106">
        <ele>662</ele>
      </trkpt>
      <trkpt lat="44.80922" lon="5.70156">
        <ele>650</ele>
      </trkpt>
      <trkpt lat="44.8085" lon="5.70158">
        <ele>641</ele>
      </trkpt>
      <trkpt lat="44.80852" lon="5.70086">
        <ele>640</ele>
      </trkpt>
      <trkpt lat="44.80812" lon="5.70067">
        <ele>638</ele>
      </trkpt>
      <trkpt lat="44.80777" lon="5.70021">
        <ele>639</ele>
      </trkpt>
      <trkpt lat="44.80767" lon="5.69926">
        <ele>639</ele>
      </trkpt>
      <trkpt lat="44.8076" lon="5.69846">
        <ele>640</ele>
      </trkpt>
      <trkpt lat="44.80781" lon="5.69762">
        <ele>637</ele>
      </trkpt>
      <trkpt lat="44.80771" lon="5.69733">
        <ele>640</ele>
      </trkpt>
      <trkpt lat="44.80701" lon="5.69877">
        <ele>656</ele>
      </trkpt>
      <trkpt lat="44.80638" lon="5.70076">
        <ele>668</ele>
      </trkpt>
      <trkpt lat="44.80576" lon="5.70192">
        <ele>677</ele>
      </trkpt>
      <trkpt lat="44.80495" lon="5.70194">
        <ele>694</ele>
      </trkpt>
      <trkpt lat="44.80433" lon="5.70178">
        <ele>703</ele>
      </trkpt>
      <trkpt lat="44.80285" lon="5.70162">
        <ele>716</ele>
      </trkpt>
      <trkpt lat="44.80151" lon="5.7011">
        <ele>728</ele>
      </trkpt>
      <trkpt lat="44.80005" lon="5.70032">
        <ele>739</ele>
      </trkpt>
      <trkpt lat="44.79943" lon="5.70009">
        <ele>742</ele>
      </trkpt>
      <trkpt lat="44.79829" lon="5.70046">
        <ele>744</ele>
      </trkpt>
      <trkpt lat="44.79647" lon="5.69972">
        <ele>748</ele>
      </trkpt>
      <trkpt lat="44.79576" lon="5.69924">
        <ele>753</ele>
      </trkpt>
      <trkpt lat="44.79473" lon="5.69924">
        <ele>755</ele>
      </trkpt>
      <trkpt lat="44.79352" lon="5.69891">
        <ele>762</ele>
      </trkpt>
      <trkpt lat="44.79174" lon="5.6983">
        <ele>754</ele>
      </trkpt>
      <trkpt lat="44.79157" lon="5.69785">
        <ele>746</ele>
      </trkpt>
      <trkpt lat="44.79098" lon="5.69674">
        <ele>740</ele>
      </trkpt>
      <trkpt lat="44.79087" lon="5.69591">
        <ele>742</ele>
      </trkpt>
      <trkpt lat="44.78998" lon="5.6956">
        <ele>753</ele>
      </trkpt>
      <trkpt lat="44.78986" lon="5.69496">
        <ele>758</ele>
      </trkpt>
      <trkpt lat="44.79064" lon="5.69438">
        <ele>754</ele>
      </trkpt>
      <trkpt lat="44.79048" lon="5.69393">
        <ele>755</ele>
      </trkpt>
      <trkpt lat="44.78994" lon="5.69377">
        <ele>757</ele>
      </trkpt>
      <trkpt lat="44.78941" lon="5.69336">
        <ele>754</ele>
      </trkpt>
      <trkpt lat="44.78915" lon="5.69176">
        <ele>746</ele>
      </trkpt>
      <trkpt lat="44.7888" lon="5.68984">
        <ele>741</ele>
      </trkpt>
      <trkpt lat="44.78821" lon="5.68703">
        <ele>739</ele>
      </trkpt>
      <trkpt lat="44.78771" lon="5.6858">
        <ele>741</ele>
      </trkpt>
      <trkpt lat="44.78725" lon="5.68469">
        <ele>732</ele>
      </trkpt>
      <trkpt lat="44.78653" lon="5.6832">
        <ele>698</ele>
      </trkpt>
      <trkpt lat="44.78627" lon="5.68286">
        <ele>690</ele>
      </trkpt>
      <trkpt lat="44.786" lon="5.68285">
        <ele>688</ele>
      </trkpt>
      <trkpt lat="44.78593" lon="5.68209">
        <ele>682</ele>
      </trkpt>
      <trkpt lat="44.78427" lon="5.68192">
        <ele>680</ele>
      </trkpt>
      <trkpt lat="44.78506" lon="5.68115">
        <ele>680</ele>
      </trkpt>
      <trkpt lat="44.78425" lon="5.68123">
        <ele>686</ele>
      </trkpt>
      <trkpt lat="44.78408" lon="5.68077">
        <ele>692</ele>
      </trkpt>
      <trkpt lat="44.78468" lon="5.68024">
        <ele>698</ele>
      </trkpt>
      <trkpt lat="44.7853" lon="5.68047">
        <ele>685</ele>
      </trkpt>
      <trkpt lat="44.78677" lon="5.67973">
        <ele>691</ele>
      </trkpt>
      <trkpt lat="44.78769" lon="5.67903">
        <ele>684</ele>
      </trkpt>
      <trkpt lat="44.78944" lon="5.67914">
        <ele>671</ele>
      </trkpt>
      <trkpt lat="44.79058" lon="5.67876">
        <ele>666</ele>
      </trkpt>
      <trkpt lat="44.79162" lon="5.67712">
        <ele>682</ele>
      </trkpt>
      <trkpt lat="44.79266" lon="5.67553">
        <ele>691</ele>
      </trkpt>
      <trkpt lat="44.7927" lon="5.67396">
        <ele>710</ele>
      </trkpt>
      <trkpt lat="44.79226" lon="5.67368">
        <ele>720</ele>
      </trkpt>
      <trkpt lat="44.79224" lon="5.67286">
        <ele>723</ele>
      </trkpt>
      <trkpt lat="44.792" lon="5.67177">
        <ele>728</ele>
      </trkpt>
      <trkpt lat="44.79226" lon="5.6709">
        <ele>730</ele>
      </trkpt>
      <trkpt lat="44.79241" lon="5.66869">
        <ele>725</ele>
      </trkpt>
      <trkpt lat="44.7912" lon="5.67001">
        <ele>742</ele>
      </trkpt>
      <trkpt lat="44.79092" lon="5.67195">
        <ele>746</ele>
      </trkpt>
      <trkpt lat="44.79051" lon="5.67351">
        <ele>746</ele>
      </trkpt>
      <trkpt lat="44.78925" lon="5.67502">
        <ele>754</ele>
      </trkpt>
      <trkpt lat="44.78902" lon="5.67222">
        <ele>766</ele>
      </trkpt>
      <trkpt lat="44.78804" lon="5.67046">
        <ele>778</ele>
      </trkpt>
      <trkpt lat="44.78741" lon="5.6689">
        <ele>780</ele>
      </trkpt>
      <trkpt lat="44.78746" lon="5.66568">
        <ele>766</ele>
      </trkpt>
      <trkpt lat="44.78885" lon="5.66431">
        <ele>761</ele>
      </trkpt>
      <trkpt lat="44.78885" lon="5.66279">
        <ele>757</ele>
      </trkpt>
      <trkpt lat="44.78882" lon="5.66096">
        <ele>757</ele>
      </trkpt>
      <trkpt lat="44.78925" lon="5.6601">
        <ele>748</ele>
      </trkpt>
      <trkpt lat="44.78923" lon="5.65776">
        <ele>755</ele>
      </trkpt>
      <trkpt lat="44.79089" lon="5.65798">
        <ele>745</ele>
      </trkpt>
      <trkpt lat="44.79019" lon="5.65567">
        <ele>756</ele>
      </trkpt>
      <trkpt lat="44.79069" lon="5.65582">
        <ele>754</ele>
      </trkpt>
      <trkpt lat="44.79092" lon="5.65539">
        <ele>756</ele>
      </trkpt>
      <trkpt lat="44.79095" lon="5.65457">
        <ele>760</ele>
      </trkpt>
      <trkpt lat="44.79131" lon="5.65459">
        <ele>772</ele>
      </trkpt>
      <trkpt lat="44.7917" lon="5.65645">
        <ele>770</ele>
      </trkpt>
      <trkpt lat="44.79288" lon="5.65911">
        <ele>765</ele>
      </trkpt>
      <trkpt lat="44.7935" lon="5.65959">
        <ele>769</ele>
      </trkpt>
      <trkpt lat="44.79426" lon="5.65951">
        <ele>779</ele>
      </trkpt>
      <trkpt lat="44.79469" lon="5.6589">
        <ele>786</ele>
      </trkpt>
      <trkpt lat="44.79496" lon="5.65734">
        <ele>786</ele>
      </trkpt>
      <trkpt lat="44.79557" lon="5.65339">
        <ele>766</ele>
      </trkpt>
      <trkpt lat="44.79923" lon="5.65152">
        <ele>720</ele>
      </trkpt>
      <trkpt lat="44.79952" lon="5.64952">
        <ele>753</ele>
      </trkpt>
      <trkpt lat="44.79979" lon="5.64783">
        <ele>772</ele>
      </trkpt>
      <trkpt lat="44.79993" lon="5.64619">
        <ele>783</ele>
      </trkpt>
      <trkpt lat="44.80093" lon="5.64442">
        <ele>771</ele>
      </trkpt>
      <trkpt lat="44.80151" lon="5.64306">
        <ele>769</ele>
      </trkpt>
      <trkpt lat="44.80314" lon="5.64132">
        <ele>778</ele>
      </trkpt>
      <trkpt lat="44.80449" lon="5.63982">
        <ele>796</ele>
      </trkpt>
      <trkpt lat="44.80576" lon="5.63958">
        <ele>802</ele>
      </trkpt>
      <trkpt lat="44.80753" lon="5.6376">
        <ele>788</ele>
      </trkpt>
      <trkpt lat="44.80846" lon="5.63658">
        <ele>777</ele>
      </trkpt>
      <trkpt lat="44.80951" lon="5.63588">
        <ele>763</ele>
      </trkpt>
      <trkpt lat="44.81073" lon="5.63577">
        <ele>755</ele>
      </trkpt>
      <trkpt lat="44.81089" lon="5.63514">
        <ele>756</ele>
      </trkpt>
      <trkpt lat="44.812" lon="5.63388">
        <ele>767</ele>
      </trkpt>
      <trkpt lat="44.81274" lon="5.63348">
        <ele>776</ele>
      </trkpt>
      <trkpt lat="44.81384" lon="5.6326">
        <ele>792</ele>
      </trkpt>
      <trkpt lat="44.81425" lon="5.63262">
        <ele>798</ele>
      </trkpt>
      <trkpt lat="44.81473" lon="5.63145">
        <ele>809</ele>
      </trkpt>
      <trkpt lat="44.815" lon="5.63146">
        <ele>811</ele>
      </trkpt>
      <trkpt lat="44.81491" lon="5.62861">
        <ele>836</ele>
      </trkpt>
      <trkpt lat="44.81572" lon="5.62835">
        <ele>833</ele>
      </trkpt>
      <trkpt lat="44.81661" lon="5.6272">
        <ele>837</ele>
      </trkpt>
      <trkpt lat="44.81678" lon="5.62607">
        <ele>836</ele>
      </trkpt>
      <trkpt lat="44.81702" lon="5.624">
        <ele>838</ele>
      </trkpt>
      <trkpt lat="44.81697" lon="5.62285">
        <ele>854</ele>
      </trkpt>
      <trkpt lat="44.81613" lon="5.62242">
        <ele>862</ele>
      </trkpt>
      <trkpt lat="44.81577" lon="5.62063">
        <ele>889</ele>
      </trkpt>
    </trkseg>
  </trk>
  <trk>
    <name><![CDATA[Genevreys-Ecuries Cornillon]]></name>
    <trkseg>
      <trkpt lat="44.87999" lon="5.7416">
        <ele>856</ele>
      </trkpt>
      <trkpt lat="44.87851" lon="5.74132">
        <ele>823</ele>
      </trkpt>
      <trkpt lat="44.87731" lon="5.7408">
        <ele>799</ele>
      </trkpt>
      <trkpt lat="44.87581" lon="5.73862">
        <ele>769</ele>
      </trkpt>
      <trkpt lat="44.87593" lon="5.73736">
        <ele>752</ele>
      </trkpt>
      <trkpt lat="44.87464" lon="5.73564">
        <ele>719</ele>
      </trkpt>
      <trkpt lat="44.87453" lon="5.73487">
        <ele>702</ele>
      </trkpt>
      <trkpt lat="44.87403" lon="5.73484">
        <ele>696</ele>
      </trkpt>
      <trkpt lat="44.87267" lon="5.73381">
        <ele>664</ele>
      </trkpt>
      <trkpt lat="44.87171" lon="5.73413">
        <ele>654</ele>
      </trkpt>
      <trkpt lat="44.87194" lon="5.73547">
        <ele>658</ele>
      </trkpt>
      <trkpt lat="44.87147" lon="5.73621">
        <ele>648</ele>
      </trkpt>
      <trkpt lat="44.8712" lon="5.73758">
        <ele>645</ele>
      </trkpt>
      <trkpt lat="44.87078" lon="5.73958">
        <ele>636</ele>
      </trkpt>
      <trkpt lat="44.87039" lon="5.74063">
        <ele>624</ele>
      </trkpt>
      <trkpt lat="44.87037" lon="5.74133">
        <ele>636</ele>
      </trkpt>
      <trkpt lat="44.86966" lon="5.74217">
        <ele>597</ele>
      </trkpt>
      <trkpt lat="44.87089" lon="5.74478">
        <ele>596</ele>
      </trkpt>
      <trkpt lat="44.87062" lon="5.74616">
        <ele>593</ele>
      </trkpt>
      <trkpt lat="44.87055" lon="5.74843">
        <ele>592</ele>
      </trkpt>
      <trkpt lat="44.87087" lon="5.74991">
        <ele>588</ele>
      </trkpt>
      <trkpt lat="44.87115" lon="5.75252">
        <ele>574</ele>
      </trkpt>
      <trkpt lat="44.87172" lon="5.75445">
        <ele>579</ele>
      </trkpt>
      <trkpt lat="44.87228" lon="5.75664">
        <ele>581</ele>
      </trkpt>
      <trkpt lat="44.87291" lon="5.75807">
        <ele>605</ele>
      </trkpt>
      <trkpt lat="44.8728" lon="5.75882">
        <ele>590</ele>
      </trkpt>
      <trkpt lat="44.87312" lon="5.75986">
        <ele>596</ele>
      </trkpt>
      <trkpt lat="44.87408" lon="5.76105">
        <ele>628</ele>
      </trkpt>
      <trkpt lat="44.87408" lon="5.76257">
        <ele>629</ele>
      </trkpt>
      <trkpt lat="44.87433" lon="5.7631">
        <ele>643</ele>
      </trkpt>
      <trkpt lat="44.8743" lon="5.76392">
        <ele>639</ele>
      </trkpt>
      <trkpt lat="44.87471" lon="5.76521">
        <ele>650</ele>
      </trkpt>
      <trkpt lat="44.87473" lon="5.76616">
        <ele>653</ele>
      </trkpt>
      <trkpt lat="44.87431" lon="5.76797">
        <ele>627</ele>
      </trkpt>
      <trkpt lat="44.87464" lon="5.77033">
        <ele>614</ele>
      </trkpt>
      <trkpt lat="44.87548" lon="5.77102">
        <ele>594</ele>
      </trkpt>
      <trkpt lat="44.87655" lon="5.77127">
        <ele>573</ele>
      </trkpt>
      <trkpt lat="44.876" lon="5.77155">
        <ele>570</ele>
      </trkpt>
      <trkpt lat="44.87427" lon="5.77221">
        <ele>558</ele>
      </trkpt>
      <trkpt lat="44.87524" lon="5.77277">
        <ele>544</ele>
      </trkpt>
      <trkpt lat="44.87434" lon="5.77303">
        <ele>530</ele>
      </trkpt>
      <trkpt lat="44.87432" lon="5.7736">
        <ele>516</ele>
      </trkpt>
      <trkpt lat="44.87389" lon="5.77301">
        <ele>528</ele>
      </trkpt>
      <trkpt lat="44.87374" lon="5.77344">
        <ele>517</ele>
      </trkpt>
      <trkpt lat="44.87334" lon="5.7731">
        <ele>513</ele>
      </trkpt>
      <trkpt lat="44.87329" lon="5.77341">
        <ele>509</ele>
      </trkpt>
      <trkpt lat="44.87261" lon="5.77337">
        <ele>502</ele>
      </trkpt>
      <trkpt lat="44.8725" lon="5.77286">
        <ele>503</ele>
      </trkpt>
      <trkpt lat="44.87186" lon="5.77155">
        <ele>514</ele>
      </trkpt>
      <trkpt lat="44.87218" lon="5.76993">
        <ele>511</ele>
      </trkpt>
      <trkpt lat="44.87192" lon="5.76959">
        <ele>521</ele>
      </trkpt>
      <trkpt lat="44.87132" lon="5.77">
        <ele>533</ele>
      </trkpt>
      <trkpt lat="44.87102" lon="5.771">
        <ele>532</ele>
      </trkpt>
      <trkpt lat="44.87048" lon="5.77261">
        <ele>543</ele>
      </trkpt>
      <trkpt lat="44.8704" lon="5.77349">
        <ele>556</ele>
      </trkpt>
      <trkpt lat="44.87079" lon="5.77567">
        <ele>588</ele>
      </trkpt>
      <trkpt lat="44.87007" lon="5.77417">
        <ele>587</ele>
      </trkpt>
      <trkpt lat="44.86933" lon="5.77323">
        <ele>598</ele>
      </trkpt>
      <trkpt lat="44.86877" lon="5.77244">
        <ele>604</ele>
      </trkpt>
      <trkpt lat="44.86732" lon="5.77146">
        <ele>625</ele>
      </trkpt>
      <trkpt lat="44.86678" lon="5.77143">
        <ele>635</ele>
      </trkpt>
      <trkpt lat="44.86586" lon="5.77061">
        <ele>652</ele>
      </trkpt>
      <trkpt lat="44.866" lon="5.77189">
        <ele>661</ele>
      </trkpt>
      <trkpt lat="44.86635" lon="5.77362">
        <ele>682</ele>
      </trkpt>
      <trkpt lat="44.86692" lon="5.7741">
        <ele>671</ele>
      </trkpt>
      <trkpt lat="44.86654" lon="5.77623">
        <ele>685</ele>
      </trkpt>
      <trkpt lat="44.866" lon="5.77619">
        <ele>698</ele>
      </trkpt>
      <trkpt lat="44.86434" lon="5.77603">
        <ele>737</ele>
      </trkpt>
      <trkpt lat="44.86285" lon="5.77473">
        <ele>768</ele>
      </trkpt>
      <trkpt lat="44.86207" lon="5.77367">
        <ele>775</ele>
      </trkpt>
      <trkpt lat="44.86073" lon="5.77207">
        <ele>783</ele>
      </trkpt>
      <trkpt lat="44.85987" lon="5.77075">
        <ele>791</ele>
      </trkpt>
      <trkpt lat="44.85934" lon="5.76901">
        <ele>802</ele>
      </trkpt>
      <trkpt lat="44.85818" lon="5.76717">
        <ele>815</ele>
      </trkpt>
      <trkpt lat="44.85752" lon="5.76498">
        <ele>817</ele>
      </trkpt>
      <trkpt lat="44.85722" lon="5.76331">
        <ele>818</ele>
      </trkpt>
      <trkpt lat="44.85631" lon="5.76212">
        <ele>813</ele>
      </trkpt>
      <trkpt lat="44.8549" lon="5.76095">
        <ele>815</ele>
      </trkpt>
      <trkpt lat="44.85305" lon="5.76068">
        <ele>824</ele>
      </trkpt>
      <trkpt lat="44.85346" lon="5.76194">
        <ele>822</ele>
      </trkpt>
      <trkpt lat="44.85318" lon="5.76218">
        <ele>822</ele>
      </trkpt>
      <trkpt lat="44.85305" lon="5.76286">
        <ele>823</ele>
      </trkpt>
      <trkpt lat="44.8528" lon="5.76481">
        <ele>824</ele>
      </trkpt>
      <trkpt lat="44.85278" lon="5.76693">
        <ele>824</ele>
      </trkpt>
      <trkpt lat="44.85282" lon="5.76861">
        <ele>824</ele>
      </trkpt>
      <trkpt lat="44.85249" lon="5.76925">
        <ele>825</ele>
      </trkpt>
      <trkpt lat="44.85213" lon="5.7699">
        <ele>825</ele>
      </trkpt>
      <trkpt lat="44.85139" lon="5.77112">
        <ele>822</ele>
      </trkpt>
      <trkpt lat="44.8509" lon="5.77181">
        <ele>820</ele>
      </trkpt>
      <trkpt lat="44.85034" lon="5.77229">
        <ele>819</ele>
      </trkpt>
      <trkpt lat="44.84967" lon="5.77294">
        <ele>819</ele>
      </trkpt>
      <trkpt lat="44.84906" lon="5.77366">
        <ele>827</ele>
      </trkpt>
      <trkpt lat="44.84862" lon="5.77417">
        <ele>834</ele>
      </trkpt>
      <trkpt lat="44.84836" lon="5.77473">
        <ele>842</ele>
      </trkpt>
      <trkpt lat="44.84884" lon="5.77564">
        <ele>850</ele>
      </trkpt>
      <trkpt lat="44.84912" lon="5.77626">
        <ele>859</ele>
      </trkpt>
      <trkpt lat="44.84921" lon="5.77687">
        <ele>871</ele>
      </trkpt>
      <trkpt lat="44.84912" lon="5.77626">
        <ele>859</ele>
      </trkpt>
      <trkpt lat="44.84884" lon="5.77564">
        <ele>850</ele>
      </trkpt>
      <trkpt lat="44.84836" lon="5.77473">
        <ele>842</ele>
      </trkpt>
      <trkpt lat="44.84796" lon="5.77451">
        <ele>841</ele>
      </trkpt>
      <trkpt lat="44.84705" lon="5.77411">
        <ele>846</ele>
      </trkpt>
      <trkpt lat="44.84625" lon="5.77381">
        <ele>852</ele>
      </trkpt>
      <trkpt lat="44.84593" lon="5.77322">
        <ele>851</ele>
      </trkpt>
      <trkpt lat="44.84542" lon="5.77344">
        <ele>859</ele>
      </trkpt>
      <trkpt lat="44.84506" lon="5.77345">
        <ele>864</ele>
      </trkpt>
      <trkpt lat="44.84423" lon="5.7734">
        <ele>876</ele>
      </trkpt>
      <trkpt lat="44.84395" lon="5.77392">
        <ele>883</ele>
      </trkpt>
      <trkpt lat="44.84361" lon="5.77402">
        <ele>893</ele>
      </trkpt>
      <trkpt lat="44.84318" lon="5.77469">
        <ele>911</ele>
      </trkpt>
      <trkpt lat="44.84305" lon="5.77532">
        <ele>918</ele>
      </trkpt>
      <trkpt lat="44.84301" lon="5.77661">
        <ele>946</ele>
      </trkpt>
      <trkpt lat="44.8428" lon="5.77676">
        <ele>955</ele>
      </trkpt>
      <trkpt lat="44.84237" lon="5.77616">
        <ele>959</ele>
      </trkpt>
      <trkpt lat="44.84166" lon="5.77501">
        <ele>977</ele>
      </trkpt>
      <trkpt lat="44.84112" lon="5.77358">
        <ele>1005</ele>
      </trkpt>
      <trkpt lat="44.84063" lon="5.77213">
        <ele>1027</ele>
      </trkpt>
      <trkpt lat="44.84065" lon="5.7714">
        <ele>1034</ele>
      </trkpt>
      <trkpt lat="44.84057" lon="5.77026">
        <ele>1054</ele>
      </trkpt>
      <trkpt lat="44.84033" lon="5.77006">
        <ele>1066</ele>
      </trkpt>
      <trkpt lat="44.83946" lon="5.76972">
        <ele>1067</ele>
      </trkpt>
      <trkpt lat="44.83918" lon="5.76938">
        <ele>1055</ele>
      </trkpt>
      <trkpt lat="44.83835" lon="5.76867">
        <ele>1044</ele>
      </trkpt>
      <trkpt lat="44.83738" lon="5.76801">
        <ele>1036</ele>
      </trkpt>
      <trkpt lat="44.83679" lon="5.76728">
        <ele>1019</ele>
      </trkpt>
      <trkpt lat="44.836" lon="5.76669">
        <ele>1005</ele>
      </trkpt>
      <trkpt lat="44.83569" lon="5.76594">
        <ele>1000</ele>
      </trkpt>
      <trkpt lat="44.83509" lon="5.76483">
        <ele>990</ele>
      </trkpt>
      <trkpt lat="44.83491" lon="5.764">
        <ele>982</ele>
      </trkpt>
      <trkpt lat="44.83485" lon="5.76248">
        <ele>971</ele>
      </trkpt>
      <trkpt lat="44.83468" lon="5.76155">
        <ele>967</ele>
      </trkpt>
      <trkpt lat="44.83471" lon="5.76044">
        <ele>962</ele>
      </trkpt>
      <trkpt lat="44.835" lon="5.75891">
        <ele>956</ele>
      </trkpt>
      <trkpt lat="44.83505" lon="5.75822">
        <ele>957</ele>
      </trkpt>
      <trkpt lat="44.83506" lon="5.7579">
        <ele>958</ele>
      </trkpt>
      <trkpt lat="44.83559" lon="5.75667">
        <ele>950</ele>
      </trkpt>
      <trkpt lat="44.83632" lon="5.7557">
        <ele>942</ele>
      </trkpt>
      <trkpt lat="44.8369" lon="5.7551">
        <ele>938</ele>
      </trkpt>
      <trkpt lat="44.83712" lon="5.75461">
        <ele>937</ele>
      </trkpt>
      <trkpt lat="44.83804" lon="5.75391">
        <ele>923</ele>
      </trkpt>
      <trkpt lat="44.83826" lon="5.75351">
        <ele>925</ele>
      </trkpt>
      <trkpt lat="44.83859" lon="5.75204">
        <ele>946</ele>
      </trkpt>
      <trkpt lat="44.83864" lon="5.75116">
        <ele>954</ele>
      </trkpt>
      <trkpt lat="44.83865" lon="5.74936">
        <ele>953</ele>
      </trkpt>
      <trkpt lat="44.83872" lon="5.74728">
        <ele>961</ele>
      </trkpt>
      <trkpt lat="44.83937" lon="5.74646">
        <ele>957</ele>
      </trkpt>
      <trkpt lat="44.84037" lon="5.74557">
        <ele>962</ele>
      </trkpt>
      <trkpt lat="44.84097" lon="5.74577">
        <ele>961</ele>
      </trkpt>
      <trkpt lat="44.84152" lon="5.74539">
        <ele>957</ele>
      </trkpt>
      <trkpt lat="44.8424" lon="5.74453">
        <ele>925</ele>
      </trkpt>
      <trkpt lat="44.84299" lon="5.74384">
        <ele>909</ele>
      </trkpt>
      <trkpt lat="44.8425" lon="5.74365">
        <ele>922</ele>
      </trkpt>
      <trkpt lat="44.8418" lon="5.74357">
        <ele>926</ele>
      </trkpt>
      <trkpt lat="44.84158" lon="5.74293">
        <ele>914</ele>
      </trkpt>
      <trkpt lat="44.84185" lon="5.74209">
        <ele>893</ele>
      </trkpt>
      <trkpt lat="44.84187" lon="5.74152">
        <ele>884</ele>
      </trkpt>
      <trkpt lat="44.84205" lon="5.74134">
        <ele>877</ele>
      </trkpt>
      <trkpt lat="44.84246" lon="5.74127">
        <ele>864</ele>
      </trkpt>
      <trkpt lat="44.84236" lon="5.74092">
        <ele>860</ele>
      </trkpt>
      <trkpt lat="44.84242" lon="5.74048">
        <ele>850</ele>
      </trkpt>
      <trkpt lat="44.84197" lon="5.73972">
        <ele>852</ele>
      </trkpt>
      <trkpt lat="44.84201" lon="5.73922">
        <ele>842</ele>
      </trkpt>
      <trkpt lat="44.84165" lon="5.73917">
        <ele>849</ele>
      </trkpt>
      <trkpt lat="44.84121" lon="5.73863">
        <ele>843</ele>
      </trkpt>
      <trkpt lat="44.84093" lon="5.73754">
        <ele>825</ele>
      </trkpt>
      <trkpt lat="44.84174" lon="5.73756">
        <ele>812</ele>
      </trkpt>
      <trkpt lat="44.84272" lon="5.7373">
        <ele>795</ele>
      </trkpt>
      <trkpt lat="44.84307" lon="5.73751">
        <ele>792</ele>
      </trkpt>
      <trkpt lat="44.84334" lon="5.73756">
        <ele>789</ele>
      </trkpt>
      <trkpt lat="44.84398" lon="5.73716">
        <ele>785</ele>
      </trkpt>
      <trkpt lat="44.8441" lon="5.73622">
        <ele>775</ele>
      </trkpt>
      <trkpt lat="44.84535" lon="5.73582">
        <ele>763</ele>
      </trkpt>
      <trkpt lat="44.84694" lon="5.73481">
        <ele>749</ele>
      </trkpt>
      <trkpt lat="44.8472" lon="5.73428">
        <ele>759</ele>
      </trkpt>
      <trkpt lat="44.84831" lon="5.7346">
        <ele>762</ele>
      </trkpt>
      <trkpt lat="44.84869" lon="5.73425">
        <ele>763</ele>
      </trkpt>
      <trkpt lat="44.84985" lon="5.73312">
        <ele>782</ele>
      </trkpt>
      <trkpt lat="44.85073" lon="5.73076">
        <ele>810</ele>
      </trkpt>
      <trkpt lat="44.85246" lon="5.72847">
        <ele>830</ele>
      </trkpt>
      <trkpt lat="44.85378" lon="5.72652">
        <ele>819</ele>
      </trkpt>
      <trkpt lat="44.85458" lon="5.72543">
        <ele>816</ele>
      </trkpt>
      <trkpt lat="44.85545" lon="5.72504">
        <ele>794</ele>
      </trkpt>
      <trkpt lat="44.85578" lon="5.72455">
        <ele>800</ele>
      </trkpt>
      <trkpt lat="44.85628" lon="5.72446">
        <ele>795</ele>
      </trkpt>
      <trkpt lat="44.85881" lon="5.72271">
        <ele>803</ele>
      </trkpt>
      <trkpt lat="44.85953" lon="5.72111">
        <ele>819</ele>
      </trkpt>
      <trkpt lat="44.85978" lon="5.7203">
        <ele>814</ele>
      </trkpt>
      <trkpt lat="44.85932" lon="5.7192">
        <ele>827</ele>
      </trkpt>
      <trkpt lat="44.85878" lon="5.71771">
        <ele>813</ele>
      </trkpt>
      <trkpt lat="44.85938" lon="5.7173">
        <ele>793</ele>
      </trkpt>
      <trkpt lat="44.86055" lon="5.71737">
        <ele>792</ele>
      </trkpt>
      <trkpt lat="44.8617" lon="5.71662">
        <ele>787</ele>
      </trkpt>
      <trkpt lat="44.86163" lon="5.71567">
        <ele>811</ele>
      </trkpt>
      <trkpt lat="44.86113" lon="5.71462">
        <ele>824</ele>
      </trkpt>
      <trkpt lat="44.86168" lon="5.7127">
        <ele>796</ele>
      </trkpt>
      <trkpt lat="44.86109" lon="5.71139">
        <ele>822</ele>
      </trkpt>
      <trkpt lat="44.86062" lon="5.71067">
        <ele>821</ele>
      </trkpt>
      <trkpt lat="44.86046" lon="5.70977">
        <ele>810</ele>
      </trkpt>
      <trkpt lat="44.86117" lon="5.70887">
        <ele>799</ele>
      </trkpt>
      <trkpt lat="44.86041" lon="5.70851">
        <ele>826</ele>
      </trkpt>
      <trkpt lat="44.85939" lon="5.70819">
        <ele>823</ele>
      </trkpt>
      <trkpt lat="44.85808" lon="5.70824">
        <ele>811</ele>
      </trkpt>
      <trkpt lat="44.85778" lon="5.70771">
        <ele>797</ele>
      </trkpt>
      <trkpt lat="44.85711" lon="5.70767">
        <ele>796</ele>
      </trkpt>
      <trkpt lat="44.85585" lon="5.70747">
        <ele>794</ele>
      </trkpt>
      <trkpt lat="44.85453" lon="5.70657">
        <ele>794</ele>
      </trkpt>
      <trkpt lat="44.85322" lon="5.70674">
        <ele>795</ele>
      </trkpt>
      <trkpt lat="44.85119" lon="5.70675">
        <ele>799</ele>
      </trkpt>
      <trkpt lat="44.85" lon="5.70762">
        <ele>795</ele>
      </trkpt>
      <trkpt lat="44.84983" lon="5.70717">
        <ele>791</ele>
      </trkpt>
      <trkpt lat="44.84938" lon="5.70702">
        <ele>788</ele>
      </trkpt>
      <trkpt lat="44.84862" lon="5.70754">
        <ele>787</ele>
      </trkpt>
      <trkpt lat="44.849" lon="5.70864">
        <ele>802</ele>
      </trkpt>
      <trkpt lat="44.84684" lon="5.70997">
        <ele>822</ele>
      </trkpt>
      <trkpt lat="44.84527" lon="5.70987">
        <ele>835</ele>
      </trkpt>
      <trkpt lat="44.84492" lon="5.70941">
        <ele>833</ele>
      </trkpt>
      <trkpt lat="44.84411" lon="5.70942">
        <ele>845</ele>
      </trkpt>
      <trkpt lat="44.84376" lon="5.70908">
        <ele>844</ele>
      </trkpt>
      <trkpt lat="44.84295" lon="5.70904">
        <ele>854</ele>
      </trkpt>
      <trkpt lat="44.84252" lon="5.7085">
        <ele>853</ele>
      </trkpt>
      <trkpt lat="44.8413" lon="5.70868">
        <ele>868</ele>
      </trkpt>
      <trkpt lat="44.84015" lon="5.70792">
        <ele>878</ele>
      </trkpt>
      <trkpt lat="44.84015" lon="5.70792">
        <ele>878</ele>
      </trkpt>
      <trkpt lat="44.84043" lon="5.70914">
        <ele>880</ele>
      </trkpt>
      <trkpt lat="44.84002" lon="5.71082">
        <ele>883</ele>
      </trkpt>
      <trkpt lat="44.83959" lon="5.71016">
        <ele>884</ele>
      </trkpt>
      <trkpt lat="44.83875" lon="5.70967">
        <ele>885</ele>
      </trkpt>
      <trkpt lat="44.83735" lon="5.70965">
        <ele>879</ele>
      </trkpt>
      <trkpt lat="44.83669" lon="5.70923">
        <ele>881</ele>
      </trkpt>
      <trkpt lat="44.83555" lon="5.70827">
        <ele>885</ele>
      </trkpt>
      <trkpt lat="44.83525" lon="5.70775">
        <ele>886</ele>
      </trkpt>
      <trkpt lat="44.83434" lon="5.70814">
        <ele>879</ele>
      </trkpt>
    </trkseg>
  </trk>
  <trk>
    <name><![CDATA[Herbelon Mialaure]]></name>
    <trkseg>
      <trkpt lat="44.89883" lon="5.67359">
        <ele>493</ele>
      </trkpt>
      <trkpt lat="44.89867" lon="5.67364">
        <ele>493</ele>
      </trkpt>
      <trkpt lat="44.89713" lon="5.67412">
        <ele>491</ele>
      </trkpt>
      <trkpt lat="44.89633" lon="5.67375">
        <ele>495</ele>
      </trkpt>
      <trkpt lat="44.89426" lon="5.67363">
        <ele>518</ele>
      </trkpt>
      <trkpt lat="44.89524" lon="5.67249">
        <ele>532</ele>
      </trkpt>
      <trkpt lat="44.89535" lon="5.67192">
        <ele>539</ele>
      </trkpt>
      <trkpt lat="44.89457" lon="5.66934">
        <ele>609</ele>
      </trkpt>
      <trkpt lat="44.89452" lon="5.66807">
        <ele>620</ele>
      </trkpt>
      <trkpt lat="44.89297" lon="5.66437">
        <ele>762</ele>
      </trkpt>
      <trkpt lat="44.89131" lon="5.66244">
        <ele>810</ele>
      </trkpt>
      <trkpt lat="44.88987" lon="5.66089">
        <ele>837</ele>
      </trkpt>
      <trkpt lat="44.8888" lon="5.65912">
        <ele>858</ele>
      </trkpt>
      <trkpt lat="44.88803" lon="5.65945">
        <ele>839</ele>
      </trkpt>
      <trkpt lat="44.88749" lon="5.65942">
        <ele>864</ele>
      </trkpt>
      <trkpt lat="44.88639" lon="5.66005">
        <ele>883</ele>
      </trkpt>
      <trkpt lat="44.88572" lon="5.65982">
        <ele>903</ele>
      </trkpt>
      <trkpt lat="44.88703" lon="5.65813">
        <ele>918</ele>
      </trkpt>
      <trkpt lat="44.8881" lon="5.65699">
        <ele>930</ele>
      </trkpt>
      <trkpt lat="44.8893" lon="5.65592">
        <ele>950</ele>
      </trkpt>
      <trkpt lat="44.8902" lon="5.65452">
        <ele>959</ele>
      </trkpt>
      <trkpt lat="44.89114" lon="5.65337">
        <ele>960</ele>
      </trkpt>
      <trkpt lat="44.89096" lon="5.6519">
        <ele>970</ele>
      </trkpt>
      <trkpt lat="44.89047" lon="5.65149">
        <ele>983</ele>
      </trkpt>
      <trkpt lat="44.89065" lon="5.65018">
        <ele>966</ele>
      </trkpt>
      <trkpt lat="44.89122" lon="5.64907">
        <ele>970</ele>
      </trkpt>
      <trkpt lat="44.89249" lon="5.64864">
        <ele>955</ele>
      </trkpt>
      <trkpt lat="44.8945" lon="5.64781">
        <ele>960</ele>
      </trkpt>
      <trkpt lat="44.8948" lon="5.64681">
        <ele>977</ele>
      </trkpt>
      <trkpt lat="44.89509" lon="5.64468">
        <ele>966</ele>
      </trkpt>
      <trkpt lat="44.8959" lon="5.64314">
        <ele>965</ele>
      </trkpt>
      <trkpt lat="44.89643" lon="5.64178">
        <ele>962</ele>
      </trkpt>
      <trkpt lat="44.89646" lon="5.64083">
        <ele>963</ele>
      </trkpt>
      <trkpt lat="44.89728" lon="5.63904">
        <ele>950</ele>
      </trkpt>
      <trkpt lat="44.89625" lon="5.63892">
        <ele>950</ele>
      </trkpt>
      <trkpt lat="44.8948" lon="5.63934">
        <ele>957</ele>
      </trkpt>
      <trkpt lat="44.89363" lon="5.63927">
        <ele>957</ele>
      </trkpt>
      <trkpt lat="44.8931" lon="5.63886">
        <ele>941</ele>
      </trkpt>
      <trkpt lat="44.8922" lon="5.63881">
        <ele>922</ele>
      </trkpt>
      <trkpt lat="44.89107" lon="5.63899">
        <ele>895</ele>
      </trkpt>
      <trkpt lat="44.89109" lon="5.63836">
        <ele>887</ele>
      </trkpt>
      <trkpt lat="44.89139" lon="5.63743">
        <ele>881</ele>
      </trkpt>
      <trkpt lat="44.89099" lon="5.63728">
        <ele>867</ele>
      </trkpt>
      <trkpt lat="44.89021" lon="5.63767">
        <ele>852</ele>
      </trkpt>
      <trkpt lat="44.88893" lon="5.6383">
        <ele>823</ele>
      </trkpt>
      <trkpt lat="44.88747" lon="5.63903">
        <ele>791</ele>
      </trkpt>
      <trkpt lat="44.88744" lon="5.6384">
        <ele>780</ele>
      </trkpt>
      <trkpt lat="44.88801" lon="5.63754">
        <ele>778</ele>
      </trkpt>
      <trkpt lat="44.88917" lon="5.63647">
        <ele>788</ele>
      </trkpt>
      <trkpt lat="44.88965" lon="5.63543">
        <ele>779</ele>
      </trkpt>
      <trkpt lat="44.88934" lon="5.63363">
        <ele>761</ele>
      </trkpt>
      <trkpt lat="44.889" lon="5.63159">
        <ele>747</ele>
      </trkpt>
      <trkpt lat="44.88787" lon="5.63152">
        <ele>741</ele>
      </trkpt>
      <trkpt lat="44.88758" lon="5.63093">
        <ele>751</ele>
      </trkpt>
      <trkpt lat="44.88693" lon="5.63007">
        <ele>759</ele>
      </trkpt>
      <trkpt lat="44.88607" lon="5.63002">
        <ele>758</ele>
      </trkpt>
      <trkpt lat="44.88525" lon="5.63035">
        <ele>764</ele>
      </trkpt>
      <trkpt lat="44.88529" lon="5.62903">
        <ele>766</ele>
      </trkpt>
      <trkpt lat="44.88562" lon="5.62867">
        <ele>767</ele>
      </trkpt>
      <trkpt lat="44.88659" lon="5.6279">
        <ele>764</ele>
      </trkpt>
      <trkpt lat="44.88652" lon="5.62726">
        <ele>756</ele>
      </trkpt>
      <trkpt lat="44.88503" lon="5.62711">
        <ele>741</ele>
      </trkpt>
      <trkpt lat="44.88473" lon="5.62659">
        <ele>744</ele>
      </trkpt>
      <trkpt lat="44.88463" lon="5.62544">
        <ele>750</ele>
      </trkpt>
      <trkpt lat="44.88538" lon="5.62441">
        <ele>762</ele>
      </trkpt>
      <trkpt lat="44.88591" lon="5.62336">
        <ele>769</ele>
      </trkpt>
      <trkpt lat="44.88567" lon="5.6224">
        <ele>770</ele>
      </trkpt>
      <trkpt lat="44.88475" lon="5.62165">
        <ele>768</ele>
      </trkpt>
      <trkpt lat="44.88388" lon="5.62192">
        <ele>767</ele>
      </trkpt>
      <trkpt lat="44.88278" lon="5.62274">
        <ele>762</ele>
      </trkpt>
      <trkpt lat="44.88137" lon="5.62303">
        <ele>770</ele>
      </trkpt>
      <trkpt lat="44.88012" lon="5.62435">
        <ele>774</ele>
      </trkpt>
      <trkpt lat="44.87973" lon="5.62547">
        <ele>779</ele>
      </trkpt>
      <trkpt lat="44.87901" lon="5.62701">
        <ele>776</ele>
      </trkpt>
      <trkpt lat="44.87841" lon="5.62742">
        <ele>785</ele>
      </trkpt>
      <trkpt lat="44.87734" lon="5.62862">
        <ele>791</ele>
      </trkpt>
      <trkpt lat="44.87662" lon="5.62858">
        <ele>798</ele>
      </trkpt>
      <trkpt lat="44.876" lon="5.6281">
        <ele>807</ele>
      </trkpt>
      <trkpt lat="44.8753" lon="5.62742">
        <ele>816</ele>
      </trkpt>
      <trkpt lat="44.87364" lon="5.62647">
        <ele>814</ele>
      </trkpt>
      <trkpt lat="44.87364" lon="5.62647">
        <ele>814</ele>
      </trkpt>
      <trkpt lat="44.87364" lon="5.62647">
        <ele>814</ele>
      </trkpt>
      <trkpt lat="44.87179" lon="5.62522">
        <ele>810</ele>
      </trkpt>
      <trkpt lat="44.869" lon="5.62509">
        <ele>804</ele>
      </trkpt>
      <trkpt lat="44.86758" lon="5.62611">
        <ele>797</ele>
      </trkpt>
      <trkpt lat="44.86669" lon="5.62641">
        <ele>799</ele>
      </trkpt>
      <trkpt lat="44.8656" lon="5.62527">
        <ele>798</ele>
      </trkpt>
      <trkpt lat="44.86495" lon="5.62526">
        <ele>791</ele>
      </trkpt>
      <trkpt lat="44.86338" lon="5.62663">
        <ele>779</ele>
      </trkpt>
      <trkpt lat="44.86284" lon="5.62653">
        <ele>775</ele>
      </trkpt>
      <trkpt lat="44.86316" lon="5.62547">
        <ele>779</ele>
      </trkpt>
      <trkpt lat="44.86297" lon="5.62502">
        <ele>777</ele>
      </trkpt>
      <trkpt lat="44.86239" lon="5.62492">
        <ele>772</ele>
      </trkpt>
      <trkpt lat="44.8614" lon="5.62344">
        <ele>776</ele>
      </trkpt>
      <trkpt lat="44.86139" lon="5.62214">
        <ele>784</ele>
      </trkpt>
      <trkpt lat="44.86075" lon="5.62188">
        <ele>773</ele>
      </trkpt>
      <trkpt lat="44.86008" lon="5.62105">
        <ele>764</ele>
      </trkpt>
      <trkpt lat="44.85998" lon="5.61965">
        <ele>757</ele>
      </trkpt>
      <trkpt lat="44.85986" lon="5.61999">
        <ele>755</ele>
      </trkpt>
      <trkpt lat="44.85974" lon="5.61954">
        <ele>743</ele>
      </trkpt>
      <trkpt lat="44.85952" lon="5.62023">
        <ele>729</ele>
      </trkpt>
      <trkpt lat="44.85937" lon="5.61981">
        <ele>722</ele>
      </trkpt>
      <trkpt lat="44.85982" lon="5.61673">
        <ele>704</ele>
      </trkpt>
      <trkpt lat="44.86026" lon="5.61628">
        <ele>714</ele>
      </trkpt>
      <trkpt lat="44.86017" lon="5.61565">
        <ele>697</ele>
      </trkpt>
      <trkpt lat="44.86076" lon="5.61318">
        <ele>686</ele>
      </trkpt>
      <trkpt lat="44.85997" lon="5.61332">
        <ele>679</ele>
      </trkpt>
      <trkpt lat="44.85938" lon="5.61414">
        <ele>680</ele>
      </trkpt>
      <trkpt lat="44.85844" lon="5.61469">
        <ele>689</ele>
      </trkpt>
      <trkpt lat="44.85786" lon="5.61599">
        <ele>701</ele>
      </trkpt>
      <trkpt lat="44.85802" lon="5.61675">
        <ele>693</ele>
      </trkpt>
      <trkpt lat="44.85731" lon="5.61791">
        <ele>695</ele>
      </trkpt>
      <trkpt lat="44.85705" lon="5.61761">
        <ele>705</ele>
      </trkpt>
      <trkpt lat="44.85658" lon="5.61752">
        <ele>714</ele>
      </trkpt>
      <trkpt lat="44.85305" lon="5.62184">
        <ele>736</ele>
      </trkpt>
      <trkpt lat="44.85272" lon="5.62185">
        <ele>738</ele>
      </trkpt>
      <trkpt lat="44.85229" lon="5.62246">
        <ele>736</ele>
      </trkpt>
      <trkpt lat="44.85135" lon="5.62225">
        <ele>741</ele>
      </trkpt>
      <trkpt lat="44.84997" lon="5.6227">
        <ele>736</ele>
      </trkpt>
      <trkpt lat="44.84908" lon="5.62237">
        <ele>734</ele>
      </trkpt>
      <trkpt lat="44.84735" lon="5.62283">
        <ele>712</ele>
      </trkpt>
      <trkpt lat="44.84659" lon="5.62352">
        <ele>703</ele>
      </trkpt>
      <trkpt lat="44.84633" lon="5.62322">
        <ele>700</ele>
      </trkpt>
      <trkpt lat="44.8454" lon="5.62177">
        <ele>696</ele>
      </trkpt>
      <trkpt lat="44.84541" lon="5.62095">
        <ele>701</ele>
      </trkpt>
      <trkpt lat="44.84495" lon="5.62054">
        <ele>701</ele>
      </trkpt>
      <trkpt lat="44.84472" lon="5.61977">
        <ele>707</ele>
      </trkpt>
      <trkpt lat="44.84393" lon="5.61979">
        <ele>702</ele>
      </trkpt>
      <trkpt lat="44.84339" lon="5.61915">
        <ele>707</ele>
      </trkpt>
      <trkpt lat="44.84299" lon="5.6191">
        <ele>711</ele>
      </trkpt>
      <trkpt lat="44.84214" lon="5.61937">
        <ele>712</ele>
      </trkpt>
      <trkpt lat="44.84133" lon="5.61865">
        <ele>726</ele>
      </trkpt>
      <trkpt lat="44.84104" lon="5.61794">
        <ele>741</ele>
      </trkpt>
      <trkpt lat="44.8405" lon="5.61731">
        <ele>731</ele>
      </trkpt>
      <trkpt lat="44.84039" lon="5.61629">
        <ele>747</ele>
      </trkpt>
      <trkpt lat="44.83947" lon="5.61538">
        <ele>732</ele>
      </trkpt>
      <trkpt lat="44.83918" lon="5.61543">
        <ele>723</ele>
      </trkpt>
      <trkpt lat="44.83848" lon="5.61482">
        <ele>718</ele>
      </trkpt>
      <trkpt lat="44.83804" lon="5.61368">
        <ele>724</ele>
      </trkpt>
      <trkpt lat="44.83776" lon="5.61316">
        <ele>716</ele>
      </trkpt>
      <trkpt lat="44.83782" lon="5.61256">
        <ele>719</ele>
      </trkpt>
      <trkpt lat="44.83744" lon="5.61191">
        <ele>713</ele>
      </trkpt>
      <trkpt lat="44.83718" lon="5.61234">
        <ele>697</ele>
      </trkpt>
      <trkpt lat="44.8368" lon="5.61133">
        <ele>700</ele>
      </trkpt>
      <trkpt lat="44.83632" lon="5.61159">
        <ele>684</ele>
      </trkpt>
      <trkpt lat="44.8361" lon="5.61142">
        <ele>684</ele>
      </trkpt>
      <trkpt lat="44.83613" lon="5.61107">
        <ele>688</ele>
      </trkpt>
      <trkpt lat="44.83584" lon="5.61118">
        <ele>682</ele>
      </trkpt>
      <trkpt lat="44.83592" lon="5.60992">
        <ele>690</ele>
      </trkpt>
      <trkpt lat="44.83567" lon="5.60934">
        <ele>688</ele>
      </trkpt>
      <trkpt lat="44.83528" lon="5.60954">
        <ele>691</ele>
      </trkpt>
      <trkpt lat="44.83546" lon="5.60891">
        <ele>695</ele>
      </trkpt>
      <trkpt lat="44.83464" lon="5.6083">
        <ele>735</ele>
      </trkpt>
      <trkpt lat="44.83418" lon="5.60852">
        <ele>748</ele>
      </trkpt>
      <trkpt lat="44.83353" lon="5.60858">
        <ele>773</ele>
      </trkpt>
      <trkpt lat="44.83271" lon="5.60967">
        <ele>792</ele>
      </trkpt>
      <trkpt lat="44.83217" lon="5.6098">
        <ele>802</ele>
      </trkpt>
      <trkpt lat="44.8313" lon="5.61">
        <ele>799</ele>
      </trkpt>
      <trkpt lat="44.83088" lon="5.61133">
        <ele>775</ele>
      </trkpt>
      <trkpt lat="44.83036" lon="5.61165">
        <ele>788</ele>
      </trkpt>
      <trkpt lat="44.8302" lon="5.61221">
        <ele>790</ele>
      </trkpt>
      <trkpt lat="44.82966" lon="5.61316">
        <ele>798</ele>
      </trkpt>
      <trkpt lat="44.83029" lon="5.61535">
        <ele>788</ele>
      </trkpt>
      <trkpt lat="44.83097" lon="5.61678">
        <ele>777</ele>
      </trkpt>
      <trkpt lat="44.83124" lon="5.61813">
        <ele>778</ele>
      </trkpt>
      <trkpt lat="44.83173" lon="5.61999">
        <ele>772</ele>
      </trkpt>
      <trkpt lat="44.83078" lon="5.62019">
        <ele>769</ele>
      </trkpt>
      <trkpt lat="44.83001" lon="5.6202">
        <ele>756</ele>
      </trkpt>
      <trkpt lat="44.82938" lon="5.62023">
        <ele>753</ele>
      </trkpt>
      <trkpt lat="44.82853" lon="5.62145">
        <ele>756</ele>
      </trkpt>
      <trkpt lat="44.82773" lon="5.62115">
        <ele>764</ele>
      </trkpt>
      <trkpt lat="44.82738" lon="5.62252">
        <ele>765</ele>
      </trkpt>
      <trkpt lat="44.82767" lon="5.62481">
        <ele>754</ele>
      </trkpt>
      <trkpt lat="44.82719" lon="5.62586">
        <ele>750</ele>
      </trkpt>
      <trkpt lat="44.8272" lon="5.62845">
        <ele>741</ele>
      </trkpt>
      <trkpt lat="44.82589" lon="5.6285">
        <ele>741</ele>
      </trkpt>
      <trkpt lat="44.82618" lon="5.6294">
        <ele>744</ele>
      </trkpt>
      <trkpt lat="44.8265" lon="5.63069">
        <ele>732</ele>
      </trkpt>
      <trkpt lat="44.82584" lon="5.63166">
        <ele>743</ele>
      </trkpt>
      <trkpt lat="44.8246" lon="5.63247">
        <ele>753</ele>
      </trkpt>
      <trkpt lat="44.82367" lon="5.63375">
        <ele>752</ele>
      </trkpt>
      <trkpt lat="44.8228" lon="5.63407">
        <ele>761</ele>
      </trkpt>
      <trkpt lat="44.82215" lon="5.63473">
        <ele>766</ele>
      </trkpt>
      <trkpt lat="44.82212" lon="5.63878">
        <ele>765</ele>
      </trkpt>
      <trkpt lat="44.82139" lon="5.63899">
        <ele>763</ele>
      </trkpt>
      <trkpt lat="44.82065" lon="5.64122">
        <ele>756</ele>
      </trkpt>
      <trkpt lat="44.82008" lon="5.64372">
        <ele>744</ele>
      </trkpt>
      <trkpt lat="44.81962" lon="5.64407">
        <ele>746</ele>
      </trkpt>
      <trkpt lat="44.81891" lon="5.64529">
        <ele>749</ele>
      </trkpt>
      <trkpt lat="44.81771" lon="5.64313">
        <ele>765</ele>
      </trkpt>
      <trkpt lat="44.81678" lon="5.64131">
        <ele>774</ele>
      </trkpt>
      <trkpt lat="44.81512" lon="5.64089">
        <ele>782</ele>
      </trkpt>
      <trkpt lat="44.81476" lon="5.63967">
        <ele>780</ele>
      </trkpt>
      <trkpt lat="44.81325" lon="5.63895">
        <ele>753</ele>
      </trkpt>
      <trkpt lat="44.81294" lon="5.63868">
        <ele>751</ele>
      </trkpt>
      <trkpt lat="44.81258" lon="5.63878">
        <ele>744</ele>
      </trkpt>
      <trkpt lat="44.81124" lon="5.63833">
        <ele>740</ele>
      </trkpt>
      <trkpt lat="44.81116" lon="5.63661">
        <ele>749</ele>
      </trkpt>
      <trkpt lat="44.81086" lon="5.63584">
        <ele>754</ele>
      </trkpt>
      <trkpt lat="44.81089" lon="5.63508">
        <ele>756</ele>
      </trkpt>
      <trkpt lat="44.81149" lon="5.63455">
        <ele>758</ele>
      </trkpt>
      <trkpt lat="44.81274" lon="5.63348">
        <ele>776</ele>
      </trkpt>
      <trkpt lat="44.81371" lon="5.63265">
        <ele>790</ele>
      </trkpt>
      <trkpt lat="44.81411" lon="5.63268">
        <ele>796</ele>
      </trkpt>
      <trkpt lat="44.81477" lon="5.63151">
        <ele>809</ele>
      </trkpt>
      <trkpt lat="44.81504" lon="5.63153">
        <ele>811</ele>
      </trkpt>
      <trkpt lat="44.81486" lon="5.62861">
        <ele>837</ele>
      </trkpt>
      <trkpt lat="44.81582" lon="5.62816">
        <ele>835</ele>
      </trkpt>
      <trkpt lat="44.81671" lon="5.62714">
        <ele>836</ele>
      </trkpt>
      <trkpt lat="44.81676" lon="5.62524">
        <ele>836</ele>
      </trkpt>
      <trkpt lat="44.81711" lon="5.62406">
        <ele>837</ele>
      </trkpt>
      <trkpt lat="44.81696" lon="5.62298">
        <ele>852</ele>
      </trkpt>
      <trkpt lat="44.81612" lon="5.62249">
        <ele>862</ele>
      </trkpt>
      <trkpt lat="44.81586" lon="5.6207">
        <ele>887</ele>
      </trkpt>
    </trkseg>
  </trk>
  <trk>
    <name><![CDATA[itin suppCordeac croixPigne a verif]]></name>
    <trkseg>
      <trkpt lat="44.80556" lon="5.85354">
        <ele>1070</ele>
        <time>2004-07-26T16:50:38Z</time>
      </trkpt>
      <trkpt lat="44.80482" lon="5.85292">
        <ele>1065</ele>
        <time>2004-07-26T16:50:38Z</time>
      </trkpt>
      <trkpt lat="44.80429" lon="5.85238">
        <ele>1066</ele>
        <time>2004-07-26T16:50:38Z</time>
      </trkpt>
      <trkpt lat="44.80389" lon="5.85217">
        <ele>1055</ele>
        <time>2004-07-26T16:50:38Z</time>
      </trkpt>
      <trkpt lat="44.80331" lon="5.85074">
        <ele>1074</ele>
        <time>2004-07-26T16:50:38Z</time>
      </trkpt>
      <trkpt lat="44.80253" lon="5.85113">
        <ele>1076</ele>
        <time>2004-07-26T16:50:38Z</time>
      </trkpt>
      <trkpt lat="44.80162" lon="5.85158">
        <ele>1083</ele>
        <time>2004-07-26T16:50:38Z</time>
      </trkpt>
      <trkpt lat="44.80112" lon="5.85174">
        <ele>1093</ele>
        <time>2004-07-26T16:50:38Z</time>
      </trkpt>
      <trkpt lat="44.80109" lon="5.85111">
        <ele>1102</ele>
        <time>2004-07-26T16:50:38Z</time>
      </trkpt>
      <trkpt lat="44.79992" lon="5.8511">
        <ele>1134</ele>
        <time>2004-07-26T16:50:38Z</time>
      </trkpt>
      <trkpt lat="44.80029" lon="5.85213">
        <ele>1137</ele>
        <time>2004-07-26T16:50:38Z</time>
      </trkpt>
      <trkpt lat="44.80117" lon="5.85276">
        <ele>1122</ele>
        <time>2004-07-26T16:50:38Z</time>
      </trkpt>
      <trkpt lat="44.8021" lon="5.85345">
        <ele>1113</ele>
        <time>2004-07-26T16:50:38Z</time>
      </trkpt>
      <trkpt lat="44.80297" lon="5.85426">
        <ele>1091</ele>
        <time>2004-07-26T16:50:38Z</time>
      </trkpt>
      <trkpt lat="44.8037" lon="5.85551">
        <ele>1060</ele>
        <time>2004-07-26T16:50:38Z</time>
      </trkpt>
      <trkpt lat="44.8039" lon="5.85761">
        <ele>1060</ele>
        <time>2004-07-26T16:50:38Z</time>
      </trkpt>
      <trkpt lat="44.80418" lon="5.8587">
        <ele>1050</ele>
        <time>2004-07-26T16:50:38Z</time>
      </trkpt>
      <trkpt lat="44.80449" lon="5.86024">
        <ele>1023</ele>
        <time>2004-07-26T16:50:38Z</time>
      </trkpt>
      <trkpt lat="44.80526" lon="5.86155">
        <ele>1006</ele>
        <time>2004-07-26T16:50:38Z</time>
      </trkpt>
      <trkpt lat="44.80564" lon="5.86366">
        <ele>994</ele>
        <time>2004-07-26T16:50:38Z</time>
      </trkpt>
      <trkpt lat="44.80628" lon="5.86497">
        <ele>977</ele>
        <time>2004-07-26T16:50:38Z</time>
      </trkpt>
      <trkpt lat="44.80713" lon="5.86502">
        <ele>965</ele>
        <time>2004-07-26T16:50:38Z</time>
      </trkpt>
      <trkpt lat="44.80728" lon="5.86598">
        <ele>970</ele>
        <time>2004-07-26T16:50:38Z</time>
      </trkpt>
      <trkpt lat="44.80763" lon="5.86638">
        <ele>966</ele>
        <time>2004-07-26T16:50:38Z</time>
      </trkpt>
      <trkpt lat="44.80763" lon="5.86638">
        <ele>966</ele>
        <time>2004-07-26T16:50:38Z</time>
      </trkpt>
    </trkseg>
  </trk>
  <trk>
    <name><![CDATA[Mens- Genevreys]]></name>
    <trkseg>
      <trkpt lat="44.87962" lon="5.74138">
        <ele>844</ele>
      </trkpt>
      <trkpt lat="44.87738" lon="5.7408">
        <ele>800</ele>
      </trkpt>
      <trkpt lat="44.87574" lon="5.73855">
        <ele>768</ele>
      </trkpt>
      <trkpt lat="44.87578" lon="5.73741">
        <ele>753</ele>
      </trkpt>
      <trkpt lat="44.87466" lon="5.7357">
        <ele>720</ele>
      </trkpt>
      <trkpt lat="44.87451" lon="5.73481">
        <ele>701</ele>
      </trkpt>
      <trkpt lat="44.87396" lon="5.7349">
        <ele>696</ele>
      </trkpt>
      <trkpt lat="44.87257" lon="5.73412">
        <ele>664</ele>
      </trkpt>
      <trkpt lat="44.87165" lon="5.73412">
        <ele>654</ele>
      </trkpt>
      <trkpt lat="44.87179" lon="5.7354">
        <ele>653</ele>
      </trkpt>
      <trkpt lat="44.8715" lon="5.73601">
        <ele>648</ele>
      </trkpt>
      <trkpt lat="44.87098" lon="5.73839">
        <ele>640</ele>
      </trkpt>
      <trkpt lat="44.87074" lon="5.74002">
        <ele>635</ele>
      </trkpt>
      <trkpt lat="44.87025" lon="5.74138">
        <ele>631</ele>
      </trkpt>
      <trkpt lat="44.8696" lon="5.74223">
        <ele>594</ele>
      </trkpt>
      <trkpt lat="44.87086" lon="5.74497">
        <ele>596</ele>
      </trkpt>
      <trkpt lat="44.87043" lon="5.74747">
        <ele>589</ele>
      </trkpt>
      <trkpt lat="44.87055" lon="5.74925">
        <ele>588</ele>
      </trkpt>
      <trkpt lat="44.87079" lon="5.75015">
        <ele>584</ele>
      </trkpt>
      <trkpt lat="44.87093" lon="5.75143">
        <ele>579</ele>
      </trkpt>
      <trkpt lat="44.87117" lon="5.75258">
        <ele>573</ele>
      </trkpt>
      <trkpt lat="44.87191" lon="5.75478">
        <ele>581</ele>
      </trkpt>
      <trkpt lat="44.8724" lon="5.75645">
        <ele>587</ele>
      </trkpt>
      <trkpt lat="44.87281" lon="5.75775">
        <ele>600</ele>
      </trkpt>
      <trkpt lat="44.87293" lon="5.75978">
        <ele>586</ele>
      </trkpt>
      <trkpt lat="44.87397" lon="5.76098">
        <ele>621</ele>
      </trkpt>
      <trkpt lat="44.87419" lon="5.76251">
        <ele>635</ele>
      </trkpt>
      <trkpt lat="44.87433" lon="5.76392">
        <ele>641</ele>
      </trkpt>
      <trkpt lat="44.87475" lon="5.76483">
        <ele>653</ele>
      </trkpt>
      <trkpt lat="44.87463" lon="5.76583">
        <ele>647</ele>
      </trkpt>
      <trkpt lat="44.87454" lon="5.76861">
        <ele>635</ele>
      </trkpt>
      <trkpt lat="44.87466" lon="5.77052">
        <ele>609</ele>
      </trkpt>
      <trkpt lat="44.87598" lon="5.77149">
        <ele>572</ele>
      </trkpt>
      <trkpt lat="44.87426" lon="5.77201">
        <ele>564</ele>
      </trkpt>
      <trkpt lat="44.87522" lon="5.77296">
        <ele>538</ele>
      </trkpt>
      <trkpt lat="44.87413" lon="5.77315">
        <ele>526</ele>
      </trkpt>
      <trkpt lat="44.8736" lon="5.77337">
        <ele>516</ele>
      </trkpt>
      <trkpt lat="44.8727" lon="5.77344">
        <ele>502</ele>
      </trkpt>
      <trkpt lat="44.87253" lon="5.77267">
        <ele>504</ele>
      </trkpt>
      <trkpt lat="44.87175" lon="5.77148">
        <ele>516</ele>
      </trkpt>
      <trkpt lat="44.87217" lon="5.76948">
        <ele>512</ele>
      </trkpt>
      <trkpt lat="44.87116" lon="5.77018">
        <ele>534</ele>
      </trkpt>
      <trkpt lat="44.87027" lon="5.77278">
        <ele>550</ele>
      </trkpt>
      <trkpt lat="44.87082" lon="5.77548">
        <ele>581</ele>
      </trkpt>
      <trkpt lat="44.86945" lon="5.77324">
        <ele>593</ele>
      </trkpt>
      <trkpt lat="44.86787" lon="5.77175">
        <ele>617</ele>
      </trkpt>
      <trkpt lat="44.86601" lon="5.77075">
        <ele>649</ele>
      </trkpt>
      <trkpt lat="44.86628" lon="5.77311">
        <ele>675</ele>
      </trkpt>
      <trkpt lat="44.86699" lon="5.7741">
        <ele>669</ele>
      </trkpt>
      <trkpt lat="44.86657" lon="5.7761">
        <ele>684</ele>
      </trkpt>
      <trkpt lat="44.86441" lon="5.77609">
        <ele>736</ele>
      </trkpt>
      <trkpt lat="44.86257" lon="5.77446">
        <ele>773</ele>
      </trkpt>
      <trkpt lat="44.86197" lon="5.77563">
        <ele>801</ele>
      </trkpt>
      <trkpt lat="44.86176" lon="5.77657">
        <ele>820</ele>
      </trkpt>
      <trkpt lat="44.86001" lon="5.77779">
        <ele>847</ele>
      </trkpt>
      <trkpt lat="44.85939" lon="5.78015">
        <ele>866</ele>
      </trkpt>
      <trkpt lat="44.85903" lon="5.78013">
        <ele>859</ele>
      </trkpt>
      <trkpt lat="44.85841" lon="5.7813">
        <ele>856</ele>
      </trkpt>
      <trkpt lat="44.85768" lon="5.78163">
        <ele>851</ele>
      </trkpt>
      <trkpt lat="44.85684" lon="5.78126">
        <ele>840</ele>
      </trkpt>
      <trkpt lat="44.85516" lon="5.77869">
        <ele>828</ele>
      </trkpt>
      <trkpt lat="44.85386" lon="5.77646">
        <ele>826</ele>
      </trkpt>
      <trkpt lat="44.85284" lon="5.78032">
        <ele>841</ele>
      </trkpt>
      <trkpt lat="44.85318" lon="5.7811">
        <ele>837</ele>
      </trkpt>
      <trkpt lat="44.85196" lon="5.78242">
        <ele>854</ele>
      </trkpt>
      <trkpt lat="44.85164" lon="5.78404">
        <ele>861</ele>
      </trkpt>
      <trkpt lat="44.85074" lon="5.7869">
        <ele>879</ele>
      </trkpt>
      <trkpt lat="44.84958" lon="5.78961">
        <ele>913</ele>
      </trkpt>
      <trkpt lat="44.85036" lon="5.79067">
        <ele>916</ele>
      </trkpt>
      <trkpt lat="44.84805" lon="5.79534">
        <ele>866</ele>
      </trkpt>
      <trkpt lat="44.84854" lon="5.79689">
        <ele>862</ele>
      </trkpt>
      <trkpt lat="44.84791" lon="5.79988">
        <ele>867</ele>
      </trkpt>
      <trkpt lat="44.84461" lon="5.79867">
        <ele>872</ele>
      </trkpt>
      <trkpt lat="44.8431" lon="5.79807">
        <ele>879</ele>
      </trkpt>
      <trkpt lat="44.84155" lon="5.79873">
        <ele>886</ele>
      </trkpt>
      <trkpt lat="44.83878" lon="5.79805">
        <ele>918</ele>
      </trkpt>
      <trkpt lat="44.83894" lon="5.79591">
        <ele>926</ele>
      </trkpt>
      <trkpt lat="44.83744" lon="5.79784">
        <ele>947</ele>
      </trkpt>
      <trkpt lat="44.83633" lon="5.79797">
        <ele>980</ele>
      </trkpt>
      <trkpt lat="44.83587" lon="5.7968">
        <ele>1005</ele>
      </trkpt>
      <trkpt lat="44.8366" lon="5.79507">
        <ele>1012</ele>
      </trkpt>
      <trkpt lat="44.83562" lon="5.79318">
        <ele>1012</ele>
      </trkpt>
      <trkpt lat="44.83497" lon="5.79402">
        <ele>1018</ele>
      </trkpt>
      <trkpt lat="44.83395" lon="5.79352">
        <ele>1013</ele>
      </trkpt>
      <trkpt lat="44.83359" lon="5.79191">
        <ele>999</ele>
      </trkpt>
      <trkpt lat="44.83435" lon="5.79057">
        <ele>976</ele>
      </trkpt>
      <trkpt lat="44.83455" lon="5.79159">
        <ele>986</ele>
      </trkpt>
      <trkpt lat="44.83622" lon="5.79151">
        <ele>984</ele>
      </trkpt>
      <trkpt lat="44.83903" lon="5.78795">
        <ele>1001</ele>
      </trkpt>
      <trkpt lat="44.84011" lon="5.78776">
        <ele>1007</ele>
      </trkpt>
      <trkpt lat="44.84098" lon="5.78743">
        <ele>998</ele>
      </trkpt>
      <trkpt lat="44.8415" lon="5.78671">
        <ele>992</ele>
      </trkpt>
      <trkpt lat="44.84053" lon="5.78601">
        <ele>968</ele>
      </trkpt>
      <trkpt lat="44.83964" lon="5.78577">
        <ele>960</ele>
      </trkpt>
      <trkpt lat="44.83907" lon="5.7851">
        <ele>952</ele>
      </trkpt>
      <trkpt lat="44.83869" lon="5.78445">
        <ele>943</ele>
      </trkpt>
      <trkpt lat="44.83793" lon="5.78421">
        <ele>937</ele>
      </trkpt>
      <trkpt lat="44.83717" lon="5.78416">
        <ele>928</ele>
      </trkpt>
      <trkpt lat="44.83681" lon="5.78389">
        <ele>920</ele>
      </trkpt>
      <trkpt lat="44.83632" lon="5.78373">
        <ele>911</ele>
      </trkpt>
      <trkpt lat="44.836" lon="5.78403">
        <ele>909</ele>
      </trkpt>
      <trkpt lat="44.83579" lon="5.78345">
        <ele>904</ele>
      </trkpt>
      <trkpt lat="44.83573" lon="5.78243">
        <ele>898</ele>
      </trkpt>
      <trkpt lat="44.83531" lon="5.78152">
        <ele>904</ele>
      </trkpt>
      <trkpt lat="44.83377" lon="5.78054">
        <ele>914</ele>
      </trkpt>
      <trkpt lat="44.83177" lon="5.77833">
        <ele>922</ele>
      </trkpt>
      <trkpt lat="44.8308" lon="5.77763">
        <ele>936</ele>
      </trkpt>
      <trkpt lat="44.8293" lon="5.77647">
        <ele>938</ele>
      </trkpt>
      <trkpt lat="44.82771" lon="5.77567">
        <ele>944</ele>
      </trkpt>
      <trkpt lat="44.8262" lon="5.77482">
        <ele>937</ele>
      </trkpt>
      <trkpt lat="44.82582" lon="5.7741">
        <ele>931</ele>
      </trkpt>
      <trkpt lat="44.82528" lon="5.774">
        <ele>924</ele>
      </trkpt>
      <trkpt lat="44.82385" lon="5.77531">
        <ele>917</ele>
      </trkpt>
      <trkpt lat="44.82121" lon="5.77325">
        <ele>912</ele>
      </trkpt>
      <trkpt lat="44.82165" lon="5.77201">
        <ele>897</ele>
      </trkpt>
      <trkpt lat="44.82169" lon="5.77081">
        <ele>886</ele>
      </trkpt>
      <trkpt lat="44.82021" lon="5.77053">
        <ele>882</ele>
      </trkpt>
      <trkpt lat="44.82065" lon="5.76961">
        <ele>869</ele>
      </trkpt>
      <trkpt lat="44.82015" lon="5.76831">
        <ele>856</ele>
      </trkpt>
      <trkpt lat="44.82048" lon="5.7677">
        <ele>848</ele>
      </trkpt>
      <trkpt lat="44.82022" lon="5.7661">
        <ele>848</ele>
      </trkpt>
      <trkpt lat="44.82021" lon="5.76484">
        <ele>838</ele>
      </trkpt>
      <trkpt lat="44.81988" lon="5.76406">
        <ele>832</ele>
      </trkpt>
      <trkpt lat="44.81936" lon="5.76339">
        <ele>824</ele>
      </trkpt>
      <trkpt lat="44.81971" lon="5.76221">
        <ele>810</ele>
      </trkpt>
      <trkpt lat="44.82024" lon="5.76105">
        <ele>798</ele>
      </trkpt>
      <trkpt lat="44.82044" lon="5.76036">
        <ele>795</ele>
      </trkpt>
      <trkpt lat="44.82048" lon="5.7591">
        <ele>793</ele>
      </trkpt>
      <trkpt lat="44.81926" lon="5.75789">
        <ele>786</ele>
      </trkpt>
      <trkpt lat="44.81798" lon="5.75686">
        <ele>793</ele>
      </trkpt>
      <trkpt lat="44.81759" lon="5.75639">
        <ele>792</ele>
      </trkpt>
      <trkpt lat="44.81792" lon="5.75458">
        <ele>787</ele>
      </trkpt>
      <trkpt lat="44.81759" lon="5.75348">
        <ele>785</ele>
      </trkpt>
      <trkpt lat="44.81702" lon="5.75149">
        <ele>776</ele>
      </trkpt>
      <trkpt lat="44.81661" lon="5.75045">
        <ele>771</ele>
      </trkpt>
      <trkpt lat="44.81649" lon="5.74842">
        <ele>765</ele>
      </trkpt>
      <trkpt lat="44.81633" lon="5.74613">
        <ele>763</ele>
      </trkpt>
      <trkpt lat="44.81633" lon="5.74613">
        <ele>763</ele>
      </trkpt>
    </trkseg>
  </trk>
  <trk>
    <name><![CDATA[Mialaure Chris Cath]]></name>
    <trkseg>
      <trkpt lat="44.74806" lon="5.76888">
        <ele>959</ele>
      </trkpt>
      <trkpt lat="44.74805" lon="5.76876">
        <ele>956</ele>
      </trkpt>
      <trkpt lat="44.74763" lon="5.76823">
        <ele>941</ele>
      </trkpt>
      <trkpt lat="44.74658" lon="5.76747">
        <ele>926</ele>
      </trkpt>
      <trkpt lat="44.74602" lon="5.76794">
        <ele>929</ele>
      </trkpt>
      <trkpt lat="44.74488" lon="5.76837">
        <ele>923</ele>
      </trkpt>
      <trkpt lat="44.74536" lon="5.76613">
        <ele>912</ele>
      </trkpt>
      <trkpt lat="44.74568" lon="5.76305">
        <ele>894</ele>
      </trkpt>
      <trkpt lat="44.7444" lon="5.75919">
        <ele>875</ele>
      </trkpt>
      <trkpt lat="44.74458" lon="5.75793">
        <ele>878</ele>
      </trkpt>
      <trkpt lat="44.7439" lon="5.75644">
        <ele>866</ele>
      </trkpt>
      <trkpt lat="44.74378" lon="5.75466">
        <ele>857</ele>
      </trkpt>
      <trkpt lat="44.74462" lon="5.75383">
        <ele>854</ele>
      </trkpt>
      <trkpt lat="44.74574" lon="5.75384">
        <ele>865</ele>
      </trkpt>
      <trkpt lat="44.74645" lon="5.75262">
        <ele>861</ele>
      </trkpt>
      <trkpt lat="44.74705" lon="5.75088">
        <ele>841</ele>
      </trkpt>
      <trkpt lat="44.74818" lon="5.74931">
        <ele>840</ele>
      </trkpt>
      <trkpt lat="44.7497" lon="5.74656">
        <ele>834</ele>
      </trkpt>
      <trkpt lat="44.75144" lon="5.7442">
        <ele>828</ele>
      </trkpt>
      <trkpt lat="44.75295" lon="5.74202">
        <ele>813</ele>
      </trkpt>
      <trkpt lat="44.75524" lon="5.73907">
        <ele>797</ele>
      </trkpt>
      <trkpt lat="44.75601" lon="5.73905">
        <ele>804</ele>
      </trkpt>
      <trkpt lat="44.75723" lon="5.73761">
        <ele>794</ele>
      </trkpt>
      <trkpt lat="44.75778" lon="5.7372">
        <ele>794</ele>
      </trkpt>
      <trkpt lat="44.7585" lon="5.73724">
        <ele>803</ele>
      </trkpt>
      <trkpt lat="44.75923" lon="5.73691">
        <ele>807</ele>
      </trkpt>
      <trkpt lat="44.75987" lon="5.73657">
        <ele>804</ele>
      </trkpt>
      <trkpt lat="44.75966" lon="5.73599">
        <ele>799</ele>
      </trkpt>
      <trkpt lat="44.75992" lon="5.73486">
        <ele>801</ele>
      </trkpt>
      <trkpt lat="44.76074" lon="5.73296">
        <ele>806</ele>
      </trkpt>
      <trkpt lat="44.76165" lon="5.73137">
        <ele>804</ele>
      </trkpt>
      <trkpt lat="44.7633" lon="5.72894">
        <ele>797</ele>
      </trkpt>
      <trkpt lat="44.76453" lon="5.72851">
        <ele>827</ele>
      </trkpt>
      <trkpt lat="44.76459" lon="5.72782">
        <ele>810</ele>
      </trkpt>
      <trkpt lat="44.76579" lon="5.72707">
        <ele>817</ele>
      </trkpt>
      <trkpt lat="44.76729" lon="5.72665">
        <ele>813</ele>
      </trkpt>
      <trkpt lat="44.76656" lon="5.72819">
        <ele>825</ele>
      </trkpt>
      <trkpt lat="44.76592" lon="5.72998">
        <ele>838</ele>
      </trkpt>
      <trkpt lat="44.766" lon="5.73169">
        <ele>850</ele>
      </trkpt>
      <trkpt lat="44.76527" lon="5.73077">
        <ele>873</ele>
      </trkpt>
      <trkpt lat="44.76457" lon="5.73161">
        <ele>891</ele>
      </trkpt>
      <trkpt lat="44.76469" lon="5.73357">
        <ele>927</ele>
      </trkpt>
      <trkpt lat="44.76507" lon="5.73435">
        <ele>940</ele>
      </trkpt>
      <trkpt lat="44.76525" lon="5.73576">
        <ele>969</ele>
      </trkpt>
      <trkpt lat="44.76567" lon="5.73679">
        <ele>968</ele>
      </trkpt>
      <trkpt lat="44.76631" lon="5.7393">
        <ele>996</ele>
      </trkpt>
      <trkpt lat="44.76701" lon="5.73984">
        <ele>993</ele>
      </trkpt>
      <trkpt lat="44.76833" lon="5.73815">
        <ele>981</ele>
      </trkpt>
      <trkpt lat="44.76877" lon="5.73843">
        <ele>990</ele>
      </trkpt>
      <trkpt lat="44.77031" lon="5.73802">
        <ele>972</ele>
      </trkpt>
      <trkpt lat="44.7713" lon="5.73657">
        <ele>947</ele>
      </trkpt>
      <trkpt lat="44.77213" lon="5.73459">
        <ele>931</ele>
      </trkpt>
      <trkpt lat="44.77319" lon="5.73377">
        <ele>919</ele>
      </trkpt>
      <trkpt lat="44.7732" lon="5.7334">
        <ele>917</ele>
      </trkpt>
      <trkpt lat="44.77381" lon="5.73261">
        <ele>907</ele>
      </trkpt>
      <trkpt lat="44.77383" lon="5.73186">
        <ele>906</ele>
      </trkpt>
      <trkpt lat="44.77422" lon="5.73087">
        <ele>901</ele>
      </trkpt>
      <trkpt lat="44.77449" lon="5.72949">
        <ele>896</ele>
      </trkpt>
      <trkpt lat="44.7745" lon="5.72779">
        <ele>899</ele>
      </trkpt>
      <trkpt lat="44.77413" lon="5.72505">
        <ele>902</ele>
      </trkpt>
      <trkpt lat="44.7747" lon="5.72281">
        <ele>898</ele>
      </trkpt>
      <trkpt lat="44.77568" lon="5.72009">
        <ele>882</ele>
      </trkpt>
      <trkpt lat="44.77573" lon="5.71838">
        <ele>882</ele>
      </trkpt>
      <trkpt lat="44.77731" lon="5.71519">
        <ele>880</ele>
      </trkpt>
      <trkpt lat="44.77777" lon="5.71516">
        <ele>876</ele>
      </trkpt>
      <trkpt lat="44.7783" lon="5.71373">
        <ele>869</ele>
      </trkpt>
      <trkpt lat="44.77819" lon="5.7131">
        <ele>865</ele>
      </trkpt>
      <trkpt lat="44.77878" lon="5.71149">
        <ele>849</ele>
      </trkpt>
      <trkpt lat="44.77932" lon="5.71152">
        <ele>847</ele>
      </trkpt>
      <trkpt lat="44.77985" lon="5.71029">
        <ele>833</ele>
      </trkpt>
      <trkpt lat="44.78016" lon="5.70904">
        <ele>821</ele>
      </trkpt>
      <trkpt lat="44.78045" lon="5.70837">
        <ele>816</ele>
      </trkpt>
      <trkpt lat="44.78183" lon="5.70592">
        <ele>802</ele>
      </trkpt>
      <trkpt lat="44.78309" lon="5.7029">
        <ele>787</ele>
      </trkpt>
      <trkpt lat="44.78298" lon="5.70226">
        <ele>786</ele>
      </trkpt>
      <trkpt lat="44.78297" lon="5.69967">
        <ele>781</ele>
      </trkpt>
      <trkpt lat="44.78326" lon="5.69899">
        <ele>779</ele>
      </trkpt>
      <trkpt lat="44.78453" lon="5.69692">
        <ele>772</ele>
      </trkpt>
      <trkpt lat="44.7856" lon="5.69591">
        <ele>767</ele>
      </trkpt>
      <trkpt lat="44.78646" lon="5.69577">
        <ele>765</ele>
      </trkpt>
      <trkpt lat="44.78826" lon="5.69569">
        <ele>763</ele>
      </trkpt>
      <trkpt lat="44.78896" lon="5.6951">
        <ele>762</ele>
      </trkpt>
      <trkpt lat="44.78986" lon="5.69503">
        <ele>758</ele>
      </trkpt>
      <trkpt lat="44.79056" lon="5.69425">
        <ele>755</ele>
      </trkpt>
      <trkpt lat="44.78963" lon="5.69381">
        <ele>757</ele>
      </trkpt>
      <trkpt lat="44.78933" lon="5.69316">
        <ele>753</ele>
      </trkpt>
      <trkpt lat="44.78879" lon="5.69022">
        <ele>742</ele>
      </trkpt>
      <trkpt lat="44.78832" lon="5.68785">
        <ele>740</ele>
      </trkpt>
      <trkpt lat="44.78742" lon="5.68483">
        <ele>734</ele>
      </trkpt>
      <trkpt lat="44.7864" lon="5.68287">
        <ele>691</ele>
      </trkpt>
      <trkpt lat="44.78591" lon="5.68278">
        <ele>686</ele>
      </trkpt>
      <trkpt lat="44.78593" lon="5.68196">
        <ele>681</ele>
      </trkpt>
      <trkpt lat="44.78441" lon="5.68187">
        <ele>679</ele>
      </trkpt>
      <trkpt lat="44.78488" lon="5.68114">
        <ele>682</ele>
      </trkpt>
      <trkpt lat="44.78421" lon="5.6811">
        <ele>687</ele>
      </trkpt>
      <trkpt lat="44.78468" lon="5.68018">
        <ele>700</ele>
      </trkpt>
      <trkpt lat="44.78526" lon="5.68059">
        <ele>683</ele>
      </trkpt>
      <trkpt lat="44.7863" lon="5.68015">
        <ele>689</ele>
      </trkpt>
      <trkpt lat="44.78774" lon="5.67891">
        <ele>684</ele>
      </trkpt>
      <trkpt lat="44.78926" lon="5.67906">
        <ele>673</ele>
      </trkpt>
      <trkpt lat="44.79062" lon="5.6787">
        <ele>666</ele>
      </trkpt>
      <trkpt lat="44.79162" lon="5.67718">
        <ele>681</ele>
      </trkpt>
      <trkpt lat="44.79266" lon="5.67541">
        <ele>693</ele>
      </trkpt>
      <trkpt lat="44.79266" lon="5.67395">
        <ele>711</ele>
      </trkpt>
      <trkpt lat="44.79218" lon="5.67348">
        <ele>723</ele>
      </trkpt>
      <trkpt lat="44.79233" lon="5.67292">
        <ele>722</ele>
      </trkpt>
      <trkpt lat="44.79196" lon="5.6717">
        <ele>729</ele>
      </trkpt>
      <trkpt lat="44.79221" lon="5.67102">
        <ele>730</ele>
      </trkpt>
      <trkpt lat="44.79246" lon="5.6687">
        <ele>725</ele>
      </trkpt>
      <trkpt lat="44.79129" lon="5.67002">
        <ele>741</ele>
      </trkpt>
      <trkpt lat="44.79092" lon="5.67177">
        <ele>746</ele>
      </trkpt>
      <trkpt lat="44.79051" lon="5.67345">
        <ele>746</ele>
      </trkpt>
      <trkpt lat="44.7892" lon="5.67508">
        <ele>753</ele>
      </trkpt>
      <trkpt lat="44.78902" lon="5.67222">
        <ele>766</ele>
      </trkpt>
      <trkpt lat="44.78778" lon="5.67019">
        <ele>781</ele>
      </trkpt>
      <trkpt lat="44.78734" lon="5.66833">
        <ele>779</ele>
      </trkpt>
      <trkpt lat="44.78741" lon="5.6658">
        <ele>767</ele>
      </trkpt>
      <trkpt lat="44.78877" lon="5.66424">
        <ele>761</ele>
      </trkpt>
      <trkpt lat="44.78889" lon="5.66298">
        <ele>757</ele>
      </trkpt>
      <trkpt lat="44.78881" lon="5.66121">
        <ele>757</ele>
      </trkpt>
      <trkpt lat="44.78921" lon="5.66003">
        <ele>749</ele>
      </trkpt>
      <trkpt lat="44.78928" lon="5.65776">
        <ele>755</ele>
      </trkpt>
      <trkpt lat="44.7908" lon="5.65785">
        <ele>746</ele>
      </trkpt>
      <trkpt lat="44.79011" lon="5.6556">
        <ele>757</ele>
      </trkpt>
      <trkpt lat="44.79055" lon="5.65581">
        <ele>754</ele>
      </trkpt>
      <trkpt lat="44.79088" lon="5.65539">
        <ele>756</ele>
      </trkpt>
      <trkpt lat="44.791" lon="5.65439">
        <ele>762</ele>
      </trkpt>
      <trkpt lat="44.79153" lon="5.65461">
        <ele>781</ele>
      </trkpt>
      <trkpt lat="44.79161" lon="5.65638">
        <ele>768</ele>
      </trkpt>
      <trkpt lat="44.79208" lon="5.65742">
        <ele>768</ele>
      </trkpt>
      <trkpt lat="44.79288" lon="5.65911">
        <ele>765</ele>
      </trkpt>
      <trkpt lat="44.79441" lon="5.65933">
        <ele>782</ele>
      </trkpt>
      <trkpt lat="44.7947" lon="5.65865">
        <ele>787</ele>
      </trkpt>
      <trkpt lat="44.79513" lon="5.65615">
        <ele>777</ele>
      </trkpt>
      <trkpt lat="44.79567" lon="5.65321">
        <ele>765</ele>
      </trkpt>
      <trkpt lat="44.79722" lon="5.65261">
        <ele>746</ele>
      </trkpt>
      <trkpt lat="44.79923" lon="5.65152">
        <ele>720</ele>
      </trkpt>
      <trkpt lat="44.79938" lon="5.64957">
        <ele>749</ele>
      </trkpt>
      <trkpt lat="44.79988" lon="5.64638">
        <ele>783</ele>
      </trkpt>
      <trkpt lat="44.80074" lon="5.64466">
        <ele>774</ele>
      </trkpt>
      <trkpt lat="44.80179" lon="5.64276">
        <ele>770</ele>
      </trkpt>
      <trkpt lat="44.80286" lon="5.64162">
        <ele>777</ele>
      </trkpt>
      <trkpt lat="44.80449" lon="5.63989">
        <ele>795</ele>
      </trkpt>
      <trkpt lat="44.80562" lon="5.63964">
        <ele>803</ele>
      </trkpt>
      <trkpt lat="44.80678" lon="5.6385">
        <ele>795</ele>
      </trkpt>
      <trkpt lat="44.80837" lon="5.63657">
        <ele>779</ele>
      </trkpt>
      <trkpt lat="44.80965" lon="5.63589">
        <ele>762</ele>
      </trkpt>
      <trkpt lat="44.81082" lon="5.63577">
        <ele>755</ele>
      </trkpt>
      <trkpt lat="44.81084" lon="5.63508">
        <ele>756</ele>
      </trkpt>
      <trkpt lat="44.81177" lon="5.63425">
        <ele>762</ele>
      </trkpt>
      <trkpt lat="44.81333" lon="5.63301">
        <ele>784</ele>
      </trkpt>
      <trkpt lat="44.81411" lon="5.63261">
        <ele>797</ele>
      </trkpt>
      <trkpt lat="44.8145" lon="5.6315">
        <ele>806</ele>
      </trkpt>
      <trkpt lat="44.81509" lon="5.63153">
        <ele>811</ele>
      </trkpt>
      <trkpt lat="44.81477" lon="5.62873">
        <ele>836</ele>
      </trkpt>
      <trkpt lat="44.81582" lon="5.62829">
        <ele>834</ele>
      </trkpt>
      <trkpt lat="44.81663" lon="5.62669">
        <ele>837</ele>
      </trkpt>
      <trkpt lat="44.81686" lon="5.62487">
        <ele>835</ele>
      </trkpt>
      <trkpt lat="44.81703" lon="5.62393">
        <ele>839</ele>
      </trkpt>
      <trkpt lat="44.81692" lon="5.62285">
        <ele>854</ele>
      </trkpt>
      <trkpt lat="44.81622" lon="5.6223">
        <ele>863</ele>
      </trkpt>
      <trkpt lat="44.81586" lon="5.62076">
        <ele>887</ele>
      </trkpt>
    </trkseg>
  </trk>
  <trk>
    <name><![CDATA[Mialaure4chemins]]></name>
    <trkseg>
      <trkpt lat="44.81607" lon="5.62034">
        <ele>890</ele>
      </trkpt>
      <trkpt lat="44.81592" lon="5.62248">
        <ele>863</ele>
      </trkpt>
      <trkpt lat="44.81699" lon="5.62279">
        <ele>855</ele>
      </trkpt>
      <trkpt lat="44.81701" lon="5.62393">
        <ele>839</ele>
      </trkpt>
      <trkpt lat="44.81781" lon="5.6241">
        <ele>835</ele>
      </trkpt>
      <trkpt lat="44.81871" lon="5.62416">
        <ele>836</ele>
      </trkpt>
      <trkpt lat="44.81964" lon="5.62295">
        <ele>848</ele>
      </trkpt>
      <trkpt lat="44.82078" lon="5.62099">
        <ele>852</ele>
      </trkpt>
      <trkpt lat="44.82188" lon="5.62029">
        <ele>838</ele>
      </trkpt>
      <trkpt lat="44.82231" lon="5.61817">
        <ele>837</ele>
      </trkpt>
      <trkpt lat="44.82339" lon="5.6152">
        <ele>842</ele>
      </trkpt>
      <trkpt lat="44.82376" lon="5.61459">
        <ele>846</ele>
      </trkpt>
      <trkpt lat="44.82416" lon="5.61347">
        <ele>855</ele>
      </trkpt>
      <trkpt lat="44.82428" lon="5.61247">
        <ele>860</ele>
      </trkpt>
      <trkpt lat="44.8237" lon="5.61054">
        <ele>858</ele>
      </trkpt>
      <trkpt lat="44.82421" lon="5.60867">
        <ele>859</ele>
      </trkpt>
      <trkpt lat="44.82564" lon="5.60913">
        <ele>838</ele>
      </trkpt>
      <trkpt lat="44.82643" lon="5.60652">
        <ele>834</ele>
      </trkpt>
      <trkpt lat="44.82702" lon="5.60504">
        <ele>834</ele>
      </trkpt>
      <trkpt lat="44.82725" lon="5.60341">
        <ele>840</ele>
      </trkpt>
      <trkpt lat="44.82807" lon="5.60295">
        <ele>846</ele>
      </trkpt>
      <trkpt lat="44.82827" lon="5.59916">
        <ele>863</ele>
      </trkpt>
      <trkpt lat="44.82868" lon="5.60045">
        <ele>859</ele>
      </trkpt>
      <trkpt lat="44.82962" lon="5.59924">
        <ele>858</ele>
      </trkpt>
      <trkpt lat="44.82956" lon="5.5981">
        <ele>866</ele>
      </trkpt>
      <trkpt lat="44.82969" lon="5.59697">
        <ele>868</ele>
      </trkpt>
      <trkpt lat="44.82928" lon="5.59555">
        <ele>869</ele>
      </trkpt>
      <trkpt lat="44.82854" lon="5.59298">
        <ele>861</ele>
      </trkpt>
      <trkpt lat="44.82783" lon="5.59269">
        <ele>868</ele>
      </trkpt>
      <trkpt lat="44.82708" lon="5.59087">
        <ele>856</ele>
      </trkpt>
      <trkpt lat="44.82581" lon="5.58789">
        <ele>853</ele>
      </trkpt>
      <trkpt lat="44.82491" lon="5.58796">
        <ele>894</ele>
      </trkpt>
      <trkpt lat="44.82348" lon="5.58472">
        <ele>906</ele>
      </trkpt>
      <trkpt lat="44.82253" lon="5.58327">
        <ele>918</ele>
      </trkpt>
      <trkpt lat="44.82166" lon="5.58234">
        <ele>921</ele>
      </trkpt>
      <trkpt lat="44.82079" lon="5.58127">
        <ele>924</ele>
      </trkpt>
      <trkpt lat="44.82023" lon="5.57896">
        <ele>952</ele>
      </trkpt>
      <trkpt lat="44.81976" lon="5.57641">
        <ele>979</ele>
      </trkpt>
      <trkpt lat="44.81906" lon="5.57282">
        <ele>1020</ele>
      </trkpt>
      <trkpt lat="44.81911" lon="5.57106">
        <ele>1021</ele>
      </trkpt>
    </trkseg>
  </trk>
  <trk>
    <name><![CDATA[St Sebastion cordeac]]></name>
    <trkseg>
      <trkpt lat="44.8373" lon="5.7979">
        <ele>950</ele>
      </trkpt>
      <trkpt lat="44.8374" lon="5.79892">
        <ele>954</ele>
      </trkpt>
      <trkpt lat="44.83847" lon="5.79936">
        <ele>931</ele>
      </trkpt>
      <trkpt lat="44.83887" lon="5.80103">
        <ele>945</ele>
      </trkpt>
      <trkpt lat="44.83852" lon="5.80202">
        <ele>967</ele>
      </trkpt>
      <trkpt lat="44.84004" lon="5.8037">
        <ele>948</ele>
      </trkpt>
      <trkpt lat="44.83897" lon="5.80629">
        <ele>958</ele>
      </trkpt>
      <trkpt lat="44.83838" lon="5.80866">
        <ele>950</ele>
      </trkpt>
      <trkpt lat="44.83835" lon="5.81245">
        <ele>948</ele>
      </trkpt>
      <trkpt lat="44.83781" lon="5.8152">
        <ele>952</ele>
      </trkpt>
      <trkpt lat="44.83835" lon="5.81599">
        <ele>950</ele>
      </trkpt>
      <trkpt lat="44.83858" lon="5.81746">
        <ele>963</ele>
      </trkpt>
      <trkpt lat="44.83967" lon="5.81861">
        <ele>963</ele>
      </trkpt>
      <trkpt lat="44.83981" lon="5.81982">
        <ele>951</ele>
      </trkpt>
      <trkpt lat="44.83831" lon="5.82447">
        <ele>932</ele>
      </trkpt>
      <trkpt lat="44.83664" lon="5.82734">
        <ele>943</ele>
      </trkpt>
      <trkpt lat="44.83557" lon="5.8286">
        <ele>947</ele>
      </trkpt>
      <trkpt lat="44.83459" lon="5.82816">
        <ele>941</ele>
      </trkpt>
      <trkpt lat="44.83234" lon="5.82947">
        <ele>938</ele>
      </trkpt>
      <trkpt lat="44.83054" lon="5.83259">
        <ele>918</ele>
      </trkpt>
      <trkpt lat="44.83" lon="5.83243">
        <ele>924</ele>
      </trkpt>
      <trkpt lat="44.82832" lon="5.83441">
        <ele>913</ele>
      </trkpt>
      <trkpt lat="44.82804" lon="5.83515">
        <ele>913</ele>
      </trkpt>
    </trkseg>
  </trk>
  <trk>
    <name><![CDATA[Traverse vers Mens]]></name>
    <trkseg>
      <trkpt lat="44.79162" lon="5.69842">
        <ele>754</ele>
      </trkpt>
      <trkpt lat="44.79131" lon="5.69967">
        <ele>764</ele>
      </trkpt>
      <trkpt lat="44.79106" lon="5.7006">
        <ele>773</ele>
      </trkpt>
      <trkpt lat="44.79128" lon="5.70086">
        <ele>775</ele>
      </trkpt>
      <trkpt lat="44.79184" lon="5.70178">
        <ele>775</ele>
      </trkpt>
      <trkpt lat="44.79176" lon="5.70272">
        <ele>779</ele>
      </trkpt>
      <trkpt lat="44.79213" lon="5.70401">
        <ele>780</ele>
      </trkpt>
      <trkpt lat="44.79258" lon="5.70555">
        <ele>775</ele>
      </trkpt>
      <trkpt lat="44.79345" lon="5.70662">
        <ele>756</ele>
      </trkpt>
      <trkpt lat="44.79423" lon="5.70761">
        <ele>738</ele>
      </trkpt>
      <trkpt lat="44.79434" lon="5.70832">
        <ele>736</ele>
      </trkpt>
      <trkpt lat="44.79426" lon="5.70932">
        <ele>736</ele>
      </trkpt>
      <trkpt lat="44.79459" lon="5.71054">
        <ele>732</ele>
      </trkpt>
      <trkpt lat="44.79528" lon="5.71141">
        <ele>730</ele>
      </trkpt>
      <trkpt lat="44.79526" lon="5.71197">
        <ele>733</ele>
      </trkpt>
      <trkpt lat="44.7956" lon="5.71282">
        <ele>747</ele>
      </trkpt>
      <trkpt lat="44.79584" lon="5.71359">
        <ele>757</ele>
      </trkpt>
      <trkpt lat="44.79624" lon="5.71393">
        <ele>763</ele>
      </trkpt>
      <trkpt lat="44.79786" lon="5.71542">
        <ele>766</ele>
      </trkpt>
      <trkpt lat="44.79806" lon="5.716">
        <ele>764</ele>
      </trkpt>
      <trkpt lat="44.79867" lon="5.71692">
        <ele>746</ele>
      </trkpt>
      <trkpt lat="44.79887" lon="5.71896">
        <ele>698</ele>
      </trkpt>
      <trkpt lat="44.79898" lon="5.71979">
        <ele>700</ele>
      </trkpt>
      <trkpt lat="44.79929" lon="5.72012">
        <ele>704</ele>
      </trkpt>
      <trkpt lat="44.80033" lon="5.71987">
        <ele>712</ele>
      </trkpt>
      <trkpt lat="44.80144" lon="5.72044">
        <ele>726</ele>
      </trkpt>
      <trkpt lat="44.80271" lon="5.72165">
        <ele>737</ele>
      </trkpt>
      <trkpt lat="44.80141" lon="5.7229">
        <ele>751</ele>
      </trkpt>
      <trkpt lat="44.80115" lon="5.7239">
        <ele>761</ele>
      </trkpt>
      <trkpt lat="44.80068" lon="5.72469">
        <ele>769</ele>
      </trkpt>
      <trkpt lat="44.80046" lon="5.72582">
        <ele>779</ele>
      </trkpt>
      <trkpt lat="44.80012" lon="5.72662">
        <ele>783</ele>
      </trkpt>
      <trkpt lat="44.79974" lon="5.72887">
        <ele>788</ele>
      </trkpt>
      <trkpt lat="44.79968" lon="5.73083">
        <ele>789</ele>
      </trkpt>
      <trkpt lat="44.79971" lon="5.73285">
        <ele>794</ele>
      </trkpt>
      <trkpt lat="44.79956" lon="5.7348">
        <ele>805</ele>
      </trkpt>
      <trkpt lat="44.79885" lon="5.73571">
        <ele>807</ele>
      </trkpt>
      <trkpt lat="44.7985" lon="5.73714">
        <ele>813</ele>
      </trkpt>
      <trkpt lat="44.80033" lon="5.73738">
        <ele>813</ele>
      </trkpt>
      <trkpt lat="44.80105" lon="5.73755">
        <ele>809</ele>
      </trkpt>
      <trkpt lat="44.80301" lon="5.73969">
        <ele>758</ele>
      </trkpt>
      <trkpt lat="44.80396" lon="5.73956">
        <ele>749</ele>
      </trkpt>
      <trkpt lat="44.80495" lon="5.73962">
        <ele>737</ele>
      </trkpt>
      <trkpt lat="44.8054" lon="5.73965">
        <ele>728</ele>
      </trkpt>
      <trkpt lat="44.80546" lon="5.74041">
        <ele>723</ele>
      </trkpt>
      <trkpt lat="44.8058" lon="5.74125">
        <ele>728</ele>
      </trkpt>
      <trkpt lat="44.80635" lon="5.74065">
        <ele>740</ele>
      </trkpt>
      <trkpt lat="44.80759" lon="5.74003">
        <ele>745</ele>
      </trkpt>
      <trkpt lat="44.8094" lon="5.73977">
        <ele>752</ele>
      </trkpt>
      <trkpt lat="44.80961" lon="5.73877">
        <ele>749</ele>
      </trkpt>
      <trkpt lat="44.80997" lon="5.73879">
        <ele>754</ele>
      </trkpt>
      <trkpt lat="44.81014" lon="5.74038">
        <ele>765</ele>
      </trkpt>
      <trkpt lat="44.80986" lon="5.74087">
        <ele>767</ele>
      </trkpt>
      <trkpt lat="44.81008" lon="5.74107">
        <ele>766</ele>
      </trkpt>
      <trkpt lat="44.81103" lon="5.74138">
        <ele>755</ele>
      </trkpt>
      <trkpt lat="44.81186" lon="5.74099">
        <ele>746</ele>
      </trkpt>
      <trkpt lat="44.81201" lon="5.74182">
        <ele>744</ele>
      </trkpt>
      <trkpt lat="44.81255" lon="5.74186">
        <ele>741</ele>
      </trkpt>
      <trkpt lat="44.81271" lon="5.7425">
        <ele>745</ele>
      </trkpt>
      <trkpt lat="44.81456" lon="5.74369">
        <ele>754</ele>
      </trkpt>
      <trkpt lat="44.8162" lon="5.74473">
        <ele>761</ele>
      </trkpt>
    </trkseg>
  </trk>
  <trk>
    <name><![CDATA[Traverse vers Monestier du Percy]]></name>
    <trkseg>
      <trkpt lat="44.78044" lon="5.64185">
        <ele>896</ele>
      </trkpt>
      <trkpt lat="44.781" lon="5.64254">
        <ele>887</ele>
      </trkpt>
      <trkpt lat="44.78245" lon="5.64386">
        <ele>865</ele>
      </trkpt>
      <trkpt lat="44.78364" lon="5.64529">
        <ele>852</ele>
      </trkpt>
      <trkpt lat="44.78675" lon="5.64535">
        <ele>824</ele>
      </trkpt>
      <trkpt lat="44.78944" lon="5.64781">
        <ele>797</ele>
      </trkpt>
      <trkpt lat="44.78986" lon="5.64904">
        <ele>787</ele>
      </trkpt>
      <trkpt lat="44.79006" lon="5.64829">
        <ele>797</ele>
      </trkpt>
      <trkpt lat="44.79083" lon="5.64865">
        <ele>801</ele>
      </trkpt>
      <trkpt lat="44.79139" lon="5.64948">
        <ele>803</ele>
      </trkpt>
      <trkpt lat="44.79366" lon="5.65811">
        <ele>788</ele>
      </trkpt>
    </trkseg>
  </trk>
  <trk>
    <name><![CDATA[Treffort St Sebastien GDP]]></name>
    <trkseg>
      <trkpt lat="44.89894" lon="5.67381">
        <ele>489</ele>
        <time>2009-01-29T14:36:51Z</time>
      </trkpt>
      <trkpt lat="44.89864" lon="5.67335">
        <ele>498</ele>
        <time>2009-01-29T14:36:51Z</time>
      </trkpt>
      <trkpt lat="44.89841" lon="5.67359">
        <ele>496</ele>
        <time>2009-01-29T14:36:51Z</time>
      </trkpt>
      <trkpt lat="44.89811" lon="5.67361">
        <ele>498</ele>
        <time>2009-01-29T14:36:51Z</time>
      </trkpt>
      <trkpt lat="44.89759" lon="5.6737">
        <ele>498</ele>
        <time>2009-01-29T14:36:51Z</time>
      </trkpt>
      <trkpt lat="44.89718" lon="5.67406">
        <ele>492</ele>
        <time>2009-01-29T14:36:51Z</time>
      </trkpt>
      <trkpt lat="44.89688" lon="5.67417">
        <ele>490</ele>
        <time>2009-01-29T14:36:51Z</time>
      </trkpt>
      <trkpt lat="44.8967" lon="5.67406">
        <ele>490</ele>
        <time>2009-01-29T14:36:51Z</time>
      </trkpt>
      <trkpt lat="44.89664" lon="5.67387">
        <ele>493</ele>
        <time>2009-01-29T14:36:51Z</time>
      </trkpt>
      <trkpt lat="44.89624" lon="5.67365">
        <ele>497</ele>
        <time>2009-01-29T14:36:51Z</time>
      </trkpt>
      <trkpt lat="44.89444" lon="5.67361">
        <ele>517</ele>
        <time>2009-01-29T14:36:51Z</time>
      </trkpt>
      <trkpt lat="44.89434" lon="5.67351">
        <ele>520</ele>
        <time>2009-01-29T14:36:51Z</time>
      </trkpt>
      <trkpt lat="44.89443" lon="5.67329">
        <ele>523</ele>
        <time>2009-01-29T14:36:51Z</time>
      </trkpt>
      <trkpt lat="44.89467" lon="5.67292">
        <ele>529</ele>
        <time>2009-01-29T14:36:51Z</time>
      </trkpt>
      <trkpt lat="44.89488" lon="5.67253">
        <ele>535</ele>
        <time>2009-01-29T14:36:51Z</time>
      </trkpt>
      <trkpt lat="44.89436" lon="5.67268">
        <ele>535</ele>
        <time>2009-01-29T14:36:51Z</time>
      </trkpt>
      <trkpt lat="44.89315" lon="5.67309">
        <ele>532</ele>
        <time>2009-01-29T14:36:51Z</time>
      </trkpt>
      <trkpt lat="44.89214" lon="5.67306">
        <ele>531</ele>
        <time>2009-01-29T14:36:51Z</time>
      </trkpt>
      <trkpt lat="44.89153" lon="5.67321">
        <ele>529</ele>
        <time>2009-01-29T14:36:51Z</time>
      </trkpt>
      <trkpt lat="44.8906" lon="5.67338">
        <ele>524</ele>
        <time>2009-01-29T14:36:51Z</time>
      </trkpt>
      <trkpt lat="44.88937" lon="5.67337">
        <ele>520</ele>
        <time>2009-01-29T14:36:51Z</time>
      </trkpt>
      <trkpt lat="44.88762" lon="5.67393">
        <ele>521</ele>
        <time>2009-01-29T14:36:51Z</time>
      </trkpt>
      <trkpt lat="44.88643" lon="5.6743">
        <ele>522</ele>
        <time>2009-01-29T14:36:51Z</time>
      </trkpt>
      <trkpt lat="44.8856" lon="5.67428">
        <ele>528</ele>
        <time>2009-01-29T14:36:51Z</time>
      </trkpt>
      <trkpt lat="44.885" lon="5.67469">
        <ele>524</ele>
        <time>2009-01-29T14:36:51Z</time>
      </trkpt>
      <trkpt lat="44.88453" lon="5.67485">
        <ele>527</ele>
        <time>2009-01-29T14:36:51Z</time>
      </trkpt>
      <trkpt lat="44.88408" lon="5.67489">
        <ele>530</ele>
        <time>2009-01-29T14:36:51Z</time>
      </trkpt>
      <trkpt lat="44.88373" lon="5.67509">
        <ele>531</ele>
        <time>2009-01-29T14:36:51Z</time>
      </trkpt>
      <trkpt lat="44.88325" lon="5.67535">
        <ele>534</ele>
        <time>2009-01-29T14:36:51Z</time>
      </trkpt>
      <trkpt lat="44.88292" lon="5.67577">
        <ele>534</ele>
        <time>2009-01-29T14:36:51Z</time>
      </trkpt>
      <trkpt lat="44.88218" lon="5.67579">
        <ele>543</ele>
        <time>2009-01-29T14:36:51Z</time>
      </trkpt>
      <trkpt lat="44.88137" lon="5.6759">
        <ele>547</ele>
        <time>2009-01-29T14:36:51Z</time>
      </trkpt>
      <trkpt lat="44.88096" lon="5.67603">
        <ele>548</ele>
        <time>2009-01-29T14:36:51Z</time>
      </trkpt>
      <trkpt lat="44.88023" lon="5.67637">
        <ele>543</ele>
        <time>2009-01-29T14:36:51Z</time>
      </trkpt>
      <trkpt lat="44.87981" lon="5.67612">
        <ele>558</ele>
        <time>2009-01-29T14:36:51Z</time>
      </trkpt>
      <trkpt lat="44.87858" lon="5.6757">
        <ele>594</ele>
        <time>2009-01-29T14:36:51Z</time>
      </trkpt>
      <trkpt lat="44.87786" lon="5.67566">
        <ele>602</ele>
        <time>2009-01-29T14:36:51Z</time>
      </trkpt>
      <trkpt lat="44.87697" lon="5.67551">
        <ele>615</ele>
        <time>2009-01-29T14:36:51Z</time>
      </trkpt>
      <trkpt lat="44.87582" lon="5.67538">
        <ele>624</ele>
        <time>2009-01-29T14:36:51Z</time>
      </trkpt>
      <trkpt lat="44.87523" lon="5.67502">
        <ele>641</ele>
        <time>2009-01-29T14:36:51Z</time>
      </trkpt>
      <trkpt lat="44.87453" lon="5.67489">
        <ele>643</ele>
        <time>2009-01-29T14:36:51Z</time>
      </trkpt>
      <trkpt lat="44.87396" lon="5.67454">
        <ele>658</ele>
        <time>2009-01-29T14:36:51Z</time>
      </trkpt>
      <trkpt lat="44.87325" lon="5.67408">
        <ele>670</ele>
        <time>2009-01-29T14:36:51Z</time>
      </trkpt>
      <trkpt lat="44.87317" lon="5.67379">
        <ele>684</ele>
        <time>2009-01-29T14:36:51Z</time>
      </trkpt>
      <trkpt lat="44.87301" lon="5.67372">
        <ele>675</ele>
        <time>2009-01-29T14:36:51Z</time>
      </trkpt>
      <trkpt lat="44.87288" lon="5.67371">
        <ele>663</ele>
        <time>2009-01-29T14:36:51Z</time>
      </trkpt>
      <trkpt lat="44.87282" lon="5.67339">
        <ele>679</ele>
        <time>2009-01-29T14:36:51Z</time>
      </trkpt>
      <trkpt lat="44.87287" lon="5.67267">
        <ele>701</ele>
        <time>2009-01-29T14:36:51Z</time>
      </trkpt>
      <trkpt lat="44.87272" lon="5.67234">
        <ele>690</ele>
        <time>2009-01-29T14:36:51Z</time>
      </trkpt>
      <trkpt lat="44.87253" lon="5.67179">
        <ele>690</ele>
        <time>2009-01-29T14:36:51Z</time>
      </trkpt>
      <trkpt lat="44.87262" lon="5.67116">
        <ele>711</ele>
        <time>2009-01-29T14:36:51Z</time>
      </trkpt>
      <trkpt lat="44.87326" lon="5.67098">
        <ele>722</ele>
        <time>2009-01-29T14:36:51Z</time>
      </trkpt>
      <trkpt lat="44.8738" lon="5.67098">
        <ele>723</ele>
        <time>2009-01-29T14:36:51Z</time>
      </trkpt>
      <trkpt lat="44.87427" lon="5.67095">
        <ele>725</ele>
        <time>2009-01-29T14:36:51Z</time>
      </trkpt>
      <trkpt lat="44.87433" lon="5.67051">
        <ele>728</ele>
        <time>2009-01-29T14:36:51Z</time>
      </trkpt>
      <trkpt lat="44.87388" lon="5.67035">
        <ele>726</ele>
        <time>2009-01-29T14:36:51Z</time>
      </trkpt>
      <trkpt lat="44.87331" lon="5.67054">
        <ele>723</ele>
        <time>2009-01-29T14:36:51Z</time>
      </trkpt>
      <trkpt lat="44.87303" lon="5.6704">
        <ele>719</ele>
        <time>2009-01-29T14:36:51Z</time>
      </trkpt>
      <trkpt lat="44.8724" lon="5.67036">
        <ele>703</ele>
        <time>2009-01-29T14:36:51Z</time>
      </trkpt>
      <trkpt lat="44.87206" lon="5.67047">
        <ele>684</ele>
        <time>2009-01-29T14:36:51Z</time>
      </trkpt>
      <trkpt lat="44.87218" lon="5.66997">
        <ele>689</ele>
        <time>2009-01-29T14:36:51Z</time>
      </trkpt>
      <trkpt lat="44.87133" lon="5.66989">
        <ele>656</ele>
        <time>2009-01-29T14:36:51Z</time>
      </trkpt>
      <trkpt lat="44.87077" lon="5.66979">
        <ele>637</ele>
        <time>2009-01-29T14:36:51Z</time>
      </trkpt>
      <trkpt lat="44.87029" lon="5.66928">
        <ele>621</ele>
        <time>2009-01-29T14:36:51Z</time>
      </trkpt>
      <trkpt lat="44.86989" lon="5.66907">
        <ele>607</ele>
        <time>2009-01-29T14:36:51Z</time>
      </trkpt>
      <trkpt lat="44.86975" lon="5.66862">
        <ele>596</ele>
        <time>2009-01-29T14:36:51Z</time>
      </trkpt>
      <trkpt lat="44.86946" lon="5.66844">
        <ele>582</ele>
        <time>2009-01-29T14:36:51Z</time>
      </trkpt>
      <trkpt lat="44.8694" lon="5.66895">
        <ele>589</ele>
        <time>2009-01-29T14:36:51Z</time>
      </trkpt>
      <trkpt lat="44.86937" lon="5.66983">
        <ele>581</ele>
        <time>2009-01-29T14:36:51Z</time>
      </trkpt>
      <trkpt lat="44.86931" lon="5.67052">
        <ele>538</ele>
        <time>2009-01-29T14:36:51Z</time>
      </trkpt>
      <trkpt lat="44.86915" lon="5.67045">
        <ele>540</ele>
        <time>2009-01-29T14:36:51Z</time>
      </trkpt>
      <trkpt lat="44.86916" lon="5.67017">
        <ele>563</ele>
        <time>2009-01-29T14:36:51Z</time>
      </trkpt>
      <trkpt lat="44.86915" lon="5.66963">
        <ele>578</ele>
        <time>2009-01-29T14:36:51Z</time>
      </trkpt>
      <trkpt lat="44.86874" lon="5.66846">
        <ele>564</ele>
        <time>2009-01-29T14:36:51Z</time>
      </trkpt>
      <trkpt lat="44.8686" lon="5.66852">
        <ele>559</ele>
        <time>2009-01-29T14:36:51Z</time>
      </trkpt>
      <trkpt lat="44.86856" lon="5.66928">
        <ele>557</ele>
        <time>2009-01-29T14:36:51Z</time>
      </trkpt>
      <trkpt lat="44.86839" lon="5.67028">
        <ele>525</ele>
        <time>2009-01-29T14:36:51Z</time>
      </trkpt>
      <trkpt lat="44.86827" lon="5.67062">
        <ele>503</ele>
        <time>2009-01-29T14:36:51Z</time>
      </trkpt>
      <trkpt lat="44.86793" lon="5.6713">
        <ele>528</ele>
        <time>2009-01-29T14:36:51Z</time>
      </trkpt>
      <trkpt lat="44.86726" lon="5.67281">
        <ele>566</ele>
        <time>2009-01-29T14:36:51Z</time>
      </trkpt>
      <trkpt lat="44.86718" lon="5.6753">
        <ele>564</ele>
        <time>2009-01-29T14:36:51Z</time>
      </trkpt>
      <trkpt lat="44.8673" lon="5.67594">
        <ele>569</ele>
        <time>2009-01-29T14:36:51Z</time>
      </trkpt>
      <trkpt lat="44.86728" lon="5.67651">
        <ele>577</ele>
        <time>2009-01-29T14:36:51Z</time>
      </trkpt>
      <trkpt lat="44.86717" lon="5.67641">
        <ele>575</ele>
        <time>2009-01-29T14:36:51Z</time>
      </trkpt>
      <trkpt lat="44.86626" lon="5.67379">
        <ele>581</ele>
        <time>2009-01-29T14:36:51Z</time>
      </trkpt>
      <trkpt lat="44.86613" lon="5.67369">
        <ele>584</ele>
        <time>2009-01-29T14:36:51Z</time>
      </trkpt>
      <trkpt lat="44.86601" lon="5.6739">
        <ele>588</ele>
        <time>2009-01-29T14:36:51Z</time>
      </trkpt>
      <trkpt lat="44.86609" lon="5.67483">
        <ele>589</ele>
        <time>2009-01-29T14:36:51Z</time>
      </trkpt>
      <trkpt lat="44.86595" lon="5.67507">
        <ele>592</ele>
        <time>2009-01-29T14:36:51Z</time>
      </trkpt>
      <trkpt lat="44.86543" lon="5.67526">
        <ele>603</ele>
        <time>2009-01-29T14:36:51Z</time>
      </trkpt>
      <trkpt lat="44.86511" lon="5.67553">
        <ele>607</ele>
        <time>2009-01-29T14:36:51Z</time>
      </trkpt>
      <trkpt lat="44.86494" lon="5.67568">
        <ele>610</ele>
        <time>2009-01-29T14:36:51Z</time>
      </trkpt>
      <trkpt lat="44.86467" lon="5.67566">
        <ele>614</ele>
        <time>2009-01-29T14:36:51Z</time>
      </trkpt>
      <trkpt lat="44.86456" lon="5.67572">
        <ele>616</ele>
        <time>2009-01-29T14:36:51Z</time>
      </trkpt>
      <trkpt lat="44.86445" lon="5.67558">
        <ele>618</ele>
        <time>2009-01-29T14:36:51Z</time>
      </trkpt>
      <trkpt lat="44.86428" lon="5.67592">
        <ele>621</ele>
        <time>2009-01-29T14:36:51Z</time>
      </trkpt>
      <trkpt lat="44.86351" lon="5.67603">
        <ele>636</ele>
        <time>2009-01-29T14:36:51Z</time>
      </trkpt>
      <trkpt lat="44.86284" lon="5.67659">
        <ele>646</ele>
        <time>2009-01-29T14:36:51Z</time>
      </trkpt>
      <trkpt lat="44.86264" lon="5.67671">
        <ele>650</ele>
        <time>2009-01-29T14:36:51Z</time>
      </trkpt>
      <trkpt lat="44.86246" lon="5.67667">
        <ele>653</ele>
        <time>2009-01-29T14:36:51Z</time>
      </trkpt>
      <trkpt lat="44.86215" lon="5.67712">
        <ele>659</ele>
        <time>2009-01-29T14:36:51Z</time>
      </trkpt>
      <trkpt lat="44.86188" lon="5.6772">
        <ele>664</ele>
        <time>2009-01-29T14:36:51Z</time>
      </trkpt>
      <trkpt lat="44.86166" lon="5.677">
        <ele>668</ele>
        <time>2009-01-29T14:36:51Z</time>
      </trkpt>
      <trkpt lat="44.86156" lon="5.67668">
        <ele>670</ele>
        <time>2009-01-29T14:36:51Z</time>
      </trkpt>
      <trkpt lat="44.86132" lon="5.67641">
        <ele>673</ele>
        <time>2009-01-29T14:36:51Z</time>
      </trkpt>
      <trkpt lat="44.86108" lon="5.67627">
        <ele>677</ele>
        <time>2009-01-29T14:36:51Z</time>
      </trkpt>
      <trkpt lat="44.86088" lon="5.67622">
        <ele>680</ele>
        <time>2009-01-29T14:36:51Z</time>
      </trkpt>
      <trkpt lat="44.86054" lon="5.67627">
        <ele>686</ele>
        <time>2009-01-29T14:36:51Z</time>
      </trkpt>
      <trkpt lat="44.86031" lon="5.67632">
        <ele>690</ele>
        <time>2009-01-29T14:36:51Z</time>
      </trkpt>
      <trkpt lat="44.85986" lon="5.67632">
        <ele>697</ele>
        <time>2009-01-29T14:36:51Z</time>
      </trkpt>
      <trkpt lat="44.85964" lon="5.67624">
        <ele>699</ele>
        <time>2009-01-29T14:36:51Z</time>
      </trkpt>
      <trkpt lat="44.85909" lon="5.67646">
        <ele>705</ele>
        <time>2009-01-29T14:36:51Z</time>
      </trkpt>
      <trkpt lat="44.85926" lon="5.67685">
        <ele>704</ele>
        <time>2009-01-29T14:36:51Z</time>
      </trkpt>
      <trkpt lat="44.85878" lon="5.67702">
        <ele>709</ele>
        <time>2009-01-29T14:36:51Z</time>
      </trkpt>
      <trkpt lat="44.85851" lon="5.67709">
        <ele>713</ele>
        <time>2009-01-29T14:36:51Z</time>
      </trkpt>
      <trkpt lat="44.85828" lon="5.6773">
        <ele>717</ele>
        <time>2009-01-29T14:36:51Z</time>
      </trkpt>
      <trkpt lat="44.85811" lon="5.67758">
        <ele>724</ele>
        <time>2009-01-29T14:36:51Z</time>
      </trkpt>
      <trkpt lat="44.85801" lon="5.67937">
        <ele>757</ele>
        <time>2009-01-29T14:36:51Z</time>
      </trkpt>
      <trkpt lat="44.85823" lon="5.6804">
        <ele>741</ele>
        <time>2009-01-29T14:36:51Z</time>
      </trkpt>
      <trkpt lat="44.85821" lon="5.68091">
        <ele>728</ele>
        <time>2009-01-29T14:36:51Z</time>
      </trkpt>
      <trkpt lat="44.85784" lon="5.68133">
        <ele>729</ele>
        <time>2009-01-29T14:36:51Z</time>
      </trkpt>
      <trkpt lat="44.85751" lon="5.68197">
        <ele>729</ele>
        <time>2009-01-29T14:36:51Z</time>
      </trkpt>
      <trkpt lat="44.85728" lon="5.68278">
        <ele>730</ele>
        <time>2009-01-29T14:36:51Z</time>
      </trkpt>
      <trkpt lat="44.85714" lon="5.68423">
        <ele>710</ele>
        <time>2009-01-29T14:36:51Z</time>
      </trkpt>
      <trkpt lat="44.8568" lon="5.68455">
        <ele>712</ele>
        <time>2009-01-29T14:36:51Z</time>
      </trkpt>
      <trkpt lat="44.85625" lon="5.68481">
        <ele>728</ele>
        <time>2009-01-29T14:36:51Z</time>
      </trkpt>
      <trkpt lat="44.8553" lon="5.6856">
        <ele>757</ele>
        <time>2009-01-29T14:36:51Z</time>
      </trkpt>
      <trkpt lat="44.85428" lon="5.68652">
        <ele>771</ele>
        <time>2009-01-29T14:36:51Z</time>
      </trkpt>
      <trkpt lat="44.85403" lon="5.68689">
        <ele>767</ele>
        <time>2009-01-29T14:36:51Z</time>
      </trkpt>
      <trkpt lat="44.85356" lon="5.68737">
        <ele>766</ele>
        <time>2009-01-29T14:36:51Z</time>
      </trkpt>
      <trkpt lat="44.85333" lon="5.68757">
        <ele>767</ele>
        <time>2009-01-29T14:36:51Z</time>
      </trkpt>
      <trkpt lat="44.85306" lon="5.68816">
        <ele>763</ele>
        <time>2009-01-29T14:36:51Z</time>
      </trkpt>
      <trkpt lat="44.85288" lon="5.68846">
        <ele>760</ele>
        <time>2009-01-29T14:36:51Z</time>
      </trkpt>
      <trkpt lat="44.85241" lon="5.68894">
        <ele>758</ele>
        <time>2009-01-29T14:36:51Z</time>
      </trkpt>
      <trkpt lat="44.85181" lon="5.68948">
        <ele>763</ele>
        <time>2009-01-29T14:36:51Z</time>
      </trkpt>
      <trkpt lat="44.8513" lon="5.68979">
        <ele>779</ele>
        <time>2009-01-29T14:36:51Z</time>
      </trkpt>
      <trkpt lat="44.85098" lon="5.69015">
        <ele>785</ele>
        <time>2009-01-29T14:36:51Z</time>
      </trkpt>
      <trkpt lat="44.85054" lon="5.69057">
        <ele>788</ele>
        <time>2009-01-29T14:36:51Z</time>
      </trkpt>
      <trkpt lat="44.85011" lon="5.69064">
        <ele>794</ele>
        <time>2009-01-29T14:36:51Z</time>
      </trkpt>
      <trkpt lat="44.84993" lon="5.69139">
        <ele>775</ele>
        <time>2009-01-29T14:36:51Z</time>
      </trkpt>
      <trkpt lat="44.84971" lon="5.69176">
        <ele>766</ele>
        <time>2009-01-29T14:36:51Z</time>
      </trkpt>
      <trkpt lat="44.84961" lon="5.69219">
        <ele>759</ele>
        <time>2009-01-29T14:36:51Z</time>
      </trkpt>
      <trkpt lat="44.84918" lon="5.69315">
        <ele>753</ele>
        <time>2009-01-29T14:36:51Z</time>
      </trkpt>
      <trkpt lat="44.84921" lon="5.69347">
        <ele>751</ele>
        <time>2009-01-29T14:36:51Z</time>
      </trkpt>
      <trkpt lat="44.8494" lon="5.69392">
        <ele>747</ele>
        <time>2009-01-29T14:36:51Z</time>
      </trkpt>
      <trkpt lat="44.84907" lon="5.6946">
        <ele>752</ele>
        <time>2009-01-29T14:36:51Z</time>
      </trkpt>
      <trkpt lat="44.8488" lon="5.69534">
        <ele>756</ele>
        <time>2009-01-29T14:36:51Z</time>
      </trkpt>
      <trkpt lat="44.84845" lon="5.69567">
        <ele>761</ele>
        <time>2009-01-29T14:36:51Z</time>
      </trkpt>
      <trkpt lat="44.84788" lon="5.69645">
        <ele>769</ele>
        <time>2009-01-29T14:36:51Z</time>
      </trkpt>
      <trkpt lat="44.84778" lon="5.69695">
        <ele>770</ele>
        <time>2009-01-29T14:36:51Z</time>
      </trkpt>
      <trkpt lat="44.84761" lon="5.6972">
        <ele>772</ele>
        <time>2009-01-29T14:36:51Z</time>
      </trkpt>
      <trkpt lat="44.84777" lon="5.69787">
        <ele>766</ele>
        <time>2009-01-29T14:36:51Z</time>
      </trkpt>
      <trkpt lat="44.84775" lon="5.69996">
        <ele>759</ele>
        <time>2009-01-29T14:36:51Z</time>
      </trkpt>
      <trkpt lat="44.84767" lon="5.70135">
        <ele>762</ele>
        <time>2009-01-29T14:36:51Z</time>
      </trkpt>
      <trkpt lat="44.84793" lon="5.70316">
        <ele>769</ele>
        <time>2009-01-29T14:36:51Z</time>
      </trkpt>
      <trkpt lat="44.84812" lon="5.70485">
        <ele>774</ele>
        <time>2009-01-29T14:36:51Z</time>
      </trkpt>
      <trkpt lat="44.84853" lon="5.70545">
        <ele>776</ele>
        <time>2009-01-29T14:36:51Z</time>
      </trkpt>
      <trkpt lat="44.84895" lon="5.70582">
        <ele>779</ele>
        <time>2009-01-29T14:36:51Z</time>
      </trkpt>
      <trkpt lat="44.84912" lon="5.70624">
        <ele>781</ele>
        <time>2009-01-29T14:36:51Z</time>
      </trkpt>
      <trkpt lat="44.84925" lon="5.70707">
        <ele>788</ele>
        <time>2009-01-29T14:36:51Z</time>
      </trkpt>
      <trkpt lat="44.84963" lon="5.7071">
        <ele>790</ele>
        <time>2009-01-29T14:36:51Z</time>
      </trkpt>
      <trkpt lat="44.84994" lon="5.70724">
        <ele>792</ele>
        <time>2009-01-29T14:36:51Z</time>
      </trkpt>
      <trkpt lat="44.85015" lon="5.70773">
        <ele>797</ele>
        <time>2009-01-29T14:36:51Z</time>
      </trkpt>
      <trkpt lat="44.85057" lon="5.7074">
        <ele>799</ele>
        <time>2009-01-29T14:36:51Z</time>
      </trkpt>
      <trkpt lat="44.8508" lon="5.7071">
        <ele>799</ele>
        <time>2009-01-29T14:36:51Z</time>
      </trkpt>
      <trkpt lat="44.85133" lon="5.70663">
        <ele>799</ele>
        <time>2009-01-29T14:36:51Z</time>
      </trkpt>
      <trkpt lat="44.8527" lon="5.70665">
        <ele>796</ele>
        <time>2009-01-29T14:36:51Z</time>
      </trkpt>
      <trkpt lat="44.85374" lon="5.70671">
        <ele>794</ele>
        <time>2009-01-29T14:36:51Z</time>
      </trkpt>
      <trkpt lat="44.85416" lon="5.7068">
        <ele>795</ele>
        <time>2009-01-29T14:36:51Z</time>
      </trkpt>
      <trkpt lat="44.85455" lon="5.7066">
        <ele>794</ele>
        <time>2009-01-29T14:36:51Z</time>
      </trkpt>
      <trkpt lat="44.85543" lon="5.70732">
        <ele>794</ele>
        <time>2009-01-29T14:36:51Z</time>
      </trkpt>
      <trkpt lat="44.85615" lon="5.70743">
        <ele>793</ele>
        <time>2009-01-29T14:36:51Z</time>
      </trkpt>
      <trkpt lat="44.85679" lon="5.70762">
        <ele>795</ele>
        <time>2009-01-29T14:36:51Z</time>
      </trkpt>
      <trkpt lat="44.85785" lon="5.70772">
        <ele>797</ele>
        <time>2009-01-29T14:36:51Z</time>
      </trkpt>
      <trkpt lat="44.85813" lon="5.70808">
        <ele>807</ele>
        <time>2009-01-29T14:36:51Z</time>
      </trkpt>
      <trkpt lat="44.85876" lon="5.70822">
        <ele>819</ele>
        <time>2009-01-29T14:36:51Z</time>
      </trkpt>
      <trkpt lat="44.85985" lon="5.70847">
        <ele>833</ele>
        <time>2009-01-29T14:36:51Z</time>
      </trkpt>
      <trkpt lat="44.86064" lon="5.70858">
        <ele>820</ele>
        <time>2009-01-29T14:36:51Z</time>
      </trkpt>
      <trkpt lat="44.86112" lon="5.70877">
        <ele>803</ele>
        <time>2009-01-29T14:36:51Z</time>
      </trkpt>
      <trkpt lat="44.86119" lon="5.70893">
        <ele>796</ele>
        <time>2009-01-29T14:36:51Z</time>
      </trkpt>
      <trkpt lat="44.86076" lon="5.70951">
        <ele>794</ele>
        <time>2009-01-29T14:36:51Z</time>
      </trkpt>
      <trkpt lat="44.86043" lon="5.71009">
        <ele>812</ele>
        <time>2009-01-29T14:36:51Z</time>
      </trkpt>
      <trkpt lat="44.86049" lon="5.71053">
        <ele>822</ele>
        <time>2009-01-29T14:36:51Z</time>
      </trkpt>
      <trkpt lat="44.8609" lon="5.71103">
        <ele>821</ele>
        <time>2009-01-29T14:36:51Z</time>
      </trkpt>
      <trkpt lat="44.86107" lon="5.7112">
        <ele>818</ele>
        <time>2009-01-29T14:36:51Z</time>
      </trkpt>
      <trkpt lat="44.86161" lon="5.71275">
        <ele>799</ele>
        <time>2009-01-29T14:36:51Z</time>
      </trkpt>
      <trkpt lat="44.86111" lon="5.71453">
        <ele>825</ele>
        <time>2009-01-29T14:36:51Z</time>
      </trkpt>
      <trkpt lat="44.86176" lon="5.71583">
        <ele>802</ele>
        <time>2009-01-29T14:36:51Z</time>
      </trkpt>
      <trkpt lat="44.86182" lon="5.71606">
        <ele>794</ele>
        <time>2009-01-29T14:36:51Z</time>
      </trkpt>
      <trkpt lat="44.86175" lon="5.71637">
        <ele>791</ele>
        <time>2009-01-29T14:36:51Z</time>
      </trkpt>
      <trkpt lat="44.86153" lon="5.71677">
        <ele>791</ele>
        <time>2009-01-29T14:36:51Z</time>
      </trkpt>
      <trkpt lat="44.86128" lon="5.71701">
        <ele>795</ele>
        <time>2009-01-29T14:36:51Z</time>
      </trkpt>
      <trkpt lat="44.86085" lon="5.71714">
        <ele>802</ele>
        <time>2009-01-29T14:36:51Z</time>
      </trkpt>
      <trkpt lat="44.86042" lon="5.71718">
        <ele>804</ele>
        <time>2009-01-29T14:36:51Z</time>
      </trkpt>
      <trkpt lat="44.85965" lon="5.71719">
        <ele>796</ele>
        <time>2009-01-29T14:36:51Z</time>
      </trkpt>
      <trkpt lat="44.85913" lon="5.71726">
        <ele>799</ele>
        <time>2009-01-29T14:36:51Z</time>
      </trkpt>
      <trkpt lat="44.85876" lon="5.71771">
        <ele>814</ele>
        <time>2009-01-29T14:36:51Z</time>
      </trkpt>
      <trkpt lat="44.85897" lon="5.71829">
        <ele>825</ele>
        <time>2009-01-29T14:36:51Z</time>
      </trkpt>
      <trkpt lat="44.85927" lon="5.71875">
        <ele>820</ele>
        <time>2009-01-29T14:36:51Z</time>
      </trkpt>
      <trkpt lat="44.85954" lon="5.71943">
        <ele>819</ele>
        <time>2009-01-29T14:36:51Z</time>
      </trkpt>
      <trkpt lat="44.85981" lon="5.72005">
        <ele>812</ele>
        <time>2009-01-29T14:36:51Z</time>
      </trkpt>
      <trkpt lat="44.85948" lon="5.72127">
        <ele>819</ele>
        <time>2009-01-29T14:36:51Z</time>
      </trkpt>
      <trkpt lat="44.8592" lon="5.72172">
        <ele>821</ele>
        <time>2009-01-29T14:36:51Z</time>
      </trkpt>
      <trkpt lat="44.85881" lon="5.72252">
        <ele>810</ele>
        <time>2009-01-29T14:36:51Z</time>
      </trkpt>
      <trkpt lat="44.85839" lon="5.72303">
        <ele>804</ele>
        <time>2009-01-29T14:36:51Z</time>
      </trkpt>
      <trkpt lat="44.85786" lon="5.72345">
        <ele>801</ele>
        <time>2009-01-29T14:36:51Z</time>
      </trkpt>
      <trkpt lat="44.8574" lon="5.72373">
        <ele>801</ele>
        <time>2009-01-29T14:36:51Z</time>
      </trkpt>
      <trkpt lat="44.85607" lon="5.72457">
        <ele>793</ele>
        <time>2009-01-29T14:36:51Z</time>
      </trkpt>
      <trkpt lat="44.85577" lon="5.7243">
        <ele>810</ele>
        <time>2009-01-29T14:36:51Z</time>
      </trkpt>
      <trkpt lat="44.85548" lon="5.72488">
        <ele>798</ele>
        <time>2009-01-29T14:36:51Z</time>
      </trkpt>
      <trkpt lat="44.85486" lon="5.72526">
        <ele>811</ele>
        <time>2009-01-29T14:36:51Z</time>
      </trkpt>
      <trkpt lat="44.85449" lon="5.72568">
        <ele>813</ele>
        <time>2009-01-29T14:36:51Z</time>
      </trkpt>
      <trkpt lat="44.85408" lon="5.72641">
        <ele>809</ele>
        <time>2009-01-29T14:36:51Z</time>
      </trkpt>
      <trkpt lat="44.85374" lon="5.72652">
        <ele>821</ele>
        <time>2009-01-29T14:36:51Z</time>
      </trkpt>
      <trkpt lat="44.85348" lon="5.72688">
        <ele>824</ele>
        <time>2009-01-29T14:36:51Z</time>
      </trkpt>
      <trkpt lat="44.85308" lon="5.72752">
        <ele>825</ele>
        <time>2009-01-29T14:36:51Z</time>
      </trkpt>
      <trkpt lat="44.85258" lon="5.72822">
        <ele>831</ele>
        <time>2009-01-29T14:36:51Z</time>
      </trkpt>
      <trkpt lat="44.85138" lon="5.73005">
        <ele>807</ele>
        <time>2009-01-29T14:36:51Z</time>
      </trkpt>
      <trkpt lat="44.85066" lon="5.73073">
        <ele>813</ele>
        <time>2009-01-29T14:36:51Z</time>
      </trkpt>
      <trkpt lat="44.85039" lon="5.7316">
        <ele>800</ele>
        <time>2009-01-29T14:36:51Z</time>
      </trkpt>
      <trkpt lat="44.84996" lon="5.7329">
        <ele>787</ele>
        <time>2009-01-29T14:36:51Z</time>
      </trkpt>
      <trkpt lat="44.84957" lon="5.73342">
        <ele>775</ele>
        <time>2009-01-29T14:36:51Z</time>
      </trkpt>
      <trkpt lat="44.84894" lon="5.73404">
        <ele>764</ele>
        <time>2009-01-29T14:36:51Z</time>
      </trkpt>
      <trkpt lat="44.84877" lon="5.73428">
        <ele>762</ele>
        <time>2009-01-29T14:36:51Z</time>
      </trkpt>
      <trkpt lat="44.84914" lon="5.73469">
        <ele>750</ele>
        <time>2009-01-29T14:36:51Z</time>
      </trkpt>
      <trkpt lat="44.84927" lon="5.73511">
        <ele>745</ele>
        <time>2009-01-29T14:36:51Z</time>
      </trkpt>
      <trkpt lat="44.84946" lon="5.73543">
        <ele>738</ele>
        <time>2009-01-29T14:36:51Z</time>
      </trkpt>
      <trkpt lat="44.84975" lon="5.73631">
        <ele>729</ele>
        <time>2009-01-29T14:36:51Z</time>
      </trkpt>
      <trkpt lat="44.85074" lon="5.73763">
        <ele>740</ele>
        <time>2009-01-29T14:36:51Z</time>
      </trkpt>
      <trkpt lat="44.85146" lon="5.73828">
        <ele>743</ele>
        <time>2009-01-29T14:36:51Z</time>
      </trkpt>
      <trkpt lat="44.85179" lon="5.73861">
        <ele>743</ele>
        <time>2009-01-29T14:36:51Z</time>
      </trkpt>
      <trkpt lat="44.85232" lon="5.73902">
        <ele>738</ele>
        <time>2009-01-29T14:36:51Z</time>
      </trkpt>
      <trkpt lat="44.85245" lon="5.73932">
        <ele>739</ele>
        <time>2009-01-29T14:36:51Z</time>
      </trkpt>
      <trkpt lat="44.85222" lon="5.73943">
        <ele>739</ele>
        <time>2009-01-29T14:36:51Z</time>
      </trkpt>
      <trkpt lat="44.85175" lon="5.73981">
        <ele>740</ele>
        <time>2009-01-29T14:36:51Z</time>
      </trkpt>
      <trkpt lat="44.85131" lon="5.74036">
        <ele>741</ele>
        <time>2009-01-29T14:36:51Z</time>
      </trkpt>
      <trkpt lat="44.85076" lon="5.7408">
        <ele>743</ele>
        <time>2009-01-29T14:36:51Z</time>
      </trkpt>
      <trkpt lat="44.85052" lon="5.74119">
        <ele>745</ele>
        <time>2009-01-29T14:36:51Z</time>
      </trkpt>
      <trkpt lat="44.85015" lon="5.74139">
        <ele>746</ele>
        <time>2009-01-29T14:36:51Z</time>
      </trkpt>
      <trkpt lat="44.84946" lon="5.74186">
        <ele>748</ele>
        <time>2009-01-29T14:36:51Z</time>
      </trkpt>
      <trkpt lat="44.84898" lon="5.74233">
        <ele>751</ele>
        <time>2009-01-29T14:36:51Z</time>
      </trkpt>
      <trkpt lat="44.84845" lon="5.74268">
        <ele>753</ele>
        <time>2009-01-29T14:36:51Z</time>
      </trkpt>
      <trkpt lat="44.84796" lon="5.74303">
        <ele>755</ele>
        <time>2009-01-29T14:36:51Z</time>
      </trkpt>
      <trkpt lat="44.84813" lon="5.74339">
        <ele>757</ele>
        <time>2009-01-29T14:36:51Z</time>
      </trkpt>
      <trkpt lat="44.84796" lon="5.74376">
        <ele>759</ele>
        <time>2009-01-29T14:36:51Z</time>
      </trkpt>
      <trkpt lat="44.84751" lon="5.74392">
        <ele>758</ele>
        <time>2009-01-29T14:36:51Z</time>
      </trkpt>
      <trkpt lat="44.84676" lon="5.74489">
        <ele>758</ele>
        <time>2009-01-29T14:36:51Z</time>
      </trkpt>
      <trkpt lat="44.84629" lon="5.74631">
        <ele>763</ele>
        <time>2009-01-29T14:36:51Z</time>
      </trkpt>
      <trkpt lat="44.84597" lon="5.74715">
        <ele>770</ele>
        <time>2009-01-29T14:36:51Z</time>
      </trkpt>
      <trkpt lat="44.84555" lon="5.74823">
        <ele>775</ele>
        <time>2009-01-29T14:36:51Z</time>
      </trkpt>
      <trkpt lat="44.84531" lon="5.74897">
        <ele>775</ele>
        <time>2009-01-29T14:36:51Z</time>
      </trkpt>
      <trkpt lat="44.84536" lon="5.75018">
        <ele>776</ele>
        <time>2009-01-29T14:36:51Z</time>
      </trkpt>
      <trkpt lat="44.84539" lon="5.75202">
        <ele>775</ele>
        <time>2009-01-29T14:36:51Z</time>
      </trkpt>
      <trkpt lat="44.84579" lon="5.75223">
        <ele>782</ele>
        <time>2009-01-29T14:36:51Z</time>
      </trkpt>
      <trkpt lat="44.84631" lon="5.75423">
        <ele>781</ele>
        <time>2009-01-29T14:36:51Z</time>
      </trkpt>
      <trkpt lat="44.84662" lon="5.75462">
        <ele>785</ele>
        <time>2009-01-29T14:36:51Z</time>
      </trkpt>
      <trkpt lat="44.84571" lon="5.75488">
        <ele>780</ele>
        <time>2009-01-29T14:36:51Z</time>
      </trkpt>
      <trkpt lat="44.84632" lon="5.75688">
        <ele>784</ele>
        <time>2009-01-29T14:36:51Z</time>
      </trkpt>
      <trkpt lat="44.84657" lon="5.75772">
        <ele>791</ele>
        <time>2009-01-29T14:36:51Z</time>
      </trkpt>
      <trkpt lat="44.84714" lon="5.76111">
        <ele>795</ele>
        <time>2009-01-29T14:36:51Z</time>
      </trkpt>
      <trkpt lat="44.84679" lon="5.76197">
        <ele>796</ele>
        <time>2009-01-29T14:36:51Z</time>
      </trkpt>
      <trkpt lat="44.84629" lon="5.76226">
        <ele>798</ele>
        <time>2009-01-29T14:36:51Z</time>
      </trkpt>
      <trkpt lat="44.84528" lon="5.76296">
        <ele>809</ele>
        <time>2009-01-29T14:36:51Z</time>
      </trkpt>
      <trkpt lat="44.84471" lon="5.76393">
        <ele>820</ele>
        <time>2009-01-29T14:36:51Z</time>
      </trkpt>
      <trkpt lat="44.84493" lon="5.76699">
        <ele>838</ele>
        <time>2009-01-29T14:36:51Z</time>
      </trkpt>
      <trkpt lat="44.84548" lon="5.77088">
        <ele>846</ele>
        <time>2009-01-29T14:36:51Z</time>
      </trkpt>
      <trkpt lat="44.84553" lon="5.77215">
        <ele>850</ele>
        <time>2009-01-29T14:36:51Z</time>
      </trkpt>
      <trkpt lat="44.84587" lon="5.7728">
        <ele>849</ele>
        <time>2009-01-29T14:36:51Z</time>
      </trkpt>
      <trkpt lat="44.84589" lon="5.77356">
        <ele>854</ele>
        <time>2009-01-29T14:36:51Z</time>
      </trkpt>
      <trkpt lat="44.84655" lon="5.7743">
        <ele>853</ele>
        <time>2009-01-29T14:36:51Z</time>
      </trkpt>
      <trkpt lat="44.84739" lon="5.77454">
        <ele>846</ele>
        <time>2009-01-29T14:36:51Z</time>
      </trkpt>
      <trkpt lat="44.84837" lon="5.77492">
        <ele>844</ele>
        <time>2009-01-29T14:36:51Z</time>
      </trkpt>
      <trkpt lat="44.84904" lon="5.77654">
        <ele>865</ele>
        <time>2009-01-29T14:36:51Z</time>
      </trkpt>
      <trkpt lat="44.84915" lon="5.77724">
        <ele>880</ele>
        <time>2009-01-29T14:36:51Z</time>
      </trkpt>
      <trkpt lat="44.84952" lon="5.7772">
        <ele>881</ele>
        <time>2009-01-29T14:36:51Z</time>
      </trkpt>
      <trkpt lat="44.85039" lon="5.77662">
        <ele>872</ele>
        <time>2009-01-29T14:36:51Z</time>
      </trkpt>
      <trkpt lat="44.85328" lon="5.77629">
        <ele>830</ele>
        <time>2009-01-29T14:36:51Z</time>
      </trkpt>
      <trkpt lat="44.85372" lon="5.7767">
        <ele>827</ele>
        <time>2009-01-29T14:36:51Z</time>
      </trkpt>
      <trkpt lat="44.853" lon="5.77938">
        <ele>837</ele>
        <time>2009-01-29T14:36:51Z</time>
      </trkpt>
      <trkpt lat="44.85304" lon="5.78103">
        <ele>838</ele>
        <time>2009-01-29T14:36:51Z</time>
      </trkpt>
      <trkpt lat="44.85252" lon="5.78182">
        <ele>845</ele>
        <time>2009-01-29T14:36:51Z</time>
      </trkpt>
      <trkpt lat="44.85187" lon="5.78241">
        <ele>856</ele>
        <time>2009-01-29T14:36:51Z</time>
      </trkpt>
      <trkpt lat="44.85162" lon="5.78347">
        <ele>860</ele>
        <time>2009-01-29T14:36:51Z</time>
      </trkpt>
      <trkpt lat="44.85113" lon="5.78616">
        <ele>872</ele>
        <time>2009-01-29T14:36:51Z</time>
      </trkpt>
      <trkpt lat="44.84998" lon="5.7883">
        <ele>895</ele>
        <time>2009-01-29T14:36:51Z</time>
      </trkpt>
      <trkpt lat="44.84954" lon="5.78929">
        <ele>907</ele>
        <time>2009-01-29T14:36:51Z</time>
      </trkpt>
      <trkpt lat="44.84948" lon="5.78986">
        <ele>917</ele>
        <time>2009-01-29T14:36:51Z</time>
      </trkpt>
      <trkpt lat="44.85036" lon="5.79067">
        <ele>916</ele>
        <time>2009-01-29T14:36:51Z</time>
      </trkpt>
      <trkpt lat="44.8494" lon="5.79232">
        <ele>894</ele>
        <time>2009-01-29T14:36:51Z</time>
      </trkpt>
      <trkpt lat="44.84879" lon="5.79317">
        <ele>886</ele>
        <time>2009-01-29T14:36:51Z</time>
      </trkpt>
      <trkpt lat="44.84823" lon="5.79395">
        <ele>878</ele>
        <time>2009-01-29T14:36:51Z</time>
      </trkpt>
      <trkpt lat="44.84791" lon="5.79533">
        <ele>867</ele>
        <time>2009-01-29T14:36:51Z</time>
      </trkpt>
      <trkpt lat="44.84823" lon="5.7968">
        <ele>863</ele>
        <time>2009-01-29T14:36:51Z</time>
      </trkpt>
      <trkpt lat="44.848" lon="5.79824">
        <ele>864</ele>
        <time>2009-01-29T14:36:51Z</time>
      </trkpt>
      <trkpt lat="44.84815" lon="5.79927">
        <ele>866</ele>
        <time>2009-01-29T14:36:51Z</time>
      </trkpt>
      <trkpt lat="44.84791" lon="5.79976">
        <ele>867</ele>
        <time>2009-01-29T14:36:51Z</time>
      </trkpt>
      <trkpt lat="44.84841" lon="5.80105">
        <ele>871</ele>
        <time>2009-01-29T14:36:51Z</time>
      </trkpt>
    </trkseg>
  </trk>
  <trk>
    <name><![CDATA[Treminis-Chichilianne]]></name>
    <trkseg>
      <trkpt lat="44.74744" lon="5.76932">
        <ele>952</ele>
      </trkpt>
      <trkpt lat="44.74707" lon="5.76895">
        <ele>945</ele>
      </trkpt>
      <trkpt lat="44.74674" lon="5.76883">
        <ele>939</ele>
      </trkpt>
      <trkpt lat="44.74616" lon="5.76848">
        <ele>933</ele>
      </trkpt>
      <trkpt lat="44.74597" lon="5.76819">
        <ele>930</ele>
      </trkpt>
      <trkpt lat="44.74586" lon="5.76808">
        <ele>928</ele>
      </trkpt>
      <trkpt lat="44.74528" lon="5.76808">
        <ele>923</ele>
      </trkpt>
      <trkpt lat="44.74498" lon="5.76822">
        <ele>922</ele>
      </trkpt>
      <trkpt lat="44.74511" lon="5.76775">
        <ele>919</ele>
      </trkpt>
      <trkpt lat="44.74516" lon="5.76605">
        <ele>912</ele>
      </trkpt>
      <trkpt lat="44.74525" lon="5.76536">
        <ele>907</ele>
      </trkpt>
      <trkpt lat="44.74539" lon="5.7636">
        <ele>896</ele>
      </trkpt>
      <trkpt lat="44.74567" lon="5.76261">
        <ele>892</ele>
      </trkpt>
      <trkpt lat="44.74552" lon="5.76232">
        <ele>891</ele>
      </trkpt>
      <trkpt lat="44.74527" lon="5.76189">
        <ele>889</ele>
      </trkpt>
      <trkpt lat="44.74529" lon="5.7612">
        <ele>886</ele>
      </trkpt>
      <trkpt lat="44.74497" lon="5.76042">
        <ele>880</ele>
      </trkpt>
      <trkpt lat="44.74488" lon="5.75981">
        <ele>878</ele>
      </trkpt>
      <trkpt lat="44.74444" lon="5.75878">
        <ele>874</ele>
      </trkpt>
      <trkpt lat="44.7446" lon="5.75784">
        <ele>878</ele>
      </trkpt>
      <trkpt lat="44.74434" lon="5.75754">
        <ele>874</ele>
      </trkpt>
      <trkpt lat="44.74399" lon="5.75673">
        <ele>867</ele>
      </trkpt>
      <trkpt lat="44.7438" lon="5.75618">
        <ele>864</ele>
      </trkpt>
      <trkpt lat="44.74368" lon="5.75491">
        <ele>859</ele>
      </trkpt>
      <trkpt lat="44.74402" lon="5.75411">
        <ele>854</ele>
      </trkpt>
      <trkpt lat="44.74435" lon="5.75375">
        <ele>852</ele>
      </trkpt>
      <trkpt lat="44.74448" lon="5.75379">
        <ele>853</ele>
      </trkpt>
      <trkpt lat="44.74485" lon="5.75368">
        <ele>855</ele>
      </trkpt>
      <trkpt lat="44.74505" lon="5.7536">
        <ele>856</ele>
      </trkpt>
      <trkpt lat="44.7455" lon="5.75379">
        <ele>862</ele>
      </trkpt>
      <trkpt lat="44.74581" lon="5.75371">
        <ele>865</ele>
      </trkpt>
      <trkpt lat="44.74599" lon="5.75322">
        <ele>862</ele>
      </trkpt>
      <trkpt lat="44.74616" lon="5.75285">
        <ele>860</ele>
      </trkpt>
      <trkpt lat="44.74653" lon="5.75243">
        <ele>859</ele>
      </trkpt>
      <trkpt lat="44.74677" lon="5.75184">
        <ele>854</ele>
      </trkpt>
      <trkpt lat="44.74699" lon="5.75129">
        <ele>846</ele>
      </trkpt>
      <trkpt lat="44.74777" lon="5.75004">
        <ele>841</ele>
      </trkpt>
      <trkpt lat="44.74848" lon="5.74898">
        <ele>843</ele>
      </trkpt>
      <trkpt lat="44.74917" lon="5.74782">
        <ele>842</ele>
      </trkpt>
      <trkpt lat="44.74941" lon="5.74733">
        <ele>841</ele>
      </trkpt>
      <trkpt lat="44.74986" lon="5.74669">
        <ele>842</ele>
      </trkpt>
      <trkpt lat="44.75013" lon="5.74602">
        <ele>835</ele>
      </trkpt>
      <trkpt lat="44.75065" lon="5.74513">
        <ele>830</ele>
      </trkpt>
      <trkpt lat="44.75125" lon="5.74463">
        <ele>832</ele>
      </trkpt>
      <trkpt lat="44.75196" lon="5.74332">
        <ele>819</ele>
      </trkpt>
      <trkpt lat="44.75251" lon="5.7424">
        <ele>814</ele>
      </trkpt>
      <trkpt lat="44.75298" lon="5.74189">
        <ele>813</ele>
      </trkpt>
      <trkpt lat="44.75404" lon="5.74085">
        <ele>808</ele>
      </trkpt>
      <trkpt lat="44.75484" lon="5.73986">
        <ele>804</ele>
      </trkpt>
      <trkpt lat="44.75536" lon="5.7391">
        <ele>797</ele>
      </trkpt>
      <trkpt lat="44.75568" lon="5.73896">
        <ele>798</ele>
      </trkpt>
      <trkpt lat="44.75612" lon="5.73858">
        <ele>796</ele>
      </trkpt>
      <trkpt lat="44.75681" lon="5.73783">
        <ele>793</ele>
      </trkpt>
      <trkpt lat="44.75701" lon="5.73791">
        <ele>795</ele>
      </trkpt>
      <trkpt lat="44.7574" lon="5.73774">
        <ele>797</ele>
      </trkpt>
      <trkpt lat="44.75771" lon="5.73725">
        <ele>794</ele>
      </trkpt>
      <trkpt lat="44.75798" lon="5.73721">
        <ele>796</ele>
      </trkpt>
      <trkpt lat="44.75841" lon="5.73704">
        <ele>799</ele>
      </trkpt>
      <trkpt lat="44.75847" lon="5.7373">
        <ele>803</ele>
      </trkpt>
      <trkpt lat="44.75879" lon="5.73729">
        <ele>808</ele>
      </trkpt>
      <trkpt lat="44.75921" lon="5.73684">
        <ele>806</ele>
      </trkpt>
      <trkpt lat="44.75949" lon="5.73657">
        <ele>802</ele>
      </trkpt>
      <trkpt lat="44.75997" lon="5.73685">
        <ele>803</ele>
      </trkpt>
      <trkpt lat="44.75968" lon="5.73608">
        <ele>800</ele>
      </trkpt>
      <trkpt lat="44.75974" lon="5.73561">
        <ele>801</ele>
      </trkpt>
      <trkpt lat="44.76004" lon="5.73481">
        <ele>805</ele>
      </trkpt>
      <trkpt lat="44.76022" lon="5.734">
        <ele>800</ele>
      </trkpt>
      <trkpt lat="44.7605" lon="5.73363">
        <ele>808</ele>
      </trkpt>
      <trkpt lat="44.76076" lon="5.73333">
        <ele>815</ele>
      </trkpt>
      <trkpt lat="44.76068" lon="5.73304">
        <ele>806</ele>
      </trkpt>
      <trkpt lat="44.76078" lon="5.73264">
        <ele>800</ele>
      </trkpt>
      <trkpt lat="44.76133" lon="5.73163">
        <ele>798</ele>
      </trkpt>
      <trkpt lat="44.76173" lon="5.73109">
        <ele>801</ele>
      </trkpt>
      <trkpt lat="44.76222" lon="5.73033">
        <ele>800</ele>
      </trkpt>
      <trkpt lat="44.76208" lon="5.72997">
        <ele>786</ele>
      </trkpt>
      <trkpt lat="44.76184" lon="5.72967">
        <ele>776</ele>
      </trkpt>
      <trkpt lat="44.76203" lon="5.72933">
        <ele>774</ele>
      </trkpt>
      <trkpt lat="44.76233" lon="5.72907">
        <ele>776</ele>
      </trkpt>
      <trkpt lat="44.76256" lon="5.72877">
        <ele>774</ele>
      </trkpt>
      <trkpt lat="44.7631" lon="5.72807">
        <ele>775</ele>
      </trkpt>
      <trkpt lat="44.76385" lon="5.72708">
        <ele>770</ele>
      </trkpt>
      <trkpt lat="44.76449" lon="5.72623">
        <ele>776</ele>
      </trkpt>
      <trkpt lat="44.76485" lon="5.72524">
        <ele>766</ele>
      </trkpt>
      <trkpt lat="44.76455" lon="5.725">
        <ele>760</ele>
      </trkpt>
      <trkpt lat="44.76401" lon="5.72427">
        <ele>756</ele>
      </trkpt>
      <trkpt lat="44.76449" lon="5.72332">
        <ele>757</ele>
      </trkpt>
      <trkpt lat="44.76449" lon="5.72244">
        <ele>766</ele>
      </trkpt>
      <trkpt lat="44.76486" lon="5.72139">
        <ele>772</ele>
      </trkpt>
      <trkpt lat="44.76529" lon="5.72069">
        <ele>775</ele>
      </trkpt>
      <trkpt lat="44.76592" lon="5.71984">
        <ele>769</ele>
      </trkpt>
      <trkpt lat="44.76615" lon="5.719">
        <ele>773</ele>
      </trkpt>
      <trkpt lat="44.76625" lon="5.718">
        <ele>778</ele>
      </trkpt>
      <trkpt lat="44.76649" lon="5.71735">
        <ele>778</ele>
      </trkpt>
      <trkpt lat="44.76693" lon="5.71643">
        <ele>773</ele>
      </trkpt>
      <trkpt lat="44.76708" lon="5.71574">
        <ele>774</ele>
      </trkpt>
      <trkpt lat="44.76718" lon="5.71467">
        <ele>782</ele>
      </trkpt>
      <trkpt lat="44.76732" lon="5.71399">
        <ele>784</ele>
      </trkpt>
      <trkpt lat="44.76754" lon="5.71334">
        <ele>785</ele>
      </trkpt>
      <trkpt lat="44.76755" lon="5.71217">
        <ele>795</ele>
      </trkpt>
      <trkpt lat="44.76767" lon="5.71138">
        <ele>797</ele>
      </trkpt>
      <trkpt lat="44.76781" lon="5.71045">
        <ele>798</ele>
      </trkpt>
      <trkpt lat="44.76782" lon="5.70912">
        <ele>803</ele>
      </trkpt>
      <trkpt lat="44.76789" lon="5.70849">
        <ele>805</ele>
      </trkpt>
      <trkpt lat="44.76813" lon="5.70784">
        <ele>801</ele>
      </trkpt>
      <trkpt lat="44.76921" lon="5.705">
        <ele>796</ele>
      </trkpt>
      <trkpt lat="44.76933" lon="5.7039">
        <ele>797</ele>
      </trkpt>
      <trkpt lat="44.76922" lon="5.70263">
        <ele>798</ele>
      </trkpt>
      <trkpt lat="44.76912" lon="5.70206">
        <ele>799</ele>
      </trkpt>
      <trkpt lat="44.76928" lon="5.70188">
        <ele>797</ele>
      </trkpt>
      <trkpt lat="44.76929" lon="5.70169">
        <ele>796</ele>
      </trkpt>
      <trkpt lat="44.76941" lon="5.70151">
        <ele>794</ele>
      </trkpt>
      <trkpt lat="44.76955" lon="5.70117">
        <ele>791</ele>
      </trkpt>
      <trkpt lat="44.76979" lon="5.70093">
        <ele>788</ele>
      </trkpt>
      <trkpt lat="44.77002" lon="5.70072">
        <ele>784</ele>
      </trkpt>
      <trkpt lat="44.77009" lon="5.70047">
        <ele>783</ele>
      </trkpt>
      <trkpt lat="44.77009" lon="5.70047">
        <ele>783</ele>
      </trkpt>
      <trkpt lat="44.77025" lon="5.6996">
        <ele>780</ele>
      </trkpt>
      <trkpt lat="44.77063" lon="5.69893">
        <ele>777</ele>
      </trkpt>
      <trkpt lat="44.7708" lon="5.69792">
        <ele>774</ele>
      </trkpt>
      <trkpt lat="44.77094" lon="5.69781">
        <ele>773</ele>
      </trkpt>
      <trkpt lat="44.77138" lon="5.69799">
        <ele>772</ele>
      </trkpt>
      <trkpt lat="44.77159" lon="5.69781">
        <ele>770</ele>
      </trkpt>
      <trkpt lat="44.77185" lon="5.69739">
        <ele>768</ele>
      </trkpt>
      <trkpt lat="44.77184" lon="5.6971">
        <ele>767</ele>
      </trkpt>
      <trkpt lat="44.77078" lon="5.69631">
        <ele>760</ele>
      </trkpt>
      <trkpt lat="44.77049" lon="5.69639">
        <ele>763</ele>
      </trkpt>
      <trkpt lat="44.76995" lon="5.6962">
        <ele>763</ele>
      </trkpt>
      <trkpt lat="44.76976" lon="5.69587">
        <ele>758</ele>
      </trkpt>
      <trkpt lat="44.76997" lon="5.69576">
        <ele>755</ele>
      </trkpt>
      <trkpt lat="44.77039" lon="5.69578">
        <ele>754</ele>
      </trkpt>
      <trkpt lat="44.77051" lon="5.6957">
        <ele>752</ele>
      </trkpt>
      <trkpt lat="44.77004" lon="5.69535">
        <ele>748</ele>
      </trkpt>
      <trkpt lat="44.7694" lon="5.69503">
        <ele>745</ele>
      </trkpt>
      <trkpt lat="44.76871" lon="5.6948">
        <ele>745</ele>
      </trkpt>
      <trkpt lat="44.76797" lon="5.69478">
        <ele>752</ele>
      </trkpt>
      <trkpt lat="44.76732" lon="5.69452">
        <ele>744</ele>
      </trkpt>
      <trkpt lat="44.76667" lon="5.69458">
        <ele>746</ele>
      </trkpt>
      <trkpt lat="44.76611" lon="5.69436">
        <ele>748</ele>
      </trkpt>
      <trkpt lat="44.76549" lon="5.69407">
        <ele>751</ele>
      </trkpt>
      <trkpt lat="44.7653" lon="5.69374">
        <ele>749</ele>
      </trkpt>
      <trkpt lat="44.76548" lon="5.69366">
        <ele>747</ele>
      </trkpt>
      <trkpt lat="44.76609" lon="5.69372">
        <ele>741</ele>
      </trkpt>
      <trkpt lat="44.7664" lon="5.69371">
        <ele>736</ele>
      </trkpt>
      <trkpt lat="44.76684" lon="5.69342">
        <ele>731</ele>
      </trkpt>
      <trkpt lat="44.76728" lon="5.69304">
        <ele>730</ele>
      </trkpt>
      <trkpt lat="44.76757" lon="5.69296">
        <ele>730</ele>
      </trkpt>
      <trkpt lat="44.76789" lon="5.69307">
        <ele>725</ele>
      </trkpt>
      <trkpt lat="44.76785" lon="5.69288">
        <ele>731</ele>
      </trkpt>
      <trkpt lat="44.76743" lon="5.69267">
        <ele>740</ele>
      </trkpt>
      <trkpt lat="44.76681" lon="5.69288">
        <ele>740</ele>
      </trkpt>
      <trkpt lat="44.76646" lon="5.69277">
        <ele>749</ele>
      </trkpt>
      <trkpt lat="44.76678" lon="5.6925">
        <ele>752</ele>
      </trkpt>
      <trkpt lat="44.76775" lon="5.69174">
        <ele>763</ele>
      </trkpt>
      <trkpt lat="44.76833" lon="5.69105">
        <ele>770</ele>
      </trkpt>
      <trkpt lat="44.76865" lon="5.69081">
        <ele>774</ele>
      </trkpt>
      <trkpt lat="44.76899" lon="5.69077">
        <ele>776</ele>
      </trkpt>
      <trkpt lat="44.76941" lon="5.69114">
        <ele>769</ele>
      </trkpt>
      <trkpt lat="44.76972" lon="5.69129">
        <ele>768</ele>
      </trkpt>
      <trkpt lat="44.77001" lon="5.69121">
        <ele>770</ele>
      </trkpt>
      <trkpt lat="44.7689" lon="5.68922">
        <ele>796</ele>
      </trkpt>
      <trkpt lat="44.76874" lon="5.68955">
        <ele>796</ele>
      </trkpt>
      <trkpt lat="44.76833" lon="5.6895">
        <ele>801</ele>
      </trkpt>
      <trkpt lat="44.76832" lon="5.68855">
        <ele>812</ele>
      </trkpt>
      <trkpt lat="44.76804" lon="5.68727">
        <ele>822</ele>
      </trkpt>
      <trkpt lat="44.76763" lon="5.68611">
        <ele>833</ele>
      </trkpt>
      <trkpt lat="44.76725" lon="5.68511">
        <ele>837</ele>
      </trkpt>
      <trkpt lat="44.76648" lon="5.68465">
        <ele>841</ele>
      </trkpt>
      <trkpt lat="44.76569" lon="5.68388">
        <ele>840</ele>
      </trkpt>
      <trkpt lat="44.76518" lon="5.6823">
        <ele>843</ele>
      </trkpt>
      <trkpt lat="44.76546" lon="5.68114">
        <ele>840</ele>
      </trkpt>
      <trkpt lat="44.76508" lon="5.68084">
        <ele>844</ele>
      </trkpt>
      <trkpt lat="44.7645" lon="5.67853">
        <ele>843</ele>
      </trkpt>
      <trkpt lat="44.76508" lon="5.67888">
        <ele>838</ele>
      </trkpt>
      <trkpt lat="44.76438" lon="5.67751">
        <ele>844</ele>
      </trkpt>
      <trkpt lat="44.76424" lon="5.67545">
        <ele>869</ele>
      </trkpt>
      <trkpt lat="44.76395" lon="5.67363">
        <ele>875</ele>
      </trkpt>
      <trkpt lat="44.76373" lon="5.67283">
        <ele>863</ele>
      </trkpt>
      <trkpt lat="44.76336" lon="5.67236">
        <ele>857</ele>
      </trkpt>
      <trkpt lat="44.7636" lon="5.67197">
        <ele>857</ele>
      </trkpt>
      <trkpt lat="44.7636" lon="5.6713">
        <ele>853</ele>
      </trkpt>
      <trkpt lat="44.763" lon="5.66953">
        <ele>842</ele>
      </trkpt>
      <trkpt lat="44.76285" lon="5.66753">
        <ele>836</ele>
      </trkpt>
      <trkpt lat="44.76294" lon="5.66687">
        <ele>836</ele>
      </trkpt>
      <trkpt lat="44.76328" lon="5.66595">
        <ele>836</ele>
      </trkpt>
      <trkpt lat="44.76407" lon="5.66448">
        <ele>839</ele>
      </trkpt>
      <trkpt lat="44.76437" lon="5.66437">
        <ele>836</ele>
      </trkpt>
      <trkpt lat="44.76515" lon="5.66306">
        <ele>833</ele>
      </trkpt>
      <trkpt lat="44.76552" lon="5.66267">
        <ele>830</ele>
      </trkpt>
      <trkpt lat="44.76601" lon="5.66153">
        <ele>840</ele>
      </trkpt>
      <trkpt lat="44.76672" lon="5.6616">
        <ele>847</ele>
      </trkpt>
      <trkpt lat="44.76754" lon="5.66209">
        <ele>851</ele>
      </trkpt>
      <trkpt lat="44.76844" lon="5.66287">
        <ele>849</ele>
      </trkpt>
      <trkpt lat="44.76906" lon="5.6631">
        <ele>846</ele>
      </trkpt>
      <trkpt lat="44.76995" lon="5.6629">
        <ele>850</ele>
      </trkpt>
      <trkpt lat="44.77068" lon="5.66256">
        <ele>856</ele>
      </trkpt>
      <trkpt lat="44.77082" lon="5.66222">
        <ele>860</ele>
      </trkpt>
      <trkpt lat="44.7716" lon="5.66107">
        <ele>868</ele>
      </trkpt>
      <trkpt lat="44.77179" lon="5.66067">
        <ele>869</ele>
      </trkpt>
      <trkpt lat="44.77205" lon="5.65964">
        <ele>874</ele>
      </trkpt>
      <trkpt lat="44.77251" lon="5.65768">
        <ele>888</ele>
      </trkpt>
      <trkpt lat="44.77251" lon="5.65721">
        <ele>892</ele>
      </trkpt>
      <trkpt lat="44.77216" lon="5.65526">
        <ele>901</ele>
      </trkpt>
      <trkpt lat="44.77141" lon="5.65398">
        <ele>909</ele>
      </trkpt>
      <trkpt lat="44.77131" lon="5.6535">
        <ele>910</ele>
      </trkpt>
      <trkpt lat="44.77113" lon="5.65289">
        <ele>912</ele>
      </trkpt>
      <trkpt lat="44.77086" lon="5.65287">
        <ele>916</ele>
      </trkpt>
      <trkpt lat="44.77008" lon="5.65397">
        <ele>924</ele>
      </trkpt>
      <trkpt lat="44.76895" lon="5.65494">
        <ele>932</ele>
      </trkpt>
      <trkpt lat="44.76875" lon="5.6549">
        <ele>934</ele>
      </trkpt>
      <trkpt lat="44.76851" lon="5.65447">
        <ele>939</ele>
      </trkpt>
      <trkpt lat="44.7688" lon="5.65171">
        <ele>947</ele>
      </trkpt>
      <trkpt lat="44.76895" lon="5.65125">
        <ele>948</ele>
      </trkpt>
      <trkpt lat="44.76887" lon="5.65086">
        <ele>951</ele>
      </trkpt>
      <trkpt lat="44.76904" lon="5.64958">
        <ele>956</ele>
      </trkpt>
      <trkpt lat="44.76941" lon="5.64865">
        <ele>956</ele>
      </trkpt>
      <trkpt lat="44.76952" lon="5.64711">
        <ele>964</ele>
      </trkpt>
      <trkpt lat="44.7698" lon="5.64624">
        <ele>964</ele>
      </trkpt>
      <trkpt lat="44.76975" lon="5.64564">
        <ele>970</ele>
      </trkpt>
      <trkpt lat="44.76999" lon="5.64511">
        <ele>972</ele>
      </trkpt>
      <trkpt lat="44.77034" lon="5.64469">
        <ele>972</ele>
      </trkpt>
      <trkpt lat="44.7707" lon="5.64459">
        <ele>968</ele>
      </trkpt>
      <trkpt lat="44.77108" lon="5.6448">
        <ele>961</ele>
      </trkpt>
      <trkpt lat="44.77158" lon="5.64448">
        <ele>960</ele>
      </trkpt>
      <trkpt lat="44.77218" lon="5.64398">
        <ele>961</ele>
      </trkpt>
      <trkpt lat="44.77271" lon="5.64376">
        <ele>957</ele>
      </trkpt>
      <trkpt lat="44.77352" lon="5.64359">
        <ele>950</ele>
      </trkpt>
      <trkpt lat="44.77426" lon="5.64306">
        <ele>941</ele>
      </trkpt>
      <trkpt lat="44.7744" lon="5.64275">
        <ele>940</ele>
      </trkpt>
      <trkpt lat="44.77426" lon="5.6406">
        <ele>933</ele>
      </trkpt>
      <trkpt lat="44.77526" lon="5.64195">
        <ele>914</ele>
      </trkpt>
      <trkpt lat="44.77553" lon="5.64206">
        <ele>906</ele>
      </trkpt>
      <trkpt lat="44.77512" lon="5.64128">
        <ele>910</ele>
      </trkpt>
      <trkpt lat="44.77459" lon="5.63945">
        <ele>905</ele>
      </trkpt>
      <trkpt lat="44.7745" lon="5.63862">
        <ele>901</ele>
      </trkpt>
      <trkpt lat="44.7746" lon="5.63847">
        <ele>901</ele>
      </trkpt>
      <trkpt lat="44.7753" lon="5.63898">
        <ele>899</ele>
      </trkpt>
      <trkpt lat="44.7758" lon="5.63968">
        <ele>897</ele>
      </trkpt>
      <trkpt lat="44.77913" lon="5.64133">
        <ele>898</ele>
      </trkpt>
      <trkpt lat="44.77995" lon="5.64175">
        <ele>898</ele>
      </trkpt>
      <trkpt lat="44.78028" lon="5.6418">
        <ele>897</ele>
      </trkpt>
      <trkpt lat="44.77913" lon="5.6406">
        <ele>906</ele>
      </trkpt>
      <trkpt lat="44.77883" lon="5.63989">
        <ele>916</ele>
      </trkpt>
      <trkpt lat="44.77885" lon="5.63919">
        <ele>922</ele>
      </trkpt>
      <trkpt lat="44.77927" lon="5.6365">
        <ele>930</ele>
      </trkpt>
      <trkpt lat="44.7789" lon="5.63626">
        <ele>936</ele>
      </trkpt>
      <trkpt lat="44.77864" lon="5.63583">
        <ele>941</ele>
      </trkpt>
      <trkpt lat="44.77881" lon="5.63527">
        <ele>942</ele>
      </trkpt>
      <trkpt lat="44.77895" lon="5.63452">
        <ele>944</ele>
      </trkpt>
      <trkpt lat="44.77897" lon="5.63376">
        <ele>947</ele>
      </trkpt>
      <trkpt lat="44.7789" lon="5.63307">
        <ele>950</ele>
      </trkpt>
      <trkpt lat="44.77867" lon="5.63236">
        <ele>955</ele>
      </trkpt>
      <trkpt lat="44.77858" lon="5.63172">
        <ele>958</ele>
      </trkpt>
      <trkpt lat="44.77838" lon="5.63108">
        <ele>961</ele>
      </trkpt>
      <trkpt lat="44.7783" lon="5.6305">
        <ele>963</ele>
      </trkpt>
      <trkpt lat="44.77814" lon="5.63052">
        <ele>965</ele>
      </trkpt>
      <trkpt lat="44.77797" lon="5.63029">
        <ele>972</ele>
      </trkpt>
      <trkpt lat="44.77779" lon="5.63035">
        <ele>975</ele>
      </trkpt>
      <trkpt lat="44.77759" lon="5.6303">
        <ele>980</ele>
      </trkpt>
      <trkpt lat="44.77748" lon="5.63001">
        <ele>983</ele>
      </trkpt>
      <trkpt lat="44.77758" lon="5.6298">
        <ele>984</ele>
      </trkpt>
      <trkpt lat="44.77788" lon="5.62953">
        <ele>985</ele>
      </trkpt>
      <trkpt lat="44.7785" lon="5.62922">
        <ele>984</ele>
      </trkpt>
      <trkpt lat="44.77876" lon="5.62879">
        <ele>989</ele>
      </trkpt>
      <trkpt lat="44.77935" lon="5.62693">
        <ele>1011</ele>
      </trkpt>
      <trkpt lat="44.7794" lon="5.62548">
        <ele>1028</ele>
      </trkpt>
      <trkpt lat="44.77919" lon="5.62502">
        <ele>1036</ele>
      </trkpt>
      <trkpt lat="44.77873" lon="5.6244">
        <ele>1050</ele>
      </trkpt>
      <trkpt lat="44.77874" lon="5.62402">
        <ele>1054</ele>
      </trkpt>
      <trkpt lat="44.77894" lon="5.62359">
        <ele>1059</ele>
      </trkpt>
      <trkpt lat="44.77916" lon="5.62272">
        <ele>1075</ele>
      </trkpt>
      <trkpt lat="44.77925" lon="5.62209">
        <ele>1078</ele>
      </trkpt>
      <trkpt lat="44.77916" lon="5.62136">
        <ele>1089</ele>
      </trkpt>
      <trkpt lat="44.77919" lon="5.62044">
        <ele>1103</ele>
      </trkpt>
      <trkpt lat="44.77905" lon="5.61965">
        <ele>1126</ele>
      </trkpt>
      <trkpt lat="44.7784" lon="5.61882">
        <ele>1149</ele>
      </trkpt>
      <trkpt lat="44.77789" lon="5.6185">
        <ele>1158</ele>
      </trkpt>
      <trkpt lat="44.77709" lon="5.61823">
        <ele>1173</ele>
      </trkpt>
      <trkpt lat="44.77641" lon="5.61772">
        <ele>1177</ele>
      </trkpt>
      <trkpt lat="44.77595" lon="5.61735">
        <ele>1183</ele>
      </trkpt>
      <trkpt lat="44.77576" lon="5.61696">
        <ele>1175</ele>
      </trkpt>
      <trkpt lat="44.77555" lon="5.61628">
        <ele>1157</ele>
      </trkpt>
      <trkpt lat="44.77496" lon="5.61593">
        <ele>1172</ele>
      </trkpt>
      <trkpt lat="44.77441" lon="5.61549">
        <ele>1174</ele>
      </trkpt>
      <trkpt lat="44.77365" lon="5.61427">
        <ele>1154</ele>
      </trkpt>
      <trkpt lat="44.77285" lon="5.61337">
        <ele>1160</ele>
      </trkpt>
      <trkpt lat="44.77213" lon="5.61267">
        <ele>1165</ele>
      </trkpt>
      <trkpt lat="44.77231" lon="5.61179">
        <ele>1147</ele>
      </trkpt>
      <trkpt lat="44.77228" lon="5.61116">
        <ele>1159</ele>
      </trkpt>
      <trkpt lat="44.77247" lon="5.61089">
        <ele>1152</ele>
      </trkpt>
      <trkpt lat="44.77254" lon="5.61013">
        <ele>1150</ele>
      </trkpt>
      <trkpt lat="44.7724" lon="5.60959">
        <ele>1147</ele>
      </trkpt>
      <trkpt lat="44.77205" lon="5.60922">
        <ele>1146</ele>
      </trkpt>
      <trkpt lat="44.7716" lon="5.60837">
        <ele>1140</ele>
      </trkpt>
      <trkpt lat="44.77156" lon="5.60758">
        <ele>1128</ele>
      </trkpt>
      <trkpt lat="44.77135" lon="5.60716">
        <ele>1125</ele>
      </trkpt>
      <trkpt lat="44.77127" lon="5.60671">
        <ele>1119</ele>
      </trkpt>
      <trkpt lat="44.77157" lon="5.60638">
        <ele>1111</ele>
      </trkpt>
      <trkpt lat="44.77178" lon="5.60544">
        <ele>1098</ele>
      </trkpt>
      <trkpt lat="44.77208" lon="5.60524">
        <ele>1091</ele>
      </trkpt>
      <trkpt lat="44.77258" lon="5.60499">
        <ele>1072</ele>
      </trkpt>
      <trkpt lat="44.77201" lon="5.60441">
        <ele>1080</ele>
      </trkpt>
      <trkpt lat="44.77191" lon="5.60409">
        <ele>1077</ele>
      </trkpt>
      <trkpt lat="44.77086" lon="5.60372">
        <ele>1086</ele>
      </trkpt>
      <trkpt lat="44.77022" lon="5.60324">
        <ele>1084</ele>
      </trkpt>
      <trkpt lat="44.77032" lon="5.60299">
        <ele>1080</ele>
      </trkpt>
      <trkpt lat="44.77091" lon="5.6029">
        <ele>1079</ele>
      </trkpt>
      <trkpt lat="44.77123" lon="5.60285">
        <ele>1081</ele>
      </trkpt>
      <trkpt lat="44.77172" lon="5.60282">
        <ele>1083</ele>
      </trkpt>
      <trkpt lat="44.77206" lon="5.60274">
        <ele>1090</ele>
      </trkpt>
      <trkpt lat="44.77275" lon="5.60291">
        <ele>1091</ele>
      </trkpt>
      <trkpt lat="44.7732" lon="5.603">
        <ele>1088</ele>
      </trkpt>
      <trkpt lat="44.77355" lon="5.60274">
        <ele>1091</ele>
      </trkpt>
      <trkpt lat="44.77341" lon="5.60216">
        <ele>1102</ele>
      </trkpt>
      <trkpt lat="44.77345" lon="5.60147">
        <ele>1108</ele>
      </trkpt>
      <trkpt lat="44.77337" lon="5.60099">
        <ele>1110</ele>
      </trkpt>
      <trkpt lat="44.77307" lon="5.60072">
        <ele>1112</ele>
      </trkpt>
      <trkpt lat="44.77271" lon="5.60044">
        <ele>1113</ele>
      </trkpt>
      <trkpt lat="44.77284" lon="5.60017">
        <ele>1116</ele>
      </trkpt>
      <trkpt lat="44.7731" lon="5.60021">
        <ele>1114</ele>
      </trkpt>
      <trkpt lat="44.77347" lon="5.59986">
        <ele>1122</ele>
      </trkpt>
      <trkpt lat="44.77383" lon="5.60013">
        <ele>1126</ele>
      </trkpt>
      <trkpt lat="44.7741" lon="5.60002">
        <ele>1137</ele>
      </trkpt>
      <trkpt lat="44.77391" lon="5.59947">
        <ele>1136</ele>
      </trkpt>
      <trkpt lat="44.77377" lon="5.59902">
        <ele>1137</ele>
      </trkpt>
      <trkpt lat="44.77389" lon="5.5989">
        <ele>1140</ele>
      </trkpt>
      <trkpt lat="44.77422" lon="5.59911">
        <ele>1147</ele>
      </trkpt>
      <trkpt lat="44.7744" lon="5.59906">
        <ele>1152</ele>
      </trkpt>
      <trkpt lat="44.77445" lon="5.59884">
        <ele>1153</ele>
      </trkpt>
      <trkpt lat="44.77414" lon="5.5986">
        <ele>1147</ele>
      </trkpt>
      <trkpt lat="44.77395" lon="5.59824">
        <ele>1147</ele>
      </trkpt>
      <trkpt lat="44.77376" lon="5.59791">
        <ele>1148</ele>
      </trkpt>
      <trkpt lat="44.77345" lon="5.59777">
        <ele>1145</ele>
      </trkpt>
      <trkpt lat="44.7735" lon="5.5973">
        <ele>1150</ele>
      </trkpt>
      <trkpt lat="44.77369" lon="5.59715">
        <ele>1154</ele>
      </trkpt>
      <trkpt lat="44.77391" lon="5.59735">
        <ele>1155</ele>
      </trkpt>
      <trkpt lat="44.77415" lon="5.5974">
        <ele>1158</ele>
      </trkpt>
      <trkpt lat="44.77423" lon="5.59712">
        <ele>1164</ele>
      </trkpt>
      <trkpt lat="44.77386" lon="5.59675">
        <ele>1162</ele>
      </trkpt>
      <trkpt lat="44.77328" lon="5.59656">
        <ele>1158</ele>
      </trkpt>
      <trkpt lat="44.77315" lon="5.5962">
        <ele>1162</ele>
      </trkpt>
      <trkpt lat="44.77331" lon="5.59615">
        <ele>1165</ele>
      </trkpt>
      <trkpt lat="44.77381" lon="5.59605">
        <ele>1172</ele>
      </trkpt>
      <trkpt lat="44.77428" lon="5.59614">
        <ele>1181</ele>
      </trkpt>
      <trkpt lat="44.77467" lon="5.59664">
        <ele>1186</ele>
      </trkpt>
      <trkpt lat="44.77536" lon="5.59779">
        <ele>1191</ele>
      </trkpt>
      <trkpt lat="44.77587" lon="5.59807">
        <ele>1184</ele>
      </trkpt>
      <trkpt lat="44.77581" lon="5.59769">
        <ele>1191</ele>
      </trkpt>
      <trkpt lat="44.77564" lon="5.59723">
        <ele>1201</ele>
      </trkpt>
      <trkpt lat="44.77565" lon="5.59392">
        <ele>1251</ele>
      </trkpt>
      <trkpt lat="44.77585" lon="5.59326">
        <ele>1254</ele>
      </trkpt>
      <trkpt lat="44.77622" lon="5.593">
        <ele>1246</ele>
      </trkpt>
      <trkpt lat="44.77619" lon="5.59249">
        <ele>1246</ele>
      </trkpt>
      <trkpt lat="44.77599" lon="5.59176">
        <ele>1257</ele>
      </trkpt>
      <trkpt lat="44.77607" lon="5.59119">
        <ele>1259</ele>
      </trkpt>
      <trkpt lat="44.77629" lon="5.5913">
        <ele>1253</ele>
      </trkpt>
      <trkpt lat="44.77651" lon="5.59141">
        <ele>1246</ele>
      </trkpt>
      <trkpt lat="44.77657" lon="5.59113">
        <ele>1248</ele>
      </trkpt>
      <trkpt lat="44.77658" lon="5.59081">
        <ele>1250</ele>
      </trkpt>
      <trkpt lat="44.77679" lon="5.59054">
        <ele>1254</ele>
      </trkpt>
      <trkpt lat="44.77743" lon="5.59086">
        <ele>1253</ele>
      </trkpt>
      <trkpt lat="44.77775" lon="5.59161">
        <ele>1238</ele>
      </trkpt>
      <trkpt lat="44.77797" lon="5.59171">
        <ele>1236</ele>
      </trkpt>
      <trkpt lat="44.77818" lon="5.59157">
        <ele>1237</ele>
      </trkpt>
      <trkpt lat="44.7784" lon="5.59155">
        <ele>1233</ele>
      </trkpt>
      <trkpt lat="44.77863" lon="5.59134">
        <ele>1242</ele>
      </trkpt>
      <trkpt lat="44.77879" lon="5.59126">
        <ele>1246</ele>
      </trkpt>
      <trkpt lat="44.77901" lon="5.59139">
        <ele>1251</ele>
      </trkpt>
      <trkpt lat="44.77905" lon="5.59231">
        <ele>1248</ele>
      </trkpt>
      <trkpt lat="44.77897" lon="5.59297">
        <ele>1241</ele>
      </trkpt>
      <trkpt lat="44.77909" lon="5.59323">
        <ele>1242</ele>
      </trkpt>
      <trkpt lat="44.77915" lon="5.59361">
        <ele>1241</ele>
      </trkpt>
      <trkpt lat="44.77915" lon="5.59422">
        <ele>1237</ele>
      </trkpt>
      <trkpt lat="44.77948" lon="5.59604">
        <ele>1210</ele>
      </trkpt>
      <trkpt lat="44.77965" lon="5.59652">
        <ele>1206</ele>
      </trkpt>
      <trkpt lat="44.77983" lon="5.5964">
        <ele>1203</ele>
      </trkpt>
      <trkpt lat="44.78006" lon="5.59556">
        <ele>1205</ele>
      </trkpt>
      <trkpt lat="44.78017" lon="5.59478">
        <ele>1213</ele>
      </trkpt>
      <trkpt lat="44.78055" lon="5.59408">
        <ele>1209</ele>
      </trkpt>
      <trkpt lat="44.78071" lon="5.59352">
        <ele>1220</ele>
      </trkpt>
      <trkpt lat="44.78096" lon="5.59344">
        <ele>1230</ele>
      </trkpt>
      <trkpt lat="44.78099" lon="5.59375">
        <ele>1227</ele>
      </trkpt>
      <trkpt lat="44.78123" lon="5.59472">
        <ele>1224</ele>
      </trkpt>
      <trkpt lat="44.78128" lon="5.59544">
        <ele>1213</ele>
      </trkpt>
      <trkpt lat="44.78145" lon="5.5958">
        <ele>1209</ele>
      </trkpt>
      <trkpt lat="44.78167" lon="5.59588">
        <ele>1202</ele>
      </trkpt>
      <trkpt lat="44.782" lon="5.59558">
        <ele>1202</ele>
      </trkpt>
      <trkpt lat="44.78262" lon="5.59495">
        <ele>1204</ele>
      </trkpt>
      <trkpt lat="44.78306" lon="5.59444">
        <ele>1219</ele>
      </trkpt>
      <trkpt lat="44.78331" lon="5.59452">
        <ele>1227</ele>
      </trkpt>
      <trkpt lat="44.78329" lon="5.59528">
        <ele>1219</ele>
      </trkpt>
      <trkpt lat="44.78331" lon="5.5961">
        <ele>1214</ele>
      </trkpt>
      <trkpt lat="44.78353" lon="5.59684">
        <ele>1206</ele>
      </trkpt>
      <trkpt lat="44.78395" lon="5.59737">
        <ele>1200</ele>
      </trkpt>
      <trkpt lat="44.78445" lon="5.59772">
        <ele>1201</ele>
      </trkpt>
      <trkpt lat="44.78493" lon="5.59825">
        <ele>1198</ele>
      </trkpt>
      <trkpt lat="44.78526" lon="5.59862">
        <ele>1197</ele>
      </trkpt>
      <trkpt lat="44.78536" lon="5.59834">
        <ele>1195</ele>
      </trkpt>
      <trkpt lat="44.78581" lon="5.59821">
        <ele>1188</ele>
      </trkpt>
      <trkpt lat="44.78653" lon="5.59828">
        <ele>1185</ele>
      </trkpt>
      <trkpt lat="44.78715" lon="5.59794">
        <ele>1182</ele>
      </trkpt>
      <trkpt lat="44.78804" lon="5.59676">
        <ele>1172</ele>
      </trkpt>
      <trkpt lat="44.78862" lon="5.59606">
        <ele>1169</ele>
      </trkpt>
      <trkpt lat="44.78888" lon="5.59557">
        <ele>1158</ele>
      </trkpt>
      <trkpt lat="44.78957" lon="5.59501">
        <ele>1150</ele>
      </trkpt>
      <trkpt lat="44.78976" lon="5.59464">
        <ele>1142</ele>
      </trkpt>
      <trkpt lat="44.79014" lon="5.59416">
        <ele>1135</ele>
      </trkpt>
      <trkpt lat="44.79066" lon="5.594">
        <ele>1134</ele>
      </trkpt>
      <trkpt lat="44.79096" lon="5.59392">
        <ele>1133</ele>
      </trkpt>
      <trkpt lat="44.79158" lon="5.59352">
        <ele>1123</ele>
      </trkpt>
      <trkpt lat="44.79249" lon="5.59287">
        <ele>1119</ele>
      </trkpt>
      <trkpt lat="44.79317" lon="5.59209">
        <ele>1104</ele>
      </trkpt>
      <trkpt lat="44.79363" lon="5.59165">
        <ele>1089</ele>
      </trkpt>
      <trkpt lat="44.79392" lon="5.59188">
        <ele>1090</ele>
      </trkpt>
      <trkpt lat="44.79426" lon="5.59187">
        <ele>1089</ele>
      </trkpt>
      <trkpt lat="44.79471" lon="5.59098">
        <ele>1080</ele>
      </trkpt>
      <trkpt lat="44.79495" lon="5.59058">
        <ele>1074</ele>
      </trkpt>
      <trkpt lat="44.79479" lon="5.59054">
        <ele>1071</ele>
      </trkpt>
      <trkpt lat="44.79454" lon="5.59069">
        <ele>1071</ele>
      </trkpt>
      <trkpt lat="44.79438" lon="5.59083">
        <ele>1072</ele>
      </trkpt>
      <trkpt lat="44.79448" lon="5.5903">
        <ele>1062</ele>
      </trkpt>
      <trkpt lat="44.79461" lon="5.58993">
        <ele>1053</ele>
      </trkpt>
      <trkpt lat="44.79448" lon="5.58973">
        <ele>1049</ele>
      </trkpt>
      <trkpt lat="44.79429" lon="5.58938">
        <ele>1043</ele>
      </trkpt>
      <trkpt lat="44.79445" lon="5.58929">
        <ele>1041</ele>
      </trkpt>
      <trkpt lat="44.79506" lon="5.58907">
        <ele>1039</ele>
      </trkpt>
      <trkpt lat="44.79609" lon="5.58856">
        <ele>1037</ele>
      </trkpt>
      <trkpt lat="44.7968" lon="5.58797">
        <ele>1030</ele>
      </trkpt>
      <trkpt lat="44.79791" lon="5.58703">
        <ele>1022</ele>
      </trkpt>
      <trkpt lat="44.79851" lon="5.58649">
        <ele>1017</ele>
      </trkpt>
      <trkpt lat="44.79933" lon="5.58619">
        <ele>1012</ele>
      </trkpt>
      <trkpt lat="44.79963" lon="5.58589">
        <ele>1008</ele>
      </trkpt>
      <trkpt lat="44.80001" lon="5.58531">
        <ele>1008</ele>
      </trkpt>
      <trkpt lat="44.80067" lon="5.58507">
        <ele>1014</ele>
      </trkpt>
      <trkpt lat="44.80108" lon="5.58484">
        <ele>1018</ele>
      </trkpt>
      <trkpt lat="44.80153" lon="5.58401">
        <ele>1009</ele>
      </trkpt>
      <trkpt lat="44.80184" lon="5.58352">
        <ele>1005</ele>
      </trkpt>
      <trkpt lat="44.80225" lon="5.5832">
        <ele>1007</ele>
      </trkpt>
      <trkpt lat="44.80269" lon="5.58282">
        <ele>1008</ele>
      </trkpt>
      <trkpt lat="44.80286" lon="5.58257">
        <ele>1009</ele>
      </trkpt>
      <trkpt lat="44.80288" lon="5.58188">
        <ele>1013</ele>
      </trkpt>
      <trkpt lat="44.80386" lon="5.58156">
        <ele>1014</ele>
      </trkpt>
      <trkpt lat="44.80442" lon="5.58134">
        <ele>1014</ele>
      </trkpt>
      <trkpt lat="44.80537" lon="5.58069">
        <ele>1014</ele>
      </trkpt>
      <trkpt lat="44.80638" lon="5.57981">
        <ele>1013</ele>
      </trkpt>
      <trkpt lat="44.80719" lon="5.57928">
        <ele>1010</ele>
      </trkpt>
      <trkpt lat="44.80842" lon="5.57856">
        <ele>1006</ele>
      </trkpt>
      <trkpt lat="44.80929" lon="5.57805">
        <ele>1003</ele>
      </trkpt>
      <trkpt lat="44.80965" lon="5.57753">
        <ele>1001</ele>
      </trkpt>
      <trkpt lat="44.80984" lon="5.57707">
        <ele>1001</ele>
      </trkpt>
      <trkpt lat="44.81019" lon="5.57661">
        <ele>998</ele>
      </trkpt>
      <trkpt lat="44.81031" lon="5.57624">
        <ele>997</ele>
      </trkpt>
      <trkpt lat="44.8106" lon="5.57502">
        <ele>989</ele>
      </trkpt>
      <trkpt lat="44.81058" lon="5.57401">
        <ele>988</ele>
      </trkpt>
      <trkpt lat="44.8108" lon="5.57355">
        <ele>989</ele>
      </trkpt>
      <trkpt lat="44.81109" lon="5.57281">
        <ele>991</ele>
      </trkpt>
      <trkpt lat="44.81145" lon="5.57264">
        <ele>991</ele>
      </trkpt>
      <trkpt lat="44.81181" lon="5.57282">
        <ele>991</ele>
      </trkpt>
      <trkpt lat="44.81233" lon="5.57278">
        <ele>992</ele>
      </trkpt>
      <trkpt lat="44.81373" lon="5.57255">
        <ele>993</ele>
      </trkpt>
      <trkpt lat="44.81418" lon="5.57245">
        <ele>993</ele>
      </trkpt>
      <trkpt lat="44.81475" lon="5.57235">
        <ele>993</ele>
      </trkpt>
      <trkpt lat="44.81529" lon="5.57216">
        <ele>995</ele>
      </trkpt>
      <trkpt lat="44.81642" lon="5.57141">
        <ele>1001</ele>
      </trkpt>
      <trkpt lat="44.81663" lon="5.5711">
        <ele>1002</ele>
      </trkpt>
      <trkpt lat="44.81701" lon="5.57049">
        <ele>1005</ele>
      </trkpt>
      <trkpt lat="44.8179" lon="5.57083">
        <ele>1013</ele>
      </trkpt>
      <trkpt lat="44.81832" lon="5.57111">
        <ele>1016</ele>
      </trkpt>
      <trkpt lat="44.81846" lon="5.57156">
        <ele>1018</ele>
      </trkpt>
    </trkseg>
  </trk>
  <trk>
    <name><![CDATA[Tresanne-Darne]]></name>
    <trkseg>
      <trkpt lat="44.8299" lon="5.5973">
        <ele>867</ele>
      </trkpt>
      <trkpt lat="44.83022" lon="5.59722">
        <ele>861</ele>
      </trkpt>
      <trkpt lat="44.83039" lon="5.59682">
        <ele>853</ele>
      </trkpt>
      <trkpt lat="44.83043" lon="5.59635">
        <ele>849</ele>
      </trkpt>
      <trkpt lat="44.83028" lon="5.59599">
        <ele>853</ele>
      </trkpt>
      <trkpt lat="44.82999" lon="5.595">
        <ele>850</ele>
      </trkpt>
      <trkpt lat="44.83026" lon="5.59523">
        <ele>844</ele>
      </trkpt>
      <trkpt lat="44.83051" lon="5.59569">
        <ele>843</ele>
      </trkpt>
      <trkpt lat="44.83087" lon="5.59571">
        <ele>821</ele>
      </trkpt>
      <trkpt lat="44.83118" lon="5.59604">
        <ele>807</ele>
      </trkpt>
      <trkpt lat="44.83136" lon="5.59656">
        <ele>801</ele>
      </trkpt>
      <trkpt lat="44.83142" lon="5.59694">
        <ele>802</ele>
      </trkpt>
      <trkpt lat="44.83164" lon="5.59705">
        <ele>796</ele>
      </trkpt>
      <trkpt lat="44.83193" lon="5.59656">
        <ele>794</ele>
      </trkpt>
      <trkpt lat="44.83177" lon="5.59579">
        <ele>789</ele>
      </trkpt>
      <trkpt lat="44.832" lon="5.59492">
        <ele>792</ele>
      </trkpt>
      <trkpt lat="44.83213" lon="5.59439">
        <ele>798</ele>
      </trkpt>
      <trkpt lat="44.83229" lon="5.59415">
        <ele>804</ele>
      </trkpt>
      <trkpt lat="44.83205" lon="5.59319">
        <ele>805</ele>
      </trkpt>
      <trkpt lat="44.83208" lon="5.59202">
        <ele>821</ele>
      </trkpt>
      <trkpt lat="44.83183" lon="5.59131">
        <ele>823</ele>
      </trkpt>
      <trkpt lat="44.83132" lon="5.58954">
        <ele>857</ele>
      </trkpt>
      <trkpt lat="44.83146" lon="5.58891">
        <ele>866</ele>
      </trkpt>
      <trkpt lat="44.83246" lon="5.58761">
        <ele>893</ele>
      </trkpt>
      <trkpt lat="44.83307" lon="5.58679">
        <ele>921</ele>
      </trkpt>
      <trkpt lat="44.83349" lon="5.58543">
        <ele>944</ele>
      </trkpt>
      <trkpt lat="44.83416" lon="5.58404">
        <ele>972</ele>
      </trkpt>
      <trkpt lat="44.83429" lon="5.58348">
        <ele>965</ele>
      </trkpt>
      <trkpt lat="44.83511" lon="5.58327">
        <ele>990</ele>
      </trkpt>
      <trkpt lat="44.83577" lon="5.58287">
        <ele>994</ele>
      </trkpt>
      <trkpt lat="44.83608" lon="5.58257">
        <ele>986</ele>
      </trkpt>
      <trkpt lat="44.8369" lon="5.583">
        <ele>1007</ele>
      </trkpt>
      <trkpt lat="44.83768" lon="5.58308">
        <ele>1012</ele>
      </trkpt>
      <trkpt lat="44.8387" lon="5.58282">
        <ele>1023</ele>
      </trkpt>
      <trkpt lat="44.8391" lon="5.5824">
        <ele>1016</ele>
      </trkpt>
      <trkpt lat="44.83948" lon="5.58242">
        <ele>1018</ele>
      </trkpt>
      <trkpt lat="44.84039" lon="5.58292">
        <ele>1031</ele>
      </trkpt>
      <trkpt lat="44.8407" lon="5.58303">
        <ele>1036</ele>
      </trkpt>
      <trkpt lat="44.84182" lon="5.5824">
        <ele>1024</ele>
      </trkpt>
      <trkpt lat="44.84275" lon="5.58211">
        <ele>1022</ele>
      </trkpt>
      <trkpt lat="44.84347" lon="5.58142">
        <ele>1017</ele>
      </trkpt>
      <trkpt lat="44.84376" lon="5.58065">
        <ele>1010</ele>
      </trkpt>
    </trkseg>
  </trk>
</gpx>